<?xml version="1.0" encoding="UTF-8"?>
<gpx xmlns="http://www.topografix.com/GPX/1/1" version="1.1" creator="Nokia Sports Tracker" xmlns:xsi="http://www.w3.org/2001/XMLSchema-instance" xsi:schemaLocation="http://www.topografix.com/GPX/1/1 http://www.topografix.com/GPX/1/1/gpx.xsd">
<metadata>
<name>25.08.2010 16:35</name>
<desc>Motor on Neue Route</desc>
<author><name>Alexander</name></author>
<time>2010-08-25T16:35:54.98</time>
</metadata>
<trk>
<name>25.08.2010 16:35</name>
<trkseg>
<trkpt lat="49.612257" lon="9.168500">
<ele>100.0</ele>
<speed>0.0</speed>
<course>333.3</course>
<desc>Speed 0.0 km/h Distance 0.00 km</desc>
<time>2010-08-25T16:42:25.49</time>
<name>1</name>
</trkpt>
<trkpt lat="49.613793" lon="9.167307">
<ele>180.5</ele>
<speed>72.7</speed>
<course>17.8</course>
<desc>Speed 72.7 km/h Distance 0.19 km</desc>
<time>2010-08-25T16:42:31.13</time>
<name>2</name>
</trkpt>
<trkpt lat="49.614375" lon="9.167595">
<ele>209.5</ele>
<speed>72.7</speed>
<course>41.9</course>
<desc>Speed 72.7 km/h Distance 0.26 km</desc>
<time>2010-08-25T16:42:34.13</time>
<name>3</name>
</trkpt>
<trkpt lat="49.614497" lon="9.167763">
<ele>220.5</ele>
<speed>72.7</speed>
<course>62.5</course>
<desc>Speed 72.7 km/h Distance 0.28 km</desc>
<time>2010-08-25T16:42:35.12</time>
<name>4</name>
</trkpt>
<trkpt lat="49.614798" lon="9.168658">
<ele>241.0</ele>
<speed>73.0</speed>
<course>41.4</course>
<desc>Speed 73.0 km/h Distance 0.35 km</desc>
<time>2010-08-25T16:42:38.12</time>
<name>5</name>
</trkpt>
<trkpt lat="49.615207" lon="9.169213">
<ele>243.5</ele>
<speed>61.2</speed>
<course>35.1</course>
<desc>Speed 61.2 km/h Distance 0.41 km</desc>
<time>2010-08-25T16:42:42.12</time>
<name>6</name>
</trkpt>
<trkpt lat="49.615498" lon="9.169530">
<ele>244.5</ele>
<speed>56.6</speed>
<course>48.8</course>
<desc>Speed 56.6 km/h Distance 0.45 km</desc>
<time>2010-08-25T16:42:44.11</time>
<name>7</name>
</trkpt>
<trkpt lat="49.615597" lon="9.169703">
<ele>244.0</ele>
<speed>57.5</speed>
<course>44.3</course>
<desc>Speed 57.5 km/h Distance 0.47 km</desc>
<time>2010-08-25T16:42:45.11</time>
<name>8</name>
</trkpt>
<trkpt lat="49.615797" lon="9.170005">
<ele>243.5</ele>
<speed>57.2</speed>
<course>44.9</course>
<desc>Speed 57.2 km/h Distance 0.50 km</desc>
<time>2010-08-25T16:42:47.11</time>
<name>9</name>
</trkpt>
<trkpt lat="49.615908" lon="9.170177">
<ele>244.0</ele>
<speed>56.9</speed>
<course>33.2</course>
<desc>Speed 56.9 km/h Distance 0.52 km</desc>
<time>2010-08-25T16:42:48.11</time>
<name>10</name>
</trkpt>
<trkpt lat="49.616050" lon="9.170320">
<ele>245.0</ele>
<speed>58.9</speed>
<course>38.4</course>
<desc>Speed 58.9 km/h Distance 0.53 km</desc>
<time>2010-08-25T16:42:49.19</time>
<name>11</name>
</trkpt>
<trkpt lat="49.616310" lon="9.170638">
<ele>248.0</ele>
<speed>57.8</speed>
<course>49.3</course>
<desc>Speed 57.8 km/h Distance 0.57 km</desc>
<time>2010-08-25T16:42:51.11</time>
<name>12</name>
</trkpt>
<trkpt lat="49.616408" lon="9.170815">
<ele>248.0</ele>
<speed>58.8</speed>
<course>35.7</course>
<desc>Speed 58.8 km/h Distance 0.59 km</desc>
<time>2010-08-25T16:42:52.10</time>
<name>13</name>
</trkpt>
<trkpt lat="49.616610" lon="9.171038">
<ele>247.5</ele>
<speed>58.8</speed>
<course>47.5</course>
<desc>Speed 58.8 km/h Distance 0.62 km</desc>
<time>2010-08-25T16:42:54.11</time>
<name>14</name>
</trkpt>
<trkpt lat="49.616833" lon="9.171415">
<ele>248.0</ele>
<speed>58.8</speed>
<course>58.9</course>
<desc>Speed 58.8 km/h Distance 0.65 km</desc>
<time>2010-08-25T16:42:58.19</time>
<name>15</name>
</trkpt>
<trkpt lat="49.617003" lon="9.171850">
<ele>229.0</ele>
<speed>58.8</speed>
<course>83.8</course>
<desc>Speed 58.8 km/h Distance 0.69 km</desc>
<time>2010-08-25T16:43:03.10</time>
<name>16</name>
</trkpt>
<trkpt lat="49.617050" lon="9.172517">
<ele>226.0</ele>
<speed>61.9</speed>
<course>77.2</course>
<desc>Speed 61.9 km/h Distance 0.74 km</desc>
<time>2010-08-25T16:43:07.09</time>
<name>17</name>
</trkpt>
<trkpt lat="49.617408" lon="9.174958">
<ele>229.5</ele>
<speed>45.2</speed>
<course>84.0</course>
<desc>Speed 45.2 km/h Distance 0.92 km</desc>
<time>2010-08-25T16:43:13.08</time>
<name>18</name>
</trkpt>
<trkpt lat="49.617437" lon="9.175377">
<ele>230.5</ele>
<speed>45.4</speed>
<course>78.2</course>
<desc>Speed 45.4 km/h Distance 0.95 km</desc>
<time>2010-08-25T16:43:15.08</time>
<name>19</name>
</trkpt>
<trkpt lat="49.617485" lon="9.175733">
<ele>231.0</ele>
<speed>43.4</speed>
<course>65.7</course>
<desc>Speed 43.4 km/h Distance 0.98 km</desc>
<time>2010-08-25T16:43:17.08</time>
<name>20</name>
</trkpt>
<trkpt lat="49.617525" lon="9.175870">
<ele>231.0</ele>
<speed>43.4</speed>
<course>85.3</course>
<desc>Speed 43.4 km/h Distance 0.99 km</desc>
<time>2010-08-25T16:43:18.13</time>
<name>21</name>
</trkpt>
<trkpt lat="49.617540" lon="9.176152">
<ele>231.5</ele>
<speed>43.4</speed>
<course>101.8</course>
<desc>Speed 43.4 km/h Distance 1.01 km</desc>
<time>2010-08-25T16:43:21.08</time>
<name>22</name>
</trkpt>
<trkpt lat="49.617482" lon="9.176582">
<ele>234.0</ele>
<speed>43.4</speed>
<course>47.5</course>
<desc>Speed 43.4 km/h Distance 1.04 km</desc>
<time>2010-08-25T16:43:25.08</time>
<name>23</name>
</trkpt>
<trkpt lat="49.617772" lon="9.177070">
<ele>235.0</ele>
<speed>49.6</speed>
<course>53.8</course>
<desc>Speed 49.6 km/h Distance 1.09 km</desc>
<time>2010-08-25T16:43:28.08</time>
<name>24</name>
</trkpt>
<trkpt lat="49.617835" lon="9.177203">
<ele>238.0</ele>
<speed>49.6</speed>
<course>38.6</course>
<desc>Speed 49.6 km/h Distance 1.10 km</desc>
<time>2010-08-25T16:43:29.07</time>
<name>25</name>
</trkpt>
<trkpt lat="49.618205" lon="9.177660">
<ele>234.0</ele>
<speed>51.5</speed>
<course>37.3</course>
<desc>Speed 51.5 km/h Distance 1.15 km</desc>
<time>2010-08-25T16:43:32.08</time>
<name>26</name>
</trkpt>
<trkpt lat="49.618452" lon="9.177950">
<ele>235.5</ele>
<speed>54.9</speed>
<course>41.0</course>
<desc>Speed 54.9 km/h Distance 1.19 km</desc>
<time>2010-08-25T16:43:34.16</time>
<name>27</name>
</trkpt>
<trkpt lat="49.618860" lon="9.178498">
<ele>235.0</ele>
<speed>55.6</speed>
<course>44.1</course>
<desc>Speed 55.6 km/h Distance 1.25 km</desc>
<time>2010-08-25T16:43:37.06</time>
<name>28</name>
</trkpt>
<trkpt lat="49.619048" lon="9.178780">
<ele>234.0</ele>
<speed>55.6</speed>
<course>47.2</course>
<desc>Speed 55.6 km/h Distance 1.27 km</desc>
<time>2010-08-25T16:43:40.06</time>
<name>29</name>
</trkpt>
<trkpt lat="49.619318" lon="9.179230">
<ele>240.0</ele>
<speed>55.6</speed>
<course>24.1</course>
<desc>Speed 55.6 km/h Distance 1.32 km</desc>
<time>2010-08-25T16:43:44.06</time>
<name>30</name>
</trkpt>
<trkpt lat="49.619458" lon="9.179327">
<ele>242.5</ele>
<speed>55.6</speed>
<course>38.7</course>
<desc>Speed 55.6 km/h Distance 1.34 km</desc>
<time>2010-08-25T16:43:45.06</time>
<name>31</name>
</trkpt>
<trkpt lat="49.619578" lon="9.179475">
<ele>239.0</ele>
<speed>55.6</speed>
<course>37.7</course>
<desc>Speed 55.6 km/h Distance 1.35 km</desc>
<time>2010-08-25T16:43:46.06</time>
<name>32</name>
</trkpt>
<trkpt lat="49.619818" lon="9.179762">
<ele>234.5</ele>
<speed>55.6</speed>
<course>80.4</course>
<desc>Speed 55.6 km/h Distance 1.39 km</desc>
<time>2010-08-25T16:43:48.06</time>
<name>33</name>
</trkpt>
<trkpt lat="49.619918" lon="9.180672">
<ele>230.5</ele>
<speed>77.7</speed>
<course>92.8</course>
<desc>Speed 77.7 km/h Distance 1.45 km</desc>
<time>2010-08-25T16:43:51.16</time>
<name>34</name>
</trkpt>
<trkpt lat="49.619885" lon="9.181742">
<ele>229.5</ele>
<speed>79.5</speed>
<course>96.5</course>
<desc>Speed 79.5 km/h Distance 1.53 km</desc>
<time>2010-08-25T16:43:54.05</time>
<name>35</name>
</trkpt>
<trkpt lat="49.619835" lon="9.182418">
<ele>229.5</ele>
<speed>82.0</speed>
<course>96.0</course>
<desc>Speed 82.0 km/h Distance 1.58 km</desc>
<time>2010-08-25T16:43:56.05</time>
<name>36</name>
</trkpt>
<trkpt lat="49.619723" lon="9.184058">
<ele>230.0</ele>
<speed>88.6</speed>
<course>93.5</course>
<desc>Speed 88.6 km/h Distance 1.70 km</desc>
<time>2010-08-25T16:44:00.16</time>
<name>37</name>
</trkpt>
<trkpt lat="49.619702" lon="9.184610">
<ele>232.0</ele>
<speed>88.6</speed>
<course>97.9</course>
<desc>Speed 88.6 km/h Distance 1.74 km</desc>
<time>2010-08-25T16:44:02.05</time>
<name>38</name>
</trkpt>
<trkpt lat="49.619627" lon="9.185448">
<ele>236.0</ele>
<speed>88.6</speed>
<course>85.8</course>
<desc>Speed 88.6 km/h Distance 1.80 km</desc>
<time>2010-08-25T16:44:05.04</time>
<name>39</name>
</trkpt>
<trkpt lat="49.619778" lon="9.188640">
<ele>239.0</ele>
<speed>88.6</speed>
<course>97.2</course>
<desc>Speed 88.6 km/h Distance 2.03 km</desc>
<time>2010-08-25T16:44:12.04</time>
<name>40</name>
</trkpt>
<trkpt lat="49.619652" lon="9.190193">
<ele>239.0</ele>
<speed>88.6</speed>
<course>50.5</course>
<desc>Speed 88.6 km/h Distance 2.14 km</desc>
<time>2010-08-25T16:44:16.03</time>
<name>41</name>
</trkpt>
<trkpt lat="49.620108" lon="9.191048">
<ele>232.0</ele>
<speed>85.6</speed>
<course>67.1</course>
<desc>Speed 85.6 km/h Distance 2.22 km</desc>
<time>2010-08-25T16:44:20.03</time>
<name>42</name>
</trkpt>
<trkpt lat="49.620247" lon="9.191555">
<ele>230.5</ele>
<speed>85.6</speed>
<course>97.4</course>
<desc>Speed 85.6 km/h Distance 2.26 km</desc>
<time>2010-08-25T16:44:22.03</time>
<name>43</name>
</trkpt>
<trkpt lat="49.620162" lon="9.192563">
<ele>229.0</ele>
<speed>85.6</speed>
<course>115.7</course>
<desc>Speed 85.6 km/h Distance 2.34 km</desc>
<time>2010-08-25T16:44:28.02</time>
<name>44</name>
</trkpt>
<trkpt lat="49.619967" lon="9.193190">
<ele>231.5</ele>
<speed>85.6</speed>
<course>74.8</course>
<desc>Speed 85.6 km/h Distance 2.39 km</desc>
<time>2010-08-25T16:44:33.07</time>
<name>45</name>
</trkpt>
<trkpt lat="49.620128" lon="9.194107">
<ele>228.0</ele>
<speed>88.8</speed>
<course>85.8</course>
<desc>Speed 88.8 km/h Distance 2.45 km</desc>
<time>2010-08-25T16:44:37.01</time>
<name>46</name>
</trkpt>
<trkpt lat="49.620262" lon="9.196897">
<ele>225.0</ele>
<speed>74.7</speed>
<course>98.9</course>
<desc>Speed 74.7 km/h Distance 2.66 km</desc>
<time>2010-08-25T16:44:42.06</time>
<name>47</name>
</trkpt>
<trkpt lat="49.620025" lon="9.199240">
<ele>224.5</ele>
<speed>31.2</speed>
<course>127.2</course>
<desc>Speed 31.2 km/h Distance 2.83 km</desc>
<time>2010-08-25T16:44:48.00</time>
<name>48</name>
</trkpt>
<trkpt lat="49.619838" lon="9.199620">
<ele>226.0</ele>
<speed>31.2</speed>
<course>159.8</course>
<desc>Speed 31.2 km/h Distance 2.86 km</desc>
<time>2010-08-25T16:44:51.00</time>
<name>49</name>
</trkpt>
<trkpt lat="49.618588" lon="9.200330">
<ele>227.5</ele>
<speed>71.6</speed>
<course>177.4</course>
<desc>Speed 71.6 km/h Distance 3.01 km</desc>
<time>2010-08-25T16:44:56.00</time>
<name>50</name>
</trkpt>
<trkpt lat="49.618203" lon="9.200357">
<ele>228.0</ele>
<speed>71.6</speed>
<course>183.1</course>
<desc>Speed 71.6 km/h Distance 3.05 km</desc>
<time>2010-08-25T16:44:58.99</time>
<name>51</name>
</trkpt>
<trkpt lat="49.617573" lon="9.200303">
<ele>226.0</ele>
<speed>71.6</speed>
<course>189.0</course>
<desc>Speed 71.6 km/h Distance 3.12 km</desc>
<time>2010-08-25T16:45:02.99</time>
<name>52</name>
</trkpt>
<trkpt lat="49.617178" lon="9.200207">
<ele>226.0</ele>
<speed>76.3</speed>
<course>186.0</course>
<desc>Speed 76.3 km/h Distance 3.17 km</desc>
<time>2010-08-25T16:45:05.00</time>
<name>53</name>
</trkpt>
<trkpt lat="49.616518" lon="9.200100">
<ele>226.0</ele>
<speed>75.9</speed>
<course>188.8</course>
<desc>Speed 75.9 km/h Distance 3.24 km</desc>
<time>2010-08-25T16:45:07.99</time>
<name>54</name>
</trkpt>
<trkpt lat="49.616330" lon="9.200055">
<ele>223.0</ele>
<speed>75.9</speed>
<course>190.0</course>
<desc>Speed 75.9 km/h Distance 3.26 km</desc>
<time>2010-08-25T16:45:08.99</time>
<name>55</name>
</trkpt>
<trkpt lat="49.615722" lon="9.199890">
<ele>211.5</ele>
<speed>77.1</speed>
<course>199.0</course>
<desc>Speed 77.1 km/h Distance 3.33 km</desc>
<time>2010-08-25T16:45:11.99</time>
<name>56</name>
</trkpt>
<trkpt lat="49.615335" lon="9.199685">
<ele>206.5</ele>
<speed>77.1</speed>
<course>198.7</course>
<desc>Speed 77.1 km/h Distance 3.38 km</desc>
<time>2010-08-25T16:45:13.99</time>
<name>57</name>
</trkpt>
<trkpt lat="49.614947" lon="9.199482">
<ele>204.5</ele>
<speed>78.7</speed>
<course>218.8</course>
<desc>Speed 78.7 km/h Distance 3.42 km</desc>
<time>2010-08-25T16:45:15.99</time>
<name>58</name>
</trkpt>
<trkpt lat="49.614787" lon="9.199283">
<ele>208.5</ele>
<speed>78.7</speed>
<course>183.2</course>
<desc>Speed 78.7 km/h Distance 3.45 km</desc>
<time>2010-08-25T16:45:16.98</time>
<name>59</name>
</trkpt>
<trkpt lat="49.614303" lon="9.199242">
<ele>216.5</ele>
<speed>78.7</speed>
<course>199.0</course>
<desc>Speed 78.7 km/h Distance 3.50 km</desc>
<time>2010-08-25T16:45:21.98</time>
<name>60</name>
</trkpt>
<trkpt lat="49.613777" lon="9.198962">
<ele>207.0</ele>
<speed>78.7</speed>
<course>176.4</course>
<desc>Speed 78.7 km/h Distance 3.56 km</desc>
<time>2010-08-25T16:45:27.98</time>
<name>61</name>
</trkpt>
<trkpt lat="49.611665" lon="9.199168">
<ele>202.5</ele>
<speed>111</speed>
<course>177.1</course>
<desc>Speed 111 km/h Distance 3.80 km</desc>
<time>2010-08-25T16:45:33.97</time>
<name>62</name>
</trkpt>
<trkpt lat="49.611052" lon="9.199217">
<ele>203.0</ele>
<speed>122</speed>
<course>169.3</course>
<desc>Speed 122 km/h Distance 3.87 km</desc>
<time>2010-08-25T16:45:35.97</time>
<name>63</name>
</trkpt>
<trkpt lat="49.608345" lon="9.200008">
<ele>207.0</ele>
<speed>114</speed>
<course>173.4</course>
<desc>Speed 114 km/h Distance 4.17 km</desc>
<time>2010-08-25T16:45:41.95</time>
<name>64</name>
</trkpt>
<trkpt lat="49.608030" lon="9.200065">
<ele>209.5</ele>
<speed>114</speed>
<course>168.6</course>
<desc>Speed 114 km/h Distance 4.21 km</desc>
<time>2010-08-25T16:45:43.05</time>
<name>65</name>
</trkpt>
<trkpt lat="49.605767" lon="9.200772">
<ele>235.0</ele>
<speed>139</speed>
<course>166.5</course>
<desc>Speed 139 km/h Distance 4.46 km</desc>
<time>2010-08-25T16:45:48.95</time>
<name>66</name>
</trkpt>
<trkpt lat="49.605415" lon="9.200902">
<ele>237.0</ele>
<speed>137</speed>
<course>164.4</course>
<desc>Speed 137 km/h Distance 4.50 km</desc>
<time>2010-08-25T16:45:49.95</time>
<name>67</name>
</trkpt>
<trkpt lat="49.605072" lon="9.201050">
<ele>240.5</ele>
<speed>135</speed>
<course>162.8</course>
<desc>Speed 135 km/h Distance 4.54 km</desc>
<time>2010-08-25T16:45:51.00</time>
<name>68</name>
</trkpt>
<trkpt lat="49.604438" lon="9.201353">
<ele>250.5</ele>
<speed>130</speed>
<course>162.4</course>
<desc>Speed 130 km/h Distance 4.62 km</desc>
<time>2010-08-25T16:45:52.95</time>
<name>69</name>
</trkpt>
<trkpt lat="49.604138" lon="9.201500">
<ele>253.0</ele>
<speed>127</speed>
<course>163.0</course>
<desc>Speed 127 km/h Distance 4.65 km</desc>
<time>2010-08-25T16:45:53.95</time>
<name>70</name>
</trkpt>
<trkpt lat="49.603820" lon="9.201650">
<ele>253.5</ele>
<speed>129</speed>
<course>163.7</course>
<desc>Speed 129 km/h Distance 4.69 km</desc>
<time>2010-08-25T16:45:54.95</time>
<name>71</name>
</trkpt>
<trkpt lat="49.603522" lon="9.201785">
<ele>253.5</ele>
<speed>124</speed>
<course>171.2</course>
<desc>Speed 124 km/h Distance 4.73 km</desc>
<time>2010-08-25T16:45:55.95</time>
<name>72</name>
</trkpt>
<trkpt lat="49.603215" lon="9.201858">
<ele>254.0</ele>
<speed>123</speed>
<course>175.0</course>
<desc>Speed 123 km/h Distance 4.76 km</desc>
<time>2010-08-25T16:45:56.95</time>
<name>73</name>
</trkpt>
<trkpt lat="49.602895" lon="9.201902">
<ele>254.5</ele>
<speed>127</speed>
<course>176.0</course>
<desc>Speed 127 km/h Distance 4.80 km</desc>
<time>2010-08-25T16:45:57.94</time>
<name>74</name>
</trkpt>
<trkpt lat="49.602590" lon="9.201935">
<ele>255.5</ele>
<speed>120</speed>
<course>176.0</course>
<desc>Speed 120 km/h Distance 4.83 km</desc>
<time>2010-08-25T16:45:58.94</time>
<name>75</name>
</trkpt>
<trkpt lat="49.602017" lon="9.201997">
<ele>257.0</ele>
<speed>111</speed>
<course>168.2</course>
<desc>Speed 111 km/h Distance 4.89 km</desc>
<time>2010-08-25T16:46:00.94</time>
<name>76</name>
</trkpt>
<trkpt lat="49.601527" lon="9.202155">
<ele>261.5</ele>
<speed>104</speed>
<course>156.8</course>
<desc>Speed 104 km/h Distance 4.95 km</desc>
<time>2010-08-25T16:46:02.94</time>
<name>77</name>
</trkpt>
<trkpt lat="49.600773" lon="9.202653">
<ele>262.5</ele>
<speed>119</speed>
<course>154.5</course>
<desc>Speed 119 km/h Distance 5.04 km</desc>
<time>2010-08-25T16:46:05.94</time>
<name>78</name>
</trkpt>
<trkpt lat="49.599612" lon="9.203510">
<ele>256.5</ele>
<speed>116</speed>
<course>157.2</course>
<desc>Speed 116 km/h Distance 5.18 km</desc>
<time>2010-08-25T16:46:11.93</time>
<name>79</name>
</trkpt>
<trkpt lat="49.598682" lon="9.204113">
<ele>258.0</ele>
<speed>122</speed>
<course>155.4</course>
<desc>Speed 122 km/h Distance 5.30 km</desc>
<time>2010-08-25T16:46:14.93</time>
<name>80</name>
</trkpt>
<trkpt lat="49.596770" lon="9.205465">
<ele>262.0</ele>
<speed>124</speed>
<course>153.1</course>
<desc>Speed 124 km/h Distance 5.53 km</desc>
<time>2010-08-25T16:46:22.01</time>
<name>81</name>
</trkpt>
<trkpt lat="49.596132" lon="9.205965">
<ele>262.0</ele>
<speed>124</speed>
<course>161.6</course>
<desc>Speed 124 km/h Distance 5.61 km</desc>
<time>2010-08-25T16:46:26.91</time>
<name>82</name>
</trkpt>
<trkpt lat="49.595248" lon="9.206418">
<ele>261.0</ele>
<speed>124</speed>
<course>134.0</course>
<desc>Speed 124 km/h Distance 5.71 km</desc>
<time>2010-08-25T16:46:29.97</time>
<name>83</name>
</trkpt>
<trkpt lat="49.594180" lon="9.208127">
<ele>261.5</ele>
<speed>70.3</speed>
<course>162.3</course>
<desc>Speed 70.3 km/h Distance 5.88 km</desc>
<time>2010-08-25T16:46:35.91</time>
<name>84</name>
</trkpt>
<trkpt lat="49.593727" lon="9.208350">
<ele>261.5</ele>
<speed>70.3</speed>
<course>146.7</course>
<desc>Speed 70.3 km/h Distance 5.94 km</desc>
<time>2010-08-25T16:46:39.91</time>
<name>85</name>
</trkpt>
<trkpt lat="49.593452" lon="9.208628">
<ele>261.0</ele>
<speed>74.8</speed>
<course>142.7</course>
<desc>Speed 74.8 km/h Distance 5.97 km</desc>
<time>2010-08-25T16:46:41.90</time>
<name>86</name>
</trkpt>
<trkpt lat="49.593150" lon="9.208983">
<ele>261.5</ele>
<speed>74.8</speed>
<course>147.7</course>
<desc>Speed 74.8 km/h Distance 6.02 km</desc>
<time>2010-08-25T16:46:43.90</time>
<name>87</name>
</trkpt>
<trkpt lat="49.592735" lon="9.209388">
<ele>261.5</ele>
<speed>74.8</speed>
<course>158.9</course>
<desc>Speed 74.8 km/h Distance 6.07 km</desc>
<time>2010-08-25T16:46:48.90</time>
<name>88</name>
</trkpt>
<trkpt lat="49.592025" lon="9.209810">
<ele>261.5</ele>
<speed>74.8</speed>
<course>177.9</course>
<desc>Speed 74.8 km/h Distance 6.16 km</desc>
<time>2010-08-25T16:46:52.90</time>
<name>89</name>
</trkpt>
<trkpt lat="49.591848" lon="9.209820">
<ele>261.5</ele>
<speed>74.8</speed>
<course>207.5</course>
<desc>Speed 74.8 km/h Distance 6.18 km</desc>
<time>2010-08-25T16:46:53.90</time>
<name>90</name>
</trkpt>
<trkpt lat="49.591117" lon="9.209232">
<ele>262.5</ele>
<speed>2.7</speed>
<course>238.2</course>
<desc>Speed 2.7 km/h Distance 6.27 km</desc>
<time>2010-08-25T16:46:59.90</time>
<name>91</name>
</trkpt>
<trkpt lat="49.591058" lon="9.209087">
<ele>263.5</ele>
<speed>0.5</speed>
<course>117.4</course>
<desc>Speed 0.5 km/h Distance 6.28 km</desc>
<time>2010-08-25T16:47:03.35</time>
<name>92</name>
</trkpt>
<trkpt lat="49.591057" lon="9.209092">
<ele>265.0</ele>
<speed>1.8</speed>
<course>0.0</course>
<desc>Speed 1.8 km/h Distance 6.28 km</desc>
<time>2010-08-25T16:47:04.89</time>
<name>93</name>
</trkpt>
<trkpt lat="49.591058" lon="9.209092">
<ele>265.5</ele>
<speed>0.3</speed>
<course>319.9</course>
<desc>Speed 0.3 km/h Distance 6.28 km</desc>
<time>2010-08-25T16:47:05.88</time>
<name>94</name>
</trkpt>
<trkpt lat="49.591075" lon="9.209070">
<ele>267.0</ele>
<speed>5.4</speed>
<course>33.2</course>
<desc>Speed 5.4 km/h Distance 6.28 km</desc>
<time>2010-08-25T16:47:07.03</time>
<name>95</name>
</trkpt>
<trkpt lat="49.591083" lon="9.209078">
<ele>267.0</ele>
<speed>0.2</speed>
<course>0.0</course>
<desc>Speed 0.2 km/h Distance 6.28 km</desc>
<time>2010-08-25T16:47:07.88</time>
<name>96</name>
</trkpt>
<trkpt lat="49.591087" lon="9.209078">
<ele>267.5</ele>
<speed>0.1</speed>
<course>202.2</course>
<desc>Speed 0.1 km/h Distance 6.28 km</desc>
<time>2010-08-25T16:47:08.89</time>
<name>97</name>
</trkpt>
<trkpt lat="49.591082" lon="9.209075">
<ele>267.5</ele>
<speed>1.5</speed>
<course>192.6</course>
<desc>Speed 1.5 km/h Distance 6.28 km</desc>
<time>2010-08-25T16:47:09.88</time>
<name>98</name>
</trkpt>
<trkpt lat="49.591077" lon="9.209073">
<ele>267.5</ele>
<speed>1.5</speed>
<course>203.0</course>
<desc>Speed 1.5 km/h Distance 6.29 km</desc>
<time>2010-08-25T16:47:10.88</time>
<name>99</name>
</trkpt>
<trkpt lat="49.591073" lon="9.209072">
<ele>267.5</ele>
<speed>1.5</speed>
<course>176.8</course>
<desc>Speed 1.5 km/h Distance 6.29 km</desc>
<time>2010-08-25T16:47:11.88</time>
<name>100</name>
</trkpt>
<trkpt lat="49.591052" lon="9.209073">
<ele>268.0</ele>
<speed>1.5</speed>
<course>150.8</course>
<desc>Speed 1.5 km/h Distance 6.29 km</desc>
<time>2010-08-25T16:47:12.93</time>
<name>101</name>
</trkpt>
<trkpt lat="49.591050" lon="9.209075">
<ele>268.0</ele>
<speed>1.5</speed>
<course>238.6</course>
<desc>Speed 1.5 km/h Distance 6.29 km</desc>
<time>2010-08-25T16:47:13.88</time>
<name>102</name>
</trkpt>
<trkpt lat="49.591047" lon="9.209067">
<ele>268.0</ele>
<speed>0.8</speed>
<course>146.3</course>
<desc>Speed 0.8 km/h Distance 6.29 km</desc>
<time>2010-08-25T16:47:14.89</time>
<name>103</name>
</trkpt>
<trkpt lat="49.591043" lon="9.209070">
<ele>268.5</ele>
<speed>0.6</speed>
<course>146.3</course>
<desc>Speed 0.6 km/h Distance 6.29 km</desc>
<time>2010-08-25T16:47:15.88</time>
<name>104</name>
</trkpt>
<trkpt lat="49.591043" lon="9.209070">
<ele>268.5</ele>
<speed>0.6</speed>
<course>37.2</course>
<desc>Speed 0.6 km/h Distance 6.29 km</desc>
<time>2010-08-25T16:47:16.88</time>
<name>105</name>
</trkpt>
<trkpt lat="49.591045" lon="9.209072">
<ele>268.5</ele>
<speed>0.3</speed>
<course>167.4</course>
<desc>Speed 0.3 km/h Distance 6.29 km</desc>
<time>2010-08-25T16:47:17.88</time>
<name>106</name>
</trkpt>
<trkpt lat="49.591035" lon="9.209075">
<ele>269.0</ele>
<speed>4.3</speed>
<course>90.0</course>
<desc>Speed 4.3 km/h Distance 6.29 km</desc>
<time>2010-08-25T16:47:18.88</time>
<name>107</name>
</trkpt>
<trkpt lat="49.591035" lon="9.209077">
<ele>268.5</ele>
<speed>1.8</speed>
<course>300.0</course>
<desc>Speed 1.8 km/h Distance 6.29 km</desc>
<time>2010-08-25T16:47:19.87</time>
<name>108</name>
</trkpt>
<trkpt lat="49.591060" lon="9.209010">
<ele>276.5</ele>
<speed>1.0</speed>
<course>270.0</course>
<desc>Speed 1.0 km/h Distance 6.30 km</desc>
<time>2010-08-25T16:47:21.87</time>
<name>109</name>
</trkpt>
<trkpt lat="49.591060" lon="9.208978">
<ele>285.0</ele>
<speed>2.7</speed>
<course>310.1</course>
<desc>Speed 2.7 km/h Distance 6.30 km</desc>
<time>2010-08-25T16:47:22.94</time>
<name>110</name>
</trkpt>
<trkpt lat="49.591070" lon="9.208960">
<ele>289.5</ele>
<speed>2.5</speed>
<course>22.2</course>
<desc>Speed 2.5 km/h Distance 6.30 km</desc>
<time>2010-08-25T16:47:23.87</time>
<name>111</name>
</trkpt>
<trkpt lat="49.591075" lon="9.208963">
<ele>291.5</ele>
<speed>1.8</speed>
<course>182.5</course>
<desc>Speed 1.8 km/h Distance 6.30 km</desc>
<time>2010-08-25T16:47:24.87</time>
<name>112</name>
</trkpt>
<trkpt lat="49.591057" lon="9.208962">
<ele>294.5</ele>
<speed>3.3</speed>
<course>172.8</course>
<desc>Speed 3.3 km/h Distance 6.30 km</desc>
<time>2010-08-25T16:47:25.86</time>
<name>113</name>
</trkpt>
<trkpt lat="49.590928" lon="9.208987">
<ele>301.5</ele>
<speed>21.2</speed>
<course>167.8</course>
<desc>Speed 21.2 km/h Distance 6.32 km</desc>
<time>2010-08-25T16:47:28.96</time>
<name>114</name>
</trkpt>
<trkpt lat="49.590888" lon="9.209000">
<ele>302.0</ele>
<speed>21.2</speed>
<course>167.1</course>
<desc>Speed 21.2 km/h Distance 6.32 km</desc>
<time>2010-08-25T16:47:29.87</time>
<name>115</name>
</trkpt>
<trkpt lat="49.590832" lon="9.209020">
<ele>303.0</ele>
<speed>21.2</speed>
<course>168.6</course>
<desc>Speed 21.2 km/h Distance 6.33 km</desc>
<time>2010-08-25T16:47:31.90</time>
<name>116</name>
</trkpt>
<trkpt lat="49.590778" lon="9.209037">
<ele>302.5</ele>
<speed>21.2</speed>
<course>158.7</course>
<desc>Speed 21.2 km/h Distance 6.33 km</desc>
<time>2010-08-25T16:47:33.87</time>
<name>117</name>
</trkpt>
<trkpt lat="49.590665" lon="9.209105">
<ele>305.5</ele>
<speed>21.2</speed>
<course>157.3</course>
<desc>Speed 21.2 km/h Distance 6.35 km</desc>
<time>2010-08-25T16:47:35.87</time>
<name>118</name>
</trkpt>
<trkpt lat="49.590613" lon="9.209138">
<ele>306.5</ele>
<speed>21.2</speed>
<course>204.3</course>
<desc>Speed 21.2 km/h Distance 6.35 km</desc>
<time>2010-08-25T16:47:37.00</time>
<name>119</name>
</trkpt>
<trkpt lat="49.590575" lon="9.209112">
<ele>306.0</ele>
<speed>21.2</speed>
<course>169.5</course>
<desc>Speed 21.2 km/h Distance 6.36 km</desc>
<time>2010-08-25T16:47:37.86</time>
<name>120</name>
</trkpt>
<trkpt lat="49.588340" lon="9.209753">
<ele>303.0</ele>
<speed>92.3</speed>
<course>196.5</course>
<desc>Speed 92.3 km/h Distance 6.61 km</desc>
<time>2010-08-25T16:47:46.85</time>
<name>121</name>
</trkpt>
<trkpt lat="49.586890" lon="9.209092">
<ele>304.0</ele>
<speed>92.3</speed>
<course>210.8</course>
<desc>Speed 92.3 km/h Distance 6.78 km</desc>
<time>2010-08-25T16:47:51.91</time>
<name>122</name>
</trkpt>
<trkpt lat="49.586375" lon="9.208618">
<ele>306.0</ele>
<speed>92.3</speed>
<course>273.0</course>
<desc>Speed 92.3 km/h Distance 6.85 km</desc>
<time>2010-08-25T16:47:57.84</time>
<name>123</name>
</trkpt>
<trkpt lat="49.586402" lon="9.207828">
<ele>301.0</ele>
<speed>36.6</speed>
<course>291.9</course>
<desc>Speed 36.6 km/h Distance 6.90 km</desc>
<time>2010-08-25T16:48:03.83</time>
<name>124</name>
</trkpt>
<trkpt lat="49.586443" lon="9.207668">
<ele>301.5</ele>
<speed>36.6</speed>
<course>310.1</course>
<desc>Speed 36.6 km/h Distance 6.92 km</desc>
<time>2010-08-25T16:48:05.83</time>
<name>125</name>
</trkpt>
<trkpt lat="49.586502" lon="9.207562">
<ele>302.0</ele>
<speed>36.6</speed>
<course>344.5</course>
<desc>Speed 36.6 km/h Distance 6.93 km</desc>
<time>2010-08-25T16:48:06.83</time>
<name>126</name>
</trkpt>
<trkpt lat="49.587173" lon="9.207275">
<ele>302.0</ele>
<speed>36.6</speed>
<course>327.3</course>
<desc>Speed 36.6 km/h Distance 7.00 km</desc>
<time>2010-08-25T16:48:13.82</time>
<name>127</name>
</trkpt>
<trkpt lat="49.588780" lon="9.205685">
<ele>301.0</ele>
<speed>36.6</speed>
<course>332.1</course>
<desc>Speed 36.6 km/h Distance 7.22 km</desc>
<time>2010-08-25T16:48:18.81</time>
<name>128</name>
</trkpt>
<trkpt lat="49.590915" lon="9.203942">
<ele>302.5</ele>
<speed>100</speed>
<course>342.0</course>
<desc>Speed 100 km/h Distance 7.49 km</desc>
<time>2010-08-25T16:48:24.81</time>
<name>129</name>
</trkpt>
<trkpt lat="49.591168" lon="9.203815">
<ele>302.5</ele>
<speed>100</speed>
<course>324.5</course>
<desc>Speed 100 km/h Distance 7.52 km</desc>
<time>2010-08-25T16:48:25.81</time>
<name>130</name>
</trkpt>
<trkpt lat="49.591522" lon="9.203427">
<ele>303.0</ele>
<speed>100</speed>
<course>297.5</course>
<desc>Speed 100 km/h Distance 7.56 km</desc>
<time>2010-08-25T16:48:30.81</time>
<name>131</name>
</trkpt>
<trkpt lat="49.591932" lon="9.202212">
<ele>303.0</ele>
<speed>82.8</speed>
<course>297.1</course>
<desc>Speed 82.8 km/h Distance 7.66 km</desc>
<time>2010-08-25T16:48:35.10</time>
<name>132</name>
</trkpt>
<trkpt lat="49.592475" lon="9.200575">
<ele>302.5</ele>
<speed>82.8</speed>
<course>205.3</course>
<desc>Speed 82.8 km/h Distance 7.80 km</desc>
<time>2010-08-25T16:48:39.80</time>
<name>133</name>
</trkpt>
<trkpt lat="49.586472" lon="9.196193">
<ele>300.5</ele>
<speed>82.8</speed>
<course>239.8</course>
<desc>Speed 82.8 km/h Distance 8.53 km</desc>
<time>2010-08-25T16:49:18.77</time>
<name>134</name>
</trkpt>
<trkpt lat="49.585428" lon="9.193433">
<ele>305.5</ele>
<speed>82.8</speed>
<course>302.3</course>
<desc>Speed 82.8 km/h Distance 8.77 km</desc>
<time>2010-08-25T16:49:24.76</time>
<name>135</name>
</trkpt>
<trkpt lat="49.586755" lon="9.190200">
<ele>305.5</ele>
<speed>82.8</speed>
<course>288.0</course>
<desc>Speed 82.8 km/h Distance 9.04 km</desc>
<time>2010-08-25T16:49:39.76</time>
<name>136</name>
</trkpt>
<trkpt lat="49.587620" lon="9.186085">
<ele>310.5</ele>
<speed>61.6</speed>
<course>258.8</course>
<desc>Speed 61.6 km/h Distance 9.35 km</desc>
<time>2010-08-25T16:49:51.76</time>
<name>137</name>
</trkpt>
<trkpt lat="49.587483" lon="9.185017">
<ele>311.0</ele>
<speed>61.6</speed>
<course>201.4</course>
<desc>Speed 61.6 km/h Distance 9.43 km</desc>
<time>2010-08-25T16:49:58.75</time>
<name>138</name>
</trkpt>
<trkpt lat="49.583925" lon="9.182862">
<ele>333.0</ele>
<speed>69.7</speed>
<course>246.2</course>
<desc>Speed 69.7 km/h Distance 9.86 km</desc>
<time>2010-08-25T16:50:37.74</time>
<name>139</name>
</trkpt>
<trkpt lat="49.582655" lon="9.178417">
<ele>343.5</ele>
<speed>33.0</speed>
<course>192.6</course>
<desc>Speed 33.0 km/h Distance 10.21 km</desc>
<time>2010-08-25T16:50:58.73</time>
<name>140</name>
</trkpt>
<trkpt lat="49.575045" lon="9.175787">
<ele>349.0</ele>
<speed>106</speed>
<course>177.1</course>
<desc>Speed 106 km/h Distance 11.08 km</desc>
<time>2010-08-25T16:51:39.68</time>
<name>141</name>
</trkpt>
<trkpt lat="49.574297" lon="9.175845">
<ele>360.5</ele>
<speed>106</speed>
<course>211.8</course>
<desc>Speed 106 km/h Distance 11.16 km</desc>
<time>2010-08-25T16:51:44.77</time>
<name>142</name>
</trkpt>
<trkpt lat="49.571080" lon="9.172775">
<ele>373.0</ele>
<speed>89.5</speed>
<course>202.1</course>
<desc>Speed 89.5 km/h Distance 11.58 km</desc>
<time>2010-08-25T16:52:00.68</time>
<name>143</name>
</trkpt>
<trkpt lat="49.569522" lon="9.171798">
<ele>384.5</ele>
<speed>78.7</speed>
<course>143.0</course>
<desc>Speed 78.7 km/h Distance 11.77 km</desc>
<time>2010-08-25T16:52:08.74</time>
<name>144</name>
</trkpt>
<trkpt lat="49.567578" lon="9.174057">
<ele>398.0</ele>
<speed>53.4</speed>
<course>106.4</course>
<desc>Speed 53.4 km/h Distance 12.04 km</desc>
<time>2010-08-25T16:52:29.66</time>
<name>145</name>
</trkpt>
<trkpt lat="49.567483" lon="9.174555">
<ele>398.5</ele>
<speed>71.6</speed>
<course>109.3</course>
<desc>Speed 71.6 km/h Distance 12.08 km</desc>
<time>2010-08-25T16:52:33.65</time>
<name>146</name>
</trkpt>
<trkpt lat="49.566192" lon="9.180230">
<ele>413.5</ele>
<speed>96.4</speed>
<course>139.6</course>
<desc>Speed 96.4 km/h Distance 12.51 km</desc>
<time>2010-08-25T16:52:51.64</time>
<name>147</name>
</trkpt>
<trkpt lat="49.565548" lon="9.181075">
<ele>443.5</ele>
<speed>101</speed>
<course>152.5</course>
<desc>Speed 101 km/h Distance 12.60 km</desc>
<time>2010-08-25T16:52:56.64</time>
<name>148</name>
</trkpt>
<trkpt lat="49.565338" lon="9.181243">
<ele>447.0</ele>
<speed>101</speed>
<course>161.6</course>
<desc>Speed 101 km/h Distance 12.63 km</desc>
<time>2010-08-25T16:52:57.63</time>
<name>149</name>
</trkpt>
<trkpt lat="49.564573" lon="9.181635">
<ele>453.0</ele>
<speed>83.2</speed>
<course>151.5</course>
<desc>Speed 83.2 km/h Distance 12.72 km</desc>
<time>2010-08-25T16:53:01.63</time>
<name>150</name>
</trkpt>
<trkpt lat="49.564198" lon="9.181948">
<ele>459.5</ele>
<speed>87.2</speed>
<course>145.1</course>
<desc>Speed 87.2 km/h Distance 12.77 km</desc>
<time>2010-08-25T16:53:03.88</time>
<name>151</name>
</trkpt>
<trkpt lat="49.563702" lon="9.182482">
<ele>469.0</ele>
<speed>87.2</speed>
<course>124.5</course>
<desc>Speed 87.2 km/h Distance 12.84 km</desc>
<time>2010-08-25T16:53:09.62</time>
<name>152</name>
</trkpt>
<trkpt lat="49.563407" lon="9.183143">
<ele>472.5</ele>
<speed>71.8</speed>
<course>121.7</course>
<desc>Speed 71.8 km/h Distance 12.89 km</desc>
<time>2010-08-25T16:53:12.61</time>
<name>153</name>
</trkpt>
<trkpt lat="49.562890" lon="9.184435">
<ele>479.5</ele>
<speed>88.8</speed>
<course>130.7</course>
<desc>Speed 88.8 km/h Distance 13.00 km</desc>
<time>2010-08-25T16:53:16.62</time>
<name>154</name>
</trkpt>
<trkpt lat="49.562332" lon="9.185437">
<ele>480.0</ele>
<speed>54.2</speed>
<course>107.9</course>
<desc>Speed 54.2 km/h Distance 13.10 km</desc>
<time>2010-08-25T16:53:21.62</time>
<name>155</name>
</trkpt>
<trkpt lat="49.562103" lon="9.186527">
<ele>484.5</ele>
<speed>59.3</speed>
<course>125.6</course>
<desc>Speed 59.3 km/h Distance 13.18 km</desc>
<time>2010-08-25T16:53:25.61</time>
<name>156</name>
</trkpt>
<trkpt lat="49.561775" lon="9.187233">
<ele>486.0</ele>
<speed>67.6</speed>
<course>112.3</course>
<desc>Speed 67.6 km/h Distance 13.24 km</desc>
<time>2010-08-25T16:53:28.61</time>
<name>157</name>
</trkpt>
<trkpt lat="49.561542" lon="9.188110">
<ele>491.0</ele>
<speed>62.6</speed>
<course>104.2</course>
<desc>Speed 62.6 km/h Distance 13.31 km</desc>
<time>2010-08-25T16:53:31.68</time>
<name>158</name>
</trkpt>
<trkpt lat="49.561453" lon="9.188648">
<ele>501.5</ele>
<speed>59.5</speed>
<course>98.3</course>
<desc>Speed 59.5 km/h Distance 13.35 km</desc>
<time>2010-08-25T16:53:33.61</time>
<name>159</name>
</trkpt>
<trkpt lat="49.561430" lon="9.188895">
<ele>504.0</ele>
<speed>58.3</speed>
<course>84.8</course>
<desc>Speed 58.3 km/h Distance 13.37 km</desc>
<time>2010-08-25T16:53:34.60</time>
<name>160</name>
</trkpt>
<trkpt lat="49.561443" lon="9.189122">
<ele>505.5</ele>
<speed>54.0</speed>
<course>88.0</course>
<desc>Speed 54.0 km/h Distance 13.39 km</desc>
<time>2010-08-25T16:53:35.60</time>
<name>161</name>
</trkpt>
<trkpt lat="49.561448" lon="9.189343">
<ele>507.0</ele>
<speed>53.4</speed>
<course>83.7</course>
<desc>Speed 53.4 km/h Distance 13.40 km</desc>
<time>2010-08-25T16:53:36.60</time>
<name>162</name>
</trkpt>
<trkpt lat="49.561463" lon="9.189552">
<ele>507.5</ele>
<speed>54.6</speed>
<course>52.7</course>
<desc>Speed 54.6 km/h Distance 13.42 km</desc>
<time>2010-08-25T16:53:37.60</time>
<name>163</name>
</trkpt>
<trkpt lat="49.561540" lon="9.189707">
<ele>508.0</ele>
<speed>50.6</speed>
<course>79.0</course>
<desc>Speed 50.6 km/h Distance 13.43 km</desc>
<time>2010-08-25T16:53:38.59</time>
<name>164</name>
</trkpt>
<trkpt lat="49.561600" lon="9.190183">
<ele>508.0</ele>
<speed>63.6</speed>
<course>94.2</course>
<desc>Speed 63.6 km/h Distance 13.47 km</desc>
<time>2010-08-25T16:53:40.69</time>
<name>165</name>
</trkpt>
<trkpt lat="49.561575" lon="9.190710">
<ele>507.5</ele>
<speed>64.8</speed>
<course>97.8</course>
<desc>Speed 64.8 km/h Distance 13.51 km</desc>
<time>2010-08-25T16:53:42.59</time>
<name>166</name>
</trkpt>
<trkpt lat="49.561552" lon="9.190972">
<ele>507.5</ele>
<speed>65.7</speed>
<course>97.8</course>
<desc>Speed 65.7 km/h Distance 13.52 km</desc>
<time>2010-08-25T16:53:43.59</time>
<name>167</name>
</trkpt>
<trkpt lat="49.561530" lon="9.191217">
<ele>507.5</ele>
<speed>62.0</speed>
<course>97.4</course>
<desc>Speed 62.0 km/h Distance 13.54 km</desc>
<time>2010-08-25T16:53:44.59</time>
<name>168</name>
</trkpt>
<trkpt lat="49.561508" lon="9.191473">
<ele>507.5</ele>
<speed>64.4</speed>
<course>98.5</course>
<desc>Speed 64.4 km/h Distance 13.56 km</desc>
<time>2010-08-25T16:53:45.59</time>
<name>169</name>
</trkpt>
<trkpt lat="49.561460" lon="9.191970">
<ele>506.5</ele>
<speed>52.5</speed>
<course>123.5</course>
<desc>Speed 52.5 km/h Distance 13.60 km</desc>
<time>2010-08-25T16:53:48.60</time>
<name>170</name>
</trkpt>
<trkpt lat="49.561323" lon="9.192288">
<ele>503.5</ele>
<speed>52.5</speed>
<course>173.9</course>
<desc>Speed 52.5 km/h Distance 13.63 km</desc>
<time>2010-08-25T16:53:52.59</time>
<name>171</name>
</trkpt>
<trkpt lat="49.560558" lon="9.192415">
<ele>508.5</ele>
<speed>55.3</speed>
<course>172.9</course>
<desc>Speed 55.3 km/h Distance 13.71 km</desc>
<time>2010-08-25T16:53:56.59</time>
<name>172</name>
</trkpt>
<trkpt lat="49.560228" lon="9.192478">
<ele>508.5</ele>
<speed>49.5</speed>
<course>169.7</course>
<desc>Speed 49.5 km/h Distance 13.75 km</desc>
<time>2010-08-25T16:53:58.69</time>
<name>173</name>
</trkpt>
<trkpt lat="49.559962" lon="9.192553">
<ele>509.0</ele>
<speed>53.8</speed>
<course>171.6</course>
<desc>Speed 53.8 km/h Distance 13.78 km</desc>
<time>2010-08-25T16:54:00.58</time>
<name>174</name>
</trkpt>
<trkpt lat="49.559763" lon="9.192598">
<ele>509.0</ele>
<speed>53.8</speed>
<course>187.1</course>
<desc>Speed 53.8 km/h Distance 13.80 km</desc>
<time>2010-08-25T16:54:02.58</time>
<name>175</name>
</trkpt>
<trkpt lat="49.559642" lon="9.192575">
<ele>504.5</ele>
<speed>53.8</speed>
<course>170.8</course>
<desc>Speed 53.8 km/h Distance 13.81 km</desc>
<time>2010-08-25T16:54:03.58</time>
<name>176</name>
</trkpt>
<trkpt lat="49.559367" lon="9.192643">
<ele>498.0</ele>
<speed>53.8</speed>
<course>160.7</course>
<desc>Speed 53.8 km/h Distance 13.84 km</desc>
<time>2010-08-25T16:54:07.69</time>
<name>177</name>
</trkpt>
<trkpt lat="49.558718" lon="9.192993">
<ele>504.5</ele>
<speed>47.5</speed>
<course>163.0</course>
<desc>Speed 47.5 km/h Distance 13.92 km</desc>
<time>2010-08-25T16:54:11.57</time>
<name>178</name>
</trkpt>
<trkpt lat="49.557877" lon="9.193390">
<ele>523.0</ele>
<speed>38.4</speed>
<course>132.8</course>
<desc>Speed 38.4 km/h Distance 14.02 km</desc>
<time>2010-08-25T16:54:16.69</time>
<name>179</name>
</trkpt>
<trkpt lat="49.557757" lon="9.193590">
<ele>521.5</ele>
<speed>38.4</speed>
<course>133.9</course>
<desc>Speed 38.4 km/h Distance 14.04 km</desc>
<time>2010-08-25T16:54:18.57</time>
<name>180</name>
</trkpt>
<trkpt lat="49.557593" lon="9.193852">
<ele>532.0</ele>
<speed>38.4</speed>
<course>137.3</course>
<desc>Speed 38.4 km/h Distance 14.07 km</desc>
<time>2010-08-25T16:54:20.57</time>
<name>181</name>
</trkpt>
<trkpt lat="49.556867" lon="9.194887">
<ele>517.5</ele>
<speed>85.2</speed>
<course>145.1</course>
<desc>Speed 85.2 km/h Distance 14.18 km</desc>
<time>2010-08-25T16:54:25.69</time>
<name>182</name>
</trkpt>
<trkpt lat="49.556507" lon="9.195273">
<ele>520.0</ele>
<speed>92.7</speed>
<course>160.9</course>
<desc>Speed 92.7 km/h Distance 14.22 km</desc>
<time>2010-08-25T16:54:27.56</time>
<name>183</name>
</trkpt>
<trkpt lat="49.555727" lon="9.195690">
<ele>521.0</ele>
<speed>104</speed>
<course>160.7</course>
<desc>Speed 104 km/h Distance 14.32 km</desc>
<time>2010-08-25T16:54:30.56</time>
<name>184</name>
</trkpt>
<trkpt lat="49.554865" lon="9.196155">
<ele>529.5</ele>
<speed>105</speed>
<course>160.6</course>
<desc>Speed 105 km/h Distance 14.42 km</desc>
<time>2010-08-25T16:54:33.56</time>
<name>185</name>
</trkpt>
<trkpt lat="49.554032" lon="9.196607">
<ele>539.5</ele>
<speed>103</speed>
<course>154.8</course>
<desc>Speed 103 km/h Distance 14.52 km</desc>
<time>2010-08-25T16:54:36.56</time>
<name>186</name>
</trkpt>
<trkpt lat="49.553800" lon="9.196775">
<ele>540.0</ele>
<speed>99.3</speed>
<course>153.7</course>
<desc>Speed 99.3 km/h Distance 14.54 km</desc>
<time>2010-08-25T16:54:37.56</time>
<name>187</name>
</trkpt>
<trkpt lat="49.553055" lon="9.197343">
<ele>539.0</ele>
<speed>105</speed>
<course>155.7</course>
<desc>Speed 105 km/h Distance 14.64 km</desc>
<time>2010-08-25T16:54:40.64</time>
<name>188</name>
</trkpt>
<trkpt lat="49.552332" lon="9.197847">
<ele>539.0</ele>
<speed>111</speed>
<course>164.3</course>
<desc>Speed 111 km/h Distance 14.73 km</desc>
<time>2010-08-25T16:54:44.54</time>
<name>189</name>
</trkpt>
<trkpt lat="49.552058" lon="9.197965">
<ele>535.5</ele>
<speed>108</speed>
<course>163.2</course>
<desc>Speed 108 km/h Distance 14.76 km</desc>
<time>2010-08-25T16:54:45.54</time>
<name>190</name>
</trkpt>
<trkpt lat="49.551512" lon="9.198220">
<ele>534.0</ele>
<speed>104</speed>
<course>165.0</course>
<desc>Speed 104 km/h Distance 14.82 km</desc>
<time>2010-08-25T16:54:47.54</time>
<name>191</name>
</trkpt>
<trkpt lat="49.550587" lon="9.198602">
<ele>528.5</ele>
<speed>123</speed>
<course>156.2</course>
<desc>Speed 123 km/h Distance 14.93 km</desc>
<time>2010-08-25T16:54:52.53</time>
<name>192</name>
</trkpt>
<trkpt lat="49.549220" lon="9.199530">
<ele>549.0</ele>
<speed>104</speed>
<course>159.7</course>
<desc>Speed 104 km/h Distance 15.09 km</desc>
<time>2010-08-25T16:54:56.52</time>
<name>193</name>
</trkpt>
<trkpt lat="49.548685" lon="9.199835">
<ele>553.0</ele>
<speed>103</speed>
<course>158.5</course>
<desc>Speed 103 km/h Distance 15.16 km</desc>
<time>2010-08-25T16:54:58.52</time>
<name>194</name>
</trkpt>
<trkpt lat="49.548157" lon="9.200155">
<ele>560.5</ele>
<speed>102</speed>
<course>162.0</course>
<desc>Speed 102 km/h Distance 15.22 km</desc>
<time>2010-08-25T16:55:00.51</time>
<name>195</name>
</trkpt>
<trkpt lat="49.547900" lon="9.200283">
<ele>562.0</ele>
<speed>101</speed>
<course>164.3</course>
<desc>Speed 101 km/h Distance 15.25 km</desc>
<time>2010-08-25T16:55:01.51</time>
<name>196</name>
</trkpt>
<trkpt lat="49.547653" lon="9.200390">
<ele>561.5</ele>
<speed>100</speed>
<course>161.2</course>
<desc>Speed 100 km/h Distance 15.28 km</desc>
<time>2010-08-25T16:55:02.51</time>
<name>197</name>
</trkpt>
<trkpt lat="49.547415" lon="9.200515">
<ele>561.5</ele>
<speed>99.3</speed>
<course>160.2</course>
<desc>Speed 99.3 km/h Distance 15.31 km</desc>
<time>2010-08-25T16:55:03.52</time>
<name>198</name>
</trkpt>
<trkpt lat="49.547175" lon="9.200648">
<ele>561.5</ele>
<speed>101</speed>
<course>157.4</course>
<desc>Speed 101 km/h Distance 15.34 km</desc>
<time>2010-08-25T16:55:04.52</time>
<name>199</name>
</trkpt>
<trkpt lat="49.546938" lon="9.200800">
<ele>560.0</ele>
<speed>101</speed>
<course>154.3</course>
<desc>Speed 101 km/h Distance 15.36 km</desc>
<time>2010-08-25T16:55:05.61</time>
<name>200</name>
</trkpt>
<trkpt lat="49.546463" lon="9.201152">
<ele>556.0</ele>
<speed>104</speed>
<course>147.2</course>
<desc>Speed 104 km/h Distance 15.42 km</desc>
<time>2010-08-25T16:55:07.51</time>
<name>201</name>
</trkpt>
<trkpt lat="49.546235" lon="9.201378">
<ele>553.5</ele>
<speed>106</speed>
<course>147.0</course>
<desc>Speed 106 km/h Distance 15.45 km</desc>
<time>2010-08-25T16:55:08.51</time>
<name>202</name>
</trkpt>
<trkpt lat="49.545998" lon="9.201615">
<ele>553.5</ele>
<speed>113</speed>
<course>147.5</course>
<desc>Speed 113 km/h Distance 15.48 km</desc>
<time>2010-08-25T16:55:09.51</time>
<name>203</name>
</trkpt>
<trkpt lat="49.545110" lon="9.202487">
<ele>542.5</ele>
<speed>127</speed>
<course>146.1</course>
<desc>Speed 127 km/h Distance 15.60 km</desc>
<time>2010-08-25T16:55:14.61</time>
<name>204</name>
</trkpt>
<trkpt lat="49.544380" lon="9.203243">
<ele>535.5</ele>
<speed>107</speed>
<course>148.0</course>
<desc>Speed 107 km/h Distance 15.70 km</desc>
<time>2010-08-25T16:55:17.50</time>
<name>205</name>
</trkpt>
<trkpt lat="49.544158" lon="9.203457">
<ele>535.0</ele>
<speed>102</speed>
<course>157.0</course>
<desc>Speed 102 km/h Distance 15.73 km</desc>
<time>2010-08-25T16:55:18.51</time>
<name>206</name>
</trkpt>
<trkpt lat="49.543075" lon="9.204165">
<ele>537.0</ele>
<speed>92.0</speed>
<course>165.4</course>
<desc>Speed 92.0 km/h Distance 15.86 km</desc>
<time>2010-08-25T16:55:22.49</time>
<name>207</name>
</trkpt>
<trkpt lat="49.542570" lon="9.204368">
<ele>533.0</ele>
<speed>94.0</speed>
<course>174.1</course>
<desc>Speed 94.0 km/h Distance 15.92 km</desc>
<time>2010-08-25T16:55:24.51</time>
<name>208</name>
</trkpt>
<trkpt lat="49.542060" lon="9.204450">
<ele>526.5</ele>
<speed>91.0</speed>
<course>175.6</course>
<desc>Speed 91.0 km/h Distance 15.97 km</desc>
<time>2010-08-25T16:55:26.50</time>
<name>209</name>
</trkpt>
<trkpt lat="49.541592" lon="9.204505">
<ele>523.0</ele>
<speed>92.6</speed>
<course>188.3</course>
<desc>Speed 92.6 km/h Distance 16.03 km</desc>
<time>2010-08-25T16:55:28.50</time>
<name>210</name>
</trkpt>
<trkpt lat="49.540750" lon="9.204315">
<ele>527.5</ele>
<speed>71.2</speed>
<course>191.7</course>
<desc>Speed 71.2 km/h Distance 16.12 km</desc>
<time>2010-08-25T16:55:33.49</time>
<name>211</name>
</trkpt>
<trkpt lat="49.540105" lon="9.204110">
<ele>520.0</ele>
<speed>59.6</speed>
<course>188.3</course>
<desc>Speed 59.6 km/h Distance 16.19 km</desc>
<time>2010-08-25T16:55:36.49</time>
<name>212</name>
</trkpt>
<trkpt lat="49.539948" lon="9.204075">
<ele>522.0</ele>
<speed>59.6</speed>
<course>187.5</course>
<desc>Speed 59.6 km/h Distance 16.21 km</desc>
<time>2010-08-25T16:55:37.48</time>
<name>213</name>
</trkpt>
<trkpt lat="49.539535" lon="9.203992">
<ele>519.5</ele>
<speed>51.7</speed>
<course>186.6</course>
<desc>Speed 51.7 km/h Distance 16.26 km</desc>
<time>2010-08-25T16:55:41.48</time>
<name>214</name>
</trkpt>
<trkpt lat="49.539235" lon="9.203938">
<ele>519.0</ele>
<speed>52.6</speed>
<course>181.3</course>
<desc>Speed 52.6 km/h Distance 16.29 km</desc>
<time>2010-08-25T16:55:43.49</time>
<name>215</name>
</trkpt>
<trkpt lat="49.539093" lon="9.203933">
<ele>519.5</ele>
<speed>53.1</speed>
<course>188.5</course>
<desc>Speed 53.1 km/h Distance 16.31 km</desc>
<time>2010-08-25T16:55:44.48</time>
<name>216</name>
</trkpt>
<trkpt lat="49.538948" lon="9.203900">
<ele>519.0</ele>
<speed>54.7</speed>
<course>191.9</course>
<desc>Speed 54.7 km/h Distance 16.32 km</desc>
<time>2010-08-25T16:55:45.48</time>
<name>217</name>
</trkpt>
<trkpt lat="49.538805" lon="9.203853">
<ele>519.5</ele>
<speed>54.0</speed>
<course>195.0</course>
<desc>Speed 54.0 km/h Distance 16.34 km</desc>
<time>2010-08-25T16:55:46.48</time>
<name>218</name>
</trkpt>
<trkpt lat="49.538692" lon="9.203807">
<ele>519.5</ele>
<speed>54.0</speed>
<course>195.9</course>
<desc>Speed 54.0 km/h Distance 16.35 km</desc>
<time>2010-08-25T16:55:47.48</time>
<name>219</name>
</trkpt>
<trkpt lat="49.538448" lon="9.203700">
<ele>517.0</ele>
<speed>54.0</speed>
<course>185.7</course>
<desc>Speed 54.0 km/h Distance 16.38 km</desc>
<time>2010-08-25T16:55:50.47</time>
<name>220</name>
</trkpt>
<trkpt lat="49.538123" lon="9.203650">
<ele>491.5</ele>
<speed>54.0</speed>
<course>175.9</course>
<desc>Speed 54.0 km/h Distance 16.42 km</desc>
<time>2010-08-25T16:55:53.47</time>
<name>221</name>
</trkpt>
<trkpt lat="49.537562" lon="9.203712">
<ele>482.5</ele>
<speed>50.7</speed>
<course>170.4</course>
<desc>Speed 50.7 km/h Distance 16.48 km</desc>
<time>2010-08-25T16:55:56.47</time>
<name>222</name>
</trkpt>
<trkpt lat="49.537177" lon="9.203812">
<ele>489.0</ele>
<speed>29.6</speed>
<course>178.3</course>
<desc>Speed 29.6 km/h Distance 16.52 km</desc>
<time>2010-08-25T16:55:59.47</time>
<name>223</name>
</trkpt>
<trkpt lat="49.536967" lon="9.203822">
<ele>491.0</ele>
<speed>41.3</speed>
<course>170.0</course>
<desc>Speed 41.3 km/h Distance 16.55 km</desc>
<time>2010-08-25T16:56:01.49</time>
<name>224</name>
</trkpt>
<trkpt lat="49.536372" lon="9.203983">
<ele>490.5</ele>
<speed>62.7</speed>
<course>174.7</course>
<desc>Speed 62.7 km/h Distance 16.62 km</desc>
<time>2010-08-25T16:56:05.46</time>
<name>225</name>
</trkpt>
<trkpt lat="49.536032" lon="9.204032">
<ele>493.0</ele>
<speed>60.9</speed>
<course>178.5</course>
<desc>Speed 60.9 km/h Distance 16.65 km</desc>
<time>2010-08-25T16:56:07.45</time>
<name>226</name>
</trkpt>
<trkpt lat="49.535700" lon="9.204045">
<ele>490.0</ele>
<speed>60.9</speed>
<course>201.3</course>
<desc>Speed 60.9 km/h Distance 16.69 km</desc>
<time>2010-08-25T16:56:11.45</time>
<name>227</name>
</trkpt>
<trkpt lat="49.535325" lon="9.203820">
<ele>486.0</ele>
<speed>60.9</speed>
<course>219.0</course>
<desc>Speed 60.9 km/h Distance 16.73 km</desc>
<time>2010-08-25T16:56:18.43</time>
<name>228</name>
</trkpt>
<trkpt lat="49.535117" lon="9.203560">
<ele>483.5</ele>
<speed>60.9</speed>
<course>219.2</course>
<desc>Speed 60.9 km/h Distance 16.76 km</desc>
<time>2010-08-25T16:56:20.43</time>
<name>229</name>
</trkpt>
<trkpt lat="49.534727" lon="9.203070">
<ele>483.5</ele>
<speed>20.8</speed>
<course>220.1</course>
<desc>Speed 20.8 km/h Distance 16.82 km</desc>
<time>2010-08-25T16:56:26.41</time>
<name>230</name>
</trkpt>
<trkpt lat="49.534507" lon="9.202785">
<ele>482.0</ele>
<speed>20.8</speed>
<course>207.9</course>
<desc>Speed 20.8 km/h Distance 16.85 km</desc>
<time>2010-08-25T16:56:29.41</time>
<name>231</name>
</trkpt>
<trkpt lat="49.534353" lon="9.202660">
<ele>483.5</ele>
<speed>20.8</speed>
<course>214.8</course>
<desc>Speed 20.8 km/h Distance 16.87 km</desc>
<time>2010-08-25T16:56:31.40</time>
<name>232</name>
</trkpt>
<trkpt lat="49.533782" lon="9.202048">
<ele>485.5</ele>
<speed>47.2</speed>
<course>185.9</course>
<desc>Speed 47.2 km/h Distance 16.95 km</desc>
<time>2010-08-25T16:56:36.39</time>
<name>233</name>
</trkpt>
<trkpt lat="49.533037" lon="9.201930">
<ele>478.5</ele>
<speed>47.2</speed>
<course>185.4</course>
<desc>Speed 47.2 km/h Distance 17.03 km</desc>
<time>2010-08-25T16:56:40.38</time>
<name>234</name>
</trkpt>
<trkpt lat="49.532842" lon="9.201902">
<ele>470.0</ele>
<speed>47.2</speed>
<course>152.6</course>
<desc>Speed 47.2 km/h Distance 17.05 km</desc>
<time>2010-08-25T16:56:43.38</time>
<name>235</name>
</trkpt>
<trkpt lat="49.531807" lon="9.202727">
<ele>476.5</ele>
<speed>46.8</speed>
<course>119.9</course>
<desc>Speed 46.8 km/h Distance 17.18 km</desc>
<time>2010-08-25T16:56:48.36</time>
<name>236</name>
</trkpt>
<trkpt lat="49.531740" lon="9.202905">
<ele>476.0</ele>
<speed>46.8</speed>
<course>151.6</course>
<desc>Speed 46.8 km/h Distance 17.20 km</desc>
<time>2010-08-25T16:56:49.37</time>
<name>237</name>
</trkpt>
<trkpt lat="49.531542" lon="9.203070">
<ele>478.0</ele>
<speed>46.8</speed>
<course>169.9</course>
<desc>Speed 46.8 km/h Distance 17.22 km</desc>
<time>2010-08-25T16:56:51.36</time>
<name>238</name>
</trkpt>
<trkpt lat="49.531390" lon="9.203112">
<ele>479.0</ele>
<speed>46.8</speed>
<course>119.2</course>
<desc>Speed 46.8 km/h Distance 17.24 km</desc>
<time>2010-08-25T16:56:56.68</time>
<name>239</name>
</trkpt>
<trkpt lat="49.531355" lon="9.203208">
<ele>480.5</ele>
<speed>10.0</speed>
<course>59.8</course>
<desc>Speed 10.0 km/h Distance 17.25 km</desc>
<time>2010-08-25T16:57:02.35</time>
<name>240</name>
</trkpt>
<trkpt lat="49.531378" lon="9.203270">
<ele>485.0</ele>
<speed>15.2</speed>
<course>122.6</course>
<desc>Speed 15.2 km/h Distance 17.25 km</desc>
<time>2010-08-25T16:57:04.35</time>
<name>241</name>
</trkpt>
<trkpt lat="49.531317" lon="9.203418">
<ele>486.0</ele>
<speed>26.5</speed>
<course>119.8</course>
<desc>Speed 26.5 km/h Distance 17.27 km</desc>
<time>2010-08-25T16:57:06.34</time>
<name>242</name>
</trkpt>
<trkpt lat="49.531290" lon="9.203490">
<ele>486.5</ele>
<speed>26.5</speed>
<course>150.3</course>
<desc>Speed 26.5 km/h Distance 17.27 km</desc>
<time>2010-08-25T16:57:07.34</time>
<name>243</name>
</trkpt>
<trkpt lat="49.531222" lon="9.203550">
<ele>487.0</ele>
<speed>26.5</speed>
<course>134.6</course>
<desc>Speed 26.5 km/h Distance 17.28 km</desc>
<time>2010-08-25T16:57:09.34</time>
<name>244</name>
</trkpt>
<trkpt lat="49.531168" lon="9.203633">
<ele>490.0</ele>
<speed>26.5</speed>
<course>179.8</course>
<desc>Speed 26.5 km/h Distance 17.29 km</desc>
<time>2010-08-25T16:57:10.35</time>
<name>245</name>
</trkpt>
<trkpt lat="49.531113" lon="9.203635">
<ele>486.5</ele>
<speed>26.5</speed>
<course>134.6</course>
<desc>Speed 26.5 km/h Distance 17.30 km</desc>
<time>2010-08-25T16:57:11.34</time>
<name>246</name>
</trkpt>
<trkpt lat="49.531072" lon="9.203700">
<ele>487.5</ele>
<speed>26.5</speed>
<course>148.2</course>
<desc>Speed 26.5 km/h Distance 17.30 km</desc>
<time>2010-08-25T16:57:12.34</time>
<name>247</name>
</trkpt>
<trkpt lat="49.530808" lon="9.203952">
<ele>495.5</ele>
<speed>26.5</speed>
<course>166.3</course>
<desc>Speed 26.5 km/h Distance 17.34 km</desc>
<time>2010-08-25T16:57:15.34</time>
<name>248</name>
</trkpt>
<trkpt lat="49.529723" lon="9.204358">
<ele>518.0</ele>
<speed>59.9</speed>
<course>172.3</course>
<desc>Speed 59.9 km/h Distance 17.46 km</desc>
<time>2010-08-25T16:57:21.33</time>
<name>249</name>
</trkpt>
<trkpt lat="49.529142" lon="9.204480">
<ele>512.0</ele>
<speed>56.8</speed>
<course>172.6</course>
<desc>Speed 56.8 km/h Distance 17.53 km</desc>
<time>2010-08-25T16:57:24.32</time>
<name>250</name>
</trkpt>
<trkpt lat="49.528817" lon="9.204545">
<ele>516.0</ele>
<speed>53.4</speed>
<course>164.6</course>
<desc>Speed 53.4 km/h Distance 17.56 km</desc>
<time>2010-08-25T16:57:26.32</time>
<name>251</name>
</trkpt>
<trkpt lat="49.528672" lon="9.204607">
<ele>518.0</ele>
<speed>50.6</speed>
<course>168.2</course>
<desc>Speed 50.6 km/h Distance 17.58 km</desc>
<time>2010-08-25T16:57:27.35</time>
<name>252</name>
</trkpt>
<trkpt lat="49.528362" lon="9.204707">
<ele>519.5</ele>
<speed>51.8</speed>
<course>168.3</course>
<desc>Speed 51.8 km/h Distance 17.62 km</desc>
<time>2010-08-25T16:57:29.31</time>
<name>253</name>
</trkpt>
<trkpt lat="49.528058" lon="9.204803">
<ele>522.5</ele>
<speed>51.9</speed>
<course>172.3</course>
<desc>Speed 51.9 km/h Distance 17.65 km</desc>
<time>2010-08-25T16:57:31.31</time>
<name>254</name>
</trkpt>
<trkpt lat="49.527922" lon="9.204832">
<ele>522.5</ele>
<speed>51.8</speed>
<course>173.1</course>
<desc>Speed 51.8 km/h Distance 17.67 km</desc>
<time>2010-08-25T16:57:32.32</time>
<name>255</name>
</trkpt>
<trkpt lat="49.527787" lon="9.204857">
<ele>523.0</ele>
<speed>49.2</speed>
<course>168.8</course>
<desc>Speed 49.2 km/h Distance 17.68 km</desc>
<time>2010-08-25T16:57:33.32</time>
<name>256</name>
</trkpt>
<trkpt lat="49.527503" lon="9.204943">
<ele>521.5</ele>
<speed>54.5</speed>
<course>173.2</course>
<desc>Speed 54.5 km/h Distance 17.71 km</desc>
<time>2010-08-25T16:57:35.31</time>
<name>257</name>
</trkpt>
<trkpt lat="49.527213" lon="9.204997">
<ele>518.0</ele>
<speed>35.5</speed>
<course>171.6</course>
<desc>Speed 35.5 km/h Distance 17.75 km</desc>
<time>2010-08-25T16:57:38.31</time>
<name>258</name>
</trkpt>
<trkpt lat="49.527125" lon="9.205017">
<ele>514.5</ele>
<speed>9.8</speed>
<course>327.0</course>
<desc>Speed 9.8 km/h Distance 17.76 km</desc>
<time>2010-08-25T16:57:42.31</time>
<name>259</name>
</trkpt>
<trkpt lat="49.527158" lon="9.204983">
<ele>514.5</ele>
<speed>15.1</speed>
<course>292.3</course>
<desc>Speed 15.1 km/h Distance 17.76 km</desc>
<time>2010-08-25T16:57:43.31</time>
<name>260</name>
</trkpt>
<trkpt lat="49.527165" lon="9.204958">
<ele>513.5</ele>
<speed>3.8</speed>
<course>224.5</course>
<desc>Speed 3.8 km/h Distance 17.76 km</desc>
<time>2010-08-25T16:57:45.31</time>
<name>261</name>
</trkpt>
<trkpt lat="49.527162" lon="9.204953">
<ele>513.0</ele>
<speed>2.0</speed>
<course>235.7</course>
<desc>Speed 2.0 km/h Distance 17.76 km</desc>
<time>2010-08-25T16:57:46.31</time>
<name>262</name>
</trkpt>
<trkpt lat="49.527155" lon="9.204938">
<ele>513.0</ele>
<speed>0.9</speed>
<course>335.1</course>
<desc>Speed 0.9 km/h Distance 17.76 km</desc>
<time>2010-08-25T16:57:47.31</time>
<name>263</name>
</trkpt>
<trkpt lat="49.527313" lon="9.204825">
<ele>512.5</ele>
<speed>24.2</speed>
<course>356.0</course>
<desc>Speed 24.2 km/h Distance 17.78 km</desc>
<time>2010-08-25T16:57:51.31</time>
<name>264</name>
</trkpt>
<trkpt lat="49.527437" lon="9.204812">
<ele>513.0</ele>
<speed>35.8</speed>
<course>349.8</course>
<desc>Speed 35.8 km/h Distance 17.80 km</desc>
<time>2010-08-25T16:57:53.30</time>
<name>265</name>
</trkpt>
<trkpt lat="49.527835" lon="9.204702">
<ele>512.5</ele>
<speed>49.4</speed>
<course>346.3</course>
<desc>Speed 49.4 km/h Distance 17.84 km</desc>
<time>2010-08-25T16:57:56.30</time>
<name>266</name>
</trkpt>
<trkpt lat="49.527950" lon="9.204658">
<ele>512.5</ele>
<speed>47.1</speed>
<course>346.9</course>
<desc>Speed 47.1 km/h Distance 17.86 km</desc>
<time>2010-08-25T16:57:57.30</time>
<name>267</name>
</trkpt>
<trkpt lat="49.528080" lon="9.204612">
<ele>512.0</ele>
<speed>52.5</speed>
<course>343.4</course>
<desc>Speed 52.5 km/h Distance 17.87 km</desc>
<time>2010-08-25T16:57:58.33</time>
<name>268</name>
</trkpt>
<trkpt lat="49.528207" lon="9.204553">
<ele>512.5</ele>
<speed>53.4</speed>
<course>340.9</course>
<desc>Speed 53.4 km/h Distance 17.88 km</desc>
<time>2010-08-25T16:57:59.30</time>
<name>269</name>
</trkpt>
<trkpt lat="49.528682" lon="9.204300">
<ele>512.5</ele>
<speed>71.1</speed>
<course>341.9</course>
<desc>Speed 71.1 km/h Distance 17.94 km</desc>
<time>2010-08-25T16:58:02.29</time>
<name>270</name>
</trkpt>
<trkpt lat="49.528853" lon="9.204213">
<ele>512.0</ele>
<speed>71.3</speed>
<course>343.8</course>
<desc>Speed 71.3 km/h Distance 17.96 km</desc>
<time>2010-08-25T16:58:03.29</time>
<name>271</name>
</trkpt>
<trkpt lat="49.529013" lon="9.204142">
<ele>512.0</ele>
<speed>67.1</speed>
<course>349.3</course>
<desc>Speed 67.1 km/h Distance 17.98 km</desc>
<time>2010-08-25T16:58:04.29</time>
<name>272</name>
</trkpt>
<trkpt lat="49.529162" lon="9.204098">
<ele>512.0</ele>
<speed>61.0</speed>
<course>346.3</course>
<desc>Speed 61.0 km/h Distance 18.00 km</desc>
<time>2010-08-25T16:58:05.30</time>
<name>273</name>
</trkpt>
<trkpt lat="49.529303" lon="9.204045">
<ele>511.5</ele>
<speed>59.1</speed>
<course>347.8</course>
<desc>Speed 59.1 km/h Distance 18.01 km</desc>
<time>2010-08-25T16:58:06.29</time>
<name>274</name>
</trkpt>
<trkpt lat="49.529443" lon="9.203998">
<ele>511.5</ele>
<speed>57.4</speed>
<course>345.2</course>
<desc>Speed 57.4 km/h Distance 18.03 km</desc>
<time>2010-08-25T16:58:07.29</time>
<name>275</name>
</trkpt>
<trkpt lat="49.529677" lon="9.203903">
<ele>511.0</ele>
<speed>51.0</speed>
<course>346.7</course>
<desc>Speed 51.0 km/h Distance 18.06 km</desc>
<time>2010-08-25T16:58:09.28</time>
<name>276</name>
</trkpt>
<trkpt lat="49.529800" lon="9.203858">
<ele>511.5</ele>
<speed>50.9</speed>
<course>349.2</course>
<desc>Speed 50.9 km/h Distance 18.07 km</desc>
<time>2010-08-25T16:58:10.28</time>
<name>277</name>
</trkpt>
<trkpt lat="49.529925" lon="9.203822">
<ele>511.5</ele>
<speed>50.7</speed>
<course>349.4</course>
<desc>Speed 50.7 km/h Distance 18.08 km</desc>
<time>2010-08-25T16:58:11.28</time>
<name>278</name>
</trkpt>
<trkpt lat="49.530047" lon="9.203787">
<ele>511.5</ele>
<speed>49.9</speed>
<course>356.1</course>
<desc>Speed 49.9 km/h Distance 18.10 km</desc>
<time>2010-08-25T16:58:12.28</time>
<name>279</name>
</trkpt>
<trkpt lat="49.530188" lon="9.203772">
<ele>511.5</ele>
<speed>57.0</speed>
<course>356.0</course>
<desc>Speed 57.0 km/h Distance 18.11 km</desc>
<time>2010-08-25T16:58:13.28</time>
<name>280</name>
</trkpt>
<trkpt lat="49.530328" lon="9.203757">
<ele>511.0</ele>
<speed>57.3</speed>
<course>348.6</course>
<desc>Speed 57.3 km/h Distance 18.13 km</desc>
<time>2010-08-25T16:58:14.28</time>
<name>281</name>
</trkpt>
<trkpt lat="49.530565" lon="9.203683">
<ele>511.0</ele>
<speed>50.0</speed>
<course>347.8</course>
<desc>Speed 50.0 km/h Distance 18.16 km</desc>
<time>2010-08-25T16:58:16.28</time>
<name>282</name>
</trkpt>
<trkpt lat="49.530680" lon="9.203645">
<ele>511.0</ele>
<speed>47.4</speed>
<course>345.8</course>
<desc>Speed 47.4 km/h Distance 18.17 km</desc>
<time>2010-08-25T16:58:17.28</time>
<name>283</name>
</trkpt>
<trkpt lat="49.530902" lon="9.203558">
<ele>512.0</ele>
<speed>28.0</speed>
<course>351.6</course>
<desc>Speed 28.0 km/h Distance 18.19 km</desc>
<time>2010-08-25T16:58:20.27</time>
<name>284</name>
</trkpt>
<trkpt lat="49.530953" lon="9.203547">
<ele>512.0</ele>
<speed>21.0</speed>
<course>355.9</course>
<desc>Speed 21.0 km/h Distance 18.20 km</desc>
<time>2010-08-25T16:58:21.27</time>
<name>285</name>
</trkpt>
<trkpt lat="49.531000" lon="9.203542">
<ele>512.0</ele>
<speed>19.1</speed>
<course>352.0</course>
<desc>Speed 19.1 km/h Distance 18.21 km</desc>
<time>2010-08-25T16:58:22.28</time>
<name>286</name>
</trkpt>
<trkpt lat="49.531038" lon="9.203533">
<ele>512.5</ele>
<speed>14.7</speed>
<course>0.0</course>
<desc>Speed 14.7 km/h Distance 18.21 km</desc>
<time>2010-08-25T16:58:23.29</time>
<name>287</name>
</trkpt>
<trkpt lat="49.531077" lon="9.203533">
<ele>512.5</ele>
<speed>15.2</speed>
<course>3.9</course>
<desc>Speed 15.2 km/h Distance 18.21 km</desc>
<time>2010-08-25T16:58:24.28</time>
<name>288</name>
</trkpt>
<trkpt lat="49.531108" lon="9.203537">
<ele>512.5</ele>
<speed>12.2</speed>
<course>6.1</course>
<desc>Speed 12.2 km/h Distance 18.22 km</desc>
<time>2010-08-25T16:58:25.28</time>
<name>289</name>
</trkpt>
<trkpt lat="49.531138" lon="9.203542">
<ele>512.5</ele>
<speed>11.2</speed>
<course>6.6</course>
<desc>Speed 11.2 km/h Distance 18.22 km</desc>
<time>2010-08-25T16:58:26.28</time>
<name>290</name>
</trkpt>
<trkpt lat="49.531167" lon="9.203547">
<ele>512.5</ele>
<speed>10.8</speed>
<course>12.8</course>
<desc>Speed 10.8 km/h Distance 18.22 km</desc>
<time>2010-08-25T16:58:27.30</time>
<name>291</name>
</trkpt>
<trkpt lat="49.531233" lon="9.203570">
<ele>514.0</ele>
<speed>14.6</speed>
<course>33.8</course>
<desc>Speed 14.6 km/h Distance 18.23 km</desc>
<time>2010-08-25T16:58:29.27</time>
<name>292</name>
</trkpt>
<trkpt lat="49.531335" lon="9.203675">
<ele>514.5</ele>
<speed>23.3</speed>
<course>32.2</course>
<desc>Speed 23.3 km/h Distance 18.24 km</desc>
<time>2010-08-25T16:58:31.27</time>
<name>293</name>
</trkpt>
<trkpt lat="49.531388" lon="9.203727">
<ele>515.0</ele>
<speed>22.2</speed>
<course>0.9</course>
<desc>Speed 22.2 km/h Distance 18.25 km</desc>
<time>2010-08-25T16:58:32.26</time>
<name>294</name>
</trkpt>
<trkpt lat="49.531448" lon="9.203728">
<ele>515.5</ele>
<speed>23.4</speed>
<course>341.6</course>
<desc>Speed 23.4 km/h Distance 18.26 km</desc>
<time>2010-08-25T16:58:33.27</time>
<name>295</name>
</trkpt>
<trkpt lat="49.531520" lon="9.203692">
<ele>515.5</ele>
<speed>30.1</speed>
<course>283.7</course>
<desc>Speed 30.1 km/h Distance 18.27 km</desc>
<time>2010-08-25T16:58:34.26</time>
<name>296</name>
</trkpt>
<trkpt lat="49.531547" lon="9.203523">
<ele>514.5</ele>
<speed>22.8</speed>
<course>276.8</course>
<desc>Speed 22.8 km/h Distance 18.28 km</desc>
<time>2010-08-25T16:58:36.27</time>
<name>297</name>
</trkpt>
<trkpt lat="49.531553" lon="9.203437">
<ele>514.5</ele>
<speed>22.8</speed>
<course>272.9</course>
<desc>Speed 22.8 km/h Distance 18.29 km</desc>
<time>2010-08-25T16:58:38.27</time>
<name>298</name>
</trkpt>
<trkpt lat="49.531557" lon="9.203335">
<ele>514.5</ele>
<speed>14.3</speed>
<course>231.4</course>
<desc>Speed 14.3 km/h Distance 18.29 km</desc>
<time>2010-08-25T16:58:40.27</time>
<name>299</name>
</trkpt>
<trkpt lat="49.531057" lon="9.202372">
<ele>515.5</ele>
<speed>45.9</speed>
<course>231.4</course>
<desc>Speed 45.9 km/h Distance 18.38 km</desc>
<time>2010-08-25T16:58:46.26</time>
<name>300</name>
</trkpt>
<trkpt lat="49.530890" lon="9.202050">
<ele>516.0</ele>
<speed>47.5</speed>
<course>232.1</course>
<desc>Speed 47.5 km/h Distance 18.41 km</desc>
<time>2010-08-25T16:58:48.26</time>
<name>301</name>
</trkpt>
<trkpt lat="49.530815" lon="9.201902">
<ele>516.5</ele>
<speed>44.2</speed>
<course>233.0</course>
<desc>Speed 44.2 km/h Distance 18.43 km</desc>
<time>2010-08-25T16:58:49.26</time>
<name>302</name>
</trkpt>
<trkpt lat="49.530742" lon="9.201752">
<ele>516.5</ele>
<speed>46.4</speed>
<course>230.9</course>
<desc>Speed 46.4 km/h Distance 18.44 km</desc>
<time>2010-08-25T16:58:50.26</time>
<name>303</name>
</trkpt>
<trkpt lat="49.530662" lon="9.201600">
<ele>516.5</ele>
<speed>45.9</speed>
<course>230.2</course>
<desc>Speed 45.9 km/h Distance 18.45 km</desc>
<time>2010-08-25T16:58:51.26</time>
<name>304</name>
</trkpt>
<trkpt lat="49.530585" lon="9.201458">
<ele>516.5</ele>
<speed>44.4</speed>
<course>229.0</course>
<desc>Speed 44.4 km/h Distance 18.47 km</desc>
<time>2010-08-25T16:58:52.26</time>
<name>305</name>
</trkpt>
<trkpt lat="49.530512" lon="9.201328">
<ele>516.5</ele>
<speed>40.7</speed>
<course>232.0</course>
<desc>Speed 40.7 km/h Distance 18.48 km</desc>
<time>2010-08-25T16:58:53.30</time>
<name>306</name>
</trkpt>
<trkpt lat="49.530452" lon="9.201210">
<ele>516.5</ele>
<speed>36.3</speed>
<course>233.2</course>
<desc>Speed 36.3 km/h Distance 18.49 km</desc>
<time>2010-08-25T16:58:54.27</time>
<name>307</name>
</trkpt>
<trkpt lat="49.530398" lon="9.201100">
<ele>517.0</ele>
<speed>31.5</speed>
<course>236.5</course>
<desc>Speed 31.5 km/h Distance 18.50 km</desc>
<time>2010-08-25T16:58:55.25</time>
<name>308</name>
</trkpt>
<trkpt lat="49.530302" lon="9.200875">
<ele>517.0</ele>
<speed>29.3</speed>
<course>237.6</course>
<desc>Speed 29.3 km/h Distance 18.52 km</desc>
<time>2010-08-25T16:58:57.26</time>
<name>309</name>
</trkpt>
<trkpt lat="49.530255" lon="9.200762">
<ele>517.0</ele>
<speed>33.3</speed>
<course>263.6</course>
<desc>Speed 33.3 km/h Distance 18.53 km</desc>
<time>2010-08-25T16:58:58.25</time>
<name>310</name>
</trkpt>
<trkpt lat="49.530242" lon="9.200578">
<ele>517.0</ele>
<speed>13.1</speed>
<course>216.8</course>
<desc>Speed 13.1 km/h Distance 18.54 km</desc>
<time>2010-08-25T16:59:01.25</time>
<name>311</name>
</trkpt>
<trkpt lat="49.530165" lon="9.200490">
<ele>517.0</ele>
<speed>17.8</speed>
<course>124.1</course>
<desc>Speed 17.8 km/h Distance 18.55 km</desc>
<time>2010-08-25T16:59:03.25</time>
<name>312</name>
</trkpt>
<trkpt lat="49.530147" lon="9.200532">
<ele>517.0</ele>
<speed>15.4</speed>
<course>122.0</course>
<desc>Speed 15.4 km/h Distance 18.56 km</desc>
<time>2010-08-25T16:59:04.25</time>
<name>313</name>
</trkpt>
<trkpt lat="49.530125" lon="9.200585">
<ele>516.5</ele>
<speed>19.3</speed>
<course>111.8</course>
<desc>Speed 19.3 km/h Distance 18.56 km</desc>
<time>2010-08-25T16:59:05.25</time>
<name>314</name>
</trkpt>
<trkpt lat="49.530113" lon="9.200630">
<ele>516.0</ele>
<speed>19.3</speed>
<course>100.9</course>
<desc>Speed 19.3 km/h Distance 18.56 km</desc>
<time>2010-08-25T16:59:06.24</time>
<name>315</name>
</trkpt>
<trkpt lat="49.530107" lon="9.200683">
<ele>516.0</ele>
<speed>19.3</speed>
<course>57.8</course>
<desc>Speed 19.3 km/h Distance 18.57 km</desc>
<time>2010-08-25T16:59:07.24</time>
<name>316</name>
</trkpt>
<trkpt lat="49.530423" lon="9.201458">
<ele>515.5</ele>
<speed>55.4</speed>
<course>53.1</course>
<desc>Speed 55.4 km/h Distance 18.63 km</desc>
<time>2010-08-25T16:59:12.25</time>
<name>317</name>
</trkpt>
<trkpt lat="49.530620" lon="9.201862">
<ele>516.0</ele>
<speed>58.3</speed>
<course>54.8</course>
<desc>Speed 58.3 km/h Distance 18.67 km</desc>
<time>2010-08-25T16:59:14.24</time>
<name>318</name>
</trkpt>
<trkpt lat="49.530712" lon="9.202062">
<ele>516.0</ele>
<speed>59.5</speed>
<course>52.1</course>
<desc>Speed 59.5 km/h Distance 18.69 km</desc>
<time>2010-08-25T16:59:15.24</time>
<name>319</name>
</trkpt>
<trkpt lat="49.530905" lon="9.202445">
<ele>516.0</ele>
<speed>56.7</speed>
<course>53.7</course>
<desc>Speed 56.7 km/h Distance 18.72 km</desc>
<time>2010-08-25T16:59:17.24</time>
<name>320</name>
</trkpt>
<trkpt lat="49.530993" lon="9.202630">
<ele>516.0</ele>
<speed>50.7</speed>
<course>50.9</course>
<desc>Speed 50.7 km/h Distance 18.74 km</desc>
<time>2010-08-25T16:59:18.24</time>
<name>321</name>
</trkpt>
<trkpt lat="49.531075" lon="9.202785">
<ele>516.0</ele>
<speed>49.2</speed>
<course>53.0</course>
<desc>Speed 49.2 km/h Distance 18.76 km</desc>
<time>2010-08-25T16:59:19.24</time>
<name>322</name>
</trkpt>
<trkpt lat="49.531145" lon="9.202928">
<ele>515.0</ele>
<speed>44.4</speed>
<course>67.6</course>
<desc>Speed 44.4 km/h Distance 18.77 km</desc>
<time>2010-08-25T16:59:20.24</time>
<name>323</name>
</trkpt>
<trkpt lat="49.531207" lon="9.203158">
<ele>517.0</ele>
<speed>30.5</speed>
<course>91.2</course>
<desc>Speed 30.5 km/h Distance 18.79 km</desc>
<time>2010-08-25T16:59:22.23</time>
<name>324</name>
</trkpt>
<trkpt lat="49.531205" lon="9.203280">
<ele>517.5</ele>
<speed>30.7</speed>
<course>85.0</course>
<desc>Speed 30.7 km/h Distance 18.79 km</desc>
<time>2010-08-25T16:59:23.24</time>
<name>325</name>
</trkpt>
<trkpt lat="49.531217" lon="9.203485">
<ele>516.5</ele>
<speed>27.8</speed>
<course>53.5</course>
<desc>Speed 27.8 km/h Distance 18.81 km</desc>
<time>2010-08-25T16:59:25.24</time>
<name>326</name>
</trkpt>
<trkpt lat="49.531257" lon="9.203568">
<ele>516.5</ele>
<speed>26.7</speed>
<course>35.9</course>
<desc>Speed 26.7 km/h Distance 18.82 km</desc>
<time>2010-08-25T16:59:26.23</time>
<name>327</name>
</trkpt>
<trkpt lat="49.531315" lon="9.203633">
<ele>517.0</ele>
<speed>28.7</speed>
<course>7.4</course>
<desc>Speed 28.7 km/h Distance 18.83 km</desc>
<time>2010-08-25T16:59:27.22</time>
<name>328</name>
</trkpt>
<trkpt lat="49.531382" lon="9.203647">
<ele>517.0</ele>
<speed>24.3</speed>
<course>7.6</course>
<desc>Speed 24.3 km/h Distance 18.83 km</desc>
<time>2010-08-25T16:59:28.23</time>
<name>329</name>
</trkpt>
<trkpt lat="49.531438" lon="9.203658">
<ele>517.0</ele>
<speed>22.1</speed>
<course>18.4</course>
<desc>Speed 22.1 km/h Distance 18.84 km</desc>
<time>2010-08-25T16:59:29.22</time>
<name>330</name>
</trkpt>
<trkpt lat="49.531507" lon="9.203693">
<ele>516.5</ele>
<speed>28.0</speed>
<course>33.6</course>
<desc>Speed 28.0 km/h Distance 18.85 km</desc>
<time>2010-08-25T16:59:30.22</time>
<name>331</name>
</trkpt>
<trkpt lat="49.531788" lon="9.203982">
<ele>516.0</ele>
<speed>48.7</speed>
<course>34.9</course>
<desc>Speed 48.7 km/h Distance 18.88 km</desc>
<time>2010-08-25T16:59:33.23</time>
<name>332</name>
</trkpt>
<trkpt lat="49.531900" lon="9.204102">
<ele>516.0</ele>
<speed>55.1</speed>
<course>34.0</course>
<desc>Speed 55.1 km/h Distance 18.90 km</desc>
<time>2010-08-25T16:59:34.23</time>
<name>333</name>
</trkpt>
<trkpt lat="49.532023" lon="9.204230">
<ele>516.0</ele>
<speed>57.6</speed>
<course>35.8</course>
<desc>Speed 57.6 km/h Distance 18.92 km</desc>
<time>2010-08-25T16:59:35.23</time>
<name>334</name>
</trkpt>
<trkpt lat="49.532143" lon="9.204363">
<ele>515.5</ele>
<speed>58.3</speed>
<course>38.3</course>
<desc>Speed 58.3 km/h Distance 18.93 km</desc>
<time>2010-08-25T16:59:36.23</time>
<name>335</name>
</trkpt>
<trkpt lat="49.532250" lon="9.204493">
<ele>515.5</ele>
<speed>54.4</speed>
<course>44.2</course>
<desc>Speed 54.4 km/h Distance 18.95 km</desc>
<time>2010-08-25T16:59:37.23</time>
<name>336</name>
</trkpt>
<trkpt lat="49.532343" lon="9.204633">
<ele>515.0</ele>
<speed>52.2</speed>
<course>50.9</course>
<desc>Speed 52.2 km/h Distance 18.96 km</desc>
<time>2010-08-25T16:59:38.23</time>
<name>337</name>
</trkpt>
<trkpt lat="49.532423" lon="9.204785">
<ele>515.0</ele>
<speed>50.8</speed>
<course>57.3</course>
<desc>Speed 50.8 km/h Distance 18.98 km</desc>
<time>2010-08-25T16:59:39.23</time>
<name>338</name>
</trkpt>
<trkpt lat="49.532490" lon="9.204945">
<ele>515.0</ele>
<speed>49.3</speed>
<course>59.4</course>
<desc>Speed 49.3 km/h Distance 18.99 km</desc>
<time>2010-08-25T16:59:40.22</time>
<name>339</name>
</trkpt>
<trkpt lat="49.532553" lon="9.205110">
<ele>515.0</ele>
<speed>49.5</speed>
<course>60.4</course>
<desc>Speed 49.5 km/h Distance 19.00 km</desc>
<time>2010-08-25T16:59:41.21</time>
<name>340</name>
</trkpt>
<trkpt lat="49.532612" lon="9.205268">
<ele>515.0</ele>
<speed>47.1</speed>
<course>58.2</course>
<desc>Speed 47.1 km/h Distance 19.02 km</desc>
<time>2010-08-25T16:59:42.22</time>
<name>341</name>
</trkpt>
<trkpt lat="49.532670" lon="9.205413">
<ele>514.5</ele>
<speed>44.5</speed>
<course>59.9</course>
<desc>Speed 44.5 km/h Distance 19.03 km</desc>
<time>2010-08-25T16:59:43.22</time>
<name>342</name>
</trkpt>
<trkpt lat="49.532723" lon="9.205555">
<ele>514.5</ele>
<speed>42.8</speed>
<course>83.7</course>
<desc>Speed 42.8 km/h Distance 19.04 km</desc>
<time>2010-08-25T16:59:44.22</time>
<name>343</name>
</trkpt>
<trkpt lat="49.532748" lon="9.205903">
<ele>513.5</ele>
<speed>33.2</speed>
<course>131.1</course>
<desc>Speed 33.2 km/h Distance 19.07 km</desc>
<time>2010-08-25T16:59:47.21</time>
<name>344</name>
</trkpt>
<trkpt lat="49.532683" lon="9.206018">
<ele>513.5</ele>
<speed>39.1</speed>
<course>133.5</course>
<desc>Speed 39.1 km/h Distance 19.08 km</desc>
<time>2010-08-25T16:59:48.22</time>
<name>345</name>
</trkpt>
<trkpt lat="49.532608" lon="9.206140">
<ele>513.0</ele>
<speed>43.3</speed>
<course>115.6</course>
<desc>Speed 43.3 km/h Distance 19.09 km</desc>
<time>2010-08-25T16:59:49.21</time>
<name>346</name>
</trkpt>
<trkpt lat="49.532490" lon="9.206520">
<ele>513.0</ele>
<speed>54.4</speed>
<course>110.9</course>
<desc>Speed 54.4 km/h Distance 19.12 km</desc>
<time>2010-08-25T16:59:51.23</time>
<name>347</name>
</trkpt>
<trkpt lat="49.532438" lon="9.206728">
<ele>512.5</ele>
<speed>58.9</speed>
<course>106.1</course>
<desc>Speed 58.9 km/h Distance 19.14 km</desc>
<time>2010-08-25T16:59:52.23</time>
<name>348</name>
</trkpt>
<trkpt lat="49.532400" lon="9.206933">
<ele>512.5</ele>
<speed>55.8</speed>
<course>102.7</course>
<desc>Speed 55.8 km/h Distance 19.15 km</desc>
<time>2010-08-25T16:59:53.23</time>
<name>349</name>
</trkpt>
<trkpt lat="49.532372" lon="9.207127">
<ele>512.5</ele>
<speed>52.6</speed>
<course>101.1</course>
<desc>Speed 52.6 km/h Distance 19.17 km</desc>
<time>2010-08-25T16:59:54.23</time>
<name>350</name>
</trkpt>
<trkpt lat="49.532348" lon="9.207310">
<ele>512.5</ele>
<speed>48.8</speed>
<course>104.5</course>
<desc>Speed 48.8 km/h Distance 19.18 km</desc>
<time>2010-08-25T16:59:55.22</time>
<name>351</name>
</trkpt>
<trkpt lat="49.532320" lon="9.207478">
<ele>512.5</ele>
<speed>45.7</speed>
<course>101.2</course>
<desc>Speed 45.7 km/h Distance 19.19 km</desc>
<time>2010-08-25T16:59:56.22</time>
<name>352</name>
</trkpt>
<trkpt lat="49.532300" lon="9.207633">
<ele>512.0</ele>
<speed>42.0</speed>
<course>100.4</course>
<desc>Speed 42.0 km/h Distance 19.20 km</desc>
<time>2010-08-25T16:59:57.22</time>
<name>353</name>
</trkpt>
<trkpt lat="49.532282" lon="9.207787">
<ele>512.0</ele>
<speed>41.9</speed>
<course>100.2</course>
<desc>Speed 41.9 km/h Distance 19.22 km</desc>
<time>2010-08-25T16:59:58.22</time>
<name>354</name>
</trkpt>
<trkpt lat="49.532263" lon="9.207943">
<ele>511.5</ele>
<speed>42.3</speed>
<course>101.9</course>
<desc>Speed 42.3 km/h Distance 19.23 km</desc>
<time>2010-08-25T16:59:59.21</time>
<name>355</name>
</trkpt>
<trkpt lat="49.532242" lon="9.208102">
<ele>511.5</ele>
<speed>42.4</speed>
<course>100.3</course>
<desc>Speed 42.4 km/h Distance 19.24 km</desc>
<time>2010-08-25T17:00:00.23</time>
<name>356</name>
</trkpt>
<trkpt lat="49.532223" lon="9.208257">
<ele>511.0</ele>
<speed>41.6</speed>
<course>98.2</course>
<desc>Speed 41.6 km/h Distance 19.25 km</desc>
<time>2010-08-25T17:00:01.21</time>
<name>357</name>
</trkpt>
<trkpt lat="49.532210" lon="9.208400">
<ele>510.5</ele>
<speed>38.4</speed>
<course>83.1</course>
<desc>Speed 38.4 km/h Distance 19.26 km</desc>
<time>2010-08-25T17:00:02.22</time>
<name>358</name>
</trkpt>
<trkpt lat="49.532227" lon="9.208612">
<ele>509.0</ele>
<speed>28.9</speed>
<course>74.5</course>
<desc>Speed 28.9 km/h Distance 19.28 km</desc>
<time>2010-08-25T17:00:04.22</time>
<name>359</name>
</trkpt>
<trkpt lat="49.532242" lon="9.208695">
<ele>508.5</ele>
<speed>28.9</speed>
<course>30.8</course>
<desc>Speed 28.9 km/h Distance 19.28 km</desc>
<time>2010-08-25T17:00:05.22</time>
<name>360</name>
</trkpt>
<trkpt lat="49.532302" lon="9.208750">
<ele>508.0</ele>
<speed>26.6</speed>
<course>32.0</course>
<desc>Speed 26.6 km/h Distance 19.29 km</desc>
<time>2010-08-25T17:00:06.22</time>
<name>361</name>
</trkpt>
<trkpt lat="49.532693" lon="9.209127">
<ele>506.5</ele>
<speed>48.3</speed>
<course>30.1</course>
<desc>Speed 48.3 km/h Distance 19.34 km</desc>
<time>2010-08-25T17:00:10.22</time>
<name>362</name>
</trkpt>
<trkpt lat="49.532947" lon="9.209353">
<ele>506.0</ele>
<speed>59.4</speed>
<course>32.3</course>
<desc>Speed 59.4 km/h Distance 19.37 km</desc>
<time>2010-08-25T17:00:12.20</time>
<name>363</name>
</trkpt>
<trkpt lat="49.533075" lon="9.209478">
<ele>505.5</ele>
<speed>59.6</speed>
<course>33.7</course>
<desc>Speed 59.6 km/h Distance 19.39 km</desc>
<time>2010-08-25T17:00:13.21</time>
<name>364</name>
</trkpt>
<trkpt lat="49.533198" lon="9.209605">
<ele>505.5</ele>
<speed>59.3</speed>
<course>35.8</course>
<desc>Speed 59.3 km/h Distance 19.41 km</desc>
<time>2010-08-25T17:00:14.21</time>
<name>365</name>
</trkpt>
<trkpt lat="49.533320" lon="9.209740">
<ele>505.5</ele>
<speed>59.5</speed>
<course>35.1</course>
<desc>Speed 59.5 km/h Distance 19.42 km</desc>
<time>2010-08-25T17:00:15.21</time>
<name>366</name>
</trkpt>
<trkpt lat="49.533443" lon="9.209873">
<ele>505.0</ele>
<speed>59.8</speed>
<course>38.2</course>
<desc>Speed 59.8 km/h Distance 19.44 km</desc>
<time>2010-08-25T17:00:16.21</time>
<name>367</name>
</trkpt>
<trkpt lat="49.533560" lon="9.210015">
<ele>505.0</ele>
<speed>59.1</speed>
<course>39.0</course>
<desc>Speed 59.1 km/h Distance 19.46 km</desc>
<time>2010-08-25T17:00:17.22</time>
<name>368</name>
</trkpt>
<trkpt lat="49.533675" lon="9.210158">
<ele>505.0</ele>
<speed>58.5</speed>
<course>39.8</course>
<desc>Speed 58.5 km/h Distance 19.47 km</desc>
<time>2010-08-25T17:00:18.21</time>
<name>369</name>
</trkpt>
<trkpt lat="49.533787" lon="9.210302">
<ele>505.5</ele>
<speed>58.6</speed>
<course>42.2</course>
<desc>Speed 58.6 km/h Distance 19.49 km</desc>
<time>2010-08-25T17:00:19.21</time>
<name>370</name>
</trkpt>
<trkpt lat="49.533892" lon="9.210448">
<ele>505.0</ele>
<speed>57.2</speed>
<course>43.8</course>
<desc>Speed 57.2 km/h Distance 19.51 km</desc>
<time>2010-08-25T17:00:20.21</time>
<name>371</name>
</trkpt>
<trkpt lat="49.533993" lon="9.210598">
<ele>505.0</ele>
<speed>56.0</speed>
<course>43.9</course>
<desc>Speed 56.0 km/h Distance 19.52 km</desc>
<time>2010-08-25T17:00:21.21</time>
<name>372</name>
</trkpt>
<trkpt lat="49.534093" lon="9.210747">
<ele>505.0</ele>
<speed>56.0</speed>
<course>45.8</course>
<desc>Speed 56.0 km/h Distance 19.54 km</desc>
<time>2010-08-25T17:00:22.20</time>
<name>373</name>
</trkpt>
<trkpt lat="49.534190" lon="9.210900">
<ele>505.0</ele>
<speed>55.9</speed>
<course>44.7</course>
<desc>Speed 55.9 km/h Distance 19.55 km</desc>
<time>2010-08-25T17:00:23.21</time>
<name>374</name>
</trkpt>
<trkpt lat="49.534292" lon="9.211055">
<ele>505.5</ele>
<speed>56.6</speed>
<course>45.5</course>
<desc>Speed 56.6 km/h Distance 19.57 km</desc>
<time>2010-08-25T17:00:24.21</time>
<name>375</name>
</trkpt>
<trkpt lat="49.534392" lon="9.211212">
<ele>505.5</ele>
<speed>56.8</speed>
<course>51.1</course>
<desc>Speed 56.8 km/h Distance 19.58 km</desc>
<time>2010-08-25T17:00:25.20</time>
<name>376</name>
</trkpt>
<trkpt lat="49.534483" lon="9.211387">
<ele>506.0</ele>
<speed>58.3</speed>
<course>56.5</course>
<desc>Speed 58.3 km/h Distance 19.60 km</desc>
<time>2010-08-25T17:00:26.21</time>
<name>377</name>
</trkpt>
<trkpt lat="49.534565" lon="9.211577">
<ele>504.5</ele>
<speed>59.0</speed>
<course>48.0</course>
<desc>Speed 59.0 km/h Distance 19.62 km</desc>
<time>2010-08-25T17:00:27.21</time>
<name>378</name>
</trkpt>
<trkpt lat="49.534668" lon="9.211753">
<ele>505.5</ele>
<speed>60.8</speed>
<course>43.4</course>
<desc>Speed 60.8 km/h Distance 19.63 km</desc>
<time>2010-08-25T17:00:28.20</time>
<name>379</name>
</trkpt>
<trkpt lat="49.534782" lon="9.211918">
<ele>505.5</ele>
<speed>62.4</speed>
<course>45.1</course>
<desc>Speed 62.4 km/h Distance 19.65 km</desc>
<time>2010-08-25T17:00:29.20</time>
<name>380</name>
</trkpt>
<trkpt lat="49.534895" lon="9.212093">
<ele>506.5</ele>
<speed>63.1</speed>
<course>49.3</course>
<desc>Speed 63.1 km/h Distance 19.67 km</desc>
<time>2010-08-25T17:00:30.20</time>
<name>381</name>
</trkpt>
<trkpt lat="49.534998" lon="9.212278">
<ele>506.5</ele>
<speed>63.1</speed>
<course>51.4</course>
<desc>Speed 63.1 km/h Distance 19.69 km</desc>
<time>2010-08-25T17:00:31.19</time>
<name>382</name>
</trkpt>
<trkpt lat="49.535098" lon="9.212472">
<ele>506.5</ele>
<speed>64.5</speed>
<course>54.6</course>
<desc>Speed 64.5 km/h Distance 19.70 km</desc>
<time>2010-08-25T17:00:32.20</time>
<name>383</name>
</trkpt>
<trkpt lat="49.535197" lon="9.212685">
<ele>507.0</ele>
<speed>67.3</speed>
<course>56.4</course>
<desc>Speed 67.3 km/h Distance 19.72 km</desc>
<time>2010-08-25T17:00:33.19</time>
<name>384</name>
</trkpt>
<trkpt lat="49.535295" lon="9.212913">
<ele>506.5</ele>
<speed>70.9</speed>
<course>57.1</course>
<desc>Speed 70.9 km/h Distance 19.74 km</desc>
<time>2010-08-25T17:00:34.20</time>
<name>385</name>
</trkpt>
<trkpt lat="49.535395" lon="9.213152">
<ele>506.5</ele>
<speed>73.4</speed>
<course>56.4</course>
<desc>Speed 73.4 km/h Distance 19.76 km</desc>
<time>2010-08-25T17:00:35.19</time>
<name>386</name>
</trkpt>
<trkpt lat="49.535500" lon="9.213395">
<ele>506.5</ele>
<speed>75.8</speed>
<course>55.4</course>
<desc>Speed 75.8 km/h Distance 19.78 km</desc>
<time>2010-08-25T17:00:36.20</time>
<name>387</name>
</trkpt>
<trkpt lat="49.535615" lon="9.213652">
<ele>506.5</ele>
<speed>80.6</speed>
<course>55.1</course>
<desc>Speed 80.6 km/h Distance 19.81 km</desc>
<time>2010-08-25T17:00:37.19</time>
<name>388</name>
</trkpt>
<trkpt lat="49.535875" lon="9.214227">
<ele>506.0</ele>
<speed>92.3</speed>
<course>52.4</course>
<desc>Speed 92.3 km/h Distance 19.86 km</desc>
<time>2010-08-25T17:00:39.18</time>
<name>389</name>
</trkpt>
<trkpt lat="49.536013" lon="9.214503">
<ele>506.0</ele>
<speed>90.4</speed>
<course>50.1</course>
<desc>Speed 90.4 km/h Distance 19.88 km</desc>
<time>2010-08-25T17:00:40.19</time>
<name>390</name>
</trkpt>
<trkpt lat="49.536163" lon="9.214780">
<ele>506.0</ele>
<speed>94.0</speed>
<course>45.2</course>
<desc>Speed 94.0 km/h Distance 19.91 km</desc>
<time>2010-08-25T17:00:41.18</time>
<name>391</name>
</trkpt>
<trkpt lat="49.536518" lon="9.215330">
<ele>506.0</ele>
<speed>93.0</speed>
<course>44.2</course>
<desc>Speed 93.0 km/h Distance 19.97 km</desc>
<time>2010-08-25T17:00:43.19</time>
<name>392</name>
</trkpt>
<trkpt lat="49.536692" lon="9.215590">
<ele>506.0</ele>
<speed>96.6</speed>
<course>44.6</course>
<desc>Speed 96.6 km/h Distance 19.99 km</desc>
<time>2010-08-25T17:00:44.19</time>
<name>393</name>
</trkpt>
<trkpt lat="49.537080" lon="9.216180">
<ele>506.5</ele>
<speed>110</speed>
<course>43.5</course>
<desc>Speed 110 km/h Distance 20.05 km</desc>
<time>2010-08-25T17:00:46.19</time>
<name>394</name>
</trkpt>
<trkpt lat="49.537288" lon="9.216485">
<ele>506.5</ele>
<speed>115</speed>
<course>43.5</course>
<desc>Speed 115 km/h Distance 20.08 km</desc>
<time>2010-08-25T17:00:47.19</time>
<name>395</name>
</trkpt>
<trkpt lat="49.537505" lon="9.216802">
<ele>506.5</ele>
<speed>120</speed>
<course>43.6</course>
<desc>Speed 120 km/h Distance 20.12 km</desc>
<time>2010-08-25T17:00:48.19</time>
<name>396</name>
</trkpt>
<trkpt lat="49.537913" lon="9.217402">
<ele>507.0</ele>
<speed>126</speed>
<course>43.8</course>
<desc>Speed 126 km/h Distance 20.18 km</desc>
<time>2010-08-25T17:00:50.19</time>
<name>397</name>
</trkpt>
<trkpt lat="49.538738" lon="9.218622">
<ele>506.5</ele>
<speed>125</speed>
<course>44.4</course>
<desc>Speed 125 km/h Distance 20.31 km</desc>
<time>2010-08-25T17:00:55.18</time>
<name>398</name>
</trkpt>
<trkpt lat="49.539437" lon="9.219677">
<ele>508.0</ele>
<speed>128</speed>
<course>52.0</course>
<desc>Speed 128 km/h Distance 20.42 km</desc>
<time>2010-08-25T17:01:00.18</time>
<name>399</name>
</trkpt>
<trkpt lat="49.539847" lon="9.220485">
<ele>508.0</ele>
<speed>125</speed>
<course>49.2</course>
<desc>Speed 125 km/h Distance 20.49 km</desc>
<time>2010-08-25T17:01:02.18</time>
<name>400</name>
</trkpt>
<trkpt lat="49.540365" lon="9.221410">
<ele>508.0</ele>
<speed>125</speed>
<course>49.4</course>
<desc>Speed 125 km/h Distance 20.58 km</desc>
<time>2010-08-25T17:01:05.17</time>
<name>401</name>
</trkpt>
<trkpt lat="49.540563" lon="9.221767">
<ele>508.5</ele>
<speed>125</speed>
<course>39.7</course>
<desc>Speed 125 km/h Distance 20.61 km</desc>
<time>2010-08-25T17:01:06.16</time>
<name>402</name>
</trkpt>
<trkpt lat="49.541587" lon="9.223077">
<ele>508.5</ele>
<speed>129</speed>
<course>50.5</course>
<desc>Speed 129 km/h Distance 20.76 km</desc>
<time>2010-08-25T17:01:10.17</time>
<name>403</name>
</trkpt>
<trkpt lat="49.543093" lon="9.225893">
<ele>514.0</ele>
<speed>88.4</speed>
<course>37.4</course>
<desc>Speed 88.4 km/h Distance 21.03 km</desc>
<time>2010-08-25T17:01:16.17</time>
<name>404</name>
</trkpt>
<trkpt lat="49.543983" lon="9.226943">
<ele>515.0</ele>
<speed>109</speed>
<course>41.1</course>
<desc>Speed 109 km/h Distance 21.15 km</desc>
<time>2010-08-25T17:01:20.17</time>
<name>405</name>
</trkpt>
<trkpt lat="49.544435" lon="9.227550">
<ele>512.0</ele>
<speed>112</speed>
<course>47.3</course>
<desc>Speed 112 km/h Distance 21.22 km</desc>
<time>2010-08-25T17:01:22.15</time>
<name>406</name>
</trkpt>
<trkpt lat="49.544822" lon="9.228197">
<ele>508.0</ele>
<speed>104</speed>
<course>49.6</course>
<desc>Speed 104 km/h Distance 21.28 km</desc>
<time>2010-08-25T17:01:24.15</time>
<name>407</name>
</trkpt>
<trkpt lat="49.544998" lon="9.228517">
<ele>504.5</ele>
<speed>104</speed>
<course>53.5</course>
<desc>Speed 104 km/h Distance 21.31 km</desc>
<time>2010-08-25T17:01:25.16</time>
<name>408</name>
</trkpt>
<trkpt lat="49.545155" lon="9.228843">
<ele>500.5</ele>
<speed>99.9</speed>
<course>54.0</course>
<desc>Speed 99.9 km/h Distance 21.34 km</desc>
<time>2010-08-25T17:01:26.15</time>
<name>409</name>
</trkpt>
<trkpt lat="49.545303" lon="9.229158">
<ele>499.0</ele>
<speed>93.3</speed>
<course>49.1</course>
<desc>Speed 93.3 km/h Distance 21.37 km</desc>
<time>2010-08-25T17:01:27.15</time>
<name>410</name>
</trkpt>
<trkpt lat="49.545630" lon="9.229740">
<ele>497.5</ele>
<speed>91.6</speed>
<course>58.8</course>
<desc>Speed 91.6 km/h Distance 21.42 km</desc>
<time>2010-08-25T17:01:29.15</time>
<name>411</name>
</trkpt>
<trkpt lat="49.545755" lon="9.230058">
<ele>495.5</ele>
<speed>96.1</speed>
<course>62.0</course>
<desc>Speed 96.1 km/h Distance 21.45 km</desc>
<time>2010-08-25T17:01:30.15</time>
<name>412</name>
</trkpt>
<trkpt lat="49.545868" lon="9.230387">
<ele>493.0</ele>
<speed>96.4</speed>
<course>67.8</course>
<desc>Speed 96.4 km/h Distance 21.48 km</desc>
<time>2010-08-25T17:01:31.15</time>
<name>413</name>
</trkpt>
<trkpt lat="49.545960" lon="9.230733">
<ele>492.5</ele>
<speed>94.6</speed>
<course>69.8</course>
<desc>Speed 94.6 km/h Distance 21.50 km</desc>
<time>2010-08-25T17:01:32.15</time>
<name>414</name>
</trkpt>
<trkpt lat="49.546102" lon="9.231328">
<ele>490.0</ele>
<speed>83.6</speed>
<course>71.1</course>
<desc>Speed 83.6 km/h Distance 21.55 km</desc>
<time>2010-08-25T17:01:34.15</time>
<name>415</name>
</trkpt>
<trkpt lat="49.546167" lon="9.231622">
<ele>490.0</ele>
<speed>80.4</speed>
<course>74.5</course>
<desc>Speed 80.4 km/h Distance 21.57 km</desc>
<time>2010-08-25T17:01:35.15</time>
<name>416</name>
</trkpt>
<trkpt lat="49.546265" lon="9.232168">
<ele>489.5</ele>
<speed>73.5</speed>
<course>75.5</course>
<desc>Speed 73.5 km/h Distance 21.61 km</desc>
<time>2010-08-25T17:01:37.15</time>
<name>417</name>
</trkpt>
<trkpt lat="49.546310" lon="9.232437">
<ele>489.5</ele>
<speed>70.3</speed>
<course>76.6</course>
<desc>Speed 70.3 km/h Distance 21.63 km</desc>
<time>2010-08-25T17:01:38.15</time>
<name>418</name>
</trkpt>
<trkpt lat="49.546353" lon="9.232717">
<ele>490.0</ele>
<speed>72.0</speed>
<course>74.2</course>
<desc>Speed 72.0 km/h Distance 21.65 km</desc>
<time>2010-08-25T17:01:39.16</time>
<name>419</name>
</trkpt>
<trkpt lat="49.546403" lon="9.232988">
<ele>490.0</ele>
<speed>72.6</speed>
<course>64.7</course>
<desc>Speed 72.6 km/h Distance 21.67 km</desc>
<time>2010-08-25T17:01:40.14</time>
<name>420</name>
</trkpt>
<trkpt lat="49.546487" lon="9.233260">
<ele>490.0</ele>
<speed>76.5</speed>
<course>56.6</course>
<desc>Speed 76.5 km/h Distance 21.70 km</desc>
<time>2010-08-25T17:01:41.15</time>
<name>421</name>
</trkpt>
<trkpt lat="49.546597" lon="9.233517">
<ele>490.5</ele>
<speed>78.4</speed>
<course>49.1</course>
<desc>Speed 78.4 km/h Distance 21.72 km</desc>
<time>2010-08-25T17:01:42.15</time>
<name>422</name>
</trkpt>
<trkpt lat="49.547430" lon="9.235002">
<ele>492.0</ele>
<speed>106</speed>
<course>53.0</course>
<desc>Speed 106 km/h Distance 21.86 km</desc>
<time>2010-08-25T17:01:47.14</time>
<name>423</name>
</trkpt>
<trkpt lat="49.547730" lon="9.235615">
<ele>492.0</ele>
<speed>94.6</speed>
<course>40.4</course>
<desc>Speed 94.6 km/h Distance 21.92 km</desc>
<time>2010-08-25T17:01:49.14</time>
<name>424</name>
</trkpt>
<trkpt lat="49.548080" lon="9.236073">
<ele>492.0</ele>
<speed>87.4</speed>
<course>42.7</course>
<desc>Speed 87.4 km/h Distance 21.97 km</desc>
<time>2010-08-25T17:01:51.13</time>
<name>425</name>
</trkpt>
<trkpt lat="49.548230" lon="9.236287">
<ele>492.0</ele>
<speed>80.9</speed>
<course>40.1</course>
<desc>Speed 80.9 km/h Distance 21.99 km</desc>
<time>2010-08-25T17:01:52.14</time>
<name>426</name>
</trkpt>
<trkpt lat="49.548380" lon="9.236482">
<ele>492.5</ele>
<speed>77.3</speed>
<course>39.7</course>
<desc>Speed 77.3 km/h Distance 22.01 km</desc>
<time>2010-08-25T17:01:53.13</time>
<name>427</name>
</trkpt>
<trkpt lat="49.548530" lon="9.236673">
<ele>494.5</ele>
<speed>76.5</speed>
<course>39.0</course>
<desc>Speed 76.5 km/h Distance 22.03 km</desc>
<time>2010-08-25T17:01:54.13</time>
<name>428</name>
</trkpt>
<trkpt lat="49.548672" lon="9.236850">
<ele>494.0</ele>
<speed>71.0</speed>
<course>39.9</course>
<desc>Speed 71.0 km/h Distance 22.05 km</desc>
<time>2010-08-25T17:01:55.13</time>
<name>429</name>
</trkpt>
<trkpt lat="49.548798" lon="9.237013">
<ele>494.5</ele>
<speed>65.7</speed>
<course>38.0</course>
<desc>Speed 65.7 km/h Distance 22.07 km</desc>
<time>2010-08-25T17:01:56.13</time>
<name>430</name>
</trkpt>
<trkpt lat="49.548922" lon="9.237162">
<ele>494.5</ele>
<speed>61.9</speed>
<course>35.2</course>
<desc>Speed 61.9 km/h Distance 22.09 km</desc>
<time>2010-08-25T17:01:57.12</time>
<name>431</name>
</trkpt>
<trkpt lat="49.549038" lon="9.237288">
<ele>494.5</ele>
<speed>55.4</speed>
<course>35.7</course>
<desc>Speed 55.4 km/h Distance 22.11 km</desc>
<time>2010-08-25T17:01:58.15</time>
<name>432</name>
</trkpt>
<trkpt lat="49.549148" lon="9.237410">
<ele>494.5</ele>
<speed>52.9</speed>
<course>34.6</course>
<desc>Speed 52.9 km/h Distance 22.12 km</desc>
<time>2010-08-25T17:01:59.13</time>
<name>433</name>
</trkpt>
<trkpt lat="49.549255" lon="9.237523">
<ele>494.5</ele>
<speed>50.9</speed>
<course>36.0</course>
<desc>Speed 50.9 km/h Distance 22.13 km</desc>
<time>2010-08-25T17:02:00.13</time>
<name>434</name>
</trkpt>
<trkpt lat="49.549352" lon="9.237632">
<ele>493.5</ele>
<speed>47.6</speed>
<course>37.7</course>
<desc>Speed 47.6 km/h Distance 22.15 km</desc>
<time>2010-08-25T17:02:01.12</time>
<name>435</name>
</trkpt>
<trkpt lat="49.549447" lon="9.237745">
<ele>493.5</ele>
<speed>47.8</speed>
<course>41.5</course>
<desc>Speed 47.8 km/h Distance 22.16 km</desc>
<time>2010-08-25T17:02:02.12</time>
<name>436</name>
</trkpt>
<trkpt lat="49.549533" lon="9.237863">
<ele>493.0</ele>
<speed>45.8</speed>
<course>33.0</course>
<desc>Speed 45.8 km/h Distance 22.17 km</desc>
<time>2010-08-25T17:02:03.12</time>
<name>437</name>
</trkpt>
<trkpt lat="49.549625" lon="9.237955">
<ele>492.5</ele>
<speed>43.7</speed>
<course>49.6</course>
<desc>Speed 43.7 km/h Distance 22.19 km</desc>
<time>2010-08-25T17:02:04.13</time>
<name>438</name>
</trkpt>
<trkpt lat="49.549697" lon="9.238085">
<ele>490.5</ele>
<speed>43.8</speed>
<course>55.7</course>
<desc>Speed 43.8 km/h Distance 22.20 km</desc>
<time>2010-08-25T17:02:05.24</time>
<name>439</name>
</trkpt>
<trkpt lat="49.549837" lon="9.238402">
<ele>488.5</ele>
<speed>49.4</speed>
<course>55.8</course>
<desc>Speed 49.4 km/h Distance 22.23 km</desc>
<time>2010-08-25T17:02:07.13</time>
<name>440</name>
</trkpt>
<trkpt lat="49.549912" lon="9.238572">
<ele>488.0</ele>
<speed>51.6</speed>
<course>56.9</course>
<desc>Speed 51.6 km/h Distance 22.24 km</desc>
<time>2010-08-25T17:02:08.11</time>
<name>441</name>
</trkpt>
<trkpt lat="49.549985" lon="9.238745">
<ele>488.5</ele>
<speed>52.7</speed>
<course>57.7</course>
<desc>Speed 52.7 km/h Distance 22.26 km</desc>
<time>2010-08-25T17:02:09.12</time>
<name>442</name>
</trkpt>
<trkpt lat="49.550057" lon="9.238920">
<ele>487.5</ele>
<speed>53.2</speed>
<course>59.1</course>
<desc>Speed 53.2 km/h Distance 22.27 km</desc>
<time>2010-08-25T17:02:10.11</time>
<name>443</name>
</trkpt>
<trkpt lat="49.550127" lon="9.239100">
<ele>486.5</ele>
<speed>54.7</speed>
<course>59.2</course>
<desc>Speed 54.7 km/h Distance 22.29 km</desc>
<time>2010-08-25T17:02:11.11</time>
<name>444</name>
</trkpt>
<trkpt lat="49.550198" lon="9.239285">
<ele>486.0</ele>
<speed>55.2</speed>
<course>58.2</course>
<desc>Speed 55.2 km/h Distance 22.30 km</desc>
<time>2010-08-25T17:02:12.11</time>
<name>445</name>
</trkpt>
<trkpt lat="49.550270" lon="9.239463">
<ele>486.0</ele>
<speed>54.3</speed>
<course>50.1</course>
<desc>Speed 54.3 km/h Distance 22.32 km</desc>
<time>2010-08-25T17:02:13.11</time>
<name>446</name>
</trkpt>
<trkpt lat="49.550357" lon="9.239623">
<ele>485.5</ele>
<speed>53.2</speed>
<course>63.3</course>
<desc>Speed 53.2 km/h Distance 22.33 km</desc>
<time>2010-08-25T17:02:14.11</time>
<name>447</name>
</trkpt>
<trkpt lat="49.550412" lon="9.239792">
<ele>486.0</ele>
<speed>48.7</speed>
<course>58.3</course>
<desc>Speed 48.7 km/h Distance 22.35 km</desc>
<time>2010-08-25T17:02:15.12</time>
<name>448</name>
</trkpt>
<trkpt lat="49.550472" lon="9.239942">
<ele>486.0</ele>
<speed>45.2</speed>
<course>62.7</course>
<desc>Speed 45.2 km/h Distance 22.36 km</desc>
<time>2010-08-25T17:02:16.11</time>
<name>449</name>
</trkpt>
<trkpt lat="49.550580" lon="9.240265">
<ele>487.0</ele>
<speed>27.0</speed>
<course>43.6</course>
<desc>Speed 27.0 km/h Distance 22.38 km</desc>
<time>2010-08-25T17:02:19.11</time>
<name>450</name>
</trkpt>
<trkpt lat="49.550655" lon="9.240375">
<ele>487.5</ele>
<speed>26.1</speed>
<course>9.6</course>
<desc>Speed 26.1 km/h Distance 22.40 km</desc>
<time>2010-08-25T17:02:21.11</time>
<name>451</name>
</trkpt>
<trkpt lat="49.550725" lon="9.240393">
<ele>487.0</ele>
<speed>16.0</speed>
<course>9.3</course>
<desc>Speed 16.0 km/h Distance 22.40 km</desc>
<time>2010-08-25T17:02:23.11</time>
<name>452</name>
</trkpt>
<trkpt lat="49.550752" lon="9.240400">
<ele>487.5</ele>
<speed>16.0</speed>
<course>353.4</course>
<desc>Speed 16.0 km/h Distance 22.41 km</desc>
<time>2010-08-25T17:02:24.11</time>
<name>453</name>
</trkpt>
<trkpt lat="49.550798" lon="9.240392">
<ele>488.0</ele>
<speed>16.0</speed>
<course>321.8</course>
<desc>Speed 16.0 km/h Distance 22.41 km</desc>
<time>2010-08-25T17:02:26.10</time>
<name>454</name>
</trkpt>
<trkpt lat="49.551268" lon="9.239822">
<ele>489.5</ele>
<speed>46.7</speed>
<course>314.2</course>
<desc>Speed 46.7 km/h Distance 22.48 km</desc>
<time>2010-08-25T17:02:31.10</time>
<name>455</name>
</trkpt>
<trkpt lat="49.551442" lon="9.239547">
<ele>489.5</ele>
<speed>45.0</speed>
<course>303.4</course>
<desc>Speed 45.0 km/h Distance 22.51 km</desc>
<time>2010-08-25T17:02:33.09</time>
<name>456</name>
</trkpt>
<trkpt lat="49.551560" lon="9.239270">
<ele>488.5</ele>
<speed>0.4</speed>
<course>321.3</course>
<desc>Speed 0.4 km/h Distance 22.53 km</desc>
<time>2010-08-25T17:02:39.08</time>
<name>457</name>
</trkpt>
<trkpt lat="49.551567" lon="9.239262">
<ele>487.5</ele>
<speed>0.0</speed>
<course>270.0</course>
<desc>Speed 0.0 km/h Distance 22.53 km</desc>
<time>2010-08-25T17:02:41.11</time>
<name>458</name>
</trkpt>
<trkpt lat="49.551567" lon="9.239253">
<ele>487.5</ele>
<speed>1.6</speed>
<course>327.4</course>
<desc>Speed 1.6 km/h Distance 22.53 km</desc>
<time>2010-08-25T17:02:42.08</time>
<name>459</name>
</trkpt>
<trkpt lat="49.551573" lon="9.239247">
<ele>487.5</ele>
<speed>0.3</speed>
<course>213.7</course>
<desc>Speed 0.3 km/h Distance 22.53 km</desc>
<time>2010-08-25T17:02:43.08</time>
<name>460</name>
</trkpt>
<trkpt lat="49.551570" lon="9.239243">
<ele>487.0</ele>
<speed>0.1</speed>
<course>211.6</course>
<desc>Speed 0.1 km/h Distance 22.53 km</desc>
<time>2010-08-25T17:02:44.08</time>
<name>461</name>
</trkpt>
<trkpt lat="49.551567" lon="9.239240">
<ele>487.0</ele>
<speed>0.1</speed>
<course>0.0</course>
<desc>Speed 0.1 km/h Distance 22.53 km</desc>
<time>2010-08-25T17:02:45.09</time>
<name>462</name>
</trkpt>
<trkpt lat="49.551577" lon="9.239240">
<ele>487.5</ele>
<speed>0.3</speed>
<course>322.8</course>
<desc>Speed 0.3 km/h Distance 22.53 km</desc>
<time>2010-08-25T17:02:46.08</time>
<name>463</name>
</trkpt>
<trkpt lat="49.551578" lon="9.239238">
<ele>487.5</ele>
<speed>0.3</speed>
<course>190.4</course>
<desc>Speed 0.3 km/h Distance 22.54 km</desc>
<time>2010-08-25T17:02:47.08</time>
<name>464</name>
</trkpt>
<trkpt lat="49.551567" lon="9.239235">
<ele>486.0</ele>
<speed>6.0</speed>
<course>190.4</course>
<desc>Speed 6.0 km/h Distance 22.54 km</desc>
<time>2010-08-25T17:02:48.07</time>
<name>465</name>
</trkpt>
<trkpt lat="49.551567" lon="9.239235">
<ele>486.0</ele>
<speed>1.2</speed>
<course>305.1</course>
<desc>Speed 1.2 km/h Distance 22.54 km</desc>
<time>2010-08-25T17:02:49.32</time>
<name>466</name>
</trkpt>
<trkpt lat="49.551575" lon="9.239217">
<ele>486.0</ele>
<speed>5.5</speed>
<course>305.1</course>
<desc>Speed 5.5 km/h Distance 22.54 km</desc>
<time>2010-08-25T17:02:51.09</time>
<name>467</name>
</trkpt>
<trkpt lat="49.551575" lon="9.239217">
<ele>486.0</ele>
<speed>0.5</speed>
<course>23.8</course>
<desc>Speed 0.5 km/h Distance 22.54 km</desc>
<time>2010-08-25T17:02:52.08</time>
<name>468</name>
</trkpt>
<trkpt lat="49.551580" lon="9.239220">
<ele>486.0</ele>
<speed>1.2</speed>
<course>18.8</course>
<desc>Speed 1.2 km/h Distance 22.54 km</desc>
<time>2010-08-25T17:02:53.08</time>
<name>469</name>
</trkpt>
<trkpt lat="49.551583" lon="9.239222">
<ele>486.0</ele>
<speed>0.5</speed>
<course>12.6</course>
<desc>Speed 0.5 km/h Distance 22.54 km</desc>
<time>2010-08-25T17:02:54.08</time>
<name>470</name>
</trkpt>
<trkpt lat="49.551587" lon="9.239223">
<ele>485.5</ele>
<speed>0.2</speed>
<course>347.4</course>
<desc>Speed 0.2 km/h Distance 22.54 km</desc>
<time>2010-08-25T17:02:55.07</time>
<name>471</name>
</trkpt>
<trkpt lat="49.551592" lon="9.239222">
<ele>485.5</ele>
<speed>1.0</speed>
<course>33.7</course>
<desc>Speed 1.0 km/h Distance 22.54 km</desc>
<time>2010-08-25T17:02:56.07</time>
<name>472</name>
</trkpt>
<trkpt lat="49.551595" lon="9.239225">
<ele>486.0</ele>
<speed>0.2</speed>
<course>12.6</course>
<desc>Speed 0.2 km/h Distance 22.54 km</desc>
<time>2010-08-25T17:02:57.06</time>
<name>473</name>
</trkpt>
<trkpt lat="49.551597" lon="9.239225">
<ele>486.0</ele>
<speed>0.3</speed>
<course>347.4</course>
<desc>Speed 0.3 km/h Distance 22.54 km</desc>
<time>2010-08-25T17:02:58.06</time>
<name>474</name>
</trkpt>
<trkpt lat="49.551600" lon="9.239223">
<ele>485.5</ele>
<speed>0.3</speed>
<course>13.5</course>
<desc>Speed 0.3 km/h Distance 22.54 km</desc>
<time>2010-08-25T17:02:59.07</time>
<name>475</name>
</trkpt>
<trkpt lat="49.551613" lon="9.239228">
<ele>486.0</ele>
<speed>0.1</speed>
<course>9.5</course>
<desc>Speed 0.1 km/h Distance 22.54 km</desc>
<time>2010-08-25T17:03:00.06</time>
<name>476</name>
</trkpt>
<trkpt lat="49.551633" lon="9.239233">
<ele>486.5</ele>
<speed>0.1</speed>
<course>37.2</course>
<desc>Speed 0.1 km/h Distance 22.54 km</desc>
<time>2010-08-25T17:03:02.06</time>
<name>477</name>
</trkpt>
<trkpt lat="49.551635" lon="9.239235">
<ele>486.5</ele>
<speed>0.3</speed>
<course>297.4</course>
<desc>Speed 0.3 km/h Distance 22.55 km</desc>
<time>2010-08-25T17:03:03.06</time>
<name>478</name>
</trkpt>
<trkpt lat="49.551637" lon="9.239230">
<ele>486.5</ele>
<speed>0.7</speed>
<course>5.0</course>
<desc>Speed 0.7 km/h Distance 22.55 km</desc>
<time>2010-08-25T17:03:04.06</time>
<name>479</name>
</trkpt>
<trkpt lat="49.551645" lon="9.239232">
<ele>487.0</ele>
<speed>0.7</speed>
<course>18.8</course>
<desc>Speed 0.7 km/h Distance 22.55 km</desc>
<time>2010-08-25T17:03:05.06</time>
<name>480</name>
</trkpt>
<trkpt lat="49.551652" lon="9.239235">
<ele>487.0</ele>
<speed>0.4</speed>
<course>10.4</course>
<desc>Speed 0.4 km/h Distance 22.55 km</desc>
<time>2010-08-25T17:03:06.05</time>
<name>481</name>
</trkpt>
<trkpt lat="49.551663" lon="9.239238">
<ele>487.5</ele>
<speed>0.4</speed>
<course>345.7</course>
<desc>Speed 0.4 km/h Distance 22.55 km</desc>
<time>2010-08-25T17:03:07.05</time>
<name>482</name>
</trkpt>
<trkpt lat="49.551680" lon="9.239232">
<ele>488.0</ele>
<speed>2.3</speed>
<course>316.0</course>
<desc>Speed 2.3 km/h Distance 22.55 km</desc>
<time>2010-08-25T17:03:08.05</time>
<name>483</name>
</trkpt>
<trkpt lat="49.551687" lon="9.239222">
<ele>488.0</ele>
<speed>2.5</speed>
<course>331.4</course>
<desc>Speed 2.5 km/h Distance 22.55 km</desc>
<time>2010-08-25T17:03:09.05</time>
<name>484</name>
</trkpt>
<trkpt lat="49.551697" lon="9.239213">
<ele>488.0</ele>
<speed>2.5</speed>
<course>315.5</course>
<desc>Speed 2.5 km/h Distance 22.55 km</desc>
<time>2010-08-25T17:03:10.04</time>
<name>485</name>
</trkpt>
<trkpt lat="49.551700" lon="9.239208">
<ele>488.0</ele>
<speed>2.5</speed>
<course>334.6</course>
<desc>Speed 2.5 km/h Distance 22.55 km</desc>
<time>2010-08-25T17:03:11.04</time>
<name>486</name>
</trkpt>
<trkpt lat="49.551705" lon="9.239205">
<ele>488.0</ele>
<speed>2.5</speed>
<course>336.2</course>
<desc>Speed 2.5 km/h Distance 22.55 km</desc>
<time>2010-08-25T17:03:12.04</time>
<name>487</name>
</trkpt>
<trkpt lat="49.551710" lon="9.239202">
<ele>488.0</ele>
<speed>2.5</speed>
<course>0.0</course>
<desc>Speed 2.5 km/h Distance 22.55 km</desc>
<time>2010-08-25T17:03:13.04</time>
<name>488</name>
</trkpt>
<trkpt lat="49.551715" lon="9.239202">
<ele>488.0</ele>
<speed>0.3</speed>
<course>334.6</course>
<desc>Speed 0.3 km/h Distance 22.55 km</desc>
<time>2010-08-25T17:03:14.05</time>
<name>489</name>
</trkpt>
<trkpt lat="49.551720" lon="9.239198">
<ele>488.5</ele>
<speed>1.0</speed>
<course>326.3</course>
<desc>Speed 1.0 km/h Distance 22.56 km</desc>
<time>2010-08-25T17:03:15.04</time>
<name>490</name>
</trkpt>
<trkpt lat="49.551723" lon="9.239195">
<ele>488.5</ele>
<speed>0.8</speed>
<course>12.6</course>
<desc>Speed 0.8 km/h Distance 22.56 km</desc>
<time>2010-08-25T17:03:16.04</time>
<name>491</name>
</trkpt>
<trkpt lat="49.551725" lon="9.239195">
<ele>488.5</ele>
<speed>0.8</speed>
<course>338.7</course>
<desc>Speed 0.8 km/h Distance 22.56 km</desc>
<time>2010-08-25T17:03:17.04</time>
<name>492</name>
</trkpt>
<trkpt lat="49.551742" lon="9.239185">
<ele>488.5</ele>
<speed>3.2</speed>
<course>356.2</course>
<desc>Speed 3.2 km/h Distance 22.56 km</desc>
<time>2010-08-25T17:03:18.04</time>
<name>493</name>
</trkpt>
<trkpt lat="49.551757" lon="9.239183">
<ele>489.0</ele>
<speed>3.2</speed>
<course>341.2</course>
<desc>Speed 3.2 km/h Distance 22.56 km</desc>
<time>2010-08-25T17:03:19.04</time>
<name>494</name>
</trkpt>
<trkpt lat="49.551763" lon="9.239180">
<ele>489.0</ele>
<speed>1.4</speed>
<course>310.1</course>
<desc>Speed 1.4 km/h Distance 22.56 km</desc>
<time>2010-08-25T17:03:20.03</time>
<name>495</name>
</trkpt>
<trkpt lat="49.551773" lon="9.239162">
<ele>489.5</ele>
<speed>1.7</speed>
<course>107.2</course>
<desc>Speed 1.7 km/h Distance 22.56 km</desc>
<time>2010-08-25T17:03:21.03</time>
<name>496</name>
</trkpt>
<trkpt lat="49.551770" lon="9.239178">
<ele>489.5</ele>
<speed>2.2</speed>
<course>117.4</course>
<desc>Speed 2.2 km/h Distance 22.56 km</desc>
<time>2010-08-25T17:03:22.04</time>
<name>497</name>
</trkpt>
<trkpt lat="49.551768" lon="9.239183">
<ele>489.5</ele>
<speed>2.2</speed>
<course>0.0</course>
<desc>Speed 2.2 km/h Distance 22.56 km</desc>
<time>2010-08-25T17:03:23.04</time>
<name>498</name>
</trkpt>
<trkpt lat="49.551772" lon="9.239183">
<ele>490.0</ele>
<speed>0.9</speed>
<course>51.9</course>
<desc>Speed 0.9 km/h Distance 22.56 km</desc>
<time>2010-08-25T17:03:24.03</time>
<name>499</name>
</trkpt>
<trkpt lat="49.551773" lon="9.239187">
<ele>490.0</ele>
<speed>0.2</speed>
<course>62.6</course>
<desc>Speed 0.2 km/h Distance 22.56 km</desc>
<time>2010-08-25T17:03:25.04</time>
<name>500</name>
</trkpt>
<trkpt lat="49.551775" lon="9.239192">
<ele>490.5</ele>
<speed>0.5</speed>
<course>51.9</course>
<desc>Speed 0.5 km/h Distance 22.57 km</desc>
<time>2010-08-25T17:03:26.03</time>
<name>501</name>
</trkpt>
<trkpt lat="49.551778" lon="9.239198">
<ele>490.5</ele>
<speed>0.5</speed>
<course>68.9</course>
<desc>Speed 0.5 km/h Distance 22.57 km</desc>
<time>2010-08-25T17:03:27.03</time>
<name>502</name>
</trkpt>
<trkpt lat="49.551782" lon="9.239212">
<ele>491.0</ele>
<speed>0.5</speed>
<course>95.5</course>
<desc>Speed 0.5 km/h Distance 22.57 km</desc>
<time>2010-08-25T17:03:28.02</time>
<name>503</name>
</trkpt>
<trkpt lat="49.551780" lon="9.239238">
<ele>491.5</ele>
<speed>1.3</speed>
<course>68.7</course>
<desc>Speed 1.3 km/h Distance 22.57 km</desc>
<time>2010-08-25T17:03:29.03</time>
<name>504</name>
</trkpt>
<trkpt lat="49.551782" lon="9.239245">
<ele>492.0</ele>
<speed>1.0</speed>
<course>107.1</course>
<desc>Speed 1.0 km/h Distance 22.57 km</desc>
<time>2010-08-25T17:03:30.03</time>
<name>505</name>
</trkpt>
<trkpt lat="49.551780" lon="9.239253">
<ele>492.5</ele>
<speed>1.0</speed>
<course>51.9</course>
<desc>Speed 1.0 km/h Distance 22.57 km</desc>
<time>2010-08-25T17:03:31.02</time>
<name>506</name>
</trkpt>
<trkpt lat="49.551782" lon="9.239257">
<ele>492.5</ele>
<speed>1.0</speed>
<course>72.9</course>
<desc>Speed 1.0 km/h Distance 22.57 km</desc>
<time>2010-08-25T17:03:32.02</time>
<name>507</name>
</trkpt>
<trkpt lat="49.551783" lon="9.239265">
<ele>493.0</ele>
<speed>1.1</speed>
<course>117.0</course>
<desc>Speed 1.1 km/h Distance 22.57 km</desc>
<time>2010-08-25T17:03:33.02</time>
<name>508</name>
</trkpt>
<trkpt lat="49.551780" lon="9.239275">
<ele>493.5</ele>
<speed>0.6</speed>
<course>131.3</course>
<desc>Speed 0.6 km/h Distance 22.57 km</desc>
<time>2010-08-25T17:03:34.02</time>
<name>509</name>
</trkpt>
<trkpt lat="49.551773" lon="9.239287">
<ele>493.5</ele>
<speed>1.1</speed>
<course>67.2</course>
<desc>Speed 1.1 km/h Distance 22.57 km</desc>
<time>2010-08-25T17:03:35.03</time>
<name>510</name>
</trkpt>
<trkpt lat="49.551778" lon="9.239305">
<ele>494.0</ele>
<speed>3.9</speed>
<course>56.4</course>
<desc>Speed 3.9 km/h Distance 22.57 km</desc>
<time>2010-08-25T17:03:36.03</time>
<name>511</name>
</trkpt>
<trkpt lat="49.551783" lon="9.239317">
<ele>494.0</ele>
<speed>3.9</speed>
<course>119.6</course>
<desc>Speed 3.9 km/h Distance 22.58 km</desc>
<time>2010-08-25T17:03:37.02</time>
<name>512</name>
</trkpt>
<trkpt lat="49.551772" lon="9.239348">
<ele>494.0</ele>
<speed>1.3</speed>
<course>243.4</course>
<desc>Speed 1.3 km/h Distance 22.58 km</desc>
<time>2010-08-25T17:03:38.02</time>
<name>513</name>
</trkpt>
<trkpt lat="49.551770" lon="9.239343">
<ele>494.0</ele>
<speed>2.9</speed>
<course>107.1</course>
<desc>Speed 2.9 km/h Distance 22.58 km</desc>
<time>2010-08-25T17:03:39.02</time>
<name>514</name>
</trkpt>
<trkpt lat="49.551768" lon="9.239352">
<ele>494.0</ele>
<speed>0.2</speed>
<course>90.0</course>
<desc>Speed 0.2 km/h Distance 22.58 km</desc>
<time>2010-08-25T17:03:40.02</time>
<name>515</name>
</trkpt>
<trkpt lat="49.551768" lon="9.239358">
<ele>494.0</ele>
<speed>0.2</speed>
<course>220.9</course>
<desc>Speed 0.2 km/h Distance 22.58 km</desc>
<time>2010-08-25T17:03:41.02</time>
<name>516</name>
</trkpt>
<trkpt lat="49.551763" lon="9.239352">
<ele>494.5</ele>
<speed>1.4</speed>
<course>107.2</course>
<desc>Speed 1.4 km/h Distance 22.58 km</desc>
<time>2010-08-25T17:03:42.02</time>
<name>517</name>
</trkpt>
<trkpt lat="49.551758" lon="9.239377">
<ele>494.0</ele>
<speed>1.1</speed>
<course>136.0</course>
<desc>Speed 1.1 km/h Distance 22.58 km</desc>
<time>2010-08-25T17:03:43.02</time>
<name>518</name>
</trkpt>
<trkpt lat="49.551752" lon="9.239387">
<ele>494.0</ele>
<speed>1.1</speed>
<course>111.1</course>
<desc>Speed 1.1 km/h Distance 22.58 km</desc>
<time>2010-08-25T17:03:44.02</time>
<name>519</name>
</trkpt>
<trkpt lat="49.551748" lon="9.239400">
<ele>494.5</ele>
<speed>2.9</speed>
<course>257.6</course>
<desc>Speed 2.9 km/h Distance 22.58 km</desc>
<time>2010-08-25T17:03:45.01</time>
<name>520</name>
</trkpt>
<trkpt lat="49.551745" lon="9.239377">
<ele>494.0</ele>
<speed>2.9</speed>
<course>270.0</course>
<desc>Speed 2.9 km/h Distance 22.59 km</desc>
<time>2010-08-25T17:03:46.02</time>
<name>521</name>
</trkpt>
<trkpt lat="49.551745" lon="9.239373">
<ele>494.0</ele>
<speed>2.9</speed>
<course>308.1</course>
<desc>Speed 2.9 km/h Distance 22.59 km</desc>
<time>2010-08-25T17:03:47.02</time>
<name>522</name>
</trkpt>
<trkpt lat="49.551747" lon="9.239370">
<ele>494.0</ele>
<speed>2.9</speed>
<course>108.9</course>
<desc>Speed 2.9 km/h Distance 22.59 km</desc>
<time>2010-08-25T17:03:48.01</time>
<name>523</name>
</trkpt>
<trkpt lat="49.551740" lon="9.239400">
<ele>494.5</ele>
<speed>2.9</speed>
<course>155.6</course>
<desc>Speed 2.9 km/h Distance 22.59 km</desc>
<time>2010-08-25T17:03:49.02</time>
<name>524</name>
</trkpt>
<trkpt lat="49.551707" lon="9.239423">
<ele>495.0</ele>
<speed>3.7</speed>
<course>3.2</course>
<desc>Speed 3.7 km/h Distance 22.59 km</desc>
<time>2010-08-25T17:03:51.01</time>
<name>525</name>
</trkpt>
<trkpt lat="49.551728" lon="9.239425">
<ele>496.0</ele>
<speed>0.5</speed>
<course>180.0</course>
<desc>Speed 0.5 km/h Distance 22.60 km</desc>
<time>2010-08-25T17:03:52.01</time>
<name>526</name>
</trkpt>
<trkpt lat="49.551718" lon="9.239425">
<ele>496.0</ele>
<speed>1.8</speed>
<course>180.0</course>
<desc>Speed 1.8 km/h Distance 22.60 km</desc>
<time>2010-08-25T17:03:53.02</time>
<name>527</name>
</trkpt>
<trkpt lat="49.551685" lon="9.239425">
<ele>495.5</ele>
<speed>1.8</speed>
<course>194.9</course>
<desc>Speed 1.8 km/h Distance 22.60 km</desc>
<time>2010-08-25T17:03:55.01</time>
<name>528</name>
</trkpt>
<trkpt lat="49.551677" lon="9.239422">
<ele>495.5</ele>
<speed>0.7</speed>
<course>347.4</course>
<desc>Speed 0.7 km/h Distance 22.60 km</desc>
<time>2010-08-25T17:03:56.01</time>
<name>529</name>
</trkpt>
<trkpt lat="49.551680" lon="9.239420">
<ele>495.5</ele>
<speed>2.1</speed>
<course>130.6</course>
<desc>Speed 2.1 km/h Distance 22.60 km</desc>
<time>2010-08-25T17:03:57.01</time>
<name>530</name>
</trkpt>
<trkpt lat="49.551672" lon="9.239435">
<ele>495.0</ele>
<speed>4.9</speed>
<course>131.3</course>
<desc>Speed 4.9 km/h Distance 22.60 km</desc>
<time>2010-08-25T17:03:58.01</time>
<name>531</name>
</trkpt>
<trkpt lat="49.551665" lon="9.239447">
<ele>495.0</ele>
<speed>4.9</speed>
<course>200.8</course>
<desc>Speed 4.9 km/h Distance 22.60 km</desc>
<time>2010-08-25T17:03:59.02</time>
<name>532</name>
</trkpt>
<trkpt lat="49.551657" lon="9.239442">
<ele>494.5</ele>
<speed>4.9</speed>
<course>321.3</course>
<desc>Speed 4.9 km/h Distance 22.60 km</desc>
<time>2010-08-25T17:04:00.01</time>
<name>533</name>
</trkpt>
<trkpt lat="49.551663" lon="9.239433">
<ele>494.0</ele>
<speed>1.9</speed>
<course>152.6</course>
<desc>Speed 1.9 km/h Distance 22.61 km</desc>
<time>2010-08-25T17:04:01.01</time>
<name>534</name>
</trkpt>
<trkpt lat="49.551638" lon="9.239453">
<ele>494.0</ele>
<speed>6.4</speed>
<course>329.6</course>
<desc>Speed 6.4 km/h Distance 22.61 km</desc>
<time>2010-08-25T17:04:03.01</time>
<name>535</name>
</trkpt>
<trkpt lat="49.551655" lon="9.239438">
<ele>494.0</ele>
<speed>0.6</speed>
<course>229.4</course>
<desc>Speed 0.6 km/h Distance 22.61 km</desc>
<time>2010-08-25T17:04:04.01</time>
<name>536</name>
</trkpt>
<trkpt lat="49.551653" lon="9.239435">
<ele>494.0</ele>
<speed>0.6</speed>
<course>2.8</course>
<desc>Speed 0.6 km/h Distance 22.61 km</desc>
<time>2010-08-25T17:04:05.01</time>
<name>537</name>
</trkpt>
<trkpt lat="49.551670" lon="9.239437">
<ele>494.0</ele>
<speed>0.6</speed>
<course>0.0</course>
<desc>Speed 0.6 km/h Distance 22.61 km</desc>
<time>2010-08-25T17:04:06.01</time>
<name>538</name>
</trkpt>
<trkpt lat="49.551675" lon="9.239437">
<ele>494.0</ele>
<speed>0.6</speed>
<course>90.0</course>
<desc>Speed 0.6 km/h Distance 22.61 km</desc>
<time>2010-08-25T17:04:07.01</time>
<name>539</name>
</trkpt>
<trkpt lat="49.551675" lon="9.239448">
<ele>493.5</ele>
<speed>0.6</speed>
<course>308.1</course>
<desc>Speed 0.6 km/h Distance 22.61 km</desc>
<time>2010-08-25T17:04:08.00</time>
<name>540</name>
</trkpt>
<trkpt lat="49.551677" lon="9.239445">
<ele>493.5</ele>
<speed>0.6</speed>
<course>68.9</course>
<desc>Speed 0.6 km/h Distance 22.61 km</desc>
<time>2010-08-25T17:04:09.00</time>
<name>541</name>
</trkpt>
<trkpt lat="49.551680" lon="9.239458">
<ele>494.0</ele>
<speed>3.7</speed>
<course>75.6</course>
<desc>Speed 3.7 km/h Distance 22.62 km</desc>
<time>2010-08-25T17:04:10.00</time>
<name>542</name>
</trkpt>
<trkpt lat="49.551682" lon="9.239468">
<ele>494.0</ele>
<speed>3.7</speed>
<course>53.9</course>
<desc>Speed 3.7 km/h Distance 22.62 km</desc>
<time>2010-08-25T17:04:11.00</time>
<name>543</name>
</trkpt>
<trkpt lat="49.551683" lon="9.239472">
<ele>494.0</ele>
<speed>0.4</speed>
<course>113.7</course>
<desc>Speed 0.4 km/h Distance 22.62 km</desc>
<time>2010-08-25T17:04:12.00</time>
<name>544</name>
</trkpt>
<trkpt lat="49.551680" lon="9.239483">
<ele>493.5</ele>
<speed>4.1</speed>
<course>27.5</course>
<desc>Speed 4.1 km/h Distance 22.62 km</desc>
<time>2010-08-25T17:04:13.00</time>
<name>545</name>
</trkpt>
<trkpt lat="49.551688" lon="9.239490">
<ele>493.5</ele>
<speed>3.3</speed>
<course>64.1</course>
<desc>Speed 3.3 km/h Distance 22.62 km</desc>
<time>2010-08-25T17:04:14.00</time>
<name>546</name>
</trkpt>
<trkpt lat="49.551690" lon="9.239495">
<ele>493.5</ele>
<speed>3.3</speed>
<course>90.0</course>
<desc>Speed 3.3 km/h Distance 22.62 km</desc>
<time>2010-08-25T17:04:15.00</time>
<name>547</name>
</trkpt>
<trkpt lat="49.551690" lon="9.239497">
<ele>493.5</ele>
<speed>1.7</speed>
<course>217.2</course>
<desc>Speed 1.7 km/h Distance 22.62 km</desc>
<time>2010-08-25T17:04:16.00</time>
<name>548</name>
</trkpt>
<trkpt lat="49.551688" lon="9.239495">
<ele>493.5</ele>
<speed>1.7</speed>
<course>167.4</course>
<desc>Speed 1.7 km/h Distance 22.62 km</desc>
<time>2010-08-25T17:04:17.00</time>
<name>549</name>
</trkpt>
<trkpt lat="49.551687" lon="9.239495">
<ele>493.5</ele>
<speed>1.7</speed>
<course>301.8</course>
<desc>Speed 1.7 km/h Distance 22.62 km</desc>
<time>2010-08-25T17:04:18.00</time>
<name>550</name>
</trkpt>
<trkpt lat="49.551690" lon="9.239487">
<ele>493.5</ele>
<speed>0.6</speed>
<course>26.4</course>
<desc>Speed 0.6 km/h Distance 22.62 km</desc>
<time>2010-08-25T17:04:19.00</time>
<name>551</name>
</trkpt>
<trkpt lat="49.551697" lon="9.239492">
<ele>493.5</ele>
<speed>1.0</speed>
<course>279.7</course>
<desc>Speed 1.0 km/h Distance 22.62 km</desc>
<time>2010-08-25T17:04:20.00</time>
<name>552</name>
</trkpt>
<trkpt lat="49.551698" lon="9.239477">
<ele>494.0</ele>
<speed>1.0</speed>
<course>300.7</course>
<desc>Speed 1.0 km/h Distance 22.62 km</desc>
<time>2010-08-25T17:04:21.00</time>
<name>553</name>
</trkpt>
<trkpt lat="49.551723" lon="9.239412">
<ele>494.0</ele>
<speed>2.2</speed>
<course>264.8</course>
<desc>Speed 2.2 km/h Distance 22.63 km</desc>
<time>2010-08-25T17:04:23.00</time>
<name>554</name>
</trkpt>
<trkpt lat="49.551722" lon="9.239383">
<ele>494.5</ele>
<speed>3.3</speed>
<course>263.7</course>
<desc>Speed 3.3 km/h Distance 22.63 km</desc>
<time>2010-08-25T17:04:23.99</time>
<name>555</name>
</trkpt>
<trkpt lat="49.551720" lon="9.239360">
<ele>494.5</ele>
<speed>2.2</speed>
<course>135.5</course>
<desc>Speed 2.2 km/h Distance 22.63 km</desc>
<time>2010-08-25T17:04:24.99</time>
<name>556</name>
</trkpt>
<trkpt lat="49.551717" lon="9.239365">
<ele>494.5</ele>
<speed>2.2</speed>
<course>198.8</course>
<desc>Speed 2.2 km/h Distance 22.63 km</desc>
<time>2010-08-25T17:04:25.99</time>
<name>557</name>
</trkpt>
<trkpt lat="49.551710" lon="9.239362">
<ele>494.5</ele>
<speed>2.2</speed>
<course>270.0</course>
<desc>Speed 2.2 km/h Distance 22.63 km</desc>
<time>2010-08-25T17:04:26.99</time>
<name>558</name>
</trkpt>
<trkpt lat="49.551710" lon="9.239355">
<ele>495.0</ele>
<speed>2.2</speed>
<course>283.3</course>
<desc>Speed 2.2 km/h Distance 22.63 km</desc>
<time>2010-08-25T17:04:27.99</time>
<name>559</name>
</trkpt>
<trkpt lat="49.551713" lon="9.239333">
<ele>495.0</ele>
<speed>1.2</speed>
<course>0.0</course>
<desc>Speed 1.2 km/h Distance 22.64 km</desc>
<time>2010-08-25T17:04:28.99</time>
<name>560</name>
</trkpt>
<trkpt lat="49.551730" lon="9.239333">
<ele>495.0</ele>
<speed>1.4</speed>
<course>292.8</course>
<desc>Speed 1.4 km/h Distance 22.64 km</desc>
<time>2010-08-25T17:04:29.99</time>
<name>561</name>
</trkpt>
<trkpt lat="49.551735" lon="9.239315">
<ele>495.0</ele>
<speed>1.4</speed>
<course>305.8</course>
<desc>Speed 1.4 km/h Distance 22.64 km</desc>
<time>2010-08-25T17:04:30.99</time>
<name>562</name>
</trkpt>
<trkpt lat="49.551747" lon="9.239290">
<ele>495.0</ele>
<speed>0.9</speed>
<course>270.0</course>
<desc>Speed 0.9 km/h Distance 22.64 km</desc>
<time>2010-08-25T17:04:31.99</time>
<name>563</name>
</trkpt>
<trkpt lat="49.551747" lon="9.239212">
<ele>495.5</ele>
<speed>3.6</speed>
<course>293.9</course>
<desc>Speed 3.6 km/h Distance 22.65 km</desc>
<time>2010-08-25T17:04:33.99</time>
<name>564</name>
</trkpt>
<trkpt lat="49.551750" lon="9.239200">
<ele>495.0</ele>
<speed>2.7</speed>
<course>314.1</course>
<desc>Speed 2.7 km/h Distance 22.65 km</desc>
<time>2010-08-25T17:04:34.99</time>
<name>565</name>
</trkpt>
<trkpt lat="49.551758" lon="9.239187">
<ele>495.0</ele>
<speed>1.0</speed>
<course>72.9</course>
<desc>Speed 1.0 km/h Distance 22.65 km</desc>
<time>2010-08-25T17:04:35.98</time>
<name>566</name>
</trkpt>
<trkpt lat="49.551760" lon="9.239195">
<ele>495.0</ele>
<speed>1.0</speed>
<course>180.0</course>
<desc>Speed 1.0 km/h Distance 22.65 km</desc>
<time>2010-08-25T17:04:36.98</time>
<name>567</name>
</trkpt>
<trkpt lat="49.551757" lon="9.239195">
<ele>495.5</ele>
<speed>2.2</speed>
<course>90.0</course>
<desc>Speed 2.2 km/h Distance 22.65 km</desc>
<time>2010-08-25T17:04:37.98</time>
<name>568</name>
</trkpt>
<trkpt lat="49.551757" lon="9.239200">
<ele>495.0</ele>
<speed>1.0</speed>
<course>117.4</course>
<desc>Speed 1.0 km/h Distance 22.65 km</desc>
<time>2010-08-25T17:04:38.98</time>
<name>569</name>
</trkpt>
<trkpt lat="49.551755" lon="9.239205">
<ele>495.0</ele>
<speed>2.6</speed>
<course>135.5</course>
<desc>Speed 2.6 km/h Distance 22.65 km</desc>
<time>2010-08-25T17:04:39.98</time>
<name>570</name>
</trkpt>
<trkpt lat="49.551752" lon="9.239210">
<ele>495.0</ele>
<speed>2.6</speed>
<course>284.5</course>
<desc>Speed 2.6 km/h Distance 22.65 km</desc>
<time>2010-08-25T17:04:40.99</time>
<name>571</name>
</trkpt>
<trkpt lat="49.551753" lon="9.239200">
<ele>495.0</ele>
<speed>3.3</speed>
<course>291.3</course>
<desc>Speed 3.3 km/h Distance 22.65 km</desc>
<time>2010-08-25T17:04:41.99</time>
<name>572</name>
</trkpt>
<trkpt lat="49.551755" lon="9.239193">
<ele>495.0</ele>
<speed>2.2</speed>
<course>72.7</course>
<desc>Speed 2.2 km/h Distance 22.65 km</desc>
<time>2010-08-25T17:04:42.98</time>
<name>573</name>
</trkpt>
<trkpt lat="49.551757" lon="9.239202">
<ele>495.0</ele>
<speed>0.9</speed>
<course>12.6</course>
<desc>Speed 0.9 km/h Distance 22.65 km</desc>
<time>2010-08-25T17:04:43.98</time>
<name>574</name>
</trkpt>
<trkpt lat="49.551758" lon="9.239202">
<ele>495.0</ele>
<speed>2.2</speed>
<course>231.9</course>
<desc>Speed 2.2 km/h Distance 22.65 km</desc>
<time>2010-08-25T17:04:44.97</time>
<name>575</name>
</trkpt>
<trkpt lat="49.551757" lon="9.239198">
<ele>495.0</ele>
<speed>3.3</speed>
<course>270.0</course>
<desc>Speed 3.3 km/h Distance 22.65 km</desc>
<time>2010-08-25T17:04:45.98</time>
<name>576</name>
</trkpt>
<trkpt lat="49.551757" lon="9.239187">
<ele>495.0</ele>
<speed>3.6</speed>
<course>142.3</course>
<desc>Speed 3.6 km/h Distance 22.65 km</desc>
<time>2010-08-25T17:04:46.98</time>
<name>577</name>
</trkpt>
<trkpt lat="49.551748" lon="9.239197">
<ele>494.5</ele>
<speed>0.2</speed>
<course>107.2</course>
<desc>Speed 0.2 km/h Distance 22.66 km</desc>
<time>2010-08-25T17:04:47.98</time>
<name>578</name>
</trkpt>
<trkpt lat="49.551745" lon="9.239213">
<ele>494.0</ele>
<speed>1.1</speed>
<course>60.0</course>
<desc>Speed 1.1 km/h Distance 22.66 km</desc>
<time>2010-08-25T17:04:48.98</time>
<name>579</name>
</trkpt>
<trkpt lat="49.551755" lon="9.239240">
<ele>494.5</ele>
<speed>0.4</speed>
<course>90.0</course>
<desc>Speed 0.4 km/h Distance 22.66 km</desc>
<time>2010-08-25T17:04:50.83</time>
<name>580</name>
</trkpt>
<trkpt lat="49.551755" lon="9.239257">
<ele>494.5</ele>
<speed>0.4</speed>
<course>90.0</course>
<desc>Speed 0.4 km/h Distance 22.66 km</desc>
<time>2010-08-25T17:04:51.98</time>
<name>581</name>
</trkpt>
<trkpt lat="49.551755" lon="9.239263">
<ele>494.5</ele>
<speed>0.2</speed>
<course>44.5</course>
<desc>Speed 0.2 km/h Distance 22.66 km</desc>
<time>2010-08-25T17:04:52.98</time>
<name>582</name>
</trkpt>
<trkpt lat="49.551758" lon="9.239268">
<ele>494.5</ele>
<speed>0.6</speed>
<course>68.7</course>
<desc>Speed 0.6 km/h Distance 22.66 km</desc>
<time>2010-08-25T17:04:53.98</time>
<name>583</name>
</trkpt>
<trkpt lat="49.551760" lon="9.239275">
<ele>494.5</ele>
<speed>0.3</speed>
<course>33.7</course>
<desc>Speed 0.3 km/h Distance 22.66 km</desc>
<time>2010-08-25T17:04:54.98</time>
<name>584</name>
</trkpt>
<trkpt lat="49.551763" lon="9.239278">
<ele>494.5</ele>
<speed>0.6</speed>
<course>90.0</course>
<desc>Speed 0.6 km/h Distance 22.66 km</desc>
<time>2010-08-25T17:04:55.98</time>
<name>585</name>
</trkpt>
<trkpt lat="49.551763" lon="9.239280">
<ele>494.5</ele>
<speed>0.4</speed>
<course>29.2</course>
<desc>Speed 0.4 km/h Distance 22.66 km</desc>
<time>2010-08-25T17:04:56.97</time>
<name>586</name>
</trkpt>
<trkpt lat="49.551765" lon="9.239282">
<ele>494.5</ele>
<speed>0.6</speed>
<course>43.5</course>
<desc>Speed 0.6 km/h Distance 22.66 km</desc>
<time>2010-08-25T17:04:57.98</time>
<name>587</name>
</trkpt>
<trkpt lat="49.551768" lon="9.239287">
<ele>495.0</ele>
<speed>1.1</speed>
<course>12.6</course>
<desc>Speed 1.1 km/h Distance 22.66 km</desc>
<time>2010-08-25T17:04:58.97</time>
<name>588</name>
</trkpt>
<trkpt lat="49.551772" lon="9.239288">
<ele>495.5</ele>
<speed>1.4</speed>
<course>68.7</course>
<desc>Speed 1.4 km/h Distance 22.66 km</desc>
<time>2010-08-25T17:04:59.97</time>
<name>589</name>
</trkpt>
<trkpt lat="49.551773" lon="9.239295">
<ele>495.5</ele>
<speed>2.4</speed>
<course>62.6</course>
<desc>Speed 2.4 km/h Distance 22.66 km</desc>
<time>2010-08-25T17:05:00.97</time>
<name>590</name>
</trkpt>
<trkpt lat="49.551775" lon="9.239300">
<ele>496.5</ele>
<speed>2.9</speed>
<course>241.2</course>
<desc>Speed 2.9 km/h Distance 22.66 km</desc>
<time>2010-08-25T17:05:01.97</time>
<name>591</name>
</trkpt>
<trkpt lat="49.551767" lon="9.239277">
<ele>496.5</ele>
<speed>8.5</speed>
<course>141.0</course>
<desc>Speed 8.5 km/h Distance 22.67 km</desc>
<time>2010-08-25T17:05:02.97</time>
<name>592</name>
</trkpt>
<trkpt lat="49.551760" lon="9.239285">
<ele>496.5</ele>
<speed>3.2</speed>
<course>165.1</course>
<desc>Speed 3.2 km/h Distance 22.67 km</desc>
<time>2010-08-25T17:05:03.97</time>
<name>593</name>
</trkpt>
<trkpt lat="49.551752" lon="9.239288">
<ele>496.5</ele>
<speed>3.7</speed>
<course>72.9</course>
<desc>Speed 3.7 km/h Distance 22.67 km</desc>
<time>2010-08-25T17:05:04.97</time>
<name>594</name>
</trkpt>
<trkpt lat="49.551757" lon="9.239313">
<ele>496.5</ele>
<speed>2.7</speed>
<course>22.2</course>
<desc>Speed 2.7 km/h Distance 22.67 km</desc>
<time>2010-08-25T17:05:05.97</time>
<name>595</name>
</trkpt>
<trkpt lat="49.551762" lon="9.239317">
<ele>496.0</ele>
<speed>1.8</speed>
<course>180.0</course>
<desc>Speed 1.8 km/h Distance 22.67 km</desc>
<time>2010-08-25T17:05:06.97</time>
<name>596</name>
</trkpt>
<trkpt lat="49.551758" lon="9.239317">
<ele>496.0</ele>
<speed>0.4</speed>
<course>90.0</course>
<desc>Speed 0.4 km/h Distance 22.67 km</desc>
<time>2010-08-25T17:05:07.97</time>
<name>597</name>
</trkpt>
<trkpt lat="49.551758" lon="9.239320">
<ele>496.0</ele>
<speed>1.2</speed>
<course>76.5</course>
<desc>Speed 1.2 km/h Distance 22.67 km</desc>
<time>2010-08-25T17:05:08.96</time>
<name>598</name>
</trkpt>
<trkpt lat="49.551770" lon="9.239395">
<ele>494.0</ele>
<speed>11.3</speed>
<course>55.0</course>
<desc>Speed 11.3 km/h Distance 22.68 km</desc>
<time>2010-08-25T17:05:10.97</time>
<name>599</name>
</trkpt>
<trkpt lat="49.551787" lon="9.239432">
<ele>494.0</ele>
<speed>11.4</speed>
<course>35.1</course>
<desc>Speed 11.4 km/h Distance 22.68 km</desc>
<time>2010-08-25T17:05:11.96</time>
<name>600</name>
</trkpt>
<trkpt lat="49.551930" lon="9.239587">
<ele>493.5</ele>
<speed>27.4</speed>
<course>20.0</course>
<desc>Speed 27.4 km/h Distance 22.70 km</desc>
<time>2010-08-25T17:05:14.97</time>
<name>601</name>
</trkpt>
<trkpt lat="49.552010" lon="9.239632">
<ele>494.0</ele>
<speed>32.2</speed>
<course>20.0</course>
<desc>Speed 32.2 km/h Distance 22.71 km</desc>
<time>2010-08-25T17:05:15.96</time>
<name>602</name>
</trkpt>
<trkpt lat="49.552090" lon="9.239677">
<ele>493.5</ele>
<speed>33.5</speed>
<course>26.6</course>
<desc>Speed 33.5 km/h Distance 22.72 km</desc>
<time>2010-08-25T17:05:16.96</time>
<name>603</name>
</trkpt>
<trkpt lat="49.552170" lon="9.239738">
<ele>494.0</ele>
<speed>35.4</speed>
<course>30.4</course>
<desc>Speed 35.4 km/h Distance 22.73 km</desc>
<time>2010-08-25T17:05:17.96</time>
<name>604</name>
</trkpt>
<trkpt lat="49.552240" lon="9.239802">
<ele>494.5</ele>
<speed>35.4</speed>
<course>23.0</course>
<desc>Speed 35.4 km/h Distance 22.74 km</desc>
<time>2010-08-25T17:05:18.96</time>
<name>605</name>
</trkpt>
<trkpt lat="49.552418" lon="9.239918">
<ele>494.5</ele>
<speed>45.8</speed>
<course>30.4</course>
<desc>Speed 45.8 km/h Distance 22.76 km</desc>
<time>2010-08-25T17:05:20.96</time>
<name>606</name>
</trkpt>
<trkpt lat="49.552525" lon="9.240015">
<ele>494.5</ele>
<speed>48.7</speed>
<course>37.7</course>
<desc>Speed 48.7 km/h Distance 22.77 km</desc>
<time>2010-08-25T17:05:21.98</time>
<name>607</name>
</trkpt>
<trkpt lat="49.552630" lon="9.240140">
<ele>495.5</ele>
<speed>50.8</speed>
<course>42.6</course>
<desc>Speed 50.8 km/h Distance 22.79 km</desc>
<time>2010-08-25T17:05:22.96</time>
<name>608</name>
</trkpt>
<trkpt lat="49.552807" lon="9.240390">
<ele>495.5</ele>
<speed>53.2</speed>
<course>47.4</course>
<desc>Speed 53.2 km/h Distance 22.81 km</desc>
<time>2010-08-25T17:05:24.95</time>
<name>609</name>
</trkpt>
<trkpt lat="49.552900" lon="9.240547">
<ele>496.0</ele>
<speed>54.1</speed>
<course>49.0</course>
<desc>Speed 54.1 km/h Distance 22.83 km</desc>
<time>2010-08-25T17:05:25.97</time>
<name>610</name>
</trkpt>
<trkpt lat="49.552982" lon="9.240692">
<ele>494.0</ele>
<speed>47.9</speed>
<course>51.3</course>
<desc>Speed 47.9 km/h Distance 22.84 km</desc>
<time>2010-08-25T17:05:26.95</time>
<name>611</name>
</trkpt>
<trkpt lat="49.553050" lon="9.240823">
<ele>493.5</ele>
<speed>44.4</speed>
<course>41.9</course>
<desc>Speed 44.4 km/h Distance 22.86 km</desc>
<time>2010-08-25T17:05:27.95</time>
<name>612</name>
</trkpt>
<trkpt lat="49.553177" lon="9.240998">
<ele>493.0</ele>
<speed>31.1</speed>
<course>31.3</course>
<desc>Speed 31.1 km/h Distance 22.87 km</desc>
<time>2010-08-25T17:05:29.95</time>
<name>613</name>
</trkpt>
<trkpt lat="49.553495" lon="9.241297">
<ele>495.0</ele>
<speed>48.5</speed>
<course>28.2</course>
<desc>Speed 48.5 km/h Distance 22.92 km</desc>
<time>2010-08-25T17:05:32.95</time>
<name>614</name>
</trkpt>
<trkpt lat="49.553592" lon="9.241377">
<ele>494.5</ele>
<speed>41.9</speed>
<course>12.9</course>
<desc>Speed 41.9 km/h Distance 22.93 km</desc>
<time>2010-08-25T17:05:33.95</time>
<name>615</name>
</trkpt>
<trkpt lat="49.554177" lon="9.241583">
<ele>501.0</ele>
<speed>62.8</speed>
<course>7.2</course>
<desc>Speed 62.8 km/h Distance 22.99 km</desc>
<time>2010-08-25T17:05:37.94</time>
<name>616</name>
</trkpt>
<trkpt lat="49.554332" lon="9.241613">
<ele>501.0</ele>
<speed>61.9</speed>
<course>9.7</course>
<desc>Speed 61.9 km/h Distance 23.01 km</desc>
<time>2010-08-25T17:05:38.94</time>
<name>617</name>
</trkpt>
<trkpt lat="49.554477" lon="9.241652">
<ele>501.0</ele>
<speed>57.6</speed>
<course>21.5</course>
<desc>Speed 57.6 km/h Distance 23.03 km</desc>
<time>2010-08-25T17:05:39.94</time>
<name>618</name>
</trkpt>
<trkpt lat="49.554850" lon="9.241878">
<ele>501.5</ele>
<speed>35.0</speed>
<course>69.4</course>
<desc>Speed 35.0 km/h Distance 23.07 km</desc>
<time>2010-08-25T17:05:44.92</time>
<name>619</name>
</trkpt>
<trkpt lat="49.554925" lon="9.242187">
<ele>502.0</ele>
<speed>47.0</speed>
<course>85.0</course>
<desc>Speed 47.0 km/h Distance 23.10 km</desc>
<time>2010-08-25T17:05:46.93</time>
<name>620</name>
</trkpt>
<trkpt lat="49.554950" lon="9.242623">
<ele>503.5</ele>
<speed>56.8</speed>
<course>84.6</course>
<desc>Speed 56.8 km/h Distance 23.13 km</desc>
<time>2010-08-25T17:05:48.98</time>
<name>621</name>
</trkpt>
<trkpt lat="49.554963" lon="9.242842">
<ele>506.0</ele>
<speed>55.8</speed>
<course>80.7</course>
<desc>Speed 55.8 km/h Distance 23.14 km</desc>
<time>2010-08-25T17:05:49.93</time>
<name>622</name>
</trkpt>
<trkpt lat="49.554985" lon="9.243045">
<ele>506.0</ele>
<speed>53.8</speed>
<course>70.0</course>
<desc>Speed 53.8 km/h Distance 23.16 km</desc>
<time>2010-08-25T17:05:50.93</time>
<name>623</name>
</trkpt>
<trkpt lat="49.555062" lon="9.243370">
<ele>507.5</ele>
<speed>41.8</speed>
<course>55.7</course>
<desc>Speed 41.8 km/h Distance 23.18 km</desc>
<time>2010-08-25T17:05:52.92</time>
<name>624</name>
</trkpt>
<trkpt lat="49.555120" lon="9.243502">
<ele>508.0</ele>
<speed>40.4</speed>
<course>40.2</course>
<desc>Speed 40.4 km/h Distance 23.20 km</desc>
<time>2010-08-25T17:05:53.92</time>
<name>625</name>
</trkpt>
<trkpt lat="49.555208" lon="9.243617">
<ele>507.5</ele>
<speed>44.9</speed>
<course>29.0</course>
<desc>Speed 44.9 km/h Distance 23.21 km</desc>
<time>2010-08-25T17:05:54.91</time>
<name>626</name>
</trkpt>
<trkpt lat="49.555322" lon="9.243713">
<ele>509.0</ele>
<speed>50.0</speed>
<course>28.5</course>
<desc>Speed 50.0 km/h Distance 23.22 km</desc>
<time>2010-08-25T17:05:55.92</time>
<name>627</name>
</trkpt>
<trkpt lat="49.555443" lon="9.243815">
<ele>509.0</ele>
<speed>54.7</speed>
<course>38.6</course>
<desc>Speed 54.7 km/h Distance 23.24 km</desc>
<time>2010-08-25T17:05:56.94</time>
<name>628</name>
</trkpt>
<trkpt lat="49.555683" lon="9.244110">
<ele>509.5</ele>
<speed>61.8</speed>
<course>42.8</course>
<desc>Speed 61.8 km/h Distance 23.27 km</desc>
<time>2010-08-25T17:05:58.92</time>
<name>629</name>
</trkpt>
<trkpt lat="49.555797" lon="9.244272">
<ele>510.0</ele>
<speed>60.7</speed>
<course>46.2</course>
<desc>Speed 60.7 km/h Distance 23.29 km</desc>
<time>2010-08-25T17:05:59.92</time>
<name>630</name>
</trkpt>
<trkpt lat="49.555903" lon="9.244443">
<ele>509.5</ele>
<speed>61.2</speed>
<course>45.0</course>
<desc>Speed 61.2 km/h Distance 23.31 km</desc>
<time>2010-08-25T17:06:00.92</time>
<name>631</name>
</trkpt>
<trkpt lat="49.556017" lon="9.244618">
<ele>509.0</ele>
<speed>62.0</speed>
<course>46.8</course>
<desc>Speed 62.0 km/h Distance 23.32 km</desc>
<time>2010-08-25T17:06:01.92</time>
<name>632</name>
</trkpt>
<trkpt lat="49.556123" lon="9.244793">
<ele>510.0</ele>
<speed>61.0</speed>
<course>46.2</course>
<desc>Speed 61.0 km/h Distance 23.34 km</desc>
<time>2010-08-25T17:06:02.91</time>
<name>633</name>
</trkpt>
<trkpt lat="49.556222" lon="9.244952">
<ele>510.5</ele>
<speed>54.7</speed>
<course>46.4</course>
<desc>Speed 54.7 km/h Distance 23.36 km</desc>
<time>2010-08-25T17:06:03.92</time>
<name>634</name>
</trkpt>
<trkpt lat="49.556365" lon="9.245183">
<ele>511.0</ele>
<speed>54.7</speed>
<course>43.5</course>
<desc>Speed 54.7 km/h Distance 23.38 km</desc>
<time>2010-08-25T17:06:05.90</time>
<name>635</name>
</trkpt>
<trkpt lat="49.556455" lon="9.245315">
<ele>511.5</ele>
<speed>47.8</speed>
<course>47.3</course>
<desc>Speed 47.8 km/h Distance 23.40 km</desc>
<time>2010-08-25T17:06:06.91</time>
<name>636</name>
</trkpt>
<trkpt lat="49.556663" lon="9.245663">
<ele>512.5</ele>
<speed>56.0</speed>
<course>30.1</course>
<desc>Speed 56.0 km/h Distance 23.43 km</desc>
<time>2010-08-25T17:06:08.92</time>
<name>637</name>
</trkpt>
<trkpt lat="49.556787" lon="9.245773">
<ele>513.5</ele>
<speed>51.8</speed>
<course>16.7</course>
<desc>Speed 51.8 km/h Distance 23.45 km</desc>
<time>2010-08-25T17:06:09.91</time>
<name>638</name>
</trkpt>
<trkpt lat="49.556917" lon="9.245833">
<ele>515.5</ele>
<speed>53.3</speed>
<course>12.5</course>
<desc>Speed 53.3 km/h Distance 23.46 km</desc>
<time>2010-08-25T17:06:10.91</time>
<name>639</name>
</trkpt>
<trkpt lat="49.557038" lon="9.245875">
<ele>516.5</ele>
<speed>48.9</speed>
<course>6.9</course>
<desc>Speed 48.9 km/h Distance 23.47 km</desc>
<time>2010-08-25T17:06:11.90</time>
<name>640</name>
</trkpt>
<trkpt lat="49.557172" lon="9.245900">
<ele>514.5</ele>
<speed>52.9</speed>
<course>9.9</course>
<desc>Speed 52.9 km/h Distance 23.49 km</desc>
<time>2010-08-25T17:06:12.91</time>
<name>641</name>
</trkpt>
<trkpt lat="49.557308" lon="9.245937">
<ele>513.5</ele>
<speed>56.1</speed>
<course>13.2</course>
<desc>Speed 56.1 km/h Distance 23.50 km</desc>
<time>2010-08-25T17:06:13.91</time>
<name>642</name>
</trkpt>
<trkpt lat="49.557553" lon="9.246025">
<ele>513.0</ele>
<speed>54.1</speed>
<course>356.3</course>
<desc>Speed 54.1 km/h Distance 23.53 km</desc>
<time>2010-08-25T17:06:15.90</time>
<name>643</name>
</trkpt>
<trkpt lat="49.557703" lon="9.246010">
<ele>512.5</ele>
<speed>60.3</speed>
<course>359.3</course>
<desc>Speed 60.3 km/h Distance 23.55 km</desc>
<time>2010-08-25T17:06:16.90</time>
<name>644</name>
</trkpt>
<trkpt lat="49.557853" lon="9.246007">
<ele>510.5</ele>
<speed>59.3</speed>
<course>9.3</course>
<desc>Speed 59.3 km/h Distance 23.57 km</desc>
<time>2010-08-25T17:06:17.91</time>
<name>645</name>
</trkpt>
<trkpt lat="49.558183" lon="9.246090">
<ele>507.0</ele>
<speed>66.6</speed>
<course>6.7</course>
<desc>Speed 66.6 km/h Distance 23.60 km</desc>
<time>2010-08-25T17:06:19.90</time>
<name>646</name>
</trkpt>
<trkpt lat="49.558358" lon="9.246122">
<ele>503.5</ele>
<speed>70.3</speed>
<course>5.1</course>
<desc>Speed 70.3 km/h Distance 23.62 km</desc>
<time>2010-08-25T17:06:20.91</time>
<name>647</name>
</trkpt>
<trkpt lat="49.558735" lon="9.246173">
<ele>499.5</ele>
<speed>71.5</speed>
<course>5.7</course>
<desc>Speed 71.5 km/h Distance 23.66 km</desc>
<time>2010-08-25T17:06:22.90</time>
<name>648</name>
</trkpt>
<trkpt lat="49.558920" lon="9.246202">
<ele>498.5</ele>
<speed>73.6</speed>
<course>6.2</course>
<desc>Speed 73.6 km/h Distance 23.69 km</desc>
<time>2010-08-25T17:06:23.89</time>
<name>649</name>
</trkpt>
<trkpt lat="49.559090" lon="9.246230">
<ele>496.5</ele>
<speed>68.5</speed>
<course>11.2</course>
<desc>Speed 68.5 km/h Distance 23.70 km</desc>
<time>2010-08-25T17:06:24.90</time>
<name>650</name>
</trkpt>
<trkpt lat="49.559375" lon="9.246317">
<ele>496.5</ele>
<speed>56.2</speed>
<course>24.0</course>
<desc>Speed 56.2 km/h Distance 23.74 km</desc>
<time>2010-08-25T17:06:26.90</time>
<name>651</name>
</trkpt>
<trkpt lat="49.559487" lon="9.246393">
<ele>493.5</ele>
<speed>50.5</speed>
<course>41.7</course>
<desc>Speed 50.5 km/h Distance 23.75 km</desc>
<time>2010-08-25T17:06:27.89</time>
<name>652</name>
</trkpt>
<trkpt lat="49.559713" lon="9.246705">
<ele>492.5</ele>
<speed>63.4</speed>
<course>29.0</course>
<desc>Speed 63.4 km/h Distance 23.78 km</desc>
<time>2010-08-25T17:06:29.89</time>
<name>653</name>
</trkpt>
<trkpt lat="49.560032" lon="9.246977">
<ele>491.5</ele>
<speed>72.2</speed>
<course>31.2</course>
<desc>Speed 72.2 km/h Distance 23.82 km</desc>
<time>2010-08-25T17:06:31.93</time>
<name>654</name>
</trkpt>
<trkpt lat="49.560182" lon="9.247117">
<ele>491.0</ele>
<speed>71.3</speed>
<course>29.9</course>
<desc>Speed 71.3 km/h Distance 23.84 km</desc>
<time>2010-08-25T17:06:32.89</time>
<name>655</name>
</trkpt>
<trkpt lat="49.560328" lon="9.247247">
<ele>490.5</ele>
<speed>69.1</speed>
<course>29.9</course>
<desc>Speed 69.1 km/h Distance 23.86 km</desc>
<time>2010-08-25T17:06:33.88</time>
<name>656</name>
</trkpt>
<trkpt lat="49.560683" lon="9.247562">
<ele>490.0</ele>
<speed>69.1</speed>
<course>45.5</course>
<desc>Speed 69.1 km/h Distance 23.91 km</desc>
<time>2010-08-25T17:06:37.87</time>
<name>657</name>
</trkpt>
<trkpt lat="49.561255" lon="9.248458">
<ele>490.0</ele>
<speed>69.1</speed>
<course>38.1</course>
<desc>Speed 69.1 km/h Distance 24.00 km</desc>
<time>2010-08-25T17:06:44.87</time>
<name>658</name>
</trkpt>
<trkpt lat="49.561520" lon="9.248778">
<ele>490.0</ele>
<speed>69.1</speed>
<course>26.7</course>
<desc>Speed 69.1 km/h Distance 24.04 km</desc>
<time>2010-08-25T17:06:47.87</time>
<name>659</name>
</trkpt>
<trkpt lat="49.561810" lon="9.249003">
<ele>490.5</ele>
<speed>69.1</speed>
<course>56.2</course>
<desc>Speed 69.1 km/h Distance 24.07 km</desc>
<time>2010-08-25T17:06:49.86</time>
<name>660</name>
</trkpt>
<trkpt lat="49.562133" lon="9.249747">
<ele>490.5</ele>
<speed>69.1</speed>
<course>57.3</course>
<desc>Speed 69.1 km/h Distance 24.14 km</desc>
<time>2010-08-25T17:06:52.86</time>
<name>661</name>
</trkpt>
<trkpt lat="49.562303" lon="9.250155">
<ele>491.0</ele>
<speed>69.1</speed>
<course>75.6</course>
<desc>Speed 69.1 km/h Distance 24.17 km</desc>
<time>2010-08-25T17:06:54.85</time>
<name>662</name>
</trkpt>
<trkpt lat="49.562522" lon="9.251463">
<ele>490.5</ele>
<speed>81.9</speed>
<course>65.5</course>
<desc>Speed 81.9 km/h Distance 24.27 km</desc>
<time>2010-08-25T17:07:00.85</time>
<name>663</name>
</trkpt>
<trkpt lat="49.562693" lon="9.252043">
<ele>490.0</ele>
<speed>81.9</speed>
<course>85.6</course>
<desc>Speed 81.9 km/h Distance 24.32 km</desc>
<time>2010-08-25T17:07:02.85</time>
<name>664</name>
</trkpt>
<trkpt lat="49.562728" lon="9.252740">
<ele>490.0</ele>
<speed>81.9</speed>
<course>77.0</course>
<desc>Speed 81.9 km/h Distance 24.37 km</desc>
<time>2010-08-25T17:07:05.84</time>
<name>665</name>
</trkpt>
<trkpt lat="49.562833" lon="9.253440">
<ele>489.5</ele>
<speed>81.9</speed>
<course>44.6</course>
<desc>Speed 81.9 km/h Distance 24.42 km</desc>
<time>2010-08-25T17:07:11.84</time>
<name>666</name>
</trkpt>
<trkpt lat="49.563273" lon="9.254110">
<ele>489.5</ele>
<speed>81.9</speed>
<course>82.3</course>
<desc>Speed 81.9 km/h Distance 24.49 km</desc>
<time>2010-08-25T17:07:14.84</time>
<name>667</name>
</trkpt>
<trkpt lat="49.563418" lon="9.255768">
<ele>490.0</ele>
<speed>81.9</speed>
<course>20.1</course>
<desc>Speed 81.9 km/h Distance 24.61 km</desc>
<time>2010-08-25T17:07:17.85</time>
<name>668</name>
</trkpt>
<trkpt lat="49.563802" lon="9.255985">
<ele>490.0</ele>
<speed>81.9</speed>
<course>15.3</course>
<desc>Speed 81.9 km/h Distance 24.65 km</desc>
<time>2010-08-25T17:07:19.84</time>
<name>669</name>
</trkpt>
<trkpt lat="49.564830" lon="9.256418">
<ele>490.0</ele>
<speed>81.9</speed>
<course>42.4</course>
<desc>Speed 81.9 km/h Distance 24.77 km</desc>
<time>2010-08-25T17:07:23.84</time>
<name>670</name>
</trkpt>
<trkpt lat="49.565227" lon="9.256977">
<ele>490.0</ele>
<speed>81.9</speed>
<course>46.9</course>
<desc>Speed 81.9 km/h Distance 24.83 km</desc>
<time>2010-08-25T17:07:26.84</time>
<name>671</name>
</trkpt>
<trkpt lat="49.565330" lon="9.257147">
<ele>490.0</ele>
<speed>81.9</speed>
<course>22.9</course>
<desc>Speed 81.9 km/h Distance 24.85 km</desc>
<time>2010-08-25T17:07:32.83</time>
<name>672</name>
</trkpt>
<trkpt lat="49.566148" lon="9.257680">
<ele>490.0</ele>
<speed>81.9</speed>
<course>342.0</course>
<desc>Speed 81.9 km/h Distance 24.95 km</desc>
<time>2010-08-25T17:07:36.83</time>
<name>673</name>
</trkpt>
<trkpt lat="49.566607" lon="9.257450">
<ele>490.0</ele>
<speed>81.9</speed>
<course>15.1</course>
<desc>Speed 81.9 km/h Distance 25.00 km</desc>
<time>2010-08-25T17:07:42.82</time>
<name>674</name>
</trkpt>
<trkpt lat="49.567927" lon="9.258000">
<ele>492.0</ele>
<speed>63.9</speed>
<course>335.3</course>
<desc>Speed 63.9 km/h Distance 25.15 km</desc>
<time>2010-08-25T17:07:47.83</time>
<name>675</name>
</trkpt>
<trkpt lat="49.568423" lon="9.257648">
<ele>490.5</ele>
<speed>63.9</speed>
<course>36.0</course>
<desc>Speed 63.9 km/h Distance 25.21 km</desc>
<time>2010-08-25T17:07:50.82</time>
<name>676</name>
</trkpt>
<trkpt lat="49.568550" lon="9.257790">
<ele>490.0</ele>
<speed>63.9</speed>
<course>342.1</course>
<desc>Speed 63.9 km/h Distance 25.23 km</desc>
<time>2010-08-25T17:07:51.82</time>
<name>677</name>
</trkpt>
<trkpt lat="49.568918" lon="9.257607">
<ele>489.5</ele>
<speed>63.9</speed>
<course>345.1</course>
<desc>Speed 63.9 km/h Distance 25.28 km</desc>
<time>2010-08-25T17:07:55.82</time>
<name>678</name>
</trkpt>
<trkpt lat="49.570977" lon="9.256763">
<ele>489.5</ele>
<speed>63.9</speed>
<course>342.2</course>
<desc>Speed 63.9 km/h Distance 25.51 km</desc>
<time>2010-08-25T17:07:59.81</time>
<name>679</name>
</trkpt>
<trkpt lat="49.571293" lon="9.256607">
<ele>489.5</ele>
<speed>63.9</speed>
<course>354.3</course>
<desc>Speed 63.9 km/h Distance 25.55 km</desc>
<time>2010-08-25T17:08:01.81</time>
<name>680</name>
</trkpt>
<trkpt lat="49.571863" lon="9.256518">
<ele>489.5</ele>
<speed>63.9</speed>
<course>21.4</course>
<desc>Speed 63.9 km/h Distance 25.61 km</desc>
<time>2010-08-25T17:08:03.81</time>
<name>681</name>
</trkpt>
<trkpt lat="49.572732" lon="9.257043">
<ele>489.5</ele>
<speed>63.9</speed>
<course>21.7</course>
<desc>Speed 63.9 km/h Distance 25.72 km</desc>
<time>2010-08-25T17:08:08.81</time>
<name>682</name>
</trkpt>
<trkpt lat="49.573333" lon="9.257413">
<ele>489.5</ele>
<speed>63.9</speed>
<course>11.1</course>
<desc>Speed 63.9 km/h Distance 25.79 km</desc>
<time>2010-08-25T17:08:10.81</time>
<name>683</name>
</trkpt>
<trkpt lat="49.574412" lon="9.257738">
<ele>489.5</ele>
<speed>63.9</speed>
<course>347.6</course>
<desc>Speed 63.9 km/h Distance 25.91 km</desc>
<time>2010-08-25T17:08:15.80</time>
<name>684</name>
</trkpt>
<trkpt lat="49.574663" lon="9.257653">
<ele>489.5</ele>
<speed>63.9</speed>
<course>17.6</course>
<desc>Speed 63.9 km/h Distance 25.94 km</desc>
<time>2010-08-25T17:08:17.80</time>
<name>685</name>
</trkpt>
<trkpt lat="49.575003" lon="9.257820">
<ele>489.5</ele>
<speed>63.9</speed>
<course>343.0</course>
<desc>Speed 63.9 km/h Distance 25.98 km</desc>
<time>2010-08-25T17:08:21.80</time>
<name>686</name>
</trkpt>
<trkpt lat="49.575322" lon="9.257670">
<ele>489.5</ele>
<speed>63.9</speed>
<course>13.8</course>
<desc>Speed 63.9 km/h Distance 26.02 km</desc>
<time>2010-08-25T17:08:24.79</time>
<name>687</name>
</trkpt>
<trkpt lat="49.576093" lon="9.257962">
<ele>489.5</ele>
<speed>63.9</speed>
<course>12.3</course>
<desc>Speed 63.9 km/h Distance 26.11 km</desc>
<time>2010-08-25T17:08:26.79</time>
<name>688</name>
</trkpt>
<trkpt lat="49.576262" lon="9.258018">
<ele>489.5</ele>
<speed>63.9</speed>
<course>2.2</course>
<desc>Speed 63.9 km/h Distance 26.12 km</desc>
<time>2010-08-25T17:08:27.79</time>
<name>689</name>
</trkpt>
<trkpt lat="49.577790" lon="9.258110">
<ele>488.5</ele>
<speed>63.9</speed>
<course>22.5</course>
<desc>Speed 63.9 km/h Distance 26.29 km</desc>
<time>2010-08-25T17:08:33.79</time>
<name>690</name>
</trkpt>
<trkpt lat="49.578550" lon="9.258595">
<ele>488.5</ele>
<speed>58.8</speed>
<course>56.7</course>
<desc>Speed 58.8 km/h Distance 26.39 km</desc>
<time>2010-08-25T17:08:35.79</time>
<name>691</name>
</trkpt>
<trkpt lat="49.579168" lon="9.260048">
<ele>488.0</ele>
<speed>54.6</speed>
<course>41.0</course>
<desc>Speed 54.6 km/h Distance 26.51 km</desc>
<time>2010-08-25T17:08:37.79</time>
<name>692</name>
</trkpt>
<trkpt lat="49.579365" lon="9.260312">
<ele>487.5</ele>
<speed>54.6</speed>
<course>25.5</course>
<desc>Speed 54.6 km/h Distance 26.54 km</desc>
<time>2010-08-25T17:08:39.80</time>
<name>693</name>
</trkpt>
<trkpt lat="49.579612" lon="9.260493">
<ele>487.0</ele>
<speed>26.0</speed>
<course>342.0</course>
<desc>Speed 26.0 km/h Distance 26.57 km</desc>
<time>2010-08-25T17:08:43.79</time>
<name>694</name>
</trkpt>
<trkpt lat="49.579662" lon="9.260468">
<ele>486.5</ele>
<speed>26.0</speed>
<course>25.1</course>
<desc>Speed 26.0 km/h Distance 26.58 km</desc>
<time>2010-08-25T17:08:44.78</time>
<name>695</name>
</trkpt>
<trkpt lat="49.580105" lon="9.260788">
<ele>484.5</ele>
<speed>25.1</speed>
<course>85.2</course>
<desc>Speed 25.1 km/h Distance 26.63 km</desc>
<time>2010-08-25T17:08:48.79</time>
<name>696</name>
</trkpt>
<trkpt lat="49.580157" lon="9.261747">
<ele>481.0</ele>
<speed>47.8</speed>
<course>108.4</course>
<desc>Speed 47.8 km/h Distance 26.70 km</desc>
<time>2010-08-25T17:08:55.78</time>
<name>697</name>
</trkpt>
<trkpt lat="49.579618" lon="9.264238">
<ele>481.0</ele>
<speed>18.8</speed>
<course>24.8</course>
<desc>Speed 18.8 km/h Distance 26.89 km</desc>
<time>2010-08-25T17:09:09.77</time>
<name>698</name>
</trkpt>
<trkpt lat="49.579862" lon="9.264412">
<ele>481.0</ele>
<speed>18.8</speed>
<course>325.3</course>
<desc>Speed 18.8 km/h Distance 26.92 km</desc>
<time>2010-08-25T17:09:16.77</time>
<name>699</name>
</trkpt>
<trkpt lat="49.581673" lon="9.262475">
<ele>480.0</ele>
<speed>18.8</speed>
<course>309.0</course>
<desc>Speed 18.8 km/h Distance 27.17 km</desc>
<time>2010-08-25T17:09:28.77</time>
<name>700</name>
</trkpt>
<trkpt lat="49.582613" lon="9.260682">
<ele>478.5</ele>
<speed>100</speed>
<course>311.9</course>
<desc>Speed 100 km/h Distance 27.33 km</desc>
<time>2010-08-25T17:09:34.76</time>
<name>701</name>
</trkpt>
<trkpt lat="49.582778" lon="9.260398">
<ele>478.0</ele>
<speed>103</speed>
<course>302.9</course>
<desc>Speed 103 km/h Distance 27.36 km</desc>
<time>2010-08-25T17:09:35.76</time>
<name>702</name>
</trkpt>
<trkpt lat="49.583518" lon="9.258635">
<ele>476.0</ele>
<speed>113</speed>
<course>328.0</course>
<desc>Speed 113 km/h Distance 27.51 km</desc>
<time>2010-08-25T17:09:40.75</time>
<name>703</name>
</trkpt>
<trkpt lat="49.584643" lon="9.257552">
<ele>475.0</ele>
<speed>120</speed>
<course>311.7</course>
<desc>Speed 120 km/h Distance 27.66 km</desc>
<time>2010-08-25T17:09:44.75</time>
<name>704</name>
</trkpt>
<trkpt lat="49.585000" lon="9.256933">
<ele>475.0</ele>
<speed>118</speed>
<course>314.6</course>
<desc>Speed 118 km/h Distance 27.72 km</desc>
<time>2010-08-25T17:09:46.74</time>
<name>705</name>
</trkpt>
<trkpt lat="49.585648" lon="9.255920">
<ele>474.5</ele>
<speed>118</speed>
<course>329.7</course>
<desc>Speed 118 km/h Distance 27.82 km</desc>
<time>2010-08-25T17:09:49.75</time>
<name>706</name>
</trkpt>
<trkpt lat="49.588192" lon="9.253628">
<ele>471.5</ele>
<speed>112</speed>
<course>336.7</course>
<desc>Speed 112 km/h Distance 28.15 km</desc>
<time>2010-08-25T17:09:59.75</time>
<name>707</name>
</trkpt>
<trkpt lat="49.588683" lon="9.253302">
<ele>470.5</ele>
<speed>121</speed>
<course>355.7</course>
<desc>Speed 121 km/h Distance 28.21 km</desc>
<time>2010-08-25T17:10:01.75</time>
<name>708</name>
</trkpt>
<trkpt lat="49.592713" lon="9.252835">
<ele>468.0</ele>
<speed>134</speed>
<course>0.2</course>
<desc>Speed 134 km/h Distance 28.66 km</desc>
<time>2010-08-25T17:10:14.75</time>
<name>709</name>
</trkpt>
<trkpt lat="49.593523" lon="9.252840">
<ele>467.0</ele>
<speed>97.6</speed>
<course>345.1</course>
<desc>Speed 97.6 km/h Distance 28.75 km</desc>
<time>2010-08-25T17:10:18.74</time>
<name>710</name>
</trkpt>
<trkpt lat="49.594653" lon="9.252377">
<ele>466.5</ele>
<speed>96.7</speed>
<course>354.1</course>
<desc>Speed 96.7 km/h Distance 28.88 km</desc>
<time>2010-08-25T17:10:25.73</time>
<name>711</name>
</trkpt>
<trkpt lat="49.596350" lon="9.252108">
<ele>464.5</ele>
<speed>62.3</speed>
<course>33.3</course>
<desc>Speed 62.3 km/h Distance 29.07 km</desc>
<time>2010-08-25T17:10:40.72</time>
<name>712</name>
</trkpt>
<trkpt lat="49.596865" lon="9.252630">
<ele>463.5</ele>
<speed>56.5</speed>
<course>17.0</course>
<desc>Speed 56.5 km/h Distance 29.14 km</desc>
<time>2010-08-25T17:10:47.72</time>
<name>713</name>
</trkpt>
<trkpt lat="49.597108" lon="9.252745">
<ele>461.5</ele>
<speed>56.4</speed>
<course>17.7</course>
<desc>Speed 56.4 km/h Distance 29.17 km</desc>
<time>2010-08-25T17:10:49.71</time>
<name>714</name>
</trkpt>
<trkpt lat="49.597495" lon="9.252935">
<ele>458.0</ele>
<speed>56.1</speed>
<course>4.5</course>
<desc>Speed 56.1 km/h Distance 29.21 km</desc>
<time>2010-08-25T17:10:53.71</time>
<name>715</name>
</trkpt>
<trkpt lat="49.597840" lon="9.252977">
<ele>456.5</ele>
<speed>56.1</speed>
<course>333.7</course>
<desc>Speed 56.1 km/h Distance 29.25 km</desc>
<time>2010-08-25T17:10:57.70</time>
<name>716</name>
</trkpt>
<trkpt lat="49.597952" lon="9.252892">
<ele>455.5</ele>
<speed>56.1</speed>
<course>328.2</course>
<desc>Speed 56.1 km/h Distance 29.26 km</desc>
<time>2010-08-25T17:11:03.69</time>
<name>717</name>
</trkpt>
<trkpt lat="49.598112" lon="9.252738">
<ele>455.5</ele>
<speed>56.1</speed>
<course>334.2</course>
<desc>Speed 56.1 km/h Distance 29.28 km</desc>
<time>2010-08-25T17:11:08.69</time>
<name>718</name>
</trkpt>
<trkpt lat="49.598362" lon="9.252552">
<ele>455.5</ele>
<speed>56.1</speed>
<course>336.0</course>
<desc>Speed 56.1 km/h Distance 29.32 km</desc>
<time>2010-08-25T17:11:11.69</time>
<name>719</name>
</trkpt>
<trkpt lat="49.598473" lon="9.252475">
<ele>455.5</ele>
<speed>56.1</speed>
<course>353.2</course>
<desc>Speed 56.1 km/h Distance 29.33 km</desc>
<time>2010-08-25T17:11:12.69</time>
<name>720</name>
</trkpt>
<trkpt lat="49.598765" lon="9.252422">
<ele>455.5</ele>
<speed>56.1</speed>
<course>341.3</course>
<desc>Speed 56.1 km/h Distance 29.36 km</desc>
<time>2010-08-25T17:11:16.68</time>
<name>721</name>
</trkpt>
<trkpt lat="49.599695" lon="9.251935">
<ele>455.0</ele>
<speed>16.0</speed>
<course>324.3</course>
<desc>Speed 16.0 km/h Distance 29.47 km</desc>
<time>2010-08-25T17:11:22.69</time>
<name>722</name>
</trkpt>
<trkpt lat="49.600018" lon="9.251577">
<ele>455.0</ele>
<speed>16.0</speed>
<course>311.0</course>
<desc>Speed 16.0 km/h Distance 29.52 km</desc>
<time>2010-08-25T17:11:26.68</time>
<name>723</name>
</trkpt>
<trkpt lat="49.601860" lon="9.248308">
<ele>438.0</ele>
<speed>38.2</speed>
<course>206.8</course>
<desc>Speed 38.2 km/h Distance 29.83 km</desc>
<time>2010-08-25T17:12:08.64</time>
<name>724</name>
</trkpt>
<trkpt lat="49.601443" lon="9.247983">
<ele>422.5</ele>
<speed>30.1</speed>
<course>359.9</course>
<desc>Speed 30.1 km/h Distance 29.88 km</desc>
<time>2010-08-25T17:12:10.64</time>
<name>725</name>
</trkpt>
<trkpt lat="49.601823" lon="9.247982">
<ele>352.0</ele>
<speed>30.8</speed>
<course>294.8</course>
<desc>Speed 30.8 km/h Distance 29.92 km</desc>
<time>2010-08-25T17:12:14.63</time>
<name>726</name>
</trkpt>
<trkpt lat="49.601907" lon="9.247703">
<ele>339.0</ele>
<speed>31.4</speed>
<course>331.4</course>
<desc>Speed 31.4 km/h Distance 29.94 km</desc>
<time>2010-08-25T17:12:16.63</time>
<name>727</name>
</trkpt>
<trkpt lat="49.601990" lon="9.247633">
<ele>337.5</ele>
<speed>31.6</speed>
<course>331.9</course>
<desc>Speed 31.6 km/h Distance 29.95 km</desc>
<time>2010-08-25T17:12:17.62</time>
<name>728</name>
</trkpt>
<trkpt lat="49.602065" lon="9.247572">
<ele>337.0</ele>
<speed>34.8</speed>
<course>333.8</course>
<desc>Speed 34.8 km/h Distance 29.96 km</desc>
<time>2010-08-25T17:12:18.63</time>
<name>729</name>
</trkpt>
<trkpt lat="49.602142" lon="9.247513">
<ele>336.5</ele>
<speed>33.2</speed>
<course>327.6</course>
<desc>Speed 33.2 km/h Distance 29.97 km</desc>
<time>2010-08-25T17:12:19.63</time>
<name>730</name>
</trkpt>
<trkpt lat="49.602218" lon="9.247438">
<ele>336.5</ele>
<speed>35.6</speed>
<course>345.1</course>
<desc>Speed 35.6 km/h Distance 29.98 km</desc>
<time>2010-08-25T17:12:20.63</time>
<name>731</name>
</trkpt>
<trkpt lat="49.602303" lon="9.247403">
<ele>336.0</ele>
<speed>36.0</speed>
<course>339.6</course>
<desc>Speed 36.0 km/h Distance 29.99 km</desc>
<time>2010-08-25T17:12:21.63</time>
<name>732</name>
</trkpt>
<trkpt lat="49.602448" lon="9.247320">
<ele>334.0</ele>
<speed>41.1</speed>
<course>343.0</course>
<desc>Speed 41.1 km/h Distance 30.01 km</desc>
<time>2010-08-25T17:12:23.62</time>
<name>733</name>
</trkpt>
<trkpt lat="49.602537" lon="9.247278">
<ele>333.5</ele>
<speed>40.0</speed>
<course>1.5</course>
<desc>Speed 40.0 km/h Distance 30.02 km</desc>
<time>2010-08-25T17:12:24.62</time>
<name>734</name>
</trkpt>
<trkpt lat="49.602702" lon="9.247285">
<ele>329.5</ele>
<speed>27.7</speed>
<course>28.2</course>
<desc>Speed 27.7 km/h Distance 30.04 km</desc>
<time>2010-08-25T17:12:27.62</time>
<name>735</name>
</trkpt>
<trkpt lat="49.602760" lon="9.247333">
<ele>327.0</ele>
<speed>33.4</speed>
<course>19.2</course>
<desc>Speed 33.4 km/h Distance 30.05 km</desc>
<time>2010-08-25T17:12:28.62</time>
<name>736</name>
</trkpt>
<trkpt lat="49.602825" lon="9.247368">
<ele>326.0</ele>
<speed>33.5</speed>
<course>20.0</course>
<desc>Speed 33.5 km/h Distance 30.05 km</desc>
<time>2010-08-25T17:12:29.63</time>
<name>737</name>
</trkpt>
<trkpt lat="49.602893" lon="9.247407">
<ele>325.5</ele>
<speed>33.5</speed>
<course>8.7</course>
<desc>Speed 33.5 km/h Distance 30.06 km</desc>
<time>2010-08-25T17:12:30.62</time>
<name>738</name>
</trkpt>
<trkpt lat="49.602992" lon="9.247430">
<ele>325.0</ele>
<speed>24.1</speed>
<course>1.9</course>
<desc>Speed 24.1 km/h Distance 30.07 km</desc>
<time>2010-08-25T17:12:32.61</time>
<name>739</name>
</trkpt>
<trkpt lat="49.603055" lon="9.247433">
<ele>324.5</ele>
<speed>30.3</speed>
<course>2.8</course>
<desc>Speed 30.3 km/h Distance 30.08 km</desc>
<time>2010-08-25T17:12:33.62</time>
<name>740</name>
</trkpt>
<trkpt lat="49.603120" lon="9.247438">
<ele>324.0</ele>
<speed>27.7</speed>
<course>3.1</course>
<desc>Speed 27.7 km/h Distance 30.09 km</desc>
<time>2010-08-25T17:12:34.62</time>
<name>741</name>
</trkpt>
<trkpt lat="49.603182" lon="9.247443">
<ele>323.5</ele>
<speed>26.0</speed>
<course>18.9</course>
<desc>Speed 26.0 km/h Distance 30.09 km</desc>
<time>2010-08-25T17:12:35.61</time>
<name>742</name>
</trkpt>
<trkpt lat="49.603242" lon="9.247475">
<ele>323.0</ele>
<speed>26.0</speed>
<course>19.7</course>
<desc>Speed 26.0 km/h Distance 30.10 km</desc>
<time>2010-08-25T17:12:36.62</time>
<name>743</name>
</trkpt>
<trkpt lat="49.603290" lon="9.247502">
<ele>323.0</ele>
<speed>26.0</speed>
<course>6.4</course>
<desc>Speed 26.0 km/h Distance 30.11 km</desc>
<time>2010-08-25T17:12:37.62</time>
<name>744</name>
</trkpt>
<trkpt lat="49.603367" lon="9.247515">
<ele>322.5</ele>
<speed>26.0</speed>
<course>20.2</course>
<desc>Speed 26.0 km/h Distance 30.12 km</desc>
<time>2010-08-25T17:12:39.61</time>
<name>745</name>
</trkpt>
<trkpt lat="49.603640" lon="9.247670">
<ele>321.5</ele>
<speed>44.1</speed>
<course>21.6</course>
<desc>Speed 44.1 km/h Distance 30.15 km</desc>
<time>2010-08-25T17:12:42.61</time>
<name>746</name>
</trkpt>
<trkpt lat="49.604262" lon="9.248050">
<ele>317.5</ele>
<speed>58.0</speed>
<course>25.6</course>
<desc>Speed 58.0 km/h Distance 30.22 km</desc>
<time>2010-08-25T17:12:46.61</time>
<name>747</name>
</trkpt>
<trkpt lat="49.604998" lon="9.248595">
<ele>309.5</ele>
<speed>69.6</speed>
<course>27.0</course>
<desc>Speed 69.6 km/h Distance 30.31 km</desc>
<time>2010-08-25T17:12:50.60</time>
<name>748</name>
</trkpt>
<trkpt lat="49.605555" lon="9.249033">
<ele>306.5</ele>
<speed>81.0</speed>
<course>12.6</course>
<desc>Speed 81.0 km/h Distance 30.38 km</desc>
<time>2010-08-25T17:12:53.60</time>
<name>749</name>
</trkpt>
<trkpt lat="49.605748" lon="9.249100">
<ele>305.5</ele>
<speed>82.4</speed>
<course>12.9</course>
<desc>Speed 82.4 km/h Distance 30.41 km</desc>
<time>2010-08-25T17:12:54.61</time>
<name>750</name>
</trkpt>
<trkpt lat="49.605952" lon="9.249172">
<ele>305.5</ele>
<speed>84.4</speed>
<course>9.8</course>
<desc>Speed 84.4 km/h Distance 30.43 km</desc>
<time>2010-08-25T17:12:55.61</time>
<name>751</name>
</trkpt>
<trkpt lat="49.606163" lon="9.249228">
<ele>305.0</ele>
<speed>87.3</speed>
<course>9.8</course>
<desc>Speed 87.3 km/h Distance 30.45 km</desc>
<time>2010-08-25T17:12:56.61</time>
<name>752</name>
</trkpt>
<trkpt lat="49.606375" lon="9.249285">
<ele>305.0</ele>
<speed>87.7</speed>
<course>359.2</course>
<desc>Speed 87.7 km/h Distance 30.48 km</desc>
<time>2010-08-25T17:12:57.60</time>
<name>753</name>
</trkpt>
<trkpt lat="49.606605" lon="9.249280">
<ele>304.5</ele>
<speed>94.0</speed>
<course>357.3</course>
<desc>Speed 94.0 km/h Distance 30.50 km</desc>
<time>2010-08-25T17:12:58.60</time>
<name>754</name>
</trkpt>
<trkpt lat="49.607255" lon="9.249233">
<ele>299.5</ele>
<speed>106</speed>
<course>6.7</course>
<desc>Speed 106 km/h Distance 30.57 km</desc>
<time>2010-08-25T17:13:01.60</time>
<name>755</name>
</trkpt>
<trkpt lat="49.607530" lon="9.249283">
<ele>299.0</ele>
<speed>112</speed>
<course>11.9</course>
<desc>Speed 112 km/h Distance 30.61 km</desc>
<time>2010-08-25T17:13:02.60</time>
<name>756</name>
</trkpt>
<trkpt lat="49.607792" lon="9.249368">
<ele>298.5</ele>
<speed>107</speed>
<course>8.5</course>
<desc>Speed 107 km/h Distance 30.64 km</desc>
<time>2010-08-25T17:13:03.60</time>
<name>757</name>
</trkpt>
<trkpt lat="49.608045" lon="9.249427">
<ele>298.0</ele>
<speed>101</speed>
<course>7.9</course>
<desc>Speed 101 km/h Distance 30.66 km</desc>
<time>2010-08-25T17:13:04.60</time>
<name>758</name>
</trkpt>
<trkpt lat="49.608293" lon="9.249480">
<ele>297.5</ele>
<speed>99.9</speed>
<course>357.4</course>
<desc>Speed 99.9 km/h Distance 30.69 km</desc>
<time>2010-08-25T17:13:05.60</time>
<name>759</name>
</trkpt>
<trkpt lat="49.608825" lon="9.249443">
<ele>297.0</ele>
<speed>101</speed>
<course>358.3</course>
<desc>Speed 101 km/h Distance 30.75 km</desc>
<time>2010-08-25T17:13:07.59</time>
<name>760</name>
</trkpt>
<trkpt lat="49.609085" lon="9.249432">
<ele>296.0</ele>
<speed>102</speed>
<course>355.3</course>
<desc>Speed 102 km/h Distance 30.78 km</desc>
<time>2010-08-25T17:13:08.59</time>
<name>761</name>
</trkpt>
<trkpt lat="49.609728" lon="9.249350">
<ele>293.5</ele>
<speed>82.8</speed>
<course>353.2</course>
<desc>Speed 82.8 km/h Distance 30.85 km</desc>
<time>2010-08-25T17:13:11.60</time>
<name>762</name>
</trkpt>
<trkpt lat="49.610332" lon="9.249238">
<ele>293.0</ele>
<speed>82.8</speed>
<course>349.2</course>
<desc>Speed 82.8 km/h Distance 30.92 km</desc>
<time>2010-08-25T17:13:16.58</time>
<name>763</name>
</trkpt>
<trkpt lat="49.610570" lon="9.249168">
<ele>292.5</ele>
<speed>82.8</speed>
<course>328.8</course>
<desc>Speed 82.8 km/h Distance 30.95 km</desc>
<time>2010-08-25T17:13:22.59</time>
<name>764</name>
</trkpt>
<trkpt lat="49.611818" lon="9.248000">
<ele>292.0</ele>
<speed>82.8</speed>
<course>342.1</course>
<desc>Speed 82.8 km/h Distance 31.11 km</desc>
<time>2010-08-25T17:13:27.58</time>
<name>765</name>
</trkpt>
<trkpt lat="49.613828" lon="9.247000">
<ele>292.5</ele>
<speed>73.3</speed>
<course>338.1</course>
<desc>Speed 73.3 km/h Distance 31.34 km</desc>
<time>2010-08-25T17:13:32.58</time>
<name>766</name>
</trkpt>
<trkpt lat="49.614735" lon="9.246438">
<ele>293.0</ele>
<speed>88.8</speed>
<course>328.7</course>
<desc>Speed 88.8 km/h Distance 31.45 km</desc>
<time>2010-08-25T17:13:36.58</time>
<name>767</name>
</trkpt>
<trkpt lat="49.615165" lon="9.246035">
<ele>292.5</ele>
<speed>88.8</speed>
<course>327.9</course>
<desc>Speed 88.8 km/h Distance 31.51 km</desc>
<time>2010-08-25T17:13:39.57</time>
<name>768</name>
</trkpt>
<trkpt lat="49.615645" lon="9.245570">
<ele>292.0</ele>
<speed>88.8</speed>
<course>355.3</course>
<desc>Speed 88.8 km/h Distance 31.57 km</desc>
<time>2010-08-25T17:13:45.58</time>
<name>769</name>
</trkpt>
<trkpt lat="49.616298" lon="9.245487">
<ele>292.0</ele>
<speed>90.6</speed>
<course>6.2</course>
<desc>Speed 90.6 km/h Distance 31.64 km</desc>
<time>2010-08-25T17:13:48.57</time>
<name>770</name>
</trkpt>
<trkpt lat="49.616703" lon="9.245555">
<ele>292.0</ele>
<speed>90.6</speed>
<course>3.5</course>
<desc>Speed 90.6 km/h Distance 31.69 km</desc>
<time>2010-08-25T17:13:50.57</time>
<name>771</name>
</trkpt>
<trkpt lat="49.617443" lon="9.245625">
<ele>292.0</ele>
<speed>94.2</speed>
<course>359.1</course>
<desc>Speed 94.2 km/h Distance 31.77 km</desc>
<time>2010-08-25T17:13:53.56</time>
<name>772</name>
</trkpt>
<trkpt lat="49.617933" lon="9.245613">
<ele>291.0</ele>
<speed>82.0</speed>
<course>0.4</course>
<desc>Speed 82.0 km/h Distance 31.83 km</desc>
<time>2010-08-25T17:13:55.56</time>
<name>773</name>
</trkpt>
<trkpt lat="49.618405" lon="9.245618">
<ele>291.0</ele>
<speed>82.0</speed>
<course>14.8</course>
<desc>Speed 82.0 km/h Distance 31.88 km</desc>
<time>2010-08-25T17:13:58.56</time>
<name>774</name>
</trkpt>
<trkpt lat="49.619462" lon="9.246050">
<ele>290.5</ele>
<speed>82.0</speed>
<course>329.7</course>
<desc>Speed 82.0 km/h Distance 32.00 km</desc>
<time>2010-08-25T17:14:06.55</time>
<name>775</name>
</trkpt>
<trkpt lat="49.621450" lon="9.244260">
<ele>290.0</ele>
<speed>82.0</speed>
<course>347.8</course>
<desc>Speed 82.0 km/h Distance 32.26 km</desc>
<time>2010-08-25T17:14:14.55</time>
<name>776</name>
</trkpt>
<trkpt lat="49.622068" lon="9.244053">
<ele>290.5</ele>
<speed>82.0</speed>
<course>12.3</course>
<desc>Speed 82.0 km/h Distance 32.33 km</desc>
<time>2010-08-25T17:14:17.54</time>
<name>777</name>
</trkpt>
<trkpt lat="49.622630" lon="9.244242">
<ele>290.5</ele>
<speed>82.0</speed>
<course>29.3</course>
<desc>Speed 82.0 km/h Distance 32.39 km</desc>
<time>2010-08-25T17:14:22.55</time>
<name>778</name>
</trkpt>
<trkpt lat="49.623240" lon="9.244770">
<ele>287.0</ele>
<speed>74.1</speed>
<course>27.6</course>
<desc>Speed 74.1 km/h Distance 32.47 km</desc>
<time>2010-08-25T17:14:27.54</time>
<name>779</name>
</trkpt>
<trkpt lat="49.623772" lon="9.245198">
<ele>276.0</ele>
<speed>74.1</speed>
<course>32.9</course>
<desc>Speed 74.1 km/h Distance 32.54 km</desc>
<time>2010-08-25T17:14:30.55</time>
<name>780</name>
</trkpt>
<trkpt lat="49.624187" lon="9.245613">
<ele>267.5</ele>
<speed>74.1</speed>
<course>12.9</course>
<desc>Speed 74.1 km/h Distance 32.59 km</desc>
<time>2010-08-25T17:14:35.53</time>
<name>781</name>
</trkpt>
<trkpt lat="49.625497" lon="9.246075">
<ele>274.5</ele>
<speed>85.6</speed>
<course>8.3</course>
<desc>Speed 85.6 km/h Distance 32.74 km</desc>
<time>2010-08-25T17:14:40.53</time>
<name>782</name>
</trkpt>
<trkpt lat="49.625972" lon="9.246182">
<ele>269.5</ele>
<speed>84.4</speed>
<course>19.1</course>
<desc>Speed 84.4 km/h Distance 32.79 km</desc>
<time>2010-08-25T17:14:42.53</time>
<name>783</name>
</trkpt>
<trkpt lat="49.627610" lon="9.247058">
<ele>255.5</ele>
<speed>64.1</speed>
<course>359.4</course>
<desc>Speed 64.1 km/h Distance 32.99 km</desc>
<time>2010-08-25T17:14:48.53</time>
<name>784</name>
</trkpt>
<trkpt lat="49.628098" lon="9.247050">
<ele>259.0</ele>
<speed>68.8</speed>
<course>359.4</course>
<desc>Speed 68.8 km/h Distance 33.04 km</desc>
<time>2010-08-25T17:14:51.84</time>
<name>785</name>
</trkpt>
<trkpt lat="49.628392" lon="9.247045">
<ele>259.0</ele>
<speed>68.8</speed>
<course>2.2</course>
<desc>Speed 68.8 km/h Distance 33.07 km</desc>
<time>2010-08-25T17:14:53.50</time>
<name>786</name>
</trkpt>
<trkpt lat="49.628873" lon="9.247073">
<ele>258.5</ele>
<speed>68.8</speed>
<course>11.4</course>
<desc>Speed 68.8 km/h Distance 33.13 km</desc>
<time>2010-08-25T17:14:59.50</time>
<name>787</name>
</trkpt>
<trkpt lat="49.630747" lon="9.247655">
<ele>261.0</ele>
<speed>90.2</speed>
<course>23.2</course>
<desc>Speed 90.2 km/h Distance 33.34 km</desc>
<time>2010-08-25T17:15:05.50</time>
<name>788</name>
</trkpt>
<trkpt lat="49.631462" lon="9.248128">
<ele>260.5</ele>
<speed>90.2</speed>
<course>358.0</course>
<desc>Speed 90.2 km/h Distance 33.43 km</desc>
<time>2010-08-25T17:15:08.50</time>
<name>789</name>
</trkpt>
<trkpt lat="49.632277" lon="9.248085">
<ele>260.5</ele>
<speed>68.7</speed>
<course>344.1</course>
<desc>Speed 68.7 km/h Distance 33.52 km</desc>
<time>2010-08-25T17:15:12.49</time>
<name>790</name>
</trkpt>
<trkpt lat="49.632645" lon="9.247923">
<ele>253.0</ele>
<speed>59.5</speed>
<course>337.0</course>
<desc>Speed 59.5 km/h Distance 33.56 km</desc>
<time>2010-08-25T17:15:14.49</time>
<name>791</name>
</trkpt>
<trkpt lat="49.633132" lon="9.247605">
<ele>251.5</ele>
<speed>74.9</speed>
<course>342.6</course>
<desc>Speed 74.9 km/h Distance 33.62 km</desc>
<time>2010-08-25T17:15:17.49</time>
<name>792</name>
</trkpt>
<trkpt lat="49.633422" lon="9.247465">
<ele>240.0</ele>
<speed>74.9</speed>
<course>335.3</course>
<desc>Speed 74.9 km/h Distance 33.65 km</desc>
<time>2010-08-25T17:15:19.48</time>
<name>793</name>
</trkpt>
<trkpt lat="49.633848" lon="9.247162">
<ele>236.5</ele>
<speed>59.7</speed>
<course>339.9</course>
<desc>Speed 59.7 km/h Distance 33.71 km</desc>
<time>2010-08-25T17:15:22.49</time>
<name>794</name>
</trkpt>
<trkpt lat="49.634075" lon="9.247033">
<ele>235.5</ele>
<speed>59.7</speed>
<course>343.2</course>
<desc>Speed 59.7 km/h Distance 33.73 km</desc>
<time>2010-08-25T17:15:24.48</time>
<name>795</name>
</trkpt>
<trkpt lat="49.634357" lon="9.246902">
<ele>239.0</ele>
<speed>59.7</speed>
<course>352.3</course>
<desc>Speed 59.7 km/h Distance 33.77 km</desc>
<time>2010-08-25T17:15:26.48</time>
<name>796</name>
</trkpt>
<trkpt lat="49.634595" lon="9.246852">
<ele>240.5</ele>
<speed>49.6</speed>
<course>348.2</course>
<desc>Speed 49.6 km/h Distance 33.79 km</desc>
<time>2010-08-25T17:15:28.48</time>
<name>797</name>
</trkpt>
<trkpt lat="49.635258" lon="9.246638">
<ele>253.5</ele>
<speed>49.4</speed>
<course>351.0</course>
<desc>Speed 49.4 km/h Distance 33.87 km</desc>
<time>2010-08-25T17:15:32.48</time>
<name>798</name>
</trkpt>
<trkpt lat="49.635517" lon="9.246575">
<ele>253.5</ele>
<speed>48.3</speed>
<course>353.9</course>
<desc>Speed 48.3 km/h Distance 33.90 km</desc>
<time>2010-08-25T17:15:34.48</time>
<name>799</name>
</trkpt>
<trkpt lat="49.635750" lon="9.246537">
<ele>253.5</ele>
<speed>45.0</speed>
<course>353.7</course>
<desc>Speed 45.0 km/h Distance 33.92 km</desc>
<time>2010-08-25T17:15:36.47</time>
<name>800</name>
</trkpt>
<trkpt lat="49.635987" lon="9.246497">
<ele>253.5</ele>
<speed>44.2</speed>
<course>357.0</course>
<desc>Speed 44.2 km/h Distance 33.95 km</desc>
<time>2010-08-25T17:15:38.47</time>
<name>801</name>
</trkpt>
<trkpt lat="49.636217" lon="9.246478">
<ele>253.0</ele>
<speed>43.5</speed>
<course>351.3</course>
<desc>Speed 43.5 km/h Distance 33.98 km</desc>
<time>2010-08-25T17:15:40.47</time>
<name>802</name>
</trkpt>
<trkpt lat="49.636442" lon="9.246425">
<ele>253.5</ele>
<speed>43.5</speed>
<course>12.7</course>
<desc>Speed 43.5 km/h Distance 34.00 km</desc>
<time>2010-08-25T17:15:42.46</time>
<name>803</name>
</trkpt>
<trkpt lat="49.636682" lon="9.246508">
<ele>253.0</ele>
<speed>42.4</speed>
<course>7.5</course>
<desc>Speed 42.4 km/h Distance 34.03 km</desc>
<time>2010-08-25T17:15:44.47</time>
<name>804</name>
</trkpt>
<trkpt lat="49.636838" lon="9.246540">
<ele>252.5</ele>
<speed>42.4</speed>
<course>22.0</course>
<desc>Speed 42.4 km/h Distance 34.05 km</desc>
<time>2010-08-25T17:15:46.47</time>
<name>805</name>
</trkpt>
<trkpt lat="49.637007" lon="9.246645">
<ele>253.0</ele>
<speed>42.4</speed>
<course>40.7</course>
<desc>Speed 42.4 km/h Distance 34.07 km</desc>
<time>2010-08-25T17:15:50.46</time>
<name>806</name>
</trkpt>
<trkpt lat="49.637165" lon="9.246855">
<ele>249.0</ele>
<speed>42.4</speed>
<course>34.1</course>
<desc>Speed 42.4 km/h Distance 34.09 km</desc>
<time>2010-08-25T17:15:53.47</time>
<name>807</name>
</trkpt>
<trkpt lat="49.637460" lon="9.247163">
<ele>246.0</ele>
<speed>42.4</speed>
<course>24.8</course>
<desc>Speed 42.4 km/h Distance 34.13 km</desc>
<time>2010-08-25T17:15:56.46</time>
<name>808</name>
</trkpt>
<trkpt lat="49.637612" lon="9.247272">
<ele>244.5</ele>
<speed>42.4</speed>
<course>16.7</course>
<desc>Speed 42.4 km/h Distance 34.15 km</desc>
<time>2010-08-25T17:15:58.46</time>
<name>809</name>
</trkpt>
<trkpt lat="49.637767" lon="9.247343">
<ele>243.5</ele>
<speed>42.4</speed>
<course>334.1</course>
<desc>Speed 42.4 km/h Distance 34.17 km</desc>
<time>2010-08-25T17:16:01.45</time>
<name>810</name>
</trkpt>
<trkpt lat="49.637947" lon="9.247208">
<ele>241.5</ele>
<speed>39.6</speed>
<course>338.3</course>
<desc>Speed 39.6 km/h Distance 34.19 km</desc>
<time>2010-08-25T17:16:03.46</time>
<name>811</name>
</trkpt>
<trkpt lat="49.638172" lon="9.247070">
<ele>240.5</ele>
<speed>39.6</speed>
<course>330.8</course>
<desc>Speed 39.6 km/h Distance 34.21 km</desc>
<time>2010-08-25T17:16:05.46</time>
<name>812</name>
</trkpt>
<trkpt lat="49.638390" lon="9.246882">
<ele>240.0</ele>
<speed>25.2</speed>
<course>332.0</course>
<desc>Speed 25.2 km/h Distance 34.24 km</desc>
<time>2010-08-25T17:16:08.44</time>
<name>813</name>
</trkpt>
<trkpt lat="49.638473" lon="9.246813">
<ele>240.0</ele>
<speed>25.2</speed>
<course>347.1</course>
<desc>Speed 25.2 km/h Distance 34.25 km</desc>
<time>2010-08-25T17:16:10.45</time>
<name>814</name>
</trkpt>
<trkpt lat="49.638762" lon="9.246712">
<ele>241.0</ele>
<speed>25.2</speed>
<course>348.9</course>
<desc>Speed 25.2 km/h Distance 34.29 km</desc>
<time>2010-08-25T17:16:13.45</time>
<name>815</name>
</trkpt>
<trkpt lat="49.638833" lon="9.246690">
<ele>241.0</ele>
<speed>25.2</speed>
<course>19.8</course>
<desc>Speed 25.2 km/h Distance 34.29 km</desc>
<time>2010-08-25T17:16:15.45</time>
<name>816</name>
</trkpt>
<trkpt lat="49.639662" lon="9.247152">
<ele>241.0</ele>
<speed>37.6</speed>
<course>6.6</course>
<desc>Speed 37.6 km/h Distance 34.39 km</desc>
<time>2010-08-25T17:16:21.45</time>
<name>817</name>
</trkpt>
<trkpt lat="49.639802" lon="9.247177">
<ele>241.0</ele>
<speed>37.6</speed>
<course>352.7</course>
<desc>Speed 37.6 km/h Distance 34.41 km</desc>
<time>2010-08-25T17:16:23.45</time>
<name>818</name>
</trkpt>
<trkpt lat="49.639928" lon="9.247152">
<ele>241.0</ele>
<speed>37.6</speed>
<course>347.8</course>
<desc>Speed 37.6 km/h Distance 34.42 km</desc>
<time>2010-08-25T17:16:25.44</time>
<name>819</name>
</trkpt>
<trkpt lat="49.640068" lon="9.247105">
<ele>240.0</ele>
<speed>37.6</speed>
<course>323.9</course>
<desc>Speed 37.6 km/h Distance 34.44 km</desc>
<time>2010-08-25T17:16:29.44</time>
<name>820</name>
</trkpt>
<trkpt lat="49.640332" lon="9.246808">
<ele>236.5</ele>
<speed>37.6</speed>
<course>301.4</course>
<desc>Speed 37.6 km/h Distance 34.47 km</desc>
<time>2010-08-25T17:16:32.43</time>
<name>821</name>
</trkpt>
<trkpt lat="49.640455" lon="9.246497">
<ele>235.0</ele>
<speed>45.0</speed>
<course>306.2</course>
<desc>Speed 45.0 km/h Distance 34.50 km</desc>
<time>2010-08-25T17:16:35.44</time>
<name>822</name>
</trkpt>
<trkpt lat="49.640627" lon="9.246135">
<ele>233.5</ele>
<speed>45.0</speed>
<course>301.2</course>
<desc>Speed 45.0 km/h Distance 34.53 km</desc>
<time>2010-08-25T17:16:37.44</time>
<name>823</name>
</trkpt>
<trkpt lat="49.641105" lon="9.244917">
<ele>230.5</ele>
<speed>53.5</speed>
<course>285.9</course>
<desc>Speed 53.5 km/h Distance 34.64 km</desc>
<time>2010-08-25T17:16:42.43</time>
<name>824</name>
</trkpt>
<trkpt lat="49.641185" lon="9.244483">
<ele>230.0</ele>
<speed>53.7</speed>
<course>274.0</course>
<desc>Speed 53.7 km/h Distance 34.67 km</desc>
<time>2010-08-25T17:16:44.43</time>
<name>825</name>
</trkpt>
<trkpt lat="49.641205" lon="9.244037">
<ele>230.0</ele>
<speed>56.3</speed>
<course>276.7</course>
<desc>Speed 56.3 km/h Distance 34.70 km</desc>
<time>2010-08-25T17:16:46.43</time>
<name>826</name>
</trkpt>
<trkpt lat="49.641242" lon="9.243555">
<ele>229.5</ele>
<speed>55.3</speed>
<course>278.4</course>
<desc>Speed 55.3 km/h Distance 34.74 km</desc>
<time>2010-08-25T17:16:48.43</time>
<name>827</name>
</trkpt>
<trkpt lat="49.641285" lon="9.243102">
<ele>229.0</ele>
<speed>47.6</speed>
<course>288.2</course>
<desc>Speed 47.6 km/h Distance 34.77 km</desc>
<time>2010-08-25T17:16:50.43</time>
<name>828</name>
</trkpt>
<trkpt lat="49.641377" lon="9.242670">
<ele>229.0</ele>
<speed>57.5</speed>
<course>289.1</course>
<desc>Speed 57.5 km/h Distance 34.80 km</desc>
<time>2010-08-25T17:16:52.43</time>
<name>829</name>
</trkpt>
<trkpt lat="49.641487" lon="9.242180">
<ele>228.5</ele>
<speed>65.5</speed>
<course>293.1</course>
<desc>Speed 65.5 km/h Distance 34.84 km</desc>
<time>2010-08-25T17:16:54.43</time>
<name>830</name>
</trkpt>
<trkpt lat="49.641613" lon="9.241722">
<ele>230.0</ele>
<speed>65.5</speed>
<course>293.6</course>
<desc>Speed 65.5 km/h Distance 34.87 km</desc>
<time>2010-08-25T17:16:56.43</time>
<name>831</name>
</trkpt>
<trkpt lat="49.641742" lon="9.241268">
<ele>230.5</ele>
<speed>74.6</speed>
<course>300.1</course>
<desc>Speed 74.6 km/h Distance 34.91 km</desc>
<time>2010-08-25T17:16:58.43</time>
<name>832</name>
</trkpt>
<trkpt lat="49.641963" lon="9.240678">
<ele>230.0</ele>
<speed>87.7</speed>
<course>298.7</course>
<desc>Speed 87.7 km/h Distance 34.96 km</desc>
<time>2010-08-25T17:17:00.43</time>
<name>833</name>
</trkpt>
<trkpt lat="49.642178" lon="9.240072">
<ele>229.0</ele>
<speed>88.4</speed>
<course>284.4</course>
<desc>Speed 88.4 km/h Distance 35.01 km</desc>
<time>2010-08-25T17:17:02.42</time>
<name>834</name>
</trkpt>
<trkpt lat="49.642287" lon="9.239422">
<ele>228.5</ele>
<speed>88.4</speed>
<course>289.4</course>
<desc>Speed 88.4 km/h Distance 35.06 km</desc>
<time>2010-08-25T17:17:04.42</time>
<name>835</name>
</trkpt>
<trkpt lat="49.642465" lon="9.238642">
<ele>229.5</ele>
<speed>88.4</speed>
<course>279.8</course>
<desc>Speed 88.4 km/h Distance 35.12 km</desc>
<time>2010-08-25T17:17:07.42</time>
<name>836</name>
</trkpt>
<trkpt lat="49.642610" lon="9.237342">
<ele>230.5</ele>
<speed>77.7</speed>
<course>277.8</course>
<desc>Speed 77.7 km/h Distance 35.21 km</desc>
<time>2010-08-25T17:17:12.42</time>
<name>837</name>
</trkpt>
<trkpt lat="49.642705" lon="9.236272">
<ele>234.5</ele>
<speed>78.3</speed>
<course>275.2</course>
<desc>Speed 78.3 km/h Distance 35.29 km</desc>
<time>2010-08-25T17:17:15.42</time>
<name>838</name>
</trkpt>
<trkpt lat="49.642742" lon="9.235650">
<ele>234.5</ele>
<speed>75.6</speed>
<course>264.8</course>
<desc>Speed 75.6 km/h Distance 35.34 km</desc>
<time>2010-08-25T17:17:17.42</time>
<name>839</name>
</trkpt>
<trkpt lat="49.642707" lon="9.235060">
<ele>234.5</ele>
<speed>75.9</speed>
<course>254.5</course>
<desc>Speed 75.9 km/h Distance 35.38 km</desc>
<time>2010-08-25T17:17:19.42</time>
<name>840</name>
</trkpt>
<trkpt lat="49.642603" lon="9.234483">
<ele>234.5</ele>
<speed>74.1</speed>
<course>253.9</course>
<desc>Speed 74.1 km/h Distance 35.42 km</desc>
<time>2010-08-25T17:17:21.42</time>
<name>841</name>
</trkpt>
<trkpt lat="49.642498" lon="9.233920">
<ele>234.5</ele>
<speed>76.6</speed>
<course>250.9</course>
<desc>Speed 76.6 km/h Distance 35.46 km</desc>
<time>2010-08-25T17:17:23.42</time>
<name>842</name>
</trkpt>
<trkpt lat="49.642382" lon="9.233400">
<ele>234.5</ele>
<speed>76.6</speed>
<course>250.6</course>
<desc>Speed 76.6 km/h Distance 35.50 km</desc>
<time>2010-08-25T17:17:25.41</time>
<name>843</name>
</trkpt>
<trkpt lat="49.642260" lon="9.232867">
<ele>232.0</ele>
<speed>76.6</speed>
<course>261.7</course>
<desc>Speed 76.6 km/h Distance 35.54 km</desc>
<time>2010-08-25T17:17:27.40</time>
<name>844</name>
</trkpt>
<trkpt lat="49.642200" lon="9.232233">
<ele>232.5</ele>
<speed>77.1</speed>
<course>280.6</course>
<desc>Speed 77.1 km/h Distance 35.59 km</desc>
<time>2010-08-25T17:17:29.41</time>
<name>845</name>
</trkpt>
<trkpt lat="49.642275" lon="9.231613">
<ele>228.5</ele>
<speed>81.4</speed>
<course>282.2</course>
<desc>Speed 81.4 km/h Distance 35.64 km</desc>
<time>2010-08-25T17:17:31.41</time>
<name>846</name>
</trkpt>
<trkpt lat="49.642363" lon="9.230985">
<ele>226.0</ele>
<speed>82.2</speed>
<course>287.2</course>
<desc>Speed 82.2 km/h Distance 35.68 km</desc>
<time>2010-08-25T17:17:33.40</time>
<name>847</name>
</trkpt>
<trkpt lat="49.642497" lon="9.230318">
<ele>228.5</ele>
<speed>82.8</speed>
<course>298.0</course>
<desc>Speed 82.8 km/h Distance 35.73 km</desc>
<time>2010-08-25T17:17:35.41</time>
<name>848</name>
</trkpt>
<trkpt lat="49.642717" lon="9.229680">
<ele>227.5</ele>
<speed>85.1</speed>
<course>296.7</course>
<desc>Speed 85.1 km/h Distance 35.78 km</desc>
<time>2010-08-25T17:17:37.41</time>
<name>849</name>
</trkpt>
<trkpt lat="49.642905" lon="9.229102">
<ele>227.5</ele>
<speed>92.4</speed>
<course>306.4</course>
<desc>Speed 92.4 km/h Distance 35.83 km</desc>
<time>2010-08-25T17:17:39.41</time>
<name>850</name>
</trkpt>
<trkpt lat="49.643205" lon="9.228473">
<ele>226.5</ele>
<speed>98.9</speed>
<course>305.7</course>
<desc>Speed 98.9 km/h Distance 35.89 km</desc>
<time>2010-08-25T17:17:41.41</time>
<name>851</name>
</trkpt>
<trkpt lat="49.643488" lon="9.227863">
<ele>227.0</ele>
<speed>96.0</speed>
<course>302.5</course>
<desc>Speed 96.0 km/h Distance 35.94 km</desc>
<time>2010-08-25T17:17:43.40</time>
<name>852</name>
</trkpt>
<trkpt lat="49.643738" lon="9.227257">
<ele>225.0</ele>
<speed>93.0</speed>
<course>301.3</course>
<desc>Speed 93.0 km/h Distance 35.99 km</desc>
<time>2010-08-25T17:17:45.40</time>
<name>853</name>
</trkpt>
<trkpt lat="49.643978" lon="9.226647">
<ele>224.0</ele>
<speed>90.4</speed>
<course>295.3</course>
<desc>Speed 90.4 km/h Distance 36.04 km</desc>
<time>2010-08-25T17:17:47.40</time>
<name>854</name>
</trkpt>
<trkpt lat="49.644148" lon="9.226092">
<ele>222.5</ele>
<speed>80.5</speed>
<course>291.5</course>
<desc>Speed 80.5 km/h Distance 36.09 km</desc>
<time>2010-08-25T17:17:49.40</time>
<name>855</name>
</trkpt>
<trkpt lat="49.644285" lon="9.225555">
<ele>222.5</ele>
<speed>74.8</speed>
<course>292.4</course>
<desc>Speed 74.8 km/h Distance 36.13 km</desc>
<time>2010-08-25T17:17:51.40</time>
<name>856</name>
</trkpt>
<trkpt lat="49.644427" lon="9.225023">
<ele>221.5</ele>
<speed>73.2</speed>
<course>292.7</course>
<desc>Speed 73.2 km/h Distance 36.17 km</desc>
<time>2010-08-25T17:17:53.40</time>
<name>857</name>
</trkpt>
<trkpt lat="49.644572" lon="9.224488">
<ele>219.5</ele>
<speed>72.7</speed>
<course>295.4</course>
<desc>Speed 72.7 km/h Distance 36.21 km</desc>
<time>2010-08-25T17:17:55.40</time>
<name>858</name>
</trkpt>
<trkpt lat="49.644720" lon="9.224005">
<ele>217.5</ele>
<speed>65.6</speed>
<course>295.3</course>
<desc>Speed 65.6 km/h Distance 36.25 km</desc>
<time>2010-08-25T17:17:57.40</time>
<name>859</name>
</trkpt>
<trkpt lat="49.644838" lon="9.223618">
<ele>216.0</ele>
<speed>65.6</speed>
<course>308.3</course>
<desc>Speed 65.6 km/h Distance 36.28 km</desc>
<time>2010-08-25T17:17:59.40</time>
<name>860</name>
</trkpt>
<trkpt lat="49.645142" lon="9.223025">
<ele>214.5</ele>
<speed>25.8</speed>
<course>263.1</course>
<desc>Speed 25.8 km/h Distance 36.34 km</desc>
<time>2010-08-25T17:18:05.39</time>
<name>861</name>
</trkpt>
<trkpt lat="49.645123" lon="9.222792">
<ele>214.0</ele>
<speed>28.4</speed>
<course>228.6</course>
<desc>Speed 28.4 km/h Distance 36.35 km</desc>
<time>2010-08-25T17:18:07.39</time>
<name>862</name>
</trkpt>
<trkpt lat="49.645050" lon="9.222663">
<ele>214.5</ele>
<speed>28.4</speed>
<course>218.6</course>
<desc>Speed 28.4 km/h Distance 36.37 km</desc>
<time>2010-08-25T17:18:09.39</time>
<name>863</name>
</trkpt>
<trkpt lat="49.644950" lon="9.222540">
<ele>215.0</ele>
<speed>23.7</speed>
<course>213.3</course>
<desc>Speed 23.7 km/h Distance 36.38 km</desc>
<time>2010-08-25T17:18:11.39</time>
<name>864</name>
</trkpt>
<trkpt lat="49.644743" lon="9.222330">
<ele>215.5</ele>
<speed>34.6</speed>
<course>192.7</course>
<desc>Speed 34.6 km/h Distance 36.41 km</desc>
<time>2010-08-25T17:18:14.39</time>
<name>865</name>
</trkpt>
<trkpt lat="49.644395" lon="9.222208">
<ele>215.0</ele>
<speed>46.0</speed>
<course>182.4</course>
<desc>Speed 46.0 km/h Distance 36.45 km</desc>
<time>2010-08-25T17:18:17.38</time>
<name>866</name>
</trkpt>
<trkpt lat="49.644218" lon="9.222197">
<ele>215.0</ele>
<speed>41.1</speed>
<course>198.9</course>
<desc>Speed 41.1 km/h Distance 36.47 km</desc>
<time>2010-08-25T17:18:19.39</time>
<name>867</name>
</trkpt>
<trkpt lat="49.644017" lon="9.222090">
<ele>215.5</ele>
<speed>43.5</speed>
<course>208.7</course>
<desc>Speed 43.5 km/h Distance 36.49 km</desc>
<time>2010-08-25T17:18:21.39</time>
<name>868</name>
</trkpt>
<trkpt lat="49.643857" lon="9.221955">
<ele>215.5</ele>
<speed>36.8</speed>
<course>210.8</course>
<desc>Speed 36.8 km/h Distance 36.51 km</desc>
<time>2010-08-25T17:18:23.39</time>
<name>869</name>
</trkpt>
<trkpt lat="49.643688" lon="9.221800">
<ele>215.5</ele>
<speed>39.5</speed>
<course>211.4</course>
<desc>Speed 39.5 km/h Distance 36.53 km</desc>
<time>2010-08-25T17:18:25.38</time>
<name>870</name>
</trkpt>
<trkpt lat="49.643518" lon="9.221640">
<ele>215.5</ele>
<speed>39.3</speed>
<course>211.3</course>
<desc>Speed 39.3 km/h Distance 36.56 km</desc>
<time>2010-08-25T17:18:27.37</time>
<name>871</name>
</trkpt>
<trkpt lat="49.643353" lon="9.221485">
<ele>215.5</ele>
<speed>38.0</speed>
<course>208.4</course>
<desc>Speed 38.0 km/h Distance 36.58 km</desc>
<time>2010-08-25T17:18:29.37</time>
<name>872</name>
</trkpt>
<trkpt lat="49.643180" lon="9.221340">
<ele>215.5</ele>
<speed>41.2</speed>
<course>203.1</course>
<desc>Speed 41.2 km/h Distance 36.60 km</desc>
<time>2010-08-25T17:18:31.37</time>
<name>873</name>
</trkpt>
<trkpt lat="49.642975" lon="9.221205">
<ele>215.5</ele>
<speed>44.6</speed>
<course>199.9</course>
<desc>Speed 44.6 km/h Distance 36.62 km</desc>
<time>2010-08-25T17:18:33.37</time>
<name>874</name>
</trkpt>
<trkpt lat="49.642823" lon="9.221120">
<ele>215.5</ele>
<speed>44.6</speed>
<course>183.4</course>
<desc>Speed 44.6 km/h Distance 36.64 km</desc>
<time>2010-08-25T17:18:35.37</time>
<name>875</name>
</trkpt>
<trkpt lat="49.642643" lon="9.221103">
<ele>215.0</ele>
<speed>46.7</speed>
<course>170.9</course>
<desc>Speed 46.7 km/h Distance 36.66 km</desc>
<time>2010-08-25T17:18:37.37</time>
<name>876</name>
</trkpt>
<trkpt lat="49.642455" lon="9.221150">
<ele>216.0</ele>
<speed>46.7</speed>
<course>170.9</course>
<desc>Speed 46.7 km/h Distance 36.68 km</desc>
<time>2010-08-25T17:18:39.37</time>
<name>877</name>
</trkpt>
<trkpt lat="49.642187" lon="9.221217">
<ele>216.0</ele>
<speed>27.1</speed>
<course>194.2</course>
<desc>Speed 27.1 km/h Distance 36.71 km</desc>
<time>2010-08-25T17:18:42.37</time>
<name>878</name>
</trkpt>
<trkpt lat="49.642042" lon="9.221160">
<ele>216.0</ele>
<speed>36.1</speed>
<course>228.4</course>
<desc>Speed 36.1 km/h Distance 36.73 km</desc>
<time>2010-08-25T17:18:44.37</time>
<name>879</name>
</trkpt>
<trkpt lat="49.641940" lon="9.220983">
<ele>214.5</ele>
<speed>36.1</speed>
<course>234.0</course>
<desc>Speed 36.1 km/h Distance 36.75 km</desc>
<time>2010-08-25T17:18:46.37</time>
<name>880</name>
</trkpt>
<trkpt lat="49.641872" lon="9.220838">
<ele>213.0</ele>
<speed>36.1</speed>
<course>235.8</course>
<desc>Speed 36.1 km/h Distance 36.76 km</desc>
<time>2010-08-25T17:18:48.36</time>
<name>881</name>
</trkpt>
<trkpt lat="49.641805" lon="9.220687">
<ele>209.5</ele>
<speed>36.1</speed>
<course>241.4</course>
<desc>Speed 36.1 km/h Distance 36.77 km</desc>
<time>2010-08-25T17:18:50.36</time>
<name>882</name>
</trkpt>
<trkpt lat="49.641545" lon="9.219952">
<ele>199.0</ele>
<speed>40.4</speed>
<course>224.5</course>
<desc>Speed 40.4 km/h Distance 36.83 km</desc>
<time>2010-08-25T17:18:54.36</time>
<name>883</name>
</trkpt>
<trkpt lat="49.641448" lon="9.219805">
<ele>200.0</ele>
<speed>40.4</speed>
<course>194.5</course>
<desc>Speed 40.4 km/h Distance 36.85 km</desc>
<time>2010-08-25T17:18:56.36</time>
<name>884</name>
</trkpt>
<trkpt lat="49.641273" lon="9.219735">
<ele>201.0</ele>
<speed>53.9</speed>
<course>188.1</course>
<desc>Speed 53.9 km/h Distance 36.87 km</desc>
<time>2010-08-25T17:18:58.36</time>
<name>885</name>
</trkpt>
<trkpt lat="49.640993" lon="9.219673">
<ele>201.5</ele>
<speed>53.8</speed>
<course>189.2</course>
<desc>Speed 53.8 km/h Distance 36.90 km</desc>
<time>2010-08-25T17:19:00.36</time>
<name>886</name>
</trkpt>
<trkpt lat="49.640508" lon="9.219552">
<ele>205.0</ele>
<speed>60.4</speed>
<course>202.1</course>
<desc>Speed 60.4 km/h Distance 36.96 km</desc>
<time>2010-08-25T17:19:03.36</time>
<name>887</name>
</trkpt>
<trkpt lat="49.640160" lon="9.219333">
<ele>194.0</ele>
<speed>60.4</speed>
<course>197.2</course>
<desc>Speed 60.4 km/h Distance 37.00 km</desc>
<time>2010-08-25T17:19:06.35</time>
<name>888</name>
</trkpt>
<trkpt lat="49.639857" lon="9.219188">
<ele>189.5</ele>
<speed>60.4</speed>
<course>221.3</course>
<desc>Speed 60.4 km/h Distance 37.03 km</desc>
<time>2010-08-25T17:19:10.35</time>
<name>889</name>
</trkpt>
<trkpt lat="49.639610" lon="9.218853">
<ele>183.0</ele>
<speed>60.4</speed>
<course>205.7</course>
<desc>Speed 60.4 km/h Distance 37.07 km</desc>
<time>2010-08-25T17:19:14.35</time>
<name>890</name>
</trkpt>
<trkpt lat="49.639310" lon="9.218630">
<ele>189.5</ele>
<speed>60.4</speed>
<course>180.4</course>
<desc>Speed 60.4 km/h Distance 37.11 km</desc>
<time>2010-08-25T17:19:19.34</time>
<name>891</name>
</trkpt>
<trkpt lat="49.637068" lon="9.218607">
<ele>191.0</ele>
<speed>60.4</speed>
<course>184.8</course>
<desc>Speed 60.4 km/h Distance 37.36 km</desc>
<time>2010-08-25T17:19:24.35</time>
<name>892</name>
</trkpt>
<trkpt lat="49.636827" lon="9.218575">
<ele>190.5</ele>
<speed>60.4</speed>
<course>234.6</course>
<desc>Speed 60.4 km/h Distance 37.38 km</desc>
<time>2010-08-25T17:19:26.34</time>
<name>893</name>
</trkpt>
<trkpt lat="49.635533" lon="9.215765">
<ele>189.5</ele>
<speed>90.3</speed>
<course>231.3</course>
<desc>Speed 90.3 km/h Distance 37.63 km</desc>
<time>2010-08-25T17:19:32.34</time>
<name>894</name>
</trkpt>
<trkpt lat="49.634820" lon="9.214388">
<ele>189.5</ele>
<speed>82.5</speed>
<course>227.8</course>
<desc>Speed 82.5 km/h Distance 37.76 km</desc>
<time>2010-08-25T17:19:36.33</time>
<name>895</name>
</trkpt>
<trkpt lat="49.634498" lon="9.213840">
<ele>189.5</ele>
<speed>84.1</speed>
<course>224.6</course>
<desc>Speed 84.1 km/h Distance 37.81 km</desc>
<time>2010-08-25T17:19:38.33</time>
<name>896</name>
</trkpt>
<trkpt lat="49.634345" lon="9.213607">
<ele>189.5</ele>
<speed>82.7</speed>
<course>223.2</course>
<desc>Speed 82.7 km/h Distance 37.84 km</desc>
<time>2010-08-25T17:19:39.33</time>
<name>897</name>
</trkpt>
<trkpt lat="49.634190" lon="9.213382">
<ele>189.5</ele>
<speed>82.0</speed>
<course>222.9</course>
<desc>Speed 82.0 km/h Distance 37.86 km</desc>
<time>2010-08-25T17:19:40.33</time>
<name>898</name>
</trkpt>
<trkpt lat="49.634040" lon="9.213167">
<ele>189.5</ele>
<speed>77.7</speed>
<course>225.0</course>
<desc>Speed 77.7 km/h Distance 37.88 km</desc>
<time>2010-08-25T17:19:41.33</time>
<name>899</name>
</trkpt>
<trkpt lat="49.633902" lon="9.212953">
<ele>189.5</ele>
<speed>75.7</speed>
<course>227.2</course>
<desc>Speed 75.7 km/h Distance 37.90 km</desc>
<time>2010-08-25T17:19:42.33</time>
<name>900</name>
</trkpt>
<trkpt lat="49.633762" lon="9.212720">
<ele>190.0</ele>
<speed>71.2</speed>
<course>224.2</course>
<desc>Speed 71.2 km/h Distance 37.93 km</desc>
<time>2010-08-25T17:19:43.33</time>
<name>901</name>
</trkpt>
<trkpt lat="49.633625" lon="9.212515">
<ele>190.5</ele>
<speed>71.3</speed>
<course>223.2</course>
<desc>Speed 71.3 km/h Distance 37.95 km</desc>
<time>2010-08-25T17:19:44.33</time>
<name>902</name>
</trkpt>
<trkpt lat="49.633488" lon="9.212317">
<ele>190.5</ele>
<speed>73.9</speed>
<course>222.2</course>
<desc>Speed 73.9 km/h Distance 37.97 km</desc>
<time>2010-08-25T17:19:45.33</time>
<name>903</name>
</trkpt>
<trkpt lat="49.633355" lon="9.212130">
<ele>190.5</ele>
<speed>72.0</speed>
<course>215.1</course>
<desc>Speed 72.0 km/h Distance 37.99 km</desc>
<time>2010-08-25T17:19:46.32</time>
<name>904</name>
</trkpt>
<trkpt lat="49.633220" lon="9.211983">
<ele>190.0</ele>
<speed>70.7</speed>
<course>221.4</course>
<desc>Speed 70.7 km/h Distance 38.01 km</desc>
<time>2010-08-25T17:19:47.33</time>
<name>905</name>
</trkpt>
<trkpt lat="49.633095" lon="9.211813">
<ele>190.0</ele>
<speed>67.0</speed>
<course>217.6</course>
<desc>Speed 67.0 km/h Distance 38.03 km</desc>
<time>2010-08-25T17:19:48.33</time>
<name>906</name>
</trkpt>
<trkpt lat="49.632962" lon="9.211655">
<ele>190.0</ele>
<speed>67.9</speed>
<course>213.2</course>
<desc>Speed 67.9 km/h Distance 38.04 km</desc>
<time>2010-08-25T17:19:49.33</time>
<name>907</name>
</trkpt>
<trkpt lat="49.632818" lon="9.211510">
<ele>190.0</ele>
<speed>68.2</speed>
<course>209.4</course>
<desc>Speed 68.2 km/h Distance 38.06 km</desc>
<time>2010-08-25T17:19:50.33</time>
<name>908</name>
</trkpt>
<trkpt lat="49.632338" lon="9.211092">
<ele>190.5</ele>
<speed>71.3</speed>
<course>202.6</course>
<desc>Speed 71.3 km/h Distance 38.12 km</desc>
<time>2010-08-25T17:19:53.33</time>
<name>909</name>
</trkpt>
<trkpt lat="49.632165" lon="9.210980">
<ele>190.5</ele>
<speed>76.0</speed>
<course>199.9</course>
<desc>Speed 76.0 km/h Distance 38.15 km</desc>
<time>2010-08-25T17:19:54.33</time>
<name>910</name>
</trkpt>
<trkpt lat="49.631980" lon="9.210877">
<ele>190.5</ele>
<speed>80.5</speed>
<course>199.4</course>
<desc>Speed 80.5 km/h Distance 38.17 km</desc>
<time>2010-08-25T17:19:55.32</time>
<name>911</name>
</trkpt>
<trkpt lat="49.631548" lon="9.210642">
<ele>191.0</ele>
<speed>80.5</speed>
<course>196.4</course>
<desc>Speed 80.5 km/h Distance 38.22 km</desc>
<time>2010-08-25T17:19:58.32</time>
<name>912</name>
</trkpt>
<trkpt lat="49.630283" lon="9.210067">
<ele>191.0</ele>
<speed>86.8</speed>
<course>203.3</course>
<desc>Speed 86.8 km/h Distance 38.37 km</desc>
<time>2010-08-25T17:20:03.32</time>
<name>913</name>
</trkpt>
<trkpt lat="49.629870" lon="9.209792">
<ele>191.5</ele>
<speed>86.3</speed>
<course>215.3</course>
<desc>Speed 86.3 km/h Distance 38.42 km</desc>
<time>2010-08-25T17:20:05.32</time>
<name>914</name>
</trkpt>
<trkpt lat="49.629477" lon="9.209362">
<ele>191.5</ele>
<speed>101</speed>
<course>224.7</course>
<desc>Speed 101 km/h Distance 38.47 km</desc>
<time>2010-08-25T17:20:07.31</time>
<name>915</name>
</trkpt>
<trkpt lat="49.629297" lon="9.209087">
<ele>192.0</ele>
<speed>98.1</speed>
<course>222.0</course>
<desc>Speed 98.1 km/h Distance 38.50 km</desc>
<time>2010-08-25T17:20:08.31</time>
<name>916</name>
</trkpt>
<trkpt lat="49.628703" lon="9.208263">
<ele>192.0</ele>
<speed>69.9</speed>
<course>222.8</course>
<desc>Speed 69.9 km/h Distance 38.59 km</desc>
<time>2010-08-25T17:20:12.31</time>
<name>917</name>
</trkpt>
<trkpt lat="49.628575" lon="9.208080">
<ele>192.5</ele>
<speed>68.1</speed>
<course>224.2</course>
<desc>Speed 68.1 km/h Distance 38.61 km</desc>
<time>2010-08-25T17:20:13.31</time>
<name>918</name>
</trkpt>
<trkpt lat="49.628452" lon="9.207895">
<ele>192.5</ele>
<speed>67.6</speed>
<course>221.9</course>
<desc>Speed 67.6 km/h Distance 38.62 km</desc>
<time>2010-08-25T17:20:14.31</time>
<name>919</name>
</trkpt>
<trkpt lat="49.628327" lon="9.207722">
<ele>192.5</ele>
<speed>66.5</speed>
<course>217.4</course>
<desc>Speed 66.5 km/h Distance 38.64 km</desc>
<time>2010-08-25T17:20:15.30</time>
<name>920</name>
</trkpt>
<trkpt lat="49.628197" lon="9.207568">
<ele>192.5</ele>
<speed>65.6</speed>
<course>199.4</course>
<desc>Speed 65.6 km/h Distance 38.66 km</desc>
<time>2010-08-25T17:20:16.31</time>
<name>921</name>
</trkpt>
<trkpt lat="49.627863" lon="9.207387">
<ele>192.5</ele>
<speed>78.6</speed>
<course>205.3</course>
<desc>Speed 78.6 km/h Distance 38.70 km</desc>
<time>2010-08-25T17:20:18.31</time>
<name>922</name>
</trkpt>
<trkpt lat="49.627380" lon="9.207033">
<ele>193.0</ele>
<speed>83.2</speed>
<course>205.5</course>
<desc>Speed 83.2 km/h Distance 38.76 km</desc>
<time>2010-08-25T17:20:22.30</time>
<name>923</name>
</trkpt>
<trkpt lat="49.627177" lon="9.206883">
<ele>193.0</ele>
<speed>83.2</speed>
<course>200.4</course>
<desc>Speed 83.2 km/h Distance 38.79 km</desc>
<time>2010-08-25T17:20:23.30</time>
<name>924</name>
</trkpt>
<trkpt lat="49.626977" lon="9.206768">
<ele>193.5</ele>
<speed>83.2</speed>
<course>195.9</course>
<desc>Speed 83.2 km/h Distance 38.81 km</desc>
<time>2010-08-25T17:20:24.29</time>
<name>925</name>
</trkpt>
<trkpt lat="49.626768" lon="9.206677">
<ele>193.5</ele>
<speed>83.2</speed>
<course>197.7</course>
<desc>Speed 83.2 km/h Distance 38.83 km</desc>
<time>2010-08-25T17:20:25.30</time>
<name>926</name>
</trkpt>
<trkpt lat="49.624985" lon="9.205797">
<ele>197.5</ele>
<speed>108</speed>
<course>189.6</course>
<desc>Speed 108 km/h Distance 39.04 km</desc>
<time>2010-08-25T17:20:31.30</time>
<name>927</name>
</trkpt>
<trkpt lat="49.624705" lon="9.205723">
<ele>197.5</ele>
<speed>113</speed>
<course>188.9</course>
<desc>Speed 113 km/h Distance 39.07 km</desc>
<time>2010-08-25T17:20:32.30</time>
<name>928</name>
</trkpt>
<trkpt lat="49.624422" lon="9.205655">
<ele>198.0</ele>
<speed>113</speed>
<course>189.3</course>
<desc>Speed 113 km/h Distance 39.11 km</desc>
<time>2010-08-25T17:20:33.30</time>
<name>929</name>
</trkpt>
<trkpt lat="49.623932" lon="9.205532">
<ele>199.5</ele>
<speed>104</speed>
<course>189.5</course>
<desc>Speed 104 km/h Distance 39.16 km</desc>
<time>2010-08-25T17:20:35.30</time>
<name>930</name>
</trkpt>
<trkpt lat="49.623667" lon="9.205463">
<ele>199.5</ele>
<speed>107</speed>
<course>193.7</course>
<desc>Speed 107 km/h Distance 39.19 km</desc>
<time>2010-08-25T17:20:36.30</time>
<name>931</name>
</trkpt>
<trkpt lat="49.623415" lon="9.205368">
<ele>203.0</ele>
<speed>107</speed>
<course>202.3</course>
<desc>Speed 107 km/h Distance 39.22 km</desc>
<time>2010-08-25T17:20:37.30</time>
<name>932</name>
</trkpt>
<trkpt lat="49.622485" lon="9.204780">
<ele>213.5</ele>
<speed>117</speed>
<course>209.6</course>
<desc>Speed 117 km/h Distance 39.33 km</desc>
<time>2010-08-25T17:20:43.29</time>
<name>933</name>
</trkpt>
<trkpt lat="49.621672" lon="9.204067">
<ele>196.5</ele>
<speed>103</speed>
<course>223.0</course>
<desc>Speed 103 km/h Distance 39.44 km</desc>
<time>2010-08-25T17:20:46.28</time>
<name>934</name>
</trkpt>
<trkpt lat="49.620710" lon="9.202682">
<ele>200.0</ele>
<speed>103</speed>
<course>271.1</course>
<desc>Speed 103 km/h Distance 39.58 km</desc>
<time>2010-08-25T17:20:52.28</time>
<name>935</name>
</trkpt>
<trkpt lat="49.620723" lon="9.201607">
<ele>197.0</ele>
<speed>103</speed>
<course>251.4</course>
<desc>Speed 103 km/h Distance 39.66 km</desc>
<time>2010-08-25T17:20:55.27</time>
<name>936</name>
</trkpt>
<trkpt lat="49.620222" lon="9.199305">
<ele>181.0</ele>
<speed>107</speed>
<course>260.9</course>
<desc>Speed 107 km/h Distance 39.83 km</desc>
<time>2010-08-25T17:21:00.28</time>
<name>937</name>
</trkpt>
<trkpt lat="49.619967" lon="9.196858">
<ele>180.5</ele>
<speed>107</speed>
<course>265.8</course>
<desc>Speed 107 km/h Distance 40.01 km</desc>
<time>2010-08-25T17:21:06.27</time>
<name>938</name>
</trkpt>
<trkpt lat="49.619888" lon="9.195210">
<ele>191.0</ele>
<speed>85.3</speed>
<course>282.2</course>
<desc>Speed 85.3 km/h Distance 40.13 km</desc>
<time>2010-08-25T17:21:12.26</time>
<name>939</name>
</trkpt>
<trkpt lat="49.619990" lon="9.194483">
<ele>190.0</ele>
<speed>85.3</speed>
<course>295.6</course>
<desc>Speed 85.3 km/h Distance 40.19 km</desc>
<time>2010-08-25T17:21:14.26</time>
<name>940</name>
</trkpt>
<trkpt lat="49.620272" lon="9.193577">
<ele>197.0</ele>
<speed>85.3</speed>
<course>281.6</course>
<desc>Speed 85.3 km/h Distance 40.26 km</desc>
<time>2010-08-25T17:21:16.26</time>
<name>941</name>
</trkpt>
<trkpt lat="49.620382" lon="9.192747">
<ele>199.0</ele>
<speed>68.9</speed>
<course>263.9</course>
<desc>Speed 68.9 km/h Distance 40.32 km</desc>
<time>2010-08-25T17:21:19.26</time>
<name>942</name>
</trkpt>
<trkpt lat="49.620362" lon="9.192457">
<ele>201.0</ele>
<speed>70.0</speed>
<course>262.7</course>
<desc>Speed 70.0 km/h Distance 40.34 km</desc>
<time>2010-08-25T17:21:20.26</time>
<name>943</name>
</trkpt>
<trkpt lat="49.620338" lon="9.192177">
<ele>202.0</ele>
<speed>71.6</speed>
<course>257.6</course>
<desc>Speed 71.6 km/h Distance 40.36 km</desc>
<time>2010-08-25T17:21:21.26</time>
<name>944</name>
</trkpt>
<trkpt lat="49.620222" lon="9.191357">
<ele>204.0</ele>
<speed>71.1</speed>
<course>246.1</course>
<desc>Speed 71.1 km/h Distance 40.42 km</desc>
<time>2010-08-25T17:21:25.26</time>
<name>945</name>
</trkpt>
<trkpt lat="49.620145" lon="9.191090">
<ele>205.0</ele>
<speed>71.7</speed>
<course>245.6</course>
<desc>Speed 71.7 km/h Distance 40.44 km</desc>
<time>2010-08-25T17:21:26.26</time>
<name>946</name>
</trkpt>
<trkpt lat="49.620067" lon="9.190823">
<ele>206.5</ele>
<speed>71.1</speed>
<course>246.4</course>
<desc>Speed 71.1 km/h Distance 40.46 km</desc>
<time>2010-08-25T17:21:27.25</time>
<name>947</name>
</trkpt>
<trkpt lat="49.619995" lon="9.190570">
<ele>207.5</ele>
<speed>67.4</speed>
<course>248.8</course>
<desc>Speed 67.4 km/h Distance 40.48 km</desc>
<time>2010-08-25T17:21:28.25</time>
<name>948</name>
</trkpt>
<trkpt lat="49.619860" lon="9.190032">
<ele>208.0</ele>
<speed>75.0</speed>
<course>252.5</course>
<desc>Speed 75.0 km/h Distance 40.53 km</desc>
<time>2010-08-25T17:21:30.26</time>
<name>949</name>
</trkpt>
<trkpt lat="49.619760" lon="9.189543">
<ele>206.5</ele>
<speed>78.8</speed>
<course>265.7</course>
<desc>Speed 78.8 km/h Distance 40.56 km</desc>
<time>2010-08-25T17:21:32.26</time>
<name>950</name>
</trkpt>
<trkpt lat="49.619705" lon="9.188403">
<ele>236.5</ele>
<speed>77.2</speed>
<course>272.5</course>
<desc>Speed 77.2 km/h Distance 40.64 km</desc>
<time>2010-08-25T17:21:35.25</time>
<name>951</name>
</trkpt>
<trkpt lat="49.619713" lon="9.188107">
<ele>235.0</ele>
<speed>76.9</speed>
<course>273.0</course>
<desc>Speed 76.9 km/h Distance 40.67 km</desc>
<time>2010-08-25T17:21:36.25</time>
<name>952</name>
</trkpt>
<trkpt lat="49.619723" lon="9.187810">
<ele>233.0</ele>
<speed>76.6</speed>
<course>273.0</course>
<desc>Speed 76.6 km/h Distance 40.69 km</desc>
<time>2010-08-25T17:21:37.25</time>
<name>953</name>
</trkpt>
<trkpt lat="49.619733" lon="9.187517">
<ele>233.0</ele>
<speed>75.7</speed>
<course>274.1</course>
<desc>Speed 75.7 km/h Distance 40.71 km</desc>
<time>2010-08-25T17:21:38.24</time>
<name>954</name>
</trkpt>
<trkpt lat="49.619747" lon="9.187232">
<ele>233.0</ele>
<speed>74.4</speed>
<course>273.6</course>
<desc>Speed 74.4 km/h Distance 40.73 km</desc>
<time>2010-08-25T17:21:39.24</time>
<name>955</name>
</trkpt>
<trkpt lat="49.619758" lon="9.186943">
<ele>233.5</ele>
<speed>74.6</speed>
<course>272.1</course>
<desc>Speed 74.6 km/h Distance 40.75 km</desc>
<time>2010-08-25T17:21:40.25</time>
<name>956</name>
</trkpt>
<trkpt lat="49.619765" lon="9.186663">
<ele>233.5</ele>
<speed>69.7</speed>
<course>273.5</course>
<desc>Speed 69.7 km/h Distance 40.77 km</desc>
<time>2010-08-25T17:21:41.24</time>
<name>957</name>
</trkpt>
<trkpt lat="49.619787" lon="9.186117">
<ele>237.0</ele>
<speed>62.9</speed>
<course>272.0</course>
<desc>Speed 62.9 km/h Distance 40.81 km</desc>
<time>2010-08-25T17:21:43.24</time>
<name>958</name>
</trkpt>
<trkpt lat="49.619798" lon="9.185592">
<ele>241.0</ele>
<speed>57.7</speed>
<course>274.2</course>
<desc>Speed 57.7 km/h Distance 40.85 km</desc>
<time>2010-08-25T17:21:45.24</time>
<name>959</name>
</trkpt>
<trkpt lat="49.619808" lon="9.185382">
<ele>242.0</ele>
<speed>52.8</speed>
<course>276.1</course>
<desc>Speed 52.8 km/h Distance 40.86 km</desc>
<time>2010-08-25T17:21:46.24</time>
<name>960</name>
</trkpt>
<trkpt lat="49.619822" lon="9.185188">
<ele>243.0</ele>
<speed>49.8</speed>
<course>275.2</course>
<desc>Speed 49.8 km/h Distance 40.88 km</desc>
<time>2010-08-25T17:21:47.24</time>
<name>961</name>
</trkpt>
<trkpt lat="49.619833" lon="9.184990">
<ele>243.5</ele>
<speed>49.5</speed>
<course>274.6</course>
<desc>Speed 49.5 km/h Distance 40.89 km</desc>
<time>2010-08-25T17:21:48.24</time>
<name>962</name>
</trkpt>
<trkpt lat="49.619843" lon="9.184797">
<ele>244.0</ele>
<speed>47.6</speed>
<course>275.0</course>
<desc>Speed 47.6 km/h Distance 40.91 km</desc>
<time>2010-08-25T17:21:49.24</time>
<name>963</name>
</trkpt>
<trkpt lat="49.619853" lon="9.184620">
<ele>244.0</ele>
<speed>45.6</speed>
<course>277.8</course>
<desc>Speed 45.6 km/h Distance 40.92 km</desc>
<time>2010-08-25T17:21:50.24</time>
<name>964</name>
</trkpt>
<trkpt lat="49.619870" lon="9.184432">
<ele>244.5</ele>
<speed>46.0</speed>
<course>277.4</course>
<desc>Speed 46.0 km/h Distance 40.93 km</desc>
<time>2010-08-25T17:21:51.24</time>
<name>965</name>
</trkpt>
<trkpt lat="49.619885" lon="9.184253">
<ele>245.5</ele>
<speed>46.3</speed>
<course>277.1</course>
<desc>Speed 46.3 km/h Distance 40.94 km</desc>
<time>2010-08-25T17:21:52.24</time>
<name>966</name>
</trkpt>
<trkpt lat="49.619900" lon="9.184068">
<ele>244.5</ele>
<speed>46.8</speed>
<course>279.6</course>
<desc>Speed 46.8 km/h Distance 40.96 km</desc>
<time>2010-08-25T17:21:53.24</time>
<name>967</name>
</trkpt>
<trkpt lat="49.619920" lon="9.183887">
<ele>244.0</ele>
<speed>47.1</speed>
<course>278.1</course>
<desc>Speed 47.1 km/h Distance 40.97 km</desc>
<time>2010-08-25T17:21:54.23</time>
<name>968</name>
</trkpt>
<trkpt lat="49.619937" lon="9.183705">
<ele>244.0</ele>
<speed>47.4</speed>
<course>279.9</course>
<desc>Speed 47.4 km/h Distance 40.98 km</desc>
<time>2010-08-25T17:21:55.23</time>
<name>969</name>
</trkpt>
<trkpt lat="49.619957" lon="9.183528">
<ele>244.5</ele>
<speed>46.9</speed>
<course>276.8</course>
<desc>Speed 46.9 km/h Distance 41.00 km</desc>
<time>2010-08-25T17:21:56.23</time>
<name>970</name>
</trkpt>
<trkpt lat="49.619970" lon="9.183355">
<ele>244.0</ele>
<speed>45.0</speed>
<course>278.0</course>
<desc>Speed 45.0 km/h Distance 41.01 km</desc>
<time>2010-08-25T17:21:57.23</time>
<name>971</name>
</trkpt>
<trkpt lat="49.619987" lon="9.183172">
<ele>243.5</ele>
<speed>48.3</speed>
<course>278.7</course>
<desc>Speed 48.3 km/h Distance 41.02 km</desc>
<time>2010-08-25T17:21:58.23</time>
<name>972</name>
</trkpt>
<trkpt lat="49.620005" lon="9.182987">
<ele>243.5</ele>
<speed>48.5</speed>
<course>275.5</course>
<desc>Speed 48.5 km/h Distance 41.04 km</desc>
<time>2010-08-25T17:21:59.22</time>
<name>973</name>
</trkpt>
<trkpt lat="49.620017" lon="9.182798">
<ele>243.5</ele>
<speed>49.4</speed>
<course>285.0</course>
<desc>Speed 49.4 km/h Distance 41.05 km</desc>
<time>2010-08-25T17:22:00.22</time>
<name>974</name>
</trkpt>
<trkpt lat="49.620050" lon="9.182607">
<ele>244.0</ele>
<speed>51.7</speed>
<course>282.5</course>
<desc>Speed 51.7 km/h Distance 41.07 km</desc>
<time>2010-08-25T17:22:01.23</time>
<name>975</name>
</trkpt>
<trkpt lat="49.620078" lon="9.182410">
<ele>244.0</ele>
<speed>52.4</speed>
<course>280.5</course>
<desc>Speed 52.4 km/h Distance 41.08 km</desc>
<time>2010-08-25T17:22:02.23</time>
<name>976</name>
</trkpt>
<trkpt lat="49.620102" lon="9.182215">
<ele>244.5</ele>
<speed>52.1</speed>
<course>282.1</course>
<desc>Speed 52.1 km/h Distance 41.09 km</desc>
<time>2010-08-25T17:22:03.23</time>
<name>977</name>
</trkpt>
<trkpt lat="49.620130" lon="9.182012">
<ele>244.5</ele>
<speed>53.4</speed>
<course>276.9</course>
<desc>Speed 53.4 km/h Distance 41.11 km</desc>
<time>2010-08-25T17:22:04.22</time>
<name>978</name>
</trkpt>
<trkpt lat="49.620145" lon="9.181820">
<ele>244.5</ele>
<speed>51.0</speed>
<course>273.2</course>
<desc>Speed 51.0 km/h Distance 41.12 km</desc>
<time>2010-08-25T17:22:05.23</time>
<name>979</name>
</trkpt>
<trkpt lat="49.620152" lon="9.181633">
<ele>244.5</ele>
<speed>48.7</speed>
<course>273.0</course>
<desc>Speed 48.7 km/h Distance 41.14 km</desc>
<time>2010-08-25T17:22:06.22</time>
<name>980</name>
</trkpt>
<trkpt lat="49.620158" lon="9.181438">
<ele>244.5</ele>
<speed>51.1</speed>
<course>270.8</course>
<desc>Speed 51.1 km/h Distance 41.15 km</desc>
<time>2010-08-25T17:22:07.22</time>
<name>981</name>
</trkpt>
<trkpt lat="49.620160" lon="9.181245">
<ele>245.5</ele>
<speed>51.0</speed>
<course>262.7</course>
<desc>Speed 51.0 km/h Distance 41.16 km</desc>
<time>2010-08-25T17:22:08.22</time>
<name>982</name>
</trkpt>
<trkpt lat="49.620145" lon="9.181065">
<ele>246.0</ele>
<speed>48.1</speed>
<course>252.0</course>
<desc>Speed 48.1 km/h Distance 41.18 km</desc>
<time>2010-08-25T17:22:09.23</time>
<name>983</name>
</trkpt>
<trkpt lat="49.620110" lon="9.180898">
<ele>246.0</ele>
<speed>45.6</speed>
<course>245.8</course>
<desc>Speed 45.6 km/h Distance 41.19 km</desc>
<time>2010-08-25T17:22:10.22</time>
<name>984</name>
</trkpt>
<trkpt lat="49.620060" lon="9.180727">
<ele>246.0</ele>
<speed>48.2</speed>
<course>244.5</course>
<desc>Speed 48.2 km/h Distance 41.20 km</desc>
<time>2010-08-25T17:22:11.22</time>
<name>985</name>
</trkpt>
<trkpt lat="49.620010" lon="9.180565">
<ele>246.5</ele>
<speed>45.4</speed>
<course>244.9</course>
<desc>Speed 45.4 km/h Distance 41.22 km</desc>
<time>2010-08-25T17:22:12.23</time>
<name>986</name>
</trkpt>
<trkpt lat="49.619960" lon="9.180400">
<ele>246.5</ele>
<speed>47.1</speed>
<course>243.0</course>
<desc>Speed 47.1 km/h Distance 41.23 km</desc>
<time>2010-08-25T17:22:13.21</time>
<name>987</name>
</trkpt>
<trkpt lat="49.619905" lon="9.180233">
<ele>246.5</ele>
<speed>48.0</speed>
<course>235.5</course>
<desc>Speed 48.0 km/h Distance 41.24 km</desc>
<time>2010-08-25T17:22:14.22</time>
<name>988</name>
</trkpt>
<trkpt lat="49.619838" lon="9.180083">
<ele>245.5</ele>
<speed>46.4</speed>
<course>237.6</course>
<desc>Speed 46.4 km/h Distance 41.26 km</desc>
<time>2010-08-25T17:22:15.22</time>
<name>989</name>
</trkpt>
<trkpt lat="49.619768" lon="9.179913">
<ele>245.5</ele>
<speed>50.9</speed>
<course>235.3</course>
<desc>Speed 50.9 km/h Distance 41.27 km</desc>
<time>2010-08-25T17:22:16.22</time>
<name>990</name>
</trkpt>
<trkpt lat="49.619702" lon="9.179765">
<ele>245.0</ele>
<speed>46.1</speed>
<course>231.4</course>
<desc>Speed 46.1 km/h Distance 41.28 km</desc>
<time>2010-08-25T17:22:17.22</time>
<name>991</name>
</trkpt>
<trkpt lat="49.619630" lon="9.179627">
<ele>245.0</ele>
<speed>46.2</speed>
<course>227.2</course>
<desc>Speed 46.2 km/h Distance 41.30 km</desc>
<time>2010-08-25T17:22:18.22</time>
<name>992</name>
</trkpt>
<trkpt lat="49.619550" lon="9.179493">
<ele>245.0</ele>
<speed>47.9</speed>
<course>223.8</course>
<desc>Speed 47.9 km/h Distance 41.31 km</desc>
<time>2010-08-25T17:22:19.22</time>
<name>993</name>
</trkpt>
<trkpt lat="49.619463" lon="9.179365">
<ele>245.0</ele>
<speed>48.9</speed>
<course>222.6</course>
<desc>Speed 48.9 km/h Distance 41.32 km</desc>
<time>2010-08-25T17:22:20.21</time>
<name>994</name>
</trkpt>
<trkpt lat="49.619380" lon="9.179247">
<ele>244.5</ele>
<speed>46.0</speed>
<course>223.7</course>
<desc>Speed 46.0 km/h Distance 41.34 km</desc>
<time>2010-08-25T17:22:21.21</time>
<name>995</name>
</trkpt>
<trkpt lat="49.619307" lon="9.179138">
<ele>244.5</ele>
<speed>41.0</speed>
<course>219.9</course>
<desc>Speed 41.0 km/h Distance 41.35 km</desc>
<time>2010-08-25T17:22:22.22</time>
<name>996</name>
</trkpt>
<trkpt lat="49.619232" lon="9.179042">
<ele>244.5</ele>
<speed>40.5</speed>
<course>217.0</course>
<desc>Speed 40.5 km/h Distance 41.36 km</desc>
<time>2010-08-25T17:22:23.22</time>
<name>997</name>
</trkpt>
<trkpt lat="49.619120" lon="9.178912">
<ele>243.0</ele>
<speed>40.5</speed>
<course>213.6</course>
<desc>Speed 40.5 km/h Distance 41.37 km</desc>
<time>2010-08-25T17:22:25.21</time>
<name>998</name>
</trkpt>
<trkpt lat="49.618987" lon="9.178775">
<ele>243.0</ele>
<speed>38.9</speed>
<course>209.6</course>
<desc>Speed 38.9 km/h Distance 41.39 km</desc>
<time>2010-08-25T17:22:27.21</time>
<name>999</name>
</trkpt>
<trkpt lat="49.618907" lon="9.178705">
<ele>243.0</ele>
<speed>37.7</speed>
<course>207.7</course>
<desc>Speed 37.7 km/h Distance 41.40 km</desc>
<time>2010-08-25T17:22:28.20</time>
<name>1000</name>
</trkpt>
<trkpt lat="49.618792" lon="9.178612">
<ele>242.0</ele>
<speed>37.7</speed>
<course>228.7</course>
<desc>Speed 37.7 km/h Distance 41.42 km</desc>
<time>2010-08-25T17:22:30.19</time>
<name>1001</name>
</trkpt>
<trkpt lat="49.618688" lon="9.178430">
<ele>242.0</ele>
<speed>38.4</speed>
<course>223.0</course>
<desc>Speed 38.4 km/h Distance 41.43 km</desc>
<time>2010-08-25T17:22:32.21</time>
<name>1002</name>
</trkpt>
<trkpt lat="49.618590" lon="9.178288">
<ele>242.0</ele>
<speed>38.4</speed>
<course>209.3</course>
<desc>Speed 38.4 km/h Distance 41.45 km</desc>
<time>2010-08-25T17:22:34.21</time>
<name>1003</name>
</trkpt>
<trkpt lat="49.618503" lon="9.178213">
<ele>241.5</ele>
<speed>38.4</speed>
<course>222.1</course>
<desc>Speed 38.4 km/h Distance 41.46 km</desc>
<time>2010-08-25T17:22:35.20</time>
<name>1004</name>
</trkpt>
<trkpt lat="49.618202" lon="9.177793">
<ele>240.5</ele>
<speed>46.6</speed>
<course>242.0</course>
<desc>Speed 46.6 km/h Distance 41.50 km</desc>
<time>2010-08-25T17:22:38.20</time>
<name>1005</name>
</trkpt>
<trkpt lat="49.618152" lon="9.177648">
<ele>240.5</ele>
<speed>43.7</speed>
<course>236.5</course>
<desc>Speed 43.7 km/h Distance 41.52 km</desc>
<time>2010-08-25T17:22:39.20</time>
<name>1006</name>
</trkpt>
<trkpt lat="49.618087" lon="9.177497">
<ele>241.0</ele>
<speed>46.2</speed>
<course>234.2</course>
<desc>Speed 46.2 km/h Distance 41.53 km</desc>
<time>2010-08-25T17:22:40.20</time>
<name>1007</name>
</trkpt>
<trkpt lat="49.618013" lon="9.177340">
<ele>241.0</ele>
<speed>48.1</speed>
<course>233.5</course>
<desc>Speed 48.1 km/h Distance 41.54 km</desc>
<time>2010-08-25T17:22:41.20</time>
<name>1008</name>
</trkpt>
<trkpt lat="49.617938" lon="9.177183">
<ele>241.0</ele>
<speed>47.7</speed>
<course>234.8</course>
<desc>Speed 47.7 km/h Distance 41.56 km</desc>
<time>2010-08-25T17:22:42.20</time>
<name>1009</name>
</trkpt>
<trkpt lat="49.617868" lon="9.177030">
<ele>241.0</ele>
<speed>47.4</speed>
<course>237.8</course>
<desc>Speed 47.4 km/h Distance 41.57 km</desc>
<time>2010-08-25T17:22:43.20</time>
<name>1010</name>
</trkpt>
<trkpt lat="49.617805" lon="9.176875">
<ele>241.0</ele>
<speed>46.8</speed>
<course>225.5</course>
<desc>Speed 46.8 km/h Distance 41.58 km</desc>
<time>2010-08-25T17:22:44.20</time>
<name>1011</name>
</trkpt>
<trkpt lat="49.617723" lon="9.176747">
<ele>241.0</ele>
<speed>45.0</speed>
<course>226.8</course>
<desc>Speed 45.0 km/h Distance 41.60 km</desc>
<time>2010-08-25T17:22:45.19</time>
<name>1012</name>
</trkpt>
<trkpt lat="49.617658" lon="9.176640">
<ele>241.0</ele>
<speed>45.0</speed>
<course>237.1</course>
<desc>Speed 45.0 km/h Distance 41.61 km</desc>
<time>2010-08-25T17:22:46.19</time>
<name>1013</name>
</trkpt>
<trkpt lat="49.617598" lon="9.176497">
<ele>241.5</ele>
<speed>42.5</speed>
<course>235.3</course>
<desc>Speed 42.5 km/h Distance 41.62 km</desc>
<time>2010-08-25T17:22:47.20</time>
<name>1014</name>
</trkpt>
<trkpt lat="49.617512" lon="9.176303">
<ele>242.0</ele>
<speed>42.5</speed>
<course>260.7</course>
<desc>Speed 42.5 km/h Distance 41.64 km</desc>
<time>2010-08-25T17:22:49.20</time>
<name>1015</name>
</trkpt>
<trkpt lat="49.617488" lon="9.176083">
<ele>241.0</ele>
<speed>33.8</speed>
<course>280.5</course>
<desc>Speed 33.8 km/h Distance 41.65 km</desc>
<time>2010-08-25T17:22:51.20</time>
<name>1016</name>
</trkpt>
<trkpt lat="49.617530" lon="9.175735">
<ele>239.0</ele>
<speed>37.2</speed>
<course>277.0</course>
<desc>Speed 37.2 km/h Distance 41.68 km</desc>
<time>2010-08-25T17:22:53.20</time>
<name>1017</name>
</trkpt>
<trkpt lat="49.617540" lon="9.175610">
<ele>239.0</ele>
<speed>37.2</speed>
<course>260.4</course>
<desc>Speed 37.2 km/h Distance 41.69 km</desc>
<time>2010-08-25T17:22:54.19</time>
<name>1018</name>
</trkpt>
<trkpt lat="49.617503" lon="9.175275">
<ele>240.0</ele>
<speed>43.1</speed>
<course>259.7</course>
<desc>Speed 43.1 km/h Distance 41.71 km</desc>
<time>2010-08-25T17:22:56.20</time>
<name>1019</name>
</trkpt>
<trkpt lat="49.617483" lon="9.175105">
<ele>239.5</ele>
<speed>43.4</speed>
<course>269.8</course>
<desc>Speed 43.4 km/h Distance 41.72 km</desc>
<time>2010-08-25T17:22:57.19</time>
<name>1020</name>
</trkpt>
<trkpt lat="49.617482" lon="9.174472">
<ele>239.0</ele>
<speed>50.5</speed>
<course>260.1</course>
<desc>Speed 50.5 km/h Distance 41.77 km</desc>
<time>2010-08-25T17:23:00.19</time>
<name>1021</name>
</trkpt>
<trkpt lat="49.617432" lon="9.174028">
<ele>241.5</ele>
<speed>53.5</speed>
<course>259.3</course>
<desc>Speed 53.5 km/h Distance 41.80 km</desc>
<time>2010-08-25T17:23:03.18</time>
<name>1022</name>
</trkpt>
<trkpt lat="49.617410" lon="9.173852">
<ele>242.0</ele>
<speed>53.5</speed>
<course>253.5</course>
<desc>Speed 53.5 km/h Distance 41.82 km</desc>
<time>2010-08-25T17:23:04.18</time>
<name>1023</name>
</trkpt>
<trkpt lat="49.617373" lon="9.173660">
<ele>242.5</ele>
<speed>50.9</speed>
<course>251.8</course>
<desc>Speed 50.9 km/h Distance 41.83 km</desc>
<time>2010-08-25T17:23:05.18</time>
<name>1024</name>
</trkpt>
<trkpt lat="49.617335" lon="9.173480">
<ele>243.0</ele>
<speed>48.1</speed>
<course>251.3</course>
<desc>Speed 48.1 km/h Distance 41.84 km</desc>
<time>2010-08-25T17:23:06.19</time>
<name>1025</name>
</trkpt>
<trkpt lat="49.617265" lon="9.173162">
<ele>242.5</ele>
<speed>44.2</speed>
<course>245.5</course>
<desc>Speed 44.2 km/h Distance 41.87 km</desc>
<time>2010-08-25T17:23:08.18</time>
<name>1026</name>
</trkpt>
<trkpt lat="49.617217" lon="9.172998">
<ele>242.0</ele>
<speed>39.6</speed>
<course>246.8</course>
<desc>Speed 39.6 km/h Distance 41.88 km</desc>
<time>2010-08-25T17:23:09.18</time>
<name>1027</name>
</trkpt>
<trkpt lat="49.617172" lon="9.172837">
<ele>241.0</ele>
<speed>38.1</speed>
<course>242.5</course>
<desc>Speed 38.1 km/h Distance 41.89 km</desc>
<time>2010-08-25T17:23:10.18</time>
<name>1028</name>
</trkpt>
<trkpt lat="49.617127" lon="9.172703">
<ele>240.5</ele>
<speed>37.8</speed>
<course>241.6</course>
<desc>Speed 37.8 km/h Distance 41.90 km</desc>
<time>2010-08-25T17:23:11.18</time>
<name>1029</name>
</trkpt>
<trkpt lat="49.617080" lon="9.172570">
<ele>240.5</ele>
<speed>39.0</speed>
<course>240.8</course>
<desc>Speed 39.0 km/h Distance 41.92 km</desc>
<time>2010-08-25T17:23:12.18</time>
<name>1030</name>
</trkpt>
<trkpt lat="49.617025" lon="9.172418">
<ele>242.5</ele>
<speed>41.3</speed>
<course>243.7</course>
<desc>Speed 41.3 km/h Distance 41.93 km</desc>
<time>2010-08-25T17:23:13.18</time>
<name>1031</name>
</trkpt>
<trkpt lat="49.616972" lon="9.172252">
<ele>237.5</ele>
<speed>42.3</speed>
<course>240.7</course>
<desc>Speed 42.3 km/h Distance 41.94 km</desc>
<time>2010-08-25T17:23:14.18</time>
<name>1032</name>
</trkpt>
<trkpt lat="49.616918" lon="9.172105">
<ele>237.5</ele>
<speed>43.4</speed>
<course>237.0</course>
<desc>Speed 43.4 km/h Distance 41.95 km</desc>
<time>2010-08-25T17:23:15.18</time>
<name>1033</name>
</trkpt>
<trkpt lat="49.616857" lon="9.171958">
<ele>236.0</ele>
<speed>44.1</speed>
<course>234.0</course>
<desc>Speed 44.1 km/h Distance 41.97 km</desc>
<time>2010-08-25T17:23:16.18</time>
<name>1034</name>
</trkpt>
<trkpt lat="49.616788" lon="9.171813">
<ele>235.5</ele>
<speed>45.7</speed>
<course>232.3</course>
<desc>Speed 45.7 km/h Distance 41.98 km</desc>
<time>2010-08-25T17:23:17.18</time>
<name>1035</name>
</trkpt>
<trkpt lat="49.616715" lon="9.171667">
<ele>235.0</ele>
<speed>46.6</speed>
<course>227.9</course>
<desc>Speed 46.6 km/h Distance 41.99 km</desc>
<time>2010-08-25T17:23:18.18</time>
<name>1036</name>
</trkpt>
<trkpt lat="49.616630" lon="9.171522">
<ele>235.0</ele>
<speed>49.8</speed>
<course>224.9</course>
<desc>Speed 49.8 km/h Distance 42.01 km</desc>
<time>2010-08-25T17:23:19.18</time>
<name>1037</name>
</trkpt>
<trkpt lat="49.616540" lon="9.171383">
<ele>235.0</ele>
<speed>50.3</speed>
<course>223.7</course>
<desc>Speed 50.3 km/h Distance 42.02 km</desc>
<time>2010-08-25T17:23:20.17</time>
<name>1038</name>
</trkpt>
<trkpt lat="49.616448" lon="9.171248">
<ele>234.5</ele>
<speed>49.9</speed>
<course>223.2</course>
<desc>Speed 49.9 km/h Distance 42.04 km</desc>
<time>2010-08-25T17:23:21.18</time>
<name>1039</name>
</trkpt>
<trkpt lat="49.616352" lon="9.171108">
<ele>235.0</ele>
<speed>49.9</speed>
<course>229.0</course>
<desc>Speed 49.9 km/h Distance 42.05 km</desc>
<time>2010-08-25T17:23:22.18</time>
<name>1040</name>
</trkpt>
<trkpt lat="49.616278" lon="9.170978">
<ele>238.5</ele>
<speed>49.9</speed>
<course>229.2</course>
<desc>Speed 49.9 km/h Distance 42.06 km</desc>
<time>2010-08-25T17:23:23.18</time>
<name>1041</name>
</trkpt>
<trkpt lat="49.616077" lon="9.170618">
<ele>250.0</ele>
<speed>51.9</speed>
<course>216.1</course>
<desc>Speed 51.9 km/h Distance 42.10 km</desc>
<time>2010-08-25T17:23:26.17</time>
<name>1042</name>
</trkpt>
<trkpt lat="49.615958" lon="9.170485">
<ele>251.0</ele>
<speed>50.1</speed>
<course>220.0</course>
<desc>Speed 50.1 km/h Distance 42.11 km</desc>
<time>2010-08-25T17:23:27.17</time>
<name>1043</name>
</trkpt>
<trkpt lat="49.615737" lon="9.170198">
<ele>255.0</ele>
<speed>49.7</speed>
<course>222.7</course>
<desc>Speed 49.7 km/h Distance 42.15 km</desc>
<time>2010-08-25T17:23:29.16</time>
<name>1044</name>
</trkpt>
<trkpt lat="49.615638" lon="9.170058">
<ele>256.0</ele>
<speed>50.5</speed>
<course>226.3</course>
<desc>Speed 50.5 km/h Distance 42.16 km</desc>
<time>2010-08-25T17:23:30.16</time>
<name>1045</name>
</trkpt>
<trkpt lat="49.615552" lon="9.169918">
<ele>258.0</ele>
<speed>45.6</speed>
<course>219.5</course>
<desc>Speed 45.6 km/h Distance 42.17 km</desc>
<time>2010-08-25T17:23:31.16</time>
<name>1046</name>
</trkpt>
<trkpt lat="49.615350" lon="9.169662">
<ele>258.5</ele>
<speed>49.4</speed>
<course>218.2</course>
<desc>Speed 49.4 km/h Distance 42.20 km</desc>
<time>2010-08-25T17:23:33.16</time>
<name>1047</name>
</trkpt>
<trkpt lat="49.615123" lon="9.169387">
<ele>260.5</ele>
<speed>53.7</speed>
<course>220.6</course>
<desc>Speed 53.7 km/h Distance 42.24 km</desc>
<time>2010-08-25T17:23:35.16</time>
<name>1048</name>
</trkpt>
<trkpt lat="49.615015" lon="9.169243">
<ele>261.5</ele>
<speed>53.7</speed>
<course>221.2</course>
<desc>Speed 53.7 km/h Distance 42.25 km</desc>
<time>2010-08-25T17:23:36.16</time>
<name>1049</name>
</trkpt>
<trkpt lat="49.614910" lon="9.169102">
<ele>263.0</ele>
<speed>52.3</speed>
<course>221.2</course>
<desc>Speed 52.3 km/h Distance 42.27 km</desc>
<time>2010-08-25T17:23:37.16</time>
<name>1050</name>
</trkpt>
<trkpt lat="49.614805" lon="9.168960">
<ele>265.5</ele>
<speed>52.9</speed>
<course>220.8</course>
<desc>Speed 52.9 km/h Distance 42.28 km</desc>
<time>2010-08-25T17:23:38.16</time>
<name>1051</name>
</trkpt>
<trkpt lat="49.614695" lon="9.168813">
<ele>268.0</ele>
<speed>54.5</speed>
<course>220.0</course>
<desc>Speed 54.5 km/h Distance 42.30 km</desc>
<time>2010-08-25T17:23:39.16</time>
<name>1052</name>
</trkpt>
<trkpt lat="49.614593" lon="9.168682">
<ele>268.5</ele>
<speed>52.7</speed>
<course>218.3</course>
<desc>Speed 52.7 km/h Distance 42.31 km</desc>
<time>2010-08-25T17:23:40.16</time>
<name>1053</name>
</trkpt>
<trkpt lat="49.614495" lon="9.168562">
<ele>268.0</ele>
<speed>49.4</speed>
<course>221.2</course>
<desc>Speed 49.4 km/h Distance 42.33 km</desc>
<time>2010-08-25T17:23:41.16</time>
<name>1054</name>
</trkpt>
<trkpt lat="49.614410" lon="9.168447">
<ele>268.5</ele>
<speed>44.9</speed>
<course>222.4</course>
<desc>Speed 44.9 km/h Distance 42.34 km</desc>
<time>2010-08-25T17:23:42.16</time>
<name>1055</name>
</trkpt>
<trkpt lat="49.614337" lon="9.168343">
<ele>269.0</ele>
<speed>40.0</speed>
<course>221.5</course>
<desc>Speed 40.0 km/h Distance 42.35 km</desc>
<time>2010-08-25T17:23:43.16</time>
<name>1056</name>
</trkpt>
<trkpt lat="49.614263" lon="9.168243">
<ele>269.5</ele>
<speed>38.9</speed>
<course>218.1</course>
<desc>Speed 38.9 km/h Distance 42.36 km</desc>
<time>2010-08-25T17:23:44.15</time>
<name>1057</name>
</trkpt>
<trkpt lat="49.614192" lon="9.168157">
<ele>269.5</ele>
<speed>35.1</speed>
<course>218.9</course>
<desc>Speed 35.1 km/h Distance 42.37 km</desc>
<time>2010-08-25T17:23:45.16</time>
<name>1058</name>
</trkpt>
<trkpt lat="49.614117" lon="9.168063">
<ele>270.0</ele>
<speed>38.1</speed>
<course>219.5</course>
<desc>Speed 38.1 km/h Distance 42.38 km</desc>
<time>2010-08-25T17:23:46.16</time>
<name>1059</name>
</trkpt>
<trkpt lat="49.614055" lon="9.167985">
<ele>269.5</ele>
<speed>38.1</speed>
<course>212.2</course>
<desc>Speed 38.1 km/h Distance 42.39 km</desc>
<time>2010-08-25T17:23:47.16</time>
<name>1060</name>
</trkpt>
<trkpt lat="49.613553" lon="9.167497">
<ele>266.5</ele>
<speed>64.2</speed>
<course>185.4</course>
<desc>Speed 64.2 km/h Distance 42.46 km</desc>
<time>2010-08-25T17:23:51.16</time>
<name>1061</name>
</trkpt>
<trkpt lat="49.613005" lon="9.167417">
<ele>265.5</ele>
<speed>86.0</speed>
<course>190.3</course>
<desc>Speed 86.0 km/h Distance 42.52 km</desc>
<time>2010-08-25T17:23:55.15</time>
<name>1062</name>
</trkpt>
<trkpt lat="49.612282" lon="9.167213">
<ele>258.5</ele>
<speed>75.5</speed>
<course>209.2</course>
<desc>Speed 75.5 km/h Distance 42.60 km</desc>
<time>2010-08-25T17:23:58.14</time>
<name>1063</name>
</trkpt>
<trkpt lat="49.611763" lon="9.166767">
<ele>258.0</ele>
<speed>95.0</speed>
<course>246.4</course>
<desc>Speed 95.0 km/h Distance 42.67 km</desc>
<time>2010-08-25T17:24:01.14</time>
<name>1064</name>
</trkpt>
<trkpt lat="49.610938" lon="9.163852">
<ele>239.5</ele>
<speed>95.0</speed>
<course>235.9</course>
<desc>Speed 95.0 km/h Distance 42.90 km</desc>
<time>2010-08-25T17:24:10.14</time>
<name>1065</name>
</trkpt>
<trkpt lat="49.610498" lon="9.162850">
<ele>239.5</ele>
<speed>79.5</speed>
<course>210.3</course>
<desc>Speed 79.5 km/h Distance 42.98 km</desc>
<time>2010-08-25T17:24:13.13</time>
<name>1066</name>
</trkpt>
<trkpt lat="49.610160" lon="9.162545">
<ele>239.5</ele>
<speed>82.8</speed>
<course>197.7</course>
<desc>Speed 82.8 km/h Distance 43.03 km</desc>
<time>2010-08-25T17:24:15.14</time>
<name>1067</name>
</trkpt>
<trkpt lat="49.609963" lon="9.162448">
<ele>239.0</ele>
<speed>82.2</speed>
<course>192.6</course>
<desc>Speed 82.2 km/h Distance 43.05 km</desc>
<time>2010-08-25T17:24:16.14</time>
<name>1068</name>
</trkpt>
<trkpt lat="49.609277" lon="9.162212">
<ele>243.5</ele>
<speed>91.7</speed>
<course>201.2</course>
<desc>Speed 91.7 km/h Distance 43.13 km</desc>
<time>2010-08-25T17:24:19.13</time>
<name>1069</name>
</trkpt>
<trkpt lat="49.608512" lon="9.161753">
<ele>251.0</ele>
<speed>104</speed>
<course>195.4</course>
<desc>Speed 104 km/h Distance 43.22 km</desc>
<time>2010-08-25T17:24:22.13</time>
<name>1070</name>
</trkpt>
<trkpt lat="49.607923" lon="9.161503">
<ele>251.0</ele>
<speed>104</speed>
<course>190.6</course>
<desc>Speed 104 km/h Distance 43.29 km</desc>
<time>2010-08-25T17:24:27.13</time>
<name>1071</name>
</trkpt>
<trkpt lat="49.607487" lon="9.161377">
<ele>249.5</ele>
<speed>104</speed>
<course>182.2</course>
<desc>Speed 104 km/h Distance 43.34 km</desc>
<time>2010-08-25T17:24:33.12</time>
<name>1072</name>
</trkpt>
<trkpt lat="49.607152" lon="9.161357">
<ele>249.0</ele>
<speed>104</speed>
<course>205.1</course>
<desc>Speed 104 km/h Distance 43.37 km</desc>
<time>2010-08-25T17:24:38.12</time>
<name>1073</name>
</trkpt>
<trkpt lat="49.605700" lon="9.160308">
<ele>248.0</ele>
<speed>104</speed>
<course>212.0</course>
<desc>Speed 104 km/h Distance 43.55 km</desc>
<time>2010-08-25T17:24:40.12</time>
<name>1074</name>
</trkpt>
<trkpt lat="49.605032" lon="9.159665">
<ele>248.0</ele>
<speed>104</speed>
<course>145.7</course>
<desc>Speed 104 km/h Distance 43.64 km</desc>
<time>2010-08-25T17:24:44.11</time>
<name>1075</name>
</trkpt>
<trkpt lat="49.604545" lon="9.160177">
<ele>247.5</ele>
<speed>104</speed>
<course>157.3</course>
<desc>Speed 104 km/h Distance 43.71 km</desc>
<time>2010-08-25T17:24:49.11</time>
<name>1076</name>
</trkpt>
<trkpt lat="49.603547" lon="9.160820">
<ele>248.0</ele>
<speed>104</speed>
<course>190.3</course>
<desc>Speed 104 km/h Distance 43.83 km</desc>
<time>2010-08-25T17:24:53.12</time>
<name>1077</name>
</trkpt>
<trkpt lat="49.601895" lon="9.160355">
<ele>248.0</ele>
<speed>98.0</speed>
<course>202.0</course>
<desc>Speed 98.0 km/h Distance 44.01 km</desc>
<time>2010-08-25T17:24:58.11</time>
<name>1078</name>
</trkpt>
<trkpt lat="49.601413" lon="9.160055">
<ele>248.0</ele>
<speed>87.8</speed>
<course>205.5</course>
<desc>Speed 87.8 km/h Distance 44.07 km</desc>
<time>2010-08-25T17:25:00.11</time>
<name>1079</name>
</trkpt>
<trkpt lat="49.601218" lon="9.159912">
<ele>248.0</ele>
<speed>83.8</speed>
<course>196.1</course>
<desc>Speed 83.8 km/h Distance 44.10 km</desc>
<time>2010-08-25T17:25:01.11</time>
<name>1080</name>
</trkpt>
<trkpt lat="49.600863" lon="9.159753">
<ele>248.0</ele>
<speed>78.6</speed>
<course>183.0</course>
<desc>Speed 78.6 km/h Distance 44.14 km</desc>
<time>2010-08-25T17:25:03.10</time>
<name>1081</name>
</trkpt>
<trkpt lat="49.600477" lon="9.159722">
<ele>248.5</ele>
<speed>86.0</speed>
<course>179.2</course>
<desc>Speed 86.0 km/h Distance 44.18 km</desc>
<time>2010-08-25T17:25:05.10</time>
<name>1082</name>
</trkpt>
<trkpt lat="49.600250" lon="9.159727">
<ele>248.5</ele>
<speed>88.6</speed>
<course>181.0</course>
<desc>Speed 88.6 km/h Distance 44.20 km</desc>
<time>2010-08-25T17:25:06.10</time>
<name>1083</name>
</trkpt>
<trkpt lat="49.599748" lon="9.159713">
<ele>248.5</ele>
<speed>98.4</speed>
<course>185.3</course>
<desc>Speed 98.4 km/h Distance 44.26 km</desc>
<time>2010-08-25T17:25:08.10</time>
<name>1084</name>
</trkpt>
<trkpt lat="49.599502" lon="9.159678">
<ele>248.5</ele>
<speed>98.9</speed>
<course>189.2</course>
<desc>Speed 98.9 km/h Distance 44.29 km</desc>
<time>2010-08-25T17:25:09.10</time>
<name>1085</name>
</trkpt>
<trkpt lat="49.599075" lon="9.159572">
<ele>248.5</ele>
<speed>91.0</speed>
<course>194.3</course>
<desc>Speed 91.0 km/h Distance 44.34 km</desc>
<time>2010-08-25T17:25:11.10</time>
<name>1086</name>
</trkpt>
<trkpt lat="49.598847" lon="9.159482">
<ele>248.5</ele>
<speed>94.3</speed>
<course>204.8</course>
<desc>Speed 94.3 km/h Distance 44.36 km</desc>
<time>2010-08-25T17:25:12.09</time>
<name>1087</name>
</trkpt>
<trkpt lat="49.598358" lon="9.159133">
<ele>249.0</ele>
<speed>94.3</speed>
<course>206.6</course>
<desc>Speed 94.3 km/h Distance 44.42 km</desc>
<time>2010-08-25T17:25:16.09</time>
<name>1088</name>
</trkpt>
<trkpt lat="49.597167" lon="9.158212">
<ele>249.0</ele>
<speed>94.3</speed>
<course>208.8</course>
<desc>Speed 94.3 km/h Distance 44.57 km</desc>
<time>2010-08-25T17:25:22.08</time>
<name>1089</name>
</trkpt>
<trkpt lat="49.596577" lon="9.157712">
<ele>250.0</ele>
<speed>94.3</speed>
<course>154.4</course>
<desc>Speed 94.3 km/h Distance 44.65 km</desc>
<time>2010-08-25T17:25:25.08</time>
<name>1090</name>
</trkpt>
<trkpt lat="49.595775" lon="9.158303">
<ele>248.0</ele>
<speed>55.7</speed>
<course>160.8</course>
<desc>Speed 55.7 km/h Distance 44.74 km</desc>
<time>2010-08-25T17:25:31.07</time>
<name>1091</name>
</trkpt>
<trkpt lat="49.595465" lon="9.158470">
<ele>248.0</ele>
<speed>55.2</speed>
<course>166.2</course>
<desc>Speed 55.2 km/h Distance 44.78 km</desc>
<time>2010-08-25T17:25:33.07</time>
<name>1092</name>
</trkpt>
<trkpt lat="49.595315" lon="9.158527">
<ele>248.0</ele>
<speed>56.7</speed>
<course>179.3</course>
<desc>Speed 56.7 km/h Distance 44.80 km</desc>
<time>2010-08-25T17:25:34.07</time>
<name>1093</name>
</trkpt>
<trkpt lat="49.594970" lon="9.158533">
<ele>249.0</ele>
<speed>64.5</speed>
<course>178.9</course>
<desc>Speed 64.5 km/h Distance 44.84 km</desc>
<time>2010-08-25T17:25:36.07</time>
<name>1094</name>
</trkpt>
<trkpt lat="49.594803" lon="9.158538">
<ele>249.0</ele>
<speed>60.9</speed>
<course>189.3</course>
<desc>Speed 60.9 km/h Distance 44.86 km</desc>
<time>2010-08-25T17:25:37.06</time>
<name>1095</name>
</trkpt>
<trkpt lat="49.594645" lon="9.158498">
<ele>249.0</ele>
<speed>62.6</speed>
<course>195.2</course>
<desc>Speed 62.6 km/h Distance 44.87 km</desc>
<time>2010-08-25T17:25:38.07</time>
<name>1096</name>
</trkpt>
<trkpt lat="49.594292" lon="9.158350">
<ele>251.0</ele>
<speed>73.3</speed>
<course>196.7</course>
<desc>Speed 73.3 km/h Distance 44.91 km</desc>
<time>2010-08-25T17:25:40.06</time>
<name>1097</name>
</trkpt>
<trkpt lat="49.593892" lon="9.158165">
<ele>251.5</ele>
<speed>80.2</speed>
<course>207.4</course>
<desc>Speed 80.2 km/h Distance 44.96 km</desc>
<time>2010-08-25T17:25:42.07</time>
<name>1098</name>
</trkpt>
<trkpt lat="49.593023" lon="9.157470">
<ele>251.5</ele>
<speed>97.2</speed>
<course>212.4</course>
<desc>Speed 97.2 km/h Distance 45.07 km</desc>
<time>2010-08-25T17:25:46.05</time>
<name>1099</name>
</trkpt>
<trkpt lat="49.592295" lon="9.156757">
<ele>251.0</ele>
<speed>114</speed>
<course>210.8</course>
<desc>Speed 114 km/h Distance 45.17 km</desc>
<time>2010-08-25T17:25:49.05</time>
<name>1100</name>
</trkpt>
<trkpt lat="49.592047" lon="9.156528">
<ele>251.0</ele>
<speed>112</speed>
<course>210.3</course>
<desc>Speed 112 km/h Distance 45.20 km</desc>
<time>2010-08-25T17:25:50.06</time>
<name>1101</name>
</trkpt>
<trkpt lat="49.591560" lon="9.156090">
<ele>251.0</ele>
<speed>112</speed>
<course>206.9</course>
<desc>Speed 112 km/h Distance 45.26 km</desc>
<time>2010-08-25T17:25:52.05</time>
<name>1102</name>
</trkpt>
<trkpt lat="49.590915" lon="9.155585">
<ele>251.5</ele>
<speed>87.4</speed>
<course>197.1</course>
<desc>Speed 87.4 km/h Distance 45.34 km</desc>
<time>2010-08-25T17:25:55.04</time>
<name>1103</name>
</trkpt>
<trkpt lat="49.590712" lon="9.155488">
<ele>251.5</ele>
<speed>84.1</speed>
<course>191.7</course>
<desc>Speed 84.1 km/h Distance 45.36 km</desc>
<time>2010-08-25T17:25:56.04</time>
<name>1104</name>
</trkpt>
<trkpt lat="49.589963" lon="9.155250">
<ele>253.0</ele>
<speed>105</speed>
<course>187.7</course>
<desc>Speed 105 km/h Distance 45.45 km</desc>
<time>2010-08-25T17:25:59.04</time>
<name>1105</name>
</trkpt>
<trkpt lat="49.589693" lon="9.155193">
<ele>253.0</ele>
<speed>106</speed>
<course>189.6</course>
<desc>Speed 106 km/h Distance 45.48 km</desc>
<time>2010-08-25T17:26:00.04</time>
<name>1106</name>
</trkpt>
<trkpt lat="49.589425" lon="9.155123">
<ele>253.5</ele>
<speed>104</speed>
<course>189.6</course>
<desc>Speed 104 km/h Distance 45.51 km</desc>
<time>2010-08-25T17:26:01.03</time>
<name>1107</name>
</trkpt>
<trkpt lat="49.589177" lon="9.155058">
<ele>254.0</ele>
<speed>98.0</speed>
<course>187.7</course>
<desc>Speed 98.0 km/h Distance 45.54 km</desc>
<time>2010-08-25T17:26:02.03</time>
<name>1108</name>
</trkpt>
<trkpt lat="49.588945" lon="9.155010">
<ele>254.0</ele>
<speed>91.8</speed>
<course>188.9</course>
<desc>Speed 91.8 km/h Distance 45.56 km</desc>
<time>2010-08-25T17:26:03.03</time>
<name>1109</name>
</trkpt>
<trkpt lat="49.588723" lon="9.154957">
<ele>254.0</ele>
<speed>89.5</speed>
<course>191.1</course>
<desc>Speed 89.5 km/h Distance 45.59 km</desc>
<time>2010-08-25T17:26:04.02</time>
<name>1110</name>
</trkpt>
<trkpt lat="49.588498" lon="9.154888">
<ele>254.0</ele>
<speed>91.7</speed>
<course>197.5</course>
<desc>Speed 91.7 km/h Distance 45.61 km</desc>
<time>2010-08-25T17:26:05.03</time>
<name>1111</name>
</trkpt>
<trkpt lat="49.587772" lon="9.154535">
<ele>254.0</ele>
<speed>86.8</speed>
<course>204.7</course>
<desc>Speed 86.8 km/h Distance 45.70 km</desc>
<time>2010-08-25T17:26:09.03</time>
<name>1112</name>
</trkpt>
<trkpt lat="49.587577" lon="9.154397">
<ele>254.0</ele>
<speed>86.8</speed>
<course>203.9</course>
<desc>Speed 86.8 km/h Distance 45.72 km</desc>
<time>2010-08-25T17:26:10.03</time>
<name>1113</name>
</trkpt>
<trkpt lat="49.586910" lon="9.153940">
<ele>253.0</ele>
<speed>86.8</speed>
<course>187.0</course>
<desc>Speed 86.8 km/h Distance 45.80 km</desc>
<time>2010-08-25T17:26:16.02</time>
<name>1114</name>
</trkpt>
<trkpt lat="49.586135" lon="9.153793">
<ele>252.0</ele>
<speed>86.8</speed>
<course>179.4</course>
<desc>Speed 86.8 km/h Distance 45.89 km</desc>
<time>2010-08-25T17:26:21.02</time>
<name>1115</name>
</trkpt>
<trkpt lat="49.585922" lon="9.153797">
<ele>252.0</ele>
<speed>86.8</speed>
<course>198.4</course>
<desc>Speed 86.8 km/h Distance 45.92 km</desc>
<time>2010-08-25T17:26:22.02</time>
<name>1116</name>
</trkpt>
<trkpt lat="49.580725" lon="9.151123">
<ele>250.5</ele>
<speed>86.8</speed>
<course>215.3</course>
<desc>Speed 86.8 km/h Distance 46.52 km</desc>
<time>2010-08-25T17:26:43.00</time>
<name>1117</name>
</trkpt>
<trkpt lat="49.578583" lon="9.148783">
<ele>251.5</ele>
<speed>71.1</speed>
<course>218.5</course>
<desc>Speed 71.1 km/h Distance 46.82 km</desc>
<time>2010-08-25T17:26:49.00</time>
<name>1118</name>
</trkpt>
<trkpt lat="49.578267" lon="9.148395">
<ele>252.0</ele>
<speed>79.0</speed>
<course>231.0</course>
<desc>Speed 79.0 km/h Distance 46.86 km</desc>
<time>2010-08-25T17:26:51.00</time>
<name>1119</name>
</trkpt>
<trkpt lat="49.578013" lon="9.147913">
<ele>252.5</ele>
<speed>88.0</speed>
<course>249.6</course>
<desc>Speed 88.0 km/h Distance 46.91 km</desc>
<time>2010-08-25T17:26:52.99</time>
<name>1120</name>
</trkpt>
<trkpt lat="49.577690" lon="9.146570">
<ele>263.5</ele>
<speed>88.0</speed>
<course>260.9</course>
<desc>Speed 88.0 km/h Distance 47.01 km</desc>
<time>2010-08-25T17:26:57.98</time>
<name>1121</name>
</trkpt>
<trkpt lat="49.577615" lon="9.145848">
<ele>271.5</ele>
<speed>88.0</speed>
<course>263.9</course>
<desc>Speed 88.0 km/h Distance 47.06 km</desc>
<time>2010-08-25T17:26:59.99</time>
<name>1122</name>
</trkpt>
<trkpt lat="49.577538" lon="9.144735">
<ele>275.0</ele>
<speed>66.0</speed>
<course>225.0</course>
<desc>Speed 66.0 km/h Distance 47.14 km</desc>
<time>2010-08-25T17:27:03.99</time>
<name>1123</name>
</trkpt>
<trkpt lat="49.577415" lon="9.144545">
<ele>275.0</ele>
<speed>69.8</speed>
<course>216.0</course>
<desc>Speed 69.8 km/h Distance 47.16 km</desc>
<time>2010-08-25T17:27:04.99</time>
<name>1124</name>
</trkpt>
<trkpt lat="49.577278" lon="9.144392">
<ele>275.0</ele>
<speed>75.1</speed>
<course>206.0</course>
<desc>Speed 75.1 km/h Distance 47.18 km</desc>
<time>2010-08-25T17:27:05.98</time>
<name>1125</name>
</trkpt>
<trkpt lat="49.576937" lon="9.144135">
<ele>275.0</ele>
<speed>89.0</speed>
<course>206.0</course>
<desc>Speed 89.0 km/h Distance 47.22 km</desc>
<time>2010-08-25T17:27:07.98</time>
<name>1126</name>
</trkpt>
<trkpt lat="49.576312" lon="9.143665">
<ele>275.0</ele>
<speed>98.0</speed>
<course>214.6</course>
<desc>Speed 98.0 km/h Distance 47.30 km</desc>
<time>2010-08-25T17:27:10.97</time>
<name>1127</name>
</trkpt>
<trkpt lat="49.575608" lon="9.142917">
<ele>275.0</ele>
<speed>117</speed>
<course>217.6</course>
<desc>Speed 117 km/h Distance 47.40 km</desc>
<time>2010-08-25T17:27:13.97</time>
<name>1128</name>
</trkpt>
<trkpt lat="49.575377" lon="9.142642">
<ele>275.0</ele>
<speed>120</speed>
<course>219.4</course>
<desc>Speed 120 km/h Distance 47.43 km</desc>
<time>2010-08-25T17:27:14.97</time>
<name>1129</name>
</trkpt>
<trkpt lat="49.575152" lon="9.142357">
<ele>275.0</ele>
<speed>120</speed>
<course>213.5</course>
<desc>Speed 120 km/h Distance 47.46 km</desc>
<time>2010-08-25T17:27:15.97</time>
<name>1130</name>
</trkpt>
<trkpt lat="49.572788" lon="9.139942">
<ele>273.5</ele>
<speed>123</speed>
<course>215.1</course>
<desc>Speed 123 km/h Distance 47.78 km</desc>
<time>2010-08-25T17:27:26.96</time>
<name>1131</name>
</trkpt>
<trkpt lat="49.572007" lon="9.139095">
<ele>273.5</ele>
<speed>123</speed>
<course>192.7</course>
<desc>Speed 123 km/h Distance 47.88 km</desc>
<time>2010-08-25T17:27:30.95</time>
<name>1132</name>
</trkpt>
<trkpt lat="49.571470" lon="9.138908">
<ele>273.5</ele>
<speed>123</speed>
<course>181.0</course>
<desc>Speed 123 km/h Distance 47.95 km</desc>
<time>2010-08-25T17:27:32.95</time>
<name>1133</name>
</trkpt>
<trkpt lat="49.570560" lon="9.138883">
<ele>274.0</ele>
<speed>123</speed>
<course>190.8</course>
<desc>Speed 123 km/h Distance 48.05 km</desc>
<time>2010-08-25T17:27:38.95</time>
<name>1134</name>
</trkpt>
<trkpt lat="49.567572" lon="9.138002">
<ele>274.0</ele>
<speed>123</speed>
<course>158.6</course>
<desc>Speed 123 km/h Distance 48.39 km</desc>
<time>2010-08-25T17:27:50.95</time>
<name>1135</name>
</trkpt>
<trkpt lat="49.566682" lon="9.138538">
<ele>274.0</ele>
<speed>123</speed>
<course>135.9</course>
<desc>Speed 123 km/h Distance 48.49 km</desc>
<time>2010-08-25T17:27:54.94</time>
<name>1136</name>
</trkpt>
<trkpt lat="49.565958" lon="9.139618">
<ele>273.5</ele>
<speed>91.6</speed>
<course>110.2</course>
<desc>Speed 91.6 km/h Distance 48.60 km</desc>
<time>2010-08-25T17:28:00.94</time>
<name>1137</name>
</trkpt>
<trkpt lat="49.565870" lon="9.139988">
<ele>274.0</ele>
<speed>91.6</speed>
<course>170.7</course>
<desc>Speed 91.6 km/h Distance 48.63 km</desc>
<time>2010-08-25T17:28:06.93</time>
<name>1138</name>
</trkpt>
<trkpt lat="49.564875" lon="9.140238">
<ele>274.0</ele>
<speed>91.6</speed>
<course>230.1</course>
<desc>Speed 91.6 km/h Distance 48.74 km</desc>
<time>2010-08-25T17:28:10.93</time>
<name>1139</name>
</trkpt>
<trkpt lat="49.564408" lon="9.139377">
<ele>274.5</ele>
<speed>91.6</speed>
<course>288.9</course>
<desc>Speed 91.6 km/h Distance 48.83 km</desc>
<time>2010-08-25T17:28:15.93</time>
<name>1140</name>
</trkpt>
<trkpt lat="49.564652" lon="9.138282">
<ele>274.5</ele>
<speed>91.6</speed>
<course>317.3</course>
<desc>Speed 91.6 km/h Distance 48.91 km</desc>
<time>2010-08-25T17:28:20.92</time>
<name>1141</name>
</trkpt>
<trkpt lat="49.565508" lon="9.137062">
<ele>274.5</ele>
<speed>91.6</speed>
<course>264.1</course>
<desc>Speed 91.6 km/h Distance 49.04 km</desc>
<time>2010-08-25T17:28:25.92</time>
<name>1142</name>
</trkpt>
<trkpt lat="49.565438" lon="9.136015">
<ele>274.5</ele>
<speed>91.6</speed>
<course>220.9</course>
<desc>Speed 91.6 km/h Distance 49.11 km</desc>
<time>2010-08-25T17:28:31.92</time>
<name>1143</name>
</trkpt>
<trkpt lat="49.564422" lon="9.134658">
<ele>275.0</ele>
<speed>112</speed>
<course>220.6</course>
<desc>Speed 112 km/h Distance 49.26 km</desc>
<time>2010-08-25T17:28:36.92</time>
<name>1144</name>
</trkpt>
<trkpt lat="49.563633" lon="9.133615">
<ele>274.5</ele>
<speed>117</speed>
<course>227.9</course>
<desc>Speed 117 km/h Distance 49.38 km</desc>
<time>2010-08-25T17:28:41.91</time>
<name>1145</name>
</trkpt>
<trkpt lat="49.558363" lon="9.124623">
<ele>274.0</ele>
<speed>76.1</speed>
<course>222.2</course>
<desc>Speed 76.1 km/h Distance 50.26 km</desc>
<time>2010-08-25T17:29:12.89</time>
<name>1146</name>
</trkpt>
<trkpt lat="49.557838" lon="9.123888">
<ele>274.0</ele>
<speed>80.9</speed>
<course>202.0</course>
<desc>Speed 80.9 km/h Distance 50.33 km</desc>
<time>2010-08-25T17:29:15.88</time>
<name>1147</name>
</trkpt>
<trkpt lat="49.557247" lon="9.123520">
<ele>275.0</ele>
<speed>80.9</speed>
<course>178.2</course>
<desc>Speed 80.9 km/h Distance 50.41 km</desc>
<time>2010-08-25T17:29:20.87</time>
<name>1148</name>
</trkpt>
<trkpt lat="49.556963" lon="9.123533">
<ele>275.5</ele>
<speed>80.9</speed>
<course>208.3</course>
<desc>Speed 80.9 km/h Distance 50.44 km</desc>
<time>2010-08-25T17:29:26.87</time>
<name>1149</name>
</trkpt>
<trkpt lat="49.556437" lon="9.123097">
<ele>275.5</ele>
<speed>68.2</speed>
<course>206.7</course>
<desc>Speed 68.2 km/h Distance 50.50 km</desc>
<time>2010-08-25T17:29:30.87</time>
<name>1150</name>
</trkpt>
<trkpt lat="49.555652" lon="9.122488">
<ele>275.5</ele>
<speed>65.4</speed>
<course>201.0</course>
<desc>Speed 65.4 km/h Distance 50.60 km</desc>
<time>2010-08-25T17:29:34.87</time>
<name>1151</name>
</trkpt>
<trkpt lat="49.555330" lon="9.122298">
<ele>275.5</ele>
<speed>65.4</speed>
<course>195.8</course>
<desc>Speed 65.4 km/h Distance 50.64 km</desc>
<time>2010-08-25T17:29:36.86</time>
<name>1152</name>
</trkpt>
<trkpt lat="49.554945" lon="9.122130">
<ele>275.5</ele>
<speed>65.4</speed>
<course>147.0</course>
<desc>Speed 65.4 km/h Distance 50.68 km</desc>
<time>2010-08-25T17:29:40.86</time>
<name>1153</name>
</trkpt>
<trkpt lat="49.554797" lon="9.122278">
<ele>275.5</ele>
<speed>65.4</speed>
<course>151.9</course>
<desc>Speed 65.4 km/h Distance 50.70 km</desc>
<time>2010-08-25T17:29:41.86</time>
<name>1154</name>
</trkpt>
<trkpt lat="49.554477" lon="9.122542">
<ele>275.5</ele>
<speed>65.4</speed>
<course>100.5</course>
<desc>Speed 65.4 km/h Distance 50.74 km</desc>
<time>2010-08-25T17:29:43.85</time>
<name>1155</name>
</trkpt>
<trkpt lat="49.554415" lon="9.123057">
<ele>275.5</ele>
<speed>65.4</speed>
<course>139.6</course>
<desc>Speed 65.4 km/h Distance 50.78 km</desc>
<time>2010-08-25T17:29:45.86</time>
<name>1156</name>
</trkpt>
<trkpt lat="49.553892" lon="9.123743">
<ele>275.5</ele>
<speed>65.4</speed>
<course>96.3</course>
<desc>Speed 65.4 km/h Distance 50.86 km</desc>
<time>2010-08-25T17:29:49.86</time>
<name>1157</name>
</trkpt>
<trkpt lat="49.553843" lon="9.124418">
<ele>275.5</ele>
<speed>65.4</speed>
<course>136.1</course>
<desc>Speed 65.4 km/h Distance 50.91 km</desc>
<time>2010-08-25T17:29:51.91</time>
<name>1158</name>
</trkpt>
<trkpt lat="49.553397" lon="9.125082">
<ele>276.0</ele>
<speed>65.4</speed>
<course>171.5</course>
<desc>Speed 65.4 km/h Distance 50.98 km</desc>
<time>2010-08-25T17:29:54.85</time>
<name>1159</name>
</trkpt>
<trkpt lat="49.551808" lon="9.125448">
<ele>277.0</ele>
<speed>65.4</speed>
<course>182.1</course>
<desc>Speed 65.4 km/h Distance 51.16 km</desc>
<time>2010-08-25T17:30:04.84</time>
<name>1160</name>
</trkpt>
<trkpt lat="49.551657" lon="9.125440">
<ele>277.0</ele>
<speed>65.4</speed>
<course>238.0</course>
<desc>Speed 65.4 km/h Distance 51.17 km</desc>
<time>2010-08-25T17:30:05.84</time>
<name>1161</name>
</trkpt>
<trkpt lat="49.550677" lon="9.123020">
<ele>280.0</ele>
<speed>65.4</speed>
<course>287.5</course>
<desc>Speed 65.4 km/h Distance 51.38 km</desc>
<time>2010-08-25T17:30:10.83</time>
<name>1162</name>
</trkpt>
<trkpt lat="49.550882" lon="9.122020">
<ele>279.0</ele>
<speed>94.1</speed>
<course>295.9</course>
<desc>Speed 94.1 km/h Distance 51.45 km</desc>
<time>2010-08-25T17:30:14.85</time>
<name>1163</name>
</trkpt>
<trkpt lat="49.551258" lon="9.120822">
<ele>279.5</ele>
<speed>26.5</speed>
<course>273.9</course>
<desc>Speed 26.5 km/h Distance 51.55 km</desc>
<time>2010-08-25T17:30:19.83</time>
<name>1164</name>
</trkpt>
<trkpt lat="49.551270" lon="9.120555">
<ele>279.5</ele>
<speed>29.3</speed>
<course>108.8</course>
<desc>Speed 29.3 km/h Distance 51.57 km</desc>
<time>2010-08-25T17:30:21.83</time>
<name>1165</name>
</trkpt>
<trkpt lat="49.551103" lon="9.121310">
<ele>280.0</ele>
<speed>29.3</speed>
<course>137.6</course>
<desc>Speed 29.3 km/h Distance 51.63 km</desc>
<time>2010-08-25T17:30:29.82</time>
<name>1166</name>
</trkpt>
<trkpt lat="49.547687" lon="9.126127">
<ele>283.5</ele>
<speed>90.9</speed>
<course>155.2</course>
<desc>Speed 90.9 km/h Distance 52.14 km</desc>
<time>2010-08-25T17:30:49.81</time>
<name>1167</name>
</trkpt>
<trkpt lat="49.545522" lon="9.127670">
<ele>286.0</ele>
<speed>90.9</speed>
<course>180.1</course>
<desc>Speed 90.9 km/h Distance 52.41 km</desc>
<time>2010-08-25T17:30:58.80</time>
<name>1168</name>
</trkpt>
<trkpt lat="49.545023" lon="9.127668">
<ele>286.0</ele>
<speed>90.9</speed>
<course>149.8</course>
<desc>Speed 90.9 km/h Distance 52.46 km</desc>
<time>2010-08-25T17:31:04.79</time>
<name>1169</name>
</trkpt>
<trkpt lat="49.544622" lon="9.128028">
<ele>287.0</ele>
<speed>90.9</speed>
<course>272.7</course>
<desc>Speed 90.9 km/h Distance 52.52 km</desc>
<time>2010-08-25T17:31:06.79</time>
<name>1170</name>
</trkpt>
<trkpt lat="49.544710" lon="9.125100">
<ele>288.0</ele>
<speed>90.9</speed>
<course>318.1</course>
<desc>Speed 90.9 km/h Distance 52.73 km</desc>
<time>2010-08-25T17:31:17.78</time>
<name>1171</name>
</trkpt>
<trkpt lat="49.545183" lon="9.124445">
<ele>288.0</ele>
<speed>92.6</speed>
<course>316.5</course>
<desc>Speed 92.6 km/h Distance 52.80 km</desc>
<time>2010-08-25T17:31:20.79</time>
<name>1172</name>
</trkpt>
<trkpt lat="49.545537" lon="9.123928">
<ele>289.0</ele>
<speed>92.6</speed>
<course>307.7</course>
<desc>Speed 92.6 km/h Distance 52.85 km</desc>
<time>2010-08-25T17:31:22.79</time>
<name>1173</name>
</trkpt>
<trkpt lat="49.545933" lon="9.123137">
<ele>289.0</ele>
<speed>113</speed>
<course>305.8</course>
<desc>Speed 113 km/h Distance 52.92 km</desc>
<time>2010-08-25T17:31:25.78</time>
<name>1174</name>
</trkpt>
<trkpt lat="49.546100" lon="9.122780">
<ele>289.0</ele>
<speed>113</speed>
<course>307.3</course>
<desc>Speed 113 km/h Distance 52.96 km</desc>
<time>2010-08-25T17:31:26.77</time>
<name>1175</name>
</trkpt>
<trkpt lat="49.546522" lon="9.121928">
<ele>289.0</ele>
<speed>92.2</speed>
<course>307.6</course>
<desc>Speed 92.2 km/h Distance 53.03 km</desc>
<time>2010-08-25T17:31:29.78</time>
<name>1176</name>
</trkpt>
<trkpt lat="49.546655" lon="9.121662">
<ele>289.0</ele>
<speed>92.2</speed>
<course>307.5</course>
<desc>Speed 92.2 km/h Distance 53.06 km</desc>
<time>2010-08-25T17:31:30.78</time>
<name>1177</name>
</trkpt>
<trkpt lat="49.547350" lon="9.120263">
<ele>289.5</ele>
<speed>95.2</speed>
<course>291.0</course>
<desc>Speed 95.2 km/h Distance 53.18 km</desc>
<time>2010-08-25T17:31:34.77</time>
<name>1178</name>
</trkpt>
<trkpt lat="49.547588" lon="9.119307">
<ele>289.5</ele>
<speed>103</speed>
<course>288.1</course>
<desc>Speed 103 km/h Distance 53.26 km</desc>
<time>2010-08-25T17:31:37.77</time>
<name>1179</name>
</trkpt>
<trkpt lat="49.547668" lon="9.118930">
<ele>289.5</ele>
<speed>103</speed>
<course>278.6</course>
<desc>Speed 103 km/h Distance 53.29 km</desc>
<time>2010-08-25T17:31:38.76</time>
<name>1180</name>
</trkpt>
<trkpt lat="49.547783" lon="9.117763">
<ele>289.5</ele>
<speed>103</speed>
<course>235.0</course>
<desc>Speed 103 km/h Distance 53.37 km</desc>
<time>2010-08-25T17:31:43.76</time>
<name>1181</name>
</trkpt>
<trkpt lat="49.545532" lon="9.112800">
<ele>289.0</ele>
<speed>75.1</speed>
<course>215.7</course>
<desc>Speed 75.1 km/h Distance 53.81 km</desc>
<time>2010-08-25T17:32:06.74</time>
<name>1182</name>
</trkpt>
<trkpt lat="49.544782" lon="9.111970">
<ele>289.0</ele>
<speed>75.1</speed>
<course>218.3</course>
<desc>Speed 75.1 km/h Distance 53.91 km</desc>
<time>2010-08-25T17:32:10.71</time>
<name>1183</name>
</trkpt>
<trkpt lat="49.543278" lon="9.110140">
<ele>289.0</ele>
<speed>121</speed>
<course>212.1</course>
<desc>Speed 121 km/h Distance 54.13 km</desc>
<time>2010-08-25T17:32:16.71</time>
<name>1184</name>
</trkpt>
<trkpt lat="49.542708" lon="9.109588">
<ele>289.5</ele>
<speed>113</speed>
<course>207.8</course>
<desc>Speed 113 km/h Distance 54.20 km</desc>
<time>2010-08-25T17:32:18.73</time>
<name>1185</name>
</trkpt>
<trkpt lat="49.542247" lon="9.109213">
<ele>289.5</ele>
<speed>102</speed>
<course>214.0</course>
<desc>Speed 102 km/h Distance 54.26 km</desc>
<time>2010-08-25T17:32:20.72</time>
<name>1186</name>
</trkpt>
<trkpt lat="49.542032" lon="9.108990">
<ele>289.5</ele>
<speed>105</speed>
<course>211.9</course>
<desc>Speed 105 km/h Distance 54.29 km</desc>
<time>2010-08-25T17:32:21.73</time>
<name>1187</name>
</trkpt>
<trkpt lat="49.541203" lon="9.108195">
<ele>289.5</ele>
<speed>105</speed>
<course>190.0</course>
<desc>Speed 105 km/h Distance 54.40 km</desc>
<time>2010-08-25T17:32:27.70</time>
<name>1188</name>
</trkpt>
<trkpt lat="49.540637" lon="9.108042">
<ele>289.5</ele>
<speed>105</speed>
<course>189.7</course>
<desc>Speed 105 km/h Distance 54.46 km</desc>
<time>2010-08-25T17:32:32.71</time>
<name>1189</name>
</trkpt>
<trkpt lat="49.540202" lon="9.107927">
<ele>289.5</ele>
<speed>105</speed>
<course>228.7</course>
<desc>Speed 105 km/h Distance 54.51 km</desc>
<time>2010-08-25T17:32:38.71</time>
<name>1190</name>
</trkpt>
<trkpt lat="49.539757" lon="9.107145">
<ele>289.0</ele>
<speed>105</speed>
<course>229.1</course>
<desc>Speed 105 km/h Distance 54.58 km</desc>
<time>2010-08-25T17:32:40.70</time>
<name>1191</name>
</trkpt>
<trkpt lat="49.539205" lon="9.106163">
<ele>289.0</ele>
<speed>105</speed>
<course>212.4</course>
<desc>Speed 105 km/h Distance 54.68 km</desc>
<time>2010-08-25T17:32:46.70</time>
<name>1192</name>
</trkpt>
<trkpt lat="49.538990" lon="9.105953">
<ele>289.0</ele>
<speed>105</speed>
<course>243.0</course>
<desc>Speed 105 km/h Distance 54.71 km</desc>
<time>2010-08-25T17:32:50.67</time>
<name>1193</name>
</trkpt>
<trkpt lat="49.538293" lon="9.103848">
<ele>289.0</ele>
<speed>71.1</speed>
<course>237.9</course>
<desc>Speed 71.1 km/h Distance 54.88 km</desc>
<time>2010-08-25T17:32:52.69</time>
<name>1194</name>
</trkpt>
<trkpt lat="49.537937" lon="9.102973">
<ele>289.0</ele>
<speed>71.1</speed>
<course>284.6</course>
<desc>Speed 71.1 km/h Distance 54.95 km</desc>
<time>2010-08-25T17:32:55.69</time>
<name>1195</name>
</trkpt>
<trkpt lat="49.538015" lon="9.102510">
<ele>289.0</ele>
<speed>71.1</speed>
<course>273.5</course>
<desc>Speed 71.1 km/h Distance 54.99 km</desc>
<time>2010-08-25T17:32:57.69</time>
<name>1196</name>
</trkpt>
<trkpt lat="49.538057" lon="9.101468">
<ele>289.0</ele>
<speed>71.1</speed>
<course>261.5</course>
<desc>Speed 71.1 km/h Distance 55.06 km</desc>
<time>2010-08-25T17:33:02.69</time>
<name>1197</name>
</trkpt>
<trkpt lat="49.537905" lon="9.099912">
<ele>289.5</ele>
<speed>71.1</speed>
<course>233.0</course>
<desc>Speed 71.1 km/h Distance 55.18 km</desc>
<time>2010-08-25T17:33:04.69</time>
<name>1198</name>
</trkpt>
<trkpt lat="49.537725" lon="9.099543">
<ele>289.5</ele>
<speed>71.1</speed>
<course>257.1</course>
<desc>Speed 71.1 km/h Distance 55.21 km</desc>
<time>2010-08-25T17:33:06.69</time>
<name>1199</name>
</trkpt>
<trkpt lat="49.537640" lon="9.098972">
<ele>289.5</ele>
<speed>71.1</speed>
<course>307.0</course>
<desc>Speed 71.1 km/h Distance 55.25 km</desc>
<time>2010-08-25T17:33:09.68</time>
<name>1200</name>
</trkpt>
<trkpt lat="49.537782" lon="9.098682">
<ele>289.5</ele>
<speed>71.1</speed>
<course>13.4</course>
<desc>Speed 71.1 km/h Distance 55.28 km</desc>
<time>2010-08-25T17:33:15.68</time>
<name>1201</name>
</trkpt>
<trkpt lat="49.538000" lon="9.098762">
<ele>289.5</ele>
<speed>71.1</speed>
<course>314.9</course>
<desc>Speed 71.1 km/h Distance 55.30 km</desc>
<time>2010-08-25T17:33:21.67</time>
<name>1202</name>
</trkpt>
<trkpt lat="49.539980" lon="9.095698">
<ele>289.0</ele>
<speed>71.1</speed>
<course>289.2</course>
<desc>Speed 71.1 km/h Distance 55.62 km</desc>
<time>2010-08-25T17:33:25.68</time>
<name>1203</name>
</trkpt>
<trkpt lat="49.540093" lon="9.095197">
<ele>289.0</ele>
<speed>71.1</speed>
<course>282.8</course>
<desc>Speed 71.1 km/h Distance 55.65 km</desc>
<time>2010-08-25T17:33:29.65</time>
<name>1204</name>
</trkpt>
<trkpt lat="49.540632" lon="9.091537">
<ele>288.5</ele>
<speed>71.1</speed>
<course>241.3</course>
<desc>Speed 71.1 km/h Distance 55.92 km</desc>
<time>2010-08-25T17:33:35.66</time>
<name>1205</name>
</trkpt>
<trkpt lat="49.540418" lon="9.090935">
<ele>288.5</ele>
<speed>71.1</speed>
<course>281.3</course>
<desc>Speed 71.1 km/h Distance 55.97 km</desc>
<time>2010-08-25T17:33:37.67</time>
<name>1206</name>
</trkpt>
<trkpt lat="49.540478" lon="9.090473">
<ele>288.5</ele>
<speed>71.1</speed>
<course>259.0</course>
<desc>Speed 71.1 km/h Distance 56.01 km</desc>
<time>2010-08-25T17:33:39.65</time>
<name>1207</name>
</trkpt>
<trkpt lat="49.540448" lon="9.090235">
<ele>289.0</ele>
<speed>71.1</speed>
<course>273.8</course>
<desc>Speed 71.1 km/h Distance 56.03 km</desc>
<time>2010-08-25T17:33:41.66</time>
<name>1208</name>
</trkpt>
<trkpt lat="49.540488" lon="9.089305">
<ele>288.0</ele>
<speed>71.1</speed>
<course>219.4</course>
<desc>Speed 71.1 km/h Distance 56.09 km</desc>
<time>2010-08-25T17:33:44.65</time>
<name>1209</name>
</trkpt>
<trkpt lat="49.540350" lon="9.089130">
<ele>288.5</ele>
<speed>71.1</speed>
<course>285.0</course>
<desc>Speed 71.1 km/h Distance 56.11 km</desc>
<time>2010-08-25T17:33:45.66</time>
<name>1210</name>
</trkpt>
<trkpt lat="49.540842" lon="9.086298">
<ele>290.0</ele>
<speed>61.0</speed>
<course>268.3</course>
<desc>Speed 61.0 km/h Distance 56.32 km</desc>
<time>2010-08-25T17:33:55.65</time>
<name>1211</name>
</trkpt>
<trkpt lat="49.540808" lon="9.084570">
<ele>291.0</ele>
<speed>95.2</speed>
<course>221.2</course>
<desc>Speed 95.2 km/h Distance 56.45 km</desc>
<time>2010-08-25T17:34:00.64</time>
<name>1212</name>
</trkpt>
<trkpt lat="49.540632" lon="9.084332">
<ele>291.0</ele>
<speed>102</speed>
<course>220.3</course>
<desc>Speed 102 km/h Distance 56.48 km</desc>
<time>2010-08-25T17:34:01.64</time>
<name>1213</name>
</trkpt>
<trkpt lat="49.540208" lon="9.083778">
<ele>291.5</ele>
<speed>108</speed>
<course>221.5</course>
<desc>Speed 108 km/h Distance 56.54 km</desc>
<time>2010-08-25T17:34:03.64</time>
<name>1214</name>
</trkpt>
<trkpt lat="49.540010" lon="9.083508">
<ele>291.5</ele>
<speed>107</speed>
<course>219.8</course>
<desc>Speed 107 km/h Distance 56.57 km</desc>
<time>2010-08-25T17:34:04.64</time>
<name>1215</name>
</trkpt>
<trkpt lat="49.539350" lon="9.082660">
<ele>292.0</ele>
<speed>118</speed>
<course>216.4</course>
<desc>Speed 118 km/h Distance 56.66 km</desc>
<time>2010-08-25T17:34:07.63</time>
<name>1216</name>
</trkpt>
<trkpt lat="49.538913" lon="9.082163">
<ele>293.0</ele>
<speed>109</speed>
<course>216.8</course>
<desc>Speed 109 km/h Distance 56.72 km</desc>
<time>2010-08-25T17:34:09.64</time>
<name>1217</name>
</trkpt>
<trkpt lat="49.538507" lon="9.081695">
<ele>293.0</ele>
<speed>101</speed>
<course>216.8</course>
<desc>Speed 101 km/h Distance 56.78 km</desc>
<time>2010-08-25T17:34:11.63</time>
<name>1218</name>
</trkpt>
<trkpt lat="49.538155" lon="9.081290">
<ele>293.5</ele>
<speed>90.6</speed>
<course>218.5</course>
<desc>Speed 90.6 km/h Distance 56.83 km</desc>
<time>2010-08-25T17:34:13.63</time>
<name>1219</name>
</trkpt>
<trkpt lat="49.537837" lon="9.080900">
<ele>293.5</ele>
<speed>90.6</speed>
<course>225.3</course>
<desc>Speed 90.6 km/h Distance 56.87 km</desc>
<time>2010-08-25T17:34:15.63</time>
<name>1220</name>
</trkpt>
<trkpt lat="49.537383" lon="9.080193">
<ele>298.0</ele>
<speed>86.9</speed>
<course>229.7</course>
<desc>Speed 86.9 km/h Distance 56.95 km</desc>
<time>2010-08-25T17:34:19.63</time>
<name>1221</name>
</trkpt>
<trkpt lat="49.536998" lon="9.079493">
<ele>296.5</ele>
<speed>76.1</speed>
<course>226.1</course>
<desc>Speed 76.1 km/h Distance 57.01 km</desc>
<time>2010-08-25T17:34:22.63</time>
<name>1222</name>
</trkpt>
<trkpt lat="49.536728" lon="9.079062">
<ele>294.5</ele>
<speed>71.4</speed>
<course>227.1</course>
<desc>Speed 71.4 km/h Distance 57.06 km</desc>
<time>2010-08-25T17:34:24.63</time>
<name>1223</name>
</trkpt>
<trkpt lat="49.536482" lon="9.078653">
<ele>293.5</ele>
<speed>66.3</speed>
<course>234.1</course>
<desc>Speed 66.3 km/h Distance 57.10 km</desc>
<time>2010-08-25T17:34:26.62</time>
<name>1224</name>
</trkpt>
<trkpt lat="49.536248" lon="9.078157">
<ele>295.5</ele>
<speed>65.2</speed>
<course>233.1</course>
<desc>Speed 65.2 km/h Distance 57.14 km</desc>
<time>2010-08-25T17:34:28.62</time>
<name>1225</name>
</trkpt>
<trkpt lat="49.536155" lon="9.077965">
<ele>294.0</ele>
<speed>60.2</speed>
<course>231.3</course>
<desc>Speed 60.2 km/h Distance 57.16 km</desc>
<time>2010-08-25T17:34:29.62</time>
<name>1226</name>
</trkpt>
<trkpt lat="49.536067" lon="9.077795">
<ele>293.5</ele>
<speed>55.1</speed>
<course>230.5</course>
<desc>Speed 55.1 km/h Distance 57.17 km</desc>
<time>2010-08-25T17:34:30.62</time>
<name>1227</name>
</trkpt>
<trkpt lat="49.535978" lon="9.077630">
<ele>291.5</ele>
<speed>53.2</speed>
<course>230.7</course>
<desc>Speed 53.2 km/h Distance 57.19 km</desc>
<time>2010-08-25T17:34:31.62</time>
<name>1228</name>
</trkpt>
<trkpt lat="49.535892" lon="9.077467">
<ele>289.5</ele>
<speed>52.2</speed>
<course>248.5</course>
<desc>Speed 52.2 km/h Distance 57.20 km</desc>
<time>2010-08-25T17:34:32.62</time>
<name>1229</name>
</trkpt>
<trkpt lat="49.535760" lon="9.076952">
<ele>288.5</ele>
<speed>29.8</speed>
<course>308.9</course>
<desc>Speed 29.8 km/h Distance 57.24 km</desc>
<time>2010-08-25T17:34:36.61</time>
<name>1230</name>
</trkpt>
<trkpt lat="49.535850" lon="9.076780">
<ele>287.5</ele>
<speed>40.1</speed>
<course>344.0</course>
<desc>Speed 40.1 km/h Distance 57.26 km</desc>
<time>2010-08-25T17:34:38.61</time>
<name>1231</name>
</trkpt>
<trkpt lat="49.536457" lon="9.076512">
<ele>287.0</ele>
<speed>67.0</speed>
<course>347.6</course>
<desc>Speed 67.0 km/h Distance 57.33 km</desc>
<time>2010-08-25T17:34:42.61</time>
<name>1232</name>
</trkpt>
<trkpt lat="49.536618" lon="9.076457">
<ele>285.5</ele>
<speed>62.8</speed>
<course>350.0</course>
<desc>Speed 62.8 km/h Distance 57.35 km</desc>
<time>2010-08-25T17:34:43.60</time>
<name>1233</name>
</trkpt>
<trkpt lat="49.536765" lon="9.076417">
<ele>284.0</ele>
<speed>58.0</speed>
<course>13.0</course>
<desc>Speed 58.0 km/h Distance 57.36 km</desc>
<time>2010-08-25T17:34:44.61</time>
<name>1234</name>
</trkpt>
<trkpt lat="49.536905" lon="9.076467">
<ele>282.0</ele>
<speed>51.6</speed>
<course>10.4</course>
<desc>Speed 51.6 km/h Distance 57.38 km</desc>
<time>2010-08-25T17:34:45.60</time>
<name>1235</name>
</trkpt>
<trkpt lat="49.537040" lon="9.076505">
<ele>282.0</ele>
<speed>52.8</speed>
<course>9.4</course>
<desc>Speed 52.8 km/h Distance 57.40 km</desc>
<time>2010-08-25T17:34:46.60</time>
<name>1236</name>
</trkpt>
<trkpt lat="49.537243" lon="9.076557">
<ele>282.0</ele>
<speed>52.8</speed>
<course>38.3</course>
<desc>Speed 52.8 km/h Distance 57.42 km</desc>
<time>2010-08-25T17:34:48.60</time>
<name>1237</name>
</trkpt>
<trkpt lat="49.538007" lon="9.077485">
<ele>281.5</ele>
<speed>50.8</speed>
<course>68.2</course>
<desc>Speed 50.8 km/h Distance 57.53 km</desc>
<time>2010-08-25T17:34:55.60</time>
<name>1238</name>
</trkpt>
<trkpt lat="49.538117" lon="9.077908">
<ele>281.0</ele>
<speed>52.0</speed>
<course>52.4</course>
<desc>Speed 52.0 km/h Distance 57.56 km</desc>
<time>2010-08-25T17:34:57.59</time>
<name>1239</name>
</trkpt>
<trkpt lat="49.538202" lon="9.078078">
<ele>280.5</ele>
<speed>53.8</speed>
<course>40.3</course>
<desc>Speed 53.8 km/h Distance 57.58 km</desc>
<time>2010-08-25T17:34:58.59</time>
<name>1240</name>
</trkpt>
<trkpt lat="49.538397" lon="9.078333">
<ele>279.5</ele>
<speed>55.0</speed>
<course>20.2</course>
<desc>Speed 55.0 km/h Distance 57.60 km</desc>
<time>2010-08-25T17:35:00.59</time>
<name>1241</name>
</trkpt>
<trkpt lat="49.538690" lon="9.078500">
<ele>278.5</ele>
<speed>60.5</speed>
<course>19.9</course>
<desc>Speed 60.5 km/h Distance 57.64 km</desc>
<time>2010-08-25T17:35:02.58</time>
<name>1242</name>
</trkpt>
<trkpt lat="49.538950" lon="9.078645">
<ele>278.5</ele>
<speed>60.6</speed>
<course>22.3</course>
<desc>Speed 60.6 km/h Distance 57.67 km</desc>
<time>2010-08-25T17:35:04.59</time>
<name>1243</name>
</trkpt>
<trkpt lat="49.539095" lon="9.078737">
<ele>279.0</ele>
<speed>62.4</speed>
<course>20.2</course>
<desc>Speed 62.4 km/h Distance 57.69 km</desc>
<time>2010-08-25T17:35:05.58</time>
<name>1244</name>
</trkpt>
<trkpt lat="49.539368" lon="9.078892">
<ele>278.5</ele>
<speed>60.7</speed>
<course>30.4</course>
<desc>Speed 60.7 km/h Distance 57.72 km</desc>
<time>2010-08-25T17:35:07.58</time>
<name>1245</name>
</trkpt>
<trkpt lat="49.539507" lon="9.079017">
<ele>279.5</ele>
<speed>60.7</speed>
<course>31.4</course>
<desc>Speed 60.7 km/h Distance 57.74 km</desc>
<time>2010-08-25T17:35:08.58</time>
<name>1246</name>
</trkpt>
<trkpt lat="49.539982" lon="9.079463">
<ele>281.0</ele>
<speed>76.0</speed>
<course>29.4</course>
<desc>Speed 76.0 km/h Distance 57.80 km</desc>
<time>2010-08-25T17:35:11.59</time>
<name>1247</name>
</trkpt>
<trkpt lat="49.540428" lon="9.079852">
<ele>281.0</ele>
<speed>76.0</speed>
<course>9.6</course>
<desc>Speed 76.0 km/h Distance 57.86 km</desc>
<time>2010-08-25T17:35:16.58</time>
<name>1248</name>
</trkpt>
<trkpt lat="49.540942" lon="9.079985">
<ele>281.0</ele>
<speed>62.5</speed>
<course>6.1</course>
<desc>Speed 62.5 km/h Distance 57.91 km</desc>
<time>2010-08-25T17:35:19.58</time>
<name>1249</name>
</trkpt>
<trkpt lat="49.541257" lon="9.080037">
<ele>281.0</ele>
<speed>63.3</speed>
<course>19.0</course>
<desc>Speed 63.3 km/h Distance 57.95 km</desc>
<time>2010-08-25T17:35:21.58</time>
<name>1250</name>
</trkpt>
<trkpt lat="49.541587" lon="9.080212">
<ele>281.0</ele>
<speed>63.3</speed>
<course>14.6</course>
<desc>Speed 63.3 km/h Distance 57.99 km</desc>
<time>2010-08-25T17:35:25.57</time>
<name>1251</name>
</trkpt>
<trkpt lat="49.541868" lon="9.080325">
<ele>280.0</ele>
<speed>63.3</speed>
<course>37.6</course>
<desc>Speed 63.3 km/h Distance 58.02 km</desc>
<time>2010-08-25T17:35:27.57</time>
<name>1252</name>
</trkpt>
<trkpt lat="49.543422" lon="9.082170">
<ele>280.0</ele>
<speed>97.6</speed>
<course>48.1</course>
<desc>Speed 97.6 km/h Distance 58.24 km</desc>
<time>2010-08-25T17:35:33.72</time>
<name>1253</name>
</trkpt>
<trkpt lat="49.543932" lon="9.083047">
<ele>283.5</ele>
<speed>85.2</speed>
<course>46.5</course>
<desc>Speed 85.2 km/h Distance 58.32 km</desc>
<time>2010-08-25T17:35:37.62</time>
<name>1254</name>
</trkpt>
<trkpt lat="49.544460" lon="9.083905">
<ele>286.0</ele>
<speed>85.9</speed>
<course>41.5</course>
<desc>Speed 85.9 km/h Distance 58.41 km</desc>
<time>2010-08-25T17:35:40.56</time>
<name>1255</name>
</trkpt>
<trkpt lat="49.544780" lon="9.084342">
<ele>288.0</ele>
<speed>72.4</speed>
<course>45.6</course>
<desc>Speed 72.4 km/h Distance 58.46 km</desc>
<time>2010-08-25T17:35:42.56</time>
<name>1256</name>
</trkpt>
<trkpt lat="49.545027" lon="9.084730">
<ele>292.5</ele>
<speed>72.4</speed>
<course>19.3</course>
<desc>Speed 72.4 km/h Distance 58.50 km</desc>
<time>2010-08-25T17:35:44.55</time>
<name>1257</name>
</trkpt>
<trkpt lat="49.545662" lon="9.085073">
<ele>298.0</ele>
<speed>96.5</speed>
<course>10.3</course>
<desc>Speed 96.5 km/h Distance 58.57 km</desc>
<time>2010-08-25T17:35:48.55</time>
<name>1258</name>
</trkpt>
<trkpt lat="49.546417" lon="9.085285">
<ele>299.0</ele>
<speed>86.1</speed>
<course>11.5</course>
<desc>Speed 86.1 km/h Distance 58.66 km</desc>
<time>2010-08-25T17:35:51.55</time>
<name>1259</name>
</trkpt>
<trkpt lat="49.546907" lon="9.085438">
<ele>305.5</ele>
<speed>70.7</speed>
<course>9.0</course>
<desc>Speed 70.7 km/h Distance 58.71 km</desc>
<time>2010-08-25T17:35:54.55</time>
<name>1260</name>
</trkpt>
<trkpt lat="49.547083" lon="9.085482">
<ele>305.0</ele>
<speed>70.7</speed>
<course>12.2</course>
<desc>Speed 70.7 km/h Distance 58.73 km</desc>
<time>2010-08-25T17:35:55.55</time>
<name>1261</name>
</trkpt>
<trkpt lat="49.547358" lon="9.085573">
<ele>305.5</ele>
<speed>70.7</speed>
<course>341.4</course>
<desc>Speed 70.7 km/h Distance 58.76 km</desc>
<time>2010-08-25T17:35:57.54</time>
<name>1262</name>
</trkpt>
<trkpt lat="49.547812" lon="9.085338">
<ele>304.0</ele>
<speed>70.7</speed>
<course>308.4</course>
<desc>Speed 70.7 km/h Distance 58.82 km</desc>
<time>2010-08-25T17:36:03.54</time>
<name>1263</name>
</trkpt>
<trkpt lat="49.547982" lon="9.085008">
<ele>297.5</ele>
<speed>70.7</speed>
<course>314.6</course>
<desc>Speed 70.7 km/h Distance 58.85 km</desc>
<time>2010-08-25T17:36:09.54</time>
<name>1264</name>
</trkpt>
<trkpt lat="49.548307" lon="9.084500">
<ele>295.5</ele>
<speed>87.0</speed>
<course>331.5</course>
<desc>Speed 87.0 km/h Distance 58.90 km</desc>
<time>2010-08-25T17:36:15.54</time>
<name>1265</name>
</trkpt>
<trkpt lat="49.549687" lon="9.083345">
<ele>293.5</ele>
<speed>76.5</speed>
<course>330.3</course>
<desc>Speed 76.5 km/h Distance 59.07 km</desc>
<time>2010-08-25T17:36:20.54</time>
<name>1266</name>
</trkpt>
<trkpt lat="49.551538" lon="9.081720">
<ele>292.0</ele>
<speed>77.6</speed>
<course>314.0</course>
<desc>Speed 77.6 km/h Distance 59.31 km</desc>
<time>2010-08-25T17:36:26.53</time>
<name>1267</name>
</trkpt>
<trkpt lat="49.551822" lon="9.081268">
<ele>292.0</ele>
<speed>91.0</speed>
<course>313.8</course>
<desc>Speed 91.0 km/h Distance 59.36 km</desc>
<time>2010-08-25T17:36:28.53</time>
<name>1268</name>
</trkpt>
<trkpt lat="49.551988" lon="9.081000">
<ele>292.0</ele>
<speed>88.0</speed>
<course>318.5</course>
<desc>Speed 88.0 km/h Distance 59.38 km</desc>
<time>2010-08-25T17:36:29.53</time>
<name>1269</name>
</trkpt>
<trkpt lat="49.552303" lon="9.080570">
<ele>292.0</ele>
<speed>80.4</speed>
<course>323.1</course>
<desc>Speed 80.4 km/h Distance 59.43 km</desc>
<time>2010-08-25T17:36:31.52</time>
<name>1270</name>
</trkpt>
<trkpt lat="49.552607" lon="9.080218">
<ele>292.0</ele>
<speed>77.3</speed>
<course>335.2</course>
<desc>Speed 77.3 km/h Distance 59.47 km</desc>
<time>2010-08-25T17:36:33.52</time>
<name>1271</name>
</trkpt>
<trkpt lat="49.552947" lon="9.079977">
<ele>292.0</ele>
<speed>69.7</speed>
<course>19.1</course>
<desc>Speed 69.7 km/h Distance 59.51 km</desc>
<time>2010-08-25T17:36:35.52</time>
<name>1272</name>
</trkpt>
<trkpt lat="49.554800" lon="9.080965">
<ele>291.5</ele>
<speed>69.7</speed>
<course>327.7</course>
<desc>Speed 69.7 km/h Distance 59.73 km</desc>
<time>2010-08-25T17:36:42.52</time>
<name>1273</name>
</trkpt>
<trkpt lat="49.556073" lon="9.079723">
<ele>292.0</ele>
<speed>69.7</speed>
<course>309.7</course>
<desc>Speed 69.7 km/h Distance 59.90 km</desc>
<time>2010-08-25T17:36:48.51</time>
<name>1274</name>
</trkpt>
<trkpt lat="49.556468" lon="9.078990">
<ele>292.0</ele>
<speed>69.7</speed>
<course>314.2</course>
<desc>Speed 69.7 km/h Distance 59.97 km</desc>
<time>2010-08-25T17:36:53.50</time>
<name>1275</name>
</trkpt>
<trkpt lat="49.556750" lon="9.078543">
<ele>292.0</ele>
<speed>69.7</speed>
<course>289.4</course>
<desc>Speed 69.7 km/h Distance 60.01 km</desc>
<time>2010-08-25T17:36:55.51</time>
<name>1276</name>
</trkpt>
<trkpt lat="49.556977" lon="9.077552">
<ele>292.0</ele>
<speed>69.7</speed>
<course>291.0</course>
<desc>Speed 69.7 km/h Distance 60.09 km</desc>
<time>2010-08-25T17:36:58.51</time>
<name>1277</name>
</trkpt>
<trkpt lat="49.557110" lon="9.077017">
<ele>292.5</ele>
<speed>69.7</speed>
<course>331.2</course>
<desc>Speed 69.7 km/h Distance 60.13 km</desc>
<time>2010-08-25T17:37:04.50</time>
<name>1278</name>
</trkpt>
<trkpt lat="49.557427" lon="9.076748">
<ele>292.5</ele>
<speed>69.7</speed>
<course>339.5</course>
<desc>Speed 69.7 km/h Distance 60.17 km</desc>
<time>2010-08-25T17:37:06.50</time>
<name>1279</name>
</trkpt>
<trkpt lat="49.557777" lon="9.076547">
<ele>292.5</ele>
<speed>69.7</speed>
<course>349.6</course>
<desc>Speed 69.7 km/h Distance 60.21 km</desc>
<time>2010-08-25T17:37:09.49</time>
<name>1280</name>
</trkpt>
<trkpt lat="49.558167" lon="9.076437">
<ele>292.0</ele>
<speed>69.7</speed>
<course>331.1</course>
<desc>Speed 69.7 km/h Distance 60.26 km</desc>
<time>2010-08-25T17:37:14.50</time>
<name>1281</name>
</trkpt>
<trkpt lat="49.558640" lon="9.076033">
<ele>292.0</ele>
<speed>60.5</speed>
<course>332.1</course>
<desc>Speed 60.5 km/h Distance 60.32 km</desc>
<time>2010-08-25T17:37:18.50</time>
<name>1282</name>
</trkpt>
<trkpt lat="49.558777" lon="9.075922">
<ele>292.0</ele>
<speed>60.5</speed>
<course>312.7</course>
<desc>Speed 60.5 km/h Distance 60.33 km</desc>
<time>2010-08-25T17:37:19.50</time>
<name>1283</name>
</trkpt>
<trkpt lat="49.560382" lon="9.073240">
<ele>291.5</ele>
<speed>56.8</speed>
<course>332.4</course>
<desc>Speed 56.8 km/h Distance 60.60 km</desc>
<time>2010-08-25T17:37:24.49</time>
<name>1284</name>
</trkpt>
<trkpt lat="49.561942" lon="9.071980">
<ele>290.5</ele>
<speed>75.2</speed>
<course>302.9</course>
<desc>Speed 75.2 km/h Distance 60.79 km</desc>
<time>2010-08-25T17:37:30.49</time>
<name>1285</name>
</trkpt>
<trkpt lat="49.562138" lon="9.071512">
<ele>291.0</ele>
<speed>75.2</speed>
<course>325.5</course>
<desc>Speed 75.2 km/h Distance 60.83 km</desc>
<time>2010-08-25T17:37:32.48</time>
<name>1286</name>
</trkpt>
<trkpt lat="49.562302" lon="9.071338">
<ele>294.0</ele>
<speed>75.2</speed>
<course>325.8</course>
<desc>Speed 75.2 km/h Distance 60.86 km</desc>
<time>2010-08-25T17:37:33.49</time>
<name>1287</name>
</trkpt>
<trkpt lat="49.562695" lon="9.070927">
<ele>292.0</ele>
<speed>92.3</speed>
<course>328.1</course>
<desc>Speed 92.3 km/h Distance 60.91 km</desc>
<time>2010-08-25T17:37:36.48</time>
<name>1288</name>
</trkpt>
<trkpt lat="49.563142" lon="9.070498">
<ele>296.5</ele>
<speed>87.8</speed>
<course>348.4</course>
<desc>Speed 87.8 km/h Distance 60.97 km</desc>
<time>2010-08-25T17:37:38.48</time>
<name>1289</name>
</trkpt>
<trkpt lat="49.563568" lon="9.070363">
<ele>301.0</ele>
<speed>74.7</speed>
<course>352.7</course>
<desc>Speed 74.7 km/h Distance 61.02 km</desc>
<time>2010-08-25T17:37:40.48</time>
<name>1290</name>
</trkpt>
<trkpt lat="49.563737" lon="9.070330">
<ele>302.5</ele>
<speed>74.7</speed>
<course>6.3</course>
<desc>Speed 74.7 km/h Distance 61.04 km</desc>
<time>2010-08-25T17:37:41.48</time>
<name>1291</name>
</trkpt>
<trkpt lat="49.564278" lon="9.070422">
<ele>304.0</ele>
<speed>69.9</speed>
<course>3.5</course>
<desc>Speed 69.9 km/h Distance 61.10 km</desc>
<time>2010-08-25T17:37:44.48</time>
<name>1292</name>
</trkpt>
<trkpt lat="49.564960" lon="9.070487">
<ele>314.0</ele>
<speed>64.9</speed>
<course>10.4</course>
<desc>Speed 64.9 km/h Distance 61.17 km</desc>
<time>2010-08-25T17:37:47.47</time>
<name>1293</name>
</trkpt>
<trkpt lat="49.565503" lon="9.070640">
<ele>317.0</ele>
<speed>52.7</speed>
<course>15.7</course>
<desc>Speed 52.7 km/h Distance 61.23 km</desc>
<time>2010-08-25T17:37:50.48</time>
<name>1294</name>
</trkpt>
<trkpt lat="49.565615" lon="9.070688">
<ele>317.0</ele>
<speed>52.7</speed>
<course>346.9</course>
<desc>Speed 52.7 km/h Distance 61.25 km</desc>
<time>2010-08-25T17:37:51.47</time>
<name>1295</name>
</trkpt>
<trkpt lat="49.565865" lon="9.070598">
<ele>313.5</ele>
<speed>52.7</speed>
<course>298.4</course>
<desc>Speed 52.7 km/h Distance 61.27 km</desc>
<time>2010-08-25T17:37:54.47</time>
<name>1296</name>
</trkpt>
<trkpt lat="49.565998" lon="9.070218">
<ele>302.0</ele>
<speed>52.7</speed>
<course>307.1</course>
<desc>Speed 52.7 km/h Distance 61.31 km</desc>
<time>2010-08-25T17:37:58.47</time>
<name>1297</name>
</trkpt>
<trkpt lat="49.566137" lon="9.069937">
<ele>299.0</ele>
<speed>52.7</speed>
<course>295.7</course>
<desc>Speed 52.7 km/h Distance 61.33 km</desc>
<time>2010-08-25T17:38:00.46</time>
<name>1298</name>
</trkpt>
<trkpt lat="49.566243" lon="9.069595">
<ele>297.5</ele>
<speed>52.7</speed>
<course>297.0</course>
<desc>Speed 52.7 km/h Distance 61.36 km</desc>
<time>2010-08-25T17:38:02.47</time>
<name>1299</name>
</trkpt>
<trkpt lat="49.566382" lon="9.069177">
<ele>302.5</ele>
<speed>52.7</speed>
<course>299.4</course>
<desc>Speed 52.7 km/h Distance 61.39 km</desc>
<time>2010-08-25T17:38:05.46</time>
<name>1300</name>
</trkpt>
<trkpt lat="49.566878" lon="9.067817">
<ele>303.5</ele>
<speed>52.7</speed>
<course>345.9</course>
<desc>Speed 52.7 km/h Distance 61.51 km</desc>
<time>2010-08-25T17:38:10.46</time>
<name>1301</name>
</trkpt>
<trkpt lat="49.567120" lon="9.067723">
<ele>303.0</ele>
<speed>52.7</speed>
<course>324.5</course>
<desc>Speed 52.7 km/h Distance 61.53 km</desc>
<time>2010-08-25T17:38:12.46</time>
<name>1302</name>
</trkpt>
<trkpt lat="49.568332" lon="9.066390">
<ele>306.0</ele>
<speed>69.7</speed>
<course>319.5</course>
<desc>Speed 69.7 km/h Distance 61.70 km</desc>
<time>2010-08-25T17:38:18.46</time>
<name>1303</name>
</trkpt>
<trkpt lat="49.568643" lon="9.065980">
<ele>306.0</ele>
<speed>76.6</speed>
<course>321.9</course>
<desc>Speed 76.6 km/h Distance 61.74 km</desc>
<time>2010-08-25T17:38:20.45</time>
<name>1304</name>
</trkpt>
<trkpt lat="49.568940" lon="9.065622">
<ele>306.0</ele>
<speed>69.2</speed>
<course>322.7</course>
<desc>Speed 69.2 km/h Distance 61.79 km</desc>
<time>2010-08-25T17:38:22.45</time>
<name>1305</name>
</trkpt>
<trkpt lat="49.569207" lon="9.065308">
<ele>306.0</ele>
<speed>72.9</speed>
<course>329.5</course>
<desc>Speed 72.9 km/h Distance 61.82 km</desc>
<time>2010-08-25T17:38:24.46</time>
<name>1306</name>
</trkpt>
<trkpt lat="49.569497" lon="9.065045">
<ele>306.0</ele>
<speed>72.1</speed>
<course>339.0</course>
<desc>Speed 72.1 km/h Distance 61.86 km</desc>
<time>2010-08-25T17:38:26.45</time>
<name>1307</name>
</trkpt>
<trkpt lat="49.569668" lon="9.064943">
<ele>305.5</ele>
<speed>69.3</speed>
<course>342.0</course>
<desc>Speed 69.3 km/h Distance 61.88 km</desc>
<time>2010-08-25T17:38:27.45</time>
<name>1308</name>
</trkpt>
<trkpt lat="49.569842" lon="9.064857">
<ele>305.5</ele>
<speed>70.6</speed>
<course>341.0</course>
<desc>Speed 70.6 km/h Distance 61.90 km</desc>
<time>2010-08-25T17:38:28.45</time>
<name>1309</name>
</trkpt>
<trkpt lat="49.570150" lon="9.064693">
<ele>306.5</ele>
<speed>68.5</speed>
<course>344.7</course>
<desc>Speed 68.5 km/h Distance 61.94 km</desc>
<time>2010-08-25T17:38:30.45</time>
<name>1310</name>
</trkpt>
<trkpt lat="49.570320" lon="9.064622">
<ele>306.5</ele>
<speed>68.5</speed>
<course>353.1</course>
<desc>Speed 68.5 km/h Distance 61.96 km</desc>
<time>2010-08-25T17:38:31.45</time>
<name>1311</name>
</trkpt>
<trkpt lat="49.570507" lon="9.064587">
<ele>306.5</ele>
<speed>74.6</speed>
<course>341.7</course>
<desc>Speed 74.6 km/h Distance 61.98 km</desc>
<time>2010-08-25T17:38:32.46</time>
<name>1312</name>
</trkpt>
<trkpt lat="49.570800" lon="9.064437">
<ele>307.5</ele>
<speed>64.6</speed>
<course>338.1</course>
<desc>Speed 64.6 km/h Distance 62.01 km</desc>
<time>2010-08-25T17:38:34.45</time>
<name>1313</name>
</trkpt>
<trkpt lat="49.570962" lon="9.064337">
<ele>307.5</ele>
<speed>69.2</speed>
<course>332.7</course>
<desc>Speed 69.2 km/h Distance 62.03 km</desc>
<time>2010-08-25T17:38:35.45</time>
<name>1314</name>
</trkpt>
<trkpt lat="49.571295" lon="9.064072">
<ele>308.5</ele>
<speed>69.2</speed>
<course>319.5</course>
<desc>Speed 69.2 km/h Distance 62.07 km</desc>
<time>2010-08-25T17:38:38.45</time>
<name>1315</name>
</trkpt>
<trkpt lat="49.571510" lon="9.063788">
<ele>312.5</ele>
<speed>69.2</speed>
<course>299.4</course>
<desc>Speed 69.2 km/h Distance 62.11 km</desc>
<time>2010-08-25T17:38:40.45</time>
<name>1316</name>
</trkpt>
<trkpt lat="49.571587" lon="9.063578">
<ele>314.5</ele>
<speed>69.2</speed>
<course>293.0</course>
<desc>Speed 69.2 km/h Distance 62.12 km</desc>
<time>2010-08-25T17:38:41.44</time>
<name>1317</name>
</trkpt>
<trkpt lat="49.571652" lon="9.063342">
<ele>315.0</ele>
<speed>69.2</speed>
<course>331.2</course>
<desc>Speed 69.2 km/h Distance 62.14 km</desc>
<time>2010-08-25T17:38:42.45</time>
<name>1318</name>
</trkpt>
<trkpt lat="49.571960" lon="9.063080">
<ele>322.0</ele>
<speed>69.2</speed>
<course>319.4</course>
<desc>Speed 69.2 km/h Distance 62.18 km</desc>
<time>2010-08-25T17:38:48.44</time>
<name>1319</name>
</trkpt>
<trkpt lat="49.573202" lon="9.061440">
<ele>321.0</ele>
<speed>69.2</speed>
<course>317.4</course>
<desc>Speed 69.2 km/h Distance 62.36 km</desc>
<time>2010-08-25T17:38:54.43</time>
<name>1320</name>
</trkpt>
<trkpt lat="49.573790" lon="9.060605">
<ele>319.5</ele>
<speed>69.2</speed>
<course>349.6</course>
<desc>Speed 69.2 km/h Distance 62.45 km</desc>
<time>2010-08-25T17:39:00.41</time>
<name>1321</name>
</trkpt>
<trkpt lat="49.574090" lon="9.060520">
<ele>318.5</ele>
<speed>69.2</speed>
<course>329.3</course>
<desc>Speed 69.2 km/h Distance 62.49 km</desc>
<time>2010-08-25T17:39:05.43</time>
<name>1322</name>
</trkpt>
<trkpt lat="49.574470" lon="9.060172">
<ele>318.5</ele>
<speed>69.2</speed>
<course>307.2</course>
<desc>Speed 69.2 km/h Distance 62.54 km</desc>
<time>2010-08-25T17:39:08.43</time>
<name>1323</name>
</trkpt>
<trkpt lat="49.574623" lon="9.059860">
<ele>318.0</ele>
<speed>69.2</speed>
<course>277.4</course>
<desc>Speed 69.2 km/h Distance 62.56 km</desc>
<time>2010-08-25T17:39:14.43</time>
<name>1324</name>
</trkpt>
<trkpt lat="49.574647" lon="9.059582">
<ele>318.0</ele>
<speed>69.2</speed>
<course>309.4</course>
<desc>Speed 69.2 km/h Distance 62.58 km</desc>
<time>2010-08-25T17:39:20.42</time>
<name>1325</name>
</trkpt>
<trkpt lat="49.576590" lon="9.055938">
<ele>323.0</ele>
<speed>69.2</speed>
<course>321.9</course>
<desc>Speed 69.2 km/h Distance 62.92 km</desc>
<time>2010-08-25T17:39:26.41</time>
<name>1326</name>
</trkpt>
<trkpt lat="49.577578" lon="9.054745">
<ele>324.5</ele>
<speed>69.2</speed>
<course>269.4</course>
<desc>Speed 69.2 km/h Distance 63.06 km</desc>
<time>2010-08-25T17:39:28.41</time>
<name>1327</name>
</trkpt>
<trkpt lat="49.577573" lon="9.054058">
<ele>326.0</ele>
<speed>69.2</speed>
<course>294.8</course>
<desc>Speed 69.2 km/h Distance 63.11 km</desc>
<time>2010-08-25T17:39:34.42</time>
<name>1328</name>
</trkpt>
<trkpt lat="49.578285" lon="9.051685">
<ele>326.5</ele>
<speed>69.2</speed>
<course>276.9</course>
<desc>Speed 69.2 km/h Distance 63.30 km</desc>
<time>2010-08-25T17:39:39.42</time>
<name>1329</name>
</trkpt>
<trkpt lat="49.578353" lon="9.050820">
<ele>326.5</ele>
<speed>69.2</speed>
<course>280.3</course>
<desc>Speed 69.2 km/h Distance 63.37 km</desc>
<time>2010-08-25T17:39:43.40</time>
<name>1330</name>
</trkpt>
<trkpt lat="49.578413" lon="9.050308">
<ele>326.5</ele>
<speed>69.2</speed>
<course>268.9</course>
<desc>Speed 69.2 km/h Distance 63.40 km</desc>
<time>2010-08-25T17:39:45.40</time>
<name>1331</name>
</trkpt>
<trkpt lat="49.578407" lon="9.049780">
<ele>326.5</ele>
<speed>69.2</speed>
<course>299.0</course>
<desc>Speed 69.2 km/h Distance 63.44 km</desc>
<time>2010-08-25T17:39:47.40</time>
<name>1332</name>
</trkpt>
<trkpt lat="49.579267" lon="9.047383">
<ele>326.0</ele>
<speed>69.2</speed>
<course>314.8</course>
<desc>Speed 69.2 km/h Distance 63.64 km</desc>
<time>2010-08-25T17:39:51.40</time>
<name>1333</name>
</trkpt>
<trkpt lat="49.580150" lon="9.046010">
<ele>326.0</ele>
<speed>44.4</speed>
<course>241.4</course>
<desc>Speed 44.4 km/h Distance 63.78 km</desc>
<time>2010-08-25T17:39:56.39</time>
<name>1334</name>
</trkpt>
<trkpt lat="49.579483" lon="9.044122">
<ele>326.0</ele>
<speed>44.4</speed>
<course>254.0</course>
<desc>Speed 44.4 km/h Distance 63.93 km</desc>
<time>2010-08-25T17:40:07.37</time>
<name>1335</name>
</trkpt>
<trkpt lat="49.579413" lon="9.043745">
<ele>326.5</ele>
<speed>44.4</speed>
<course>275.4</course>
<desc>Speed 44.4 km/h Distance 63.96 km</desc>
<time>2010-08-25T17:40:09.38</time>
<name>1336</name>
</trkpt>
<trkpt lat="49.579432" lon="9.043448">
<ele>326.5</ele>
<speed>44.4</speed>
<course>260.9</course>
<desc>Speed 44.4 km/h Distance 63.98 km</desc>
<time>2010-08-25T17:40:11.38</time>
<name>1337</name>
</trkpt>
<trkpt lat="49.579357" lon="9.042728">
<ele>327.0</ele>
<speed>44.4</speed>
<course>241.1</course>
<desc>Speed 44.4 km/h Distance 64.04 km</desc>
<time>2010-08-25T17:40:13.38</time>
<name>1338</name>
</trkpt>
<trkpt lat="49.579222" lon="9.042352">
<ele>327.0</ele>
<speed>44.4</speed>
<course>314.4</course>
<desc>Speed 44.4 km/h Distance 64.07 km</desc>
<time>2010-08-25T17:40:15.36</time>
<name>1339</name>
</trkpt>
<trkpt lat="49.579525" lon="9.041873">
<ele>327.0</ele>
<speed>44.4</speed>
<course>280.8</course>
<desc>Speed 44.4 km/h Distance 64.12 km</desc>
<time>2010-08-25T17:40:17.37</time>
<name>1340</name>
</trkpt>
<trkpt lat="49.579843" lon="9.039288">
<ele>328.0</ele>
<speed>44.4</speed>
<course>327.8</course>
<desc>Speed 44.4 km/h Distance 64.31 km</desc>
<time>2010-08-25T17:40:31.33</time>
<name>1341</name>
</trkpt>
<trkpt lat="49.580012" lon="9.039125">
<ele>328.0</ele>
<speed>44.4</speed>
<course>313.4</course>
<desc>Speed 44.4 km/h Distance 64.33 km</desc>
<time>2010-08-25T17:40:33.35</time>
<name>1342</name>
</trkpt>
<trkpt lat="49.580468" lon="9.038380">
<ele>328.5</ele>
<speed>44.4</speed>
<course>257.8</course>
<desc>Speed 44.4 km/h Distance 64.40 km</desc>
<time>2010-08-25T17:40:37.35</time>
<name>1343</name>
</trkpt>
<trkpt lat="49.580413" lon="9.037987">
<ele>328.5</ele>
<speed>44.4</speed>
<course>3.8</course>
<desc>Speed 44.4 km/h Distance 64.43 km</desc>
<time>2010-08-25T17:40:41.34</time>
<name>1344</name>
</trkpt>
<trkpt lat="49.580560" lon="9.038002">
<ele>328.5</ele>
<speed>44.4</speed>
<course>35.2</course>
<desc>Speed 44.4 km/h Distance 64.45 km</desc>
<time>2010-08-25T17:40:46.34</time>
<name>1345</name>
</trkpt>
<trkpt lat="49.580713" lon="9.038168">
<ele>328.5</ele>
<speed>44.4</speed>
<course>31.1</course>
<desc>Speed 44.4 km/h Distance 64.47 km</desc>
<time>2010-08-25T17:40:51.34</time>
<name>1346</name>
</trkpt>
<trkpt lat="49.580808" lon="9.038257">
<ele>328.5</ele>
<speed>44.4</speed>
<course>20.4</course>
<desc>Speed 44.4 km/h Distance 64.48 km</desc>
<time>2010-08-25T17:40:52.34</time>
<name>1347</name>
</trkpt>
<trkpt lat="49.581257" lon="9.038513">
<ele>328.5</ele>
<speed>44.4</speed>
<course>319.8</course>
<desc>Speed 44.4 km/h Distance 64.53 km</desc>
<time>2010-08-25T17:40:55.33</time>
<name>1348</name>
</trkpt>
<trkpt lat="49.582558" lon="9.036815">
<ele>328.0</ele>
<speed>44.4</speed>
<course>36.3</course>
<desc>Speed 44.4 km/h Distance 64.72 km</desc>
<time>2010-08-25T17:40:58.32</time>
<name>1349</name>
</trkpt>
<trkpt lat="49.582722" lon="9.037000">
<ele>328.0</ele>
<speed>44.4</speed>
<course>26.2</course>
<desc>Speed 44.4 km/h Distance 64.75 km</desc>
<time>2010-08-25T17:41:01.32</time>
<name>1350</name>
</trkpt>
<trkpt lat="49.582847" lon="9.037095">
<ele>328.0</ele>
<speed>44.4</speed>
<course>326.8</course>
<desc>Speed 44.4 km/h Distance 64.76 km</desc>
<time>2010-08-25T17:41:06.32</time>
<name>1351</name>
</trkpt>
<trkpt lat="49.583450" lon="9.036485">
<ele>328.0</ele>
<speed>44.4</speed>
<course>289.7</course>
<desc>Speed 44.4 km/h Distance 64.84 km</desc>
<time>2010-08-25T17:41:09.32</time>
<name>1352</name>
</trkpt>
<trkpt lat="49.583942" lon="9.034368">
<ele>328.0</ele>
<speed>44.4</speed>
<course>304.2</course>
<desc>Speed 44.4 km/h Distance 65.00 km</desc>
<time>2010-08-25T17:41:13.32</time>
<name>1353</name>
</trkpt>
<trkpt lat="49.584563" lon="9.032955">
<ele>328.5</ele>
<speed>44.4</speed>
<course>301.0</course>
<desc>Speed 44.4 km/h Distance 65.13 km</desc>
<time>2010-08-25T17:41:18.31</time>
<name>1354</name>
</trkpt>
<trkpt lat="49.584645" lon="9.032745">
<ele>328.5</ele>
<speed>44.4</speed>
<course>247.7</course>
<desc>Speed 44.4 km/h Distance 65.14 km</desc>
<time>2010-08-25T17:41:20.31</time>
<name>1355</name>
</trkpt>
<trkpt lat="49.584570" lon="9.032463">
<ele>328.5</ele>
<speed>44.4</speed>
<course>216.4</course>
<desc>Speed 44.4 km/h Distance 65.17 km</desc>
<time>2010-08-25T17:41:24.30</time>
<name>1356</name>
</trkpt>
<trkpt lat="49.584485" lon="9.032367">
<ele>329.0</ele>
<speed>44.4</speed>
<course>288.2</course>
<desc>Speed 44.4 km/h Distance 65.18 km</desc>
<time>2010-08-25T17:41:30.27</time>
<name>1357</name>
</trkpt>
<trkpt lat="49.584690" lon="9.031405">
<ele>328.5</ele>
<speed>44.4</speed>
<course>267.4</course>
<desc>Speed 44.4 km/h Distance 65.25 km</desc>
<time>2010-08-25T17:41:35.29</time>
<name>1358</name>
</trkpt>
<trkpt lat="49.584627" lon="9.029293">
<ele>329.0</ele>
<speed>61.3</speed>
<course>290.8</course>
<desc>Speed 61.3 km/h Distance 65.40 km</desc>
<time>2010-08-25T17:41:41.29</time>
<name>1359</name>
</trkpt>
<trkpt lat="49.584727" lon="9.028887">
<ele>329.5</ele>
<speed>61.3</speed>
<course>262.0</course>
<desc>Speed 61.3 km/h Distance 65.44 km</desc>
<time>2010-08-25T17:41:43.28</time>
<name>1360</name>
</trkpt>
<trkpt lat="49.584687" lon="9.028447">
<ele>329.5</ele>
<speed>62.2</speed>
<course>243.5</course>
<desc>Speed 62.2 km/h Distance 65.47 km</desc>
<time>2010-08-25T17:41:45.27</time>
<name>1361</name>
</trkpt>
<trkpt lat="49.584610" lon="9.028210">
<ele>329.5</ele>
<speed>62.2</speed>
<course>253.6</course>
<desc>Speed 62.2 km/h Distance 65.49 km</desc>
<time>2010-08-25T17:41:46.28</time>
<name>1362</name>
</trkpt>
<trkpt lat="49.584492" lon="9.027588">
<ele>329.5</ele>
<speed>62.2</speed>
<course>249.5</course>
<desc>Speed 62.2 km/h Distance 65.53 km</desc>
<time>2010-08-25T17:41:50.27</time>
<name>1363</name>
</trkpt>
<trkpt lat="49.584343" lon="9.026975">
<ele>329.5</ele>
<speed>58.2</speed>
<course>204.8</course>
<desc>Speed 58.2 km/h Distance 65.58 km</desc>
<time>2010-08-25T17:41:54.27</time>
<name>1364</name>
</trkpt>
<trkpt lat="49.582583" lon="9.025723">
<ele>330.0</ele>
<speed>66.7</speed>
<course>231.2</course>
<desc>Speed 66.7 km/h Distance 65.80 km</desc>
<time>2010-08-25T17:42:04.27</time>
<name>1365</name>
</trkpt>
<trkpt lat="49.582100" lon="9.024797">
<ele>330.0</ele>
<speed>66.7</speed>
<course>247.8</course>
<desc>Speed 66.7 km/h Distance 65.88 km</desc>
<time>2010-08-25T17:42:08.27</time>
<name>1366</name>
</trkpt>
<trkpt lat="49.581907" lon="9.024065">
<ele>330.5</ele>
<speed>66.3</speed>
<course>210.7</course>
<desc>Speed 66.3 km/h Distance 65.94 km</desc>
<time>2010-08-25T17:42:11.26</time>
<name>1367</name>
</trkpt>
<trkpt lat="49.580882" lon="9.023125">
<ele>331.0</ele>
<speed>100</speed>
<course>196.2</course>
<desc>Speed 100 km/h Distance 66.07 km</desc>
<time>2010-08-25T17:42:16.26</time>
<name>1368</name>
</trkpt>
<trkpt lat="49.578147" lon="9.021898">
<ele>336.0</ele>
<speed>75.0</speed>
<course>166.2</course>
<desc>Speed 75.0 km/h Distance 66.39 km</desc>
<time>2010-08-25T17:42:34.25</time>
<name>1369</name>
</trkpt>
<trkpt lat="49.577848" lon="9.022012">
<ele>340.5</ele>
<speed>75.0</speed>
<course>247.8</course>
<desc>Speed 75.0 km/h Distance 66.42 km</desc>
<time>2010-08-25T17:42:36.25</time>
<name>1370</name>
</trkpt>
<trkpt lat="49.575893" lon="9.014637">
<ele>342.5</ele>
<speed>61.3</speed>
<course>350.5</course>
<desc>Speed 61.3 km/h Distance 67.00 km</desc>
<time>2010-08-25T17:43:09.23</time>
<name>1371</name>
</trkpt>
<trkpt lat="49.577777" lon="9.014150">
<ele>339.5</ele>
<speed>61.3</speed>
<course>341.9</course>
<desc>Speed 61.3 km/h Distance 67.21 km</desc>
<time>2010-08-25T17:43:24.21</time>
<name>1372</name>
</trkpt>
<trkpt lat="49.578335" lon="9.013868">
<ele>338.5</ele>
<speed>61.3</speed>
<course>62.9</course>
<desc>Speed 61.3 km/h Distance 67.28 km</desc>
<time>2010-08-25T17:43:27.21</time>
<name>1373</name>
</trkpt>
<trkpt lat="49.578567" lon="9.014567">
<ele>337.5</ele>
<speed>61.3</speed>
<course>63.3</course>
<desc>Speed 61.3 km/h Distance 67.33 km</desc>
<time>2010-08-25T17:43:32.20</time>
<name>1374</name>
</trkpt>
<trkpt lat="49.579335" lon="9.016922">
<ele>340.5</ele>
<speed>61.3</speed>
<course>114.3</course>
<desc>Speed 61.3 km/h Distance 67.52 km</desc>
<time>2010-08-25T17:43:42.21</time>
<name>1375</name>
</trkpt>
<trkpt lat="49.579093" lon="9.017748">
<ele>340.5</ele>
<speed>61.3</speed>
<course>354.3</course>
<desc>Speed 61.3 km/h Distance 67.59 km</desc>
<time>2010-08-25T17:43:45.20</time>
<name>1376</name>
</trkpt>
<trkpt lat="49.579680" lon="9.017658">
<ele>341.0</ele>
<speed>76.8</speed>
<course>320.3</course>
<desc>Speed 76.8 km/h Distance 67.65 km</desc>
<time>2010-08-25T17:43:48.19</time>
<name>1377</name>
</trkpt>
<trkpt lat="49.580005" lon="9.017242">
<ele>341.5</ele>
<speed>76.8</speed>
<course>305.2</course>
<desc>Speed 76.8 km/h Distance 67.70 km</desc>
<time>2010-08-25T17:43:51.19</time>
<name>1378</name>
</trkpt>
<trkpt lat="49.580527" lon="9.016102">
<ele>341.0</ele>
<speed>76.8</speed>
<course>318.8</course>
<desc>Speed 76.8 km/h Distance 67.80 km</desc>
<time>2010-08-25T17:44:02.18</time>
<name>1379</name>
</trkpt>
<trkpt lat="49.580993" lon="9.015472">
<ele>342.0</ele>
<speed>76.8</speed>
<course>303.4</course>
<desc>Speed 76.8 km/h Distance 67.87 km</desc>
<time>2010-08-25T17:44:05.18</time>
<name>1380</name>
</trkpt>
<trkpt lat="49.581360" lon="9.014613">
<ele>341.5</ele>
<speed>76.8</speed>
<course>266.6</course>
<desc>Speed 76.8 km/h Distance 67.95 km</desc>
<time>2010-08-25T17:44:10.18</time>
<name>1381</name>
</trkpt>
<trkpt lat="49.581332" lon="9.013868">
<ele>341.5</ele>
<speed>76.8</speed>
<course>253.6</course>
<desc>Speed 76.8 km/h Distance 68.00 km</desc>
<time>2010-08-25T17:44:15.17</time>
<name>1382</name>
</trkpt>
<trkpt lat="49.581050" lon="9.012388">
<ele>341.5</ele>
<speed>76.8</speed>
<course>276.8</course>
<desc>Speed 76.8 km/h Distance 68.11 km</desc>
<time>2010-08-25T17:44:19.18</time>
<name>1383</name>
</trkpt>
<trkpt lat="49.581227" lon="9.010092">
<ele>341.5</ele>
<speed>76.8</speed>
<course>304.7</course>
<desc>Speed 76.8 km/h Distance 68.28 km</desc>
<time>2010-08-25T17:44:21.16</time>
<name>1384</name>
</trkpt>
<trkpt lat="49.582103" lon="9.008138">
<ele>342.0</ele>
<speed>76.8</speed>
<course>278.4</course>
<desc>Speed 76.8 km/h Distance 68.45 km</desc>
<time>2010-08-25T17:44:24.18</time>
<name>1385</name>
</trkpt>
<trkpt lat="49.582147" lon="9.007683">
<ele>342.0</ele>
<speed>76.8</speed>
<course>319.8</course>
<desc>Speed 76.8 km/h Distance 68.48 km</desc>
<time>2010-08-25T17:44:32.17</time>
<name>1386</name>
</trkpt>
<trkpt lat="49.582983" lon="9.006593">
<ele>342.0</ele>
<speed>76.8</speed>
<course>324.0</course>
<desc>Speed 76.8 km/h Distance 68.60 km</desc>
<time>2010-08-25T17:44:35.17</time>
<name>1387</name>
</trkpt>
<trkpt lat="49.583555" lon="9.005952">
<ele>341.5</ele>
<speed>76.8</speed>
<course>340.8</course>
<desc>Speed 76.8 km/h Distance 68.68 km</desc>
<time>2010-08-25T17:44:39.16</time>
<name>1388</name>
</trkpt>
<trkpt lat="49.584702" lon="9.005337">
<ele>341.5</ele>
<speed>43.7</speed>
<course>0.6</course>
<desc>Speed 43.7 km/h Distance 68.82 km</desc>
<time>2010-08-25T17:44:44.16</time>
<name>1389</name>
</trkpt>
<trkpt lat="49.585098" lon="9.005343">
<ele>342.0</ele>
<speed>43.7</speed>
<course>334.1</course>
<desc>Speed 43.7 km/h Distance 68.86 km</desc>
<time>2010-08-25T17:44:47.16</time>
<name>1390</name>
</trkpt>
<trkpt lat="49.585257" lon="9.005225">
<ele>342.0</ele>
<speed>43.7</speed>
<course>287.1</course>
<desc>Speed 43.7 km/h Distance 68.88 km</desc>
<time>2010-08-25T17:44:50.14</time>
<name>1391</name>
</trkpt>
<trkpt lat="49.585395" lon="9.004530">
<ele>342.0</ele>
<speed>43.7</speed>
<course>316.1</course>
<desc>Speed 43.7 km/h Distance 68.93 km</desc>
<time>2010-08-25T17:44:54.15</time>
<name>1392</name>
</trkpt>
<trkpt lat="49.585642" lon="9.004163">
<ele>342.0</ele>
<speed>43.7</speed>
<course>337.4</course>
<desc>Speed 43.7 km/h Distance 68.97 km</desc>
<time>2010-08-25T17:44:59.14</time>
<name>1393</name>
</trkpt>
<trkpt lat="49.585958" lon="9.003960">
<ele>342.0</ele>
<speed>43.7</speed>
<course>296.8</course>
<desc>Speed 43.7 km/h Distance 69.01 km</desc>
<time>2010-08-25T17:45:01.39</time>
<name>1394</name>
</trkpt>
<trkpt lat="49.586523" lon="9.002232">
<ele>342.0</ele>
<speed>43.7</speed>
<course>339.0</course>
<desc>Speed 43.7 km/h Distance 69.15 km</desc>
<time>2010-08-25T17:45:07.15</time>
<name>1395</name>
</trkpt>
<trkpt lat="49.586687" lon="9.002135">
<ele>342.0</ele>
<speed>43.7</speed>
<course>285.4</course>
<desc>Speed 43.7 km/h Distance 69.17 km</desc>
<time>2010-08-25T17:45:09.15</time>
<name>1396</name>
</trkpt>
<trkpt lat="49.587108" lon="8.999768">
<ele>342.0</ele>
<speed>52.5</speed>
<course>320.7</course>
<desc>Speed 52.5 km/h Distance 69.35 km</desc>
<time>2010-08-25T17:45:12.14</time>
<name>1397</name>
</trkpt>
<trkpt lat="49.587835" lon="8.998852">
<ele>348.5</ele>
<speed>51.8</speed>
<course>249.4</course>
<desc>Speed 51.8 km/h Distance 69.45 km</desc>
<time>2010-08-25T17:45:17.14</time>
<name>1398</name>
</trkpt>
<trkpt lat="49.587755" lon="8.998523">
<ele>352.5</ele>
<speed>51.8</speed>
<course>174.4</course>
<desc>Speed 51.8 km/h Distance 69.48 km</desc>
<time>2010-08-25T17:45:23.14</time>
<name>1399</name>
</trkpt>
<trkpt lat="49.586200" lon="8.998758">
<ele>352.0</ele>
<speed>91.3</speed>
<course>158.2</course>
<desc>Speed 91.3 km/h Distance 69.65 km</desc>
<time>2010-08-25T17:45:29.13</time>
<name>1400</name>
</trkpt>
<trkpt lat="49.585735" lon="8.999045">
<ele>351.5</ele>
<speed>96.8</speed>
<course>154.9</course>
<desc>Speed 96.8 km/h Distance 69.71 km</desc>
<time>2010-08-25T17:45:31.14</time>
<name>1401</name>
</trkpt>
<trkpt lat="49.585530" lon="8.999193">
<ele>352.0</ele>
<speed>90.3</speed>
<course>153.8</course>
<desc>Speed 90.3 km/h Distance 69.73 km</desc>
<time>2010-08-25T17:45:32.13</time>
<name>1402</name>
</trkpt>
<trkpt lat="49.585330" lon="8.999345">
<ele>351.0</ele>
<speed>86.4</speed>
<course>148.5</course>
<desc>Speed 86.4 km/h Distance 69.76 km</desc>
<time>2010-08-25T17:45:33.14</time>
<name>1403</name>
</trkpt>
<trkpt lat="49.585147" lon="8.999518">
<ele>351.0</ele>
<speed>84.5</speed>
<course>140.3</course>
<desc>Speed 84.5 km/h Distance 69.78 km</desc>
<time>2010-08-25T17:45:34.13</time>
<name>1404</name>
</trkpt>
<trkpt lat="49.584602" lon="9.000215">
<ele>356.0</ele>
<speed>50.9</speed>
<course>117.0</course>
<desc>Speed 50.9 km/h Distance 69.86 km</desc>
<time>2010-08-25T17:45:39.13</time>
<name>1405</name>
</trkpt>
<trkpt lat="49.584552" lon="9.000367">
<ele>356.5</ele>
<speed>43.9</speed>
<course>125.0</course>
<desc>Speed 43.9 km/h Distance 69.87 km</desc>
<time>2010-08-25T17:45:40.13</time>
<name>1406</name>
</trkpt>
<trkpt lat="49.584455" lon="9.000580">
<ele>357.0</ele>
<speed>33.1</speed>
<course>153.5</course>
<desc>Speed 33.1 km/h Distance 69.89 km</desc>
<time>2010-08-25T17:45:42.11</time>
<name>1407</name>
</trkpt>
<trkpt lat="49.584368" lon="9.000647">
<ele>358.5</ele>
<speed>35.0</speed>
<course>171.5</course>
<desc>Speed 35.0 km/h Distance 69.90 km</desc>
<time>2010-08-25T17:45:43.12</time>
<name>1408</name>
</trkpt>
<trkpt lat="49.584282" lon="9.000667">
<ele>360.0</ele>
<speed>32.5</speed>
<course>192.7</course>
<desc>Speed 32.5 km/h Distance 69.91 km</desc>
<time>2010-08-25T17:45:44.12</time>
<name>1409</name>
</trkpt>
<trkpt lat="49.584108" lon="9.000607">
<ele>362.5</ele>
<speed>27.5</speed>
<course>236.7</course>
<desc>Speed 27.5 km/h Distance 69.93 km</desc>
<time>2010-08-25T17:45:46.13</time>
<name>1410</name>
</trkpt>
<trkpt lat="49.584032" lon="9.000427">
<ele>363.0</ele>
<speed>19.0</speed>
<course>228.6</course>
<desc>Speed 19.0 km/h Distance 69.95 km</desc>
<time>2010-08-25T17:45:48.12</time>
<name>1411</name>
</trkpt>
<trkpt lat="49.583992" lon="9.000357">
<ele>363.5</ele>
<speed>22.6</speed>
<course>194.7</course>
<desc>Speed 22.6 km/h Distance 69.95 km</desc>
<time>2010-08-25T17:45:49.12</time>
<name>1412</name>
</trkpt>
<trkpt lat="49.583938" lon="9.000335">
<ele>365.0</ele>
<speed>16.7</speed>
<course>149.1</course>
<desc>Speed 16.7 km/h Distance 69.96 km</desc>
<time>2010-08-25T17:45:50.12</time>
<name>1413</name>
</trkpt>
<trkpt lat="49.583917" lon="9.000355">
<ele>365.5</ele>
<speed>9.7</speed>
<course>152.6</course>
<desc>Speed 9.7 km/h Distance 69.96 km</desc>
<time>2010-08-25T17:45:51.12</time>
<name>1414</name>
</trkpt>
<trkpt lat="49.583883" lon="9.000382">
<ele>366.5</ele>
<speed>9.7</speed>
<course>226.1</course>
<desc>Speed 9.7 km/h Distance 69.97 km</desc>
<time>2010-08-25T17:45:52.12</time>
<name>1415</name>
</trkpt>
<trkpt lat="49.583867" lon="9.000355">
<ele>367.0</ele>
<speed>9.9</speed>
<course>97.3</course>
<desc>Speed 9.9 km/h Distance 69.97 km</desc>
<time>2010-08-25T17:45:53.12</time>
<name>1416</name>
</trkpt>
<trkpt lat="49.583863" lon="9.000395">
<ele>368.0</ele>
<speed>7.0</speed>
<course>120.0</course>
<desc>Speed 7.0 km/h Distance 69.97 km</desc>
<time>2010-08-25T17:45:55.12</time>
<name>1417</name>
</trkpt>
<trkpt lat="49.583858" lon="9.000408">
<ele>368.0</ele>
<speed>5.6</speed>
<course>252.9</course>
<desc>Speed 5.6 km/h Distance 69.97 km</desc>
<time>2010-08-25T17:45:56.12</time>
<name>1418</name>
</trkpt>
<trkpt lat="49.583857" lon="9.000400">
<ele>369.0</ele>
<speed>2.7</speed>
<course>107.2</course>
<desc>Speed 2.7 km/h Distance 69.97 km</desc>
<time>2010-08-25T17:45:57.12</time>
<name>1419</name>
</trkpt>
<trkpt lat="49.583852" lon="9.000425">
<ele>368.0</ele>
<speed>0.4</speed>
<course>106.1</course>
<desc>Speed 0.4 km/h Distance 69.97 km</desc>
<time>2010-08-25T17:45:58.12</time>
<name>1420</name>
</trkpt>
<trkpt lat="49.583847" lon="9.000452">
<ele>367.0</ele>
<speed>0.4</speed>
<course>121.4</course>
<desc>Speed 0.4 km/h Distance 69.98 km</desc>
<time>2010-08-25T17:45:59.12</time>
<name>1421</name>
</trkpt>
<trkpt lat="49.583843" lon="9.000460">
<ele>367.0</ele>
<speed>1.0</speed>
<course>135.5</course>
<desc>Speed 1.0 km/h Distance 69.98 km</desc>
<time>2010-08-25T17:46:00.12</time>
<name>1422</name>
</trkpt>
<trkpt lat="49.583840" lon="9.000465">
<ele>366.5</ele>
<speed>0.1</speed>
<course>90.0</course>
<desc>Speed 0.1 km/h Distance 69.98 km</desc>
<time>2010-08-25T17:46:01.11</time>
<name>1423</name>
</trkpt>
<trkpt lat="49.583840" lon="9.000468">
<ele>367.0</ele>
<speed>0.5</speed>
<course>90.0</course>
<desc>Speed 0.5 km/h Distance 69.98 km</desc>
<time>2010-08-25T17:46:02.11</time>
<name>1424</name>
</trkpt>
<trkpt lat="49.583840" lon="9.000477">
<ele>367.5</ele>
<speed>0.5</speed>
<course>90.0</course>
<desc>Speed 0.5 km/h Distance 69.98 km</desc>
<time>2010-08-25T17:46:03.11</time>
<name>1425</name>
</trkpt>
<trkpt lat="49.583840" lon="9.000478">
<ele>367.5</ele>
<speed>0.3</speed>
<course>128.1</course>
<desc>Speed 0.3 km/h Distance 69.98 km</desc>
<time>2010-08-25T17:46:04.11</time>
<name>1426</name>
</trkpt>
<trkpt lat="49.583838" lon="9.000482">
<ele>368.0</ele>
<speed>0.4</speed>
<course>90.0</course>
<desc>Speed 0.4 km/h Distance 69.98 km</desc>
<time>2010-08-25T17:46:05.11</time>
<name>1427</name>
</trkpt>
<trkpt lat="49.583838" lon="9.000490">
<ele>368.5</ele>
<speed>0.9</speed>
<course>90.0</course>
<desc>Speed 0.9 km/h Distance 69.98 km</desc>
<time>2010-08-25T17:46:06.11</time>
<name>1428</name>
</trkpt>
<trkpt lat="49.583838" lon="9.000500">
<ele>369.5</ele>
<speed>0.9</speed>
<course>115.9</course>
<desc>Speed 0.9 km/h Distance 69.98 km</desc>
<time>2010-08-25T17:46:07.11</time>
<name>1429</name>
</trkpt>
<trkpt lat="49.583837" lon="9.000505">
<ele>370.5</ele>
<speed>1.0</speed>
<course>146.8</course>
<desc>Speed 1.0 km/h Distance 69.98 km</desc>
<time>2010-08-25T17:46:08.11</time>
<name>1430</name>
</trkpt>
<trkpt lat="49.583832" lon="9.000510">
<ele>371.5</ele>
<speed>0.0</speed>
<course>72.8</course>
<desc>Speed 0.0 km/h Distance 69.98 km</desc>
<time>2010-08-25T17:46:09.11</time>
<name>1431</name>
</trkpt>
<trkpt lat="49.583835" lon="9.000527">
<ele>371.5</ele>
<speed>5.8</speed>
<course>82.0</course>
<desc>Speed 5.8 km/h Distance 69.98 km</desc>
<time>2010-08-25T17:46:10.11</time>
<name>1432</name>
</trkpt>
<trkpt lat="49.583837" lon="9.000545">
<ele>372.5</ele>
<speed>3.3</speed>
<course>108.3</course>
<desc>Speed 3.3 km/h Distance 69.98 km</desc>
<time>2010-08-25T17:46:11.11</time>
<name>1433</name>
</trkpt>
<trkpt lat="49.583832" lon="9.000568">
<ele>373.0</ele>
<speed>3.7</speed>
<course>156.7</course>
<desc>Speed 3.7 km/h Distance 69.99 km</desc>
<time>2010-08-25T17:46:12.11</time>
<name>1434</name>
</trkpt>
<trkpt lat="49.583817" lon="9.000578">
<ele>373.5</ele>
<speed>6.6</speed>
<course>174.2</course>
<desc>Speed 6.6 km/h Distance 69.99 km</desc>
<time>2010-08-25T17:46:13.10</time>
<name>1435</name>
</trkpt>
<trkpt lat="49.583785" lon="9.000583">
<ele>373.5</ele>
<speed>9.8</speed>
<course>163.4</course>
<desc>Speed 9.8 km/h Distance 69.99 km</desc>
<time>2010-08-25T17:46:14.11</time>
<name>1436</name>
</trkpt>
<trkpt lat="49.583767" lon="9.000592">
<ele>373.5</ele>
<speed>9.8</speed>
<course>151.0</course>
<desc>Speed 9.8 km/h Distance 69.99 km</desc>
<time>2010-08-25T17:46:15.11</time>
<name>1437</name>
</trkpt>
<trkpt lat="49.583755" lon="9.000602">
<ele>373.5</ele>
<speed>9.8</speed>
<course>90.0</course>
<desc>Speed 9.8 km/h Distance 70.00 km</desc>
<time>2010-08-25T17:46:16.11</time>
<name>1438</name>
</trkpt>
<trkpt lat="49.583755" lon="9.000642">
<ele>374.0</ele>
<speed>4.5</speed>
<course>122.0</course>
<desc>Speed 4.5 km/h Distance 70.00 km</desc>
<time>2010-08-25T17:46:17.11</time>
<name>1439</name>
</trkpt>
<trkpt lat="49.583730" lon="9.000703">
<ele>374.5</ele>
<speed>5.7</speed>
<course>127.6</course>
<desc>Speed 5.7 km/h Distance 70.00 km</desc>
<time>2010-08-25T17:46:19.10</time>
<name>1440</name>
</trkpt>
<trkpt lat="49.583722" lon="9.000720">
<ele>375.0</ele>
<speed>5.6</speed>
<course>108.9</course>
<desc>Speed 5.6 km/h Distance 70.00 km</desc>
<time>2010-08-25T17:46:20.10</time>
<name>1441</name>
</trkpt>
<trkpt lat="49.583715" lon="9.000750">
<ele>375.0</ele>
<speed>6.9</speed>
<course>52.4</course>
<desc>Speed 6.9 km/h Distance 70.01 km</desc>
<time>2010-08-25T17:46:21.10</time>
<name>1442</name>
</trkpt>
<trkpt lat="49.583720" lon="9.000760">
<ele>375.5</ele>
<speed>2.5</speed>
<course>90.0</course>
<desc>Speed 2.5 km/h Distance 70.01 km</desc>
<time>2010-08-25T17:46:22.10</time>
<name>1443</name>
</trkpt>
<trkpt lat="49.583720" lon="9.000782">
<ele>376.0</ele>
<speed>9.3</speed>
<course>112.3</course>
<desc>Speed 9.3 km/h Distance 70.01 km</desc>
<time>2010-08-25T17:46:23.11</time>
<name>1444</name>
</trkpt>
<trkpt lat="49.583713" lon="9.000807">
<ele>376.0</ele>
<speed>5.3</speed>
<course>139.7</course>
<desc>Speed 5.3 km/h Distance 70.01 km</desc>
<time>2010-08-25T17:46:24.10</time>
<name>1445</name>
</trkpt>
<trkpt lat="49.583708" lon="9.000813">
<ele>376.0</ele>
<speed>5.3</speed>
<course>27.0</course>
<desc>Speed 5.3 km/h Distance 70.01 km</desc>
<time>2010-08-25T17:46:25.10</time>
<name>1446</name>
</trkpt>
<trkpt lat="49.583717" lon="9.000820">
<ele>376.0</ele>
<speed>2.8</speed>
<course>52.4</course>
<desc>Speed 2.8 km/h Distance 70.01 km</desc>
<time>2010-08-25T17:46:26.10</time>
<name>1447</name>
</trkpt>
<trkpt lat="49.583723" lon="9.000833">
<ele>376.0</ele>
<speed>5.4</speed>
<course>40.9</course>
<desc>Speed 5.4 km/h Distance 70.01 km</desc>
<time>2010-08-25T17:46:27.10</time>
<name>1448</name>
</trkpt>
<trkpt lat="49.583728" lon="9.000840">
<ele>376.0</ele>
<speed>3.0</speed>
<course>18.8</course>
<desc>Speed 3.0 km/h Distance 70.02 km</desc>
<time>2010-08-25T17:46:28.10</time>
<name>1449</name>
</trkpt>
<trkpt lat="49.583732" lon="9.000842">
<ele>376.0</ele>
<speed>3.0</speed>
<course>51.9</course>
<desc>Speed 3.0 km/h Distance 70.02 km</desc>
<time>2010-08-25T17:46:29.10</time>
<name>1450</name>
</trkpt>
<trkpt lat="49.583733" lon="9.000845">
<ele>376.0</ele>
<speed>3.0</speed>
<course>53.9</course>
<desc>Speed 3.0 km/h Distance 70.02 km</desc>
<time>2010-08-25T17:46:30.10</time>
<name>1451</name>
</trkpt>
<trkpt lat="49.583735" lon="9.000848">
<ele>376.0</ele>
<speed>2.8</speed>
<course>53.9</course>
<desc>Speed 2.8 km/h Distance 70.02 km</desc>
<time>2010-08-25T17:46:31.09</time>
<name>1452</name>
</trkpt>
<trkpt lat="49.583737" lon="9.000852">
<ele>376.0</ele>
<speed>2.8</speed>
<course>62.6</course>
<desc>Speed 2.8 km/h Distance 70.02 km</desc>
<time>2010-08-25T17:46:32.09</time>
<name>1453</name>
</trkpt>
<trkpt lat="49.583738" lon="9.000857">
<ele>376.0</ele>
<speed>2.8</speed>
<course>238.2</course>
<desc>Speed 2.8 km/h Distance 70.02 km</desc>
<time>2010-08-25T17:46:33.09</time>
<name>1454</name>
</trkpt>
<trkpt lat="49.583732" lon="9.000840">
<ele>376.0</ele>
<speed>0.3</speed>
<course>223.3</course>
<desc>Speed 0.3 km/h Distance 70.02 km</desc>
<time>2010-08-25T17:46:34.09</time>
<name>1455</name>
</trkpt>
<trkpt lat="49.583662" lon="9.000738">
<ele>375.5</ele>
<speed>1.4</speed>
<course>244.1</course>
<desc>Speed 1.4 km/h Distance 70.03 km</desc>
<time>2010-08-25T17:46:37.09</time>
<name>1456</name>
</trkpt>
<trkpt lat="49.583660" lon="9.000733">
<ele>375.5</ele>
<speed>0.4</speed>
<course>224.7</course>
<desc>Speed 0.4 km/h Distance 70.03 km</desc>
<time>2010-08-25T17:46:38.09</time>
<name>1457</name>
</trkpt>
<trkpt lat="49.583625" lon="9.000680">
<ele>375.0</ele>
<speed>1.5</speed>
<course>270.0</course>
<desc>Speed 1.5 km/h Distance 70.03 km</desc>
<time>2010-08-25T17:46:40.09</time>
<name>1458</name>
</trkpt>
<trkpt lat="49.583625" lon="9.000677">
<ele>375.0</ele>
<speed>1.5</speed>
<course>220.9</course>
<desc>Speed 1.5 km/h Distance 70.04 km</desc>
<time>2010-08-25T17:46:41.09</time>
<name>1459</name>
</trkpt>
<trkpt lat="49.583615" lon="9.000663">
<ele>375.0</ele>
<speed>3.7</speed>
<course>51.9</course>
<desc>Speed 3.7 km/h Distance 70.04 km</desc>
<time>2010-08-25T17:46:43.09</time>
<name>1460</name>
</trkpt>
<trkpt lat="49.583618" lon="9.000670">
<ele>375.0</ele>
<speed>1.6</speed>
<course>192.6</course>
<desc>Speed 1.6 km/h Distance 70.04 km</desc>
<time>2010-08-25T17:46:44.09</time>
<name>1461</name>
</trkpt>
<trkpt lat="49.583617" lon="9.000668">
<ele>375.0</ele>
<speed>1.6</speed>
<course>90.0</course>
<desc>Speed 1.6 km/h Distance 70.04 km</desc>
<time>2010-08-25T17:46:45.08</time>
<name>1462</name>
</trkpt>
<trkpt lat="49.583617" lon="9.000672">
<ele>375.0</ele>
<speed>1.3</speed>
<course>184.7</course>
<desc>Speed 1.3 km/h Distance 70.04 km</desc>
<time>2010-08-25T17:46:46.08</time>
<name>1463</name>
</trkpt>
<trkpt lat="49.583605" lon="9.000670">
<ele>375.0</ele>
<speed>5.3</speed>
<course>90.0</course>
<desc>Speed 5.3 km/h Distance 70.04 km</desc>
<time>2010-08-25T17:46:47.09</time>
<name>1464</name>
</trkpt>
<trkpt lat="49.583605" lon="9.000683">
<ele>374.5</ele>
<speed>8.6</speed>
<course>72.9</course>
<desc>Speed 8.6 km/h Distance 70.04 km</desc>
<time>2010-08-25T17:46:48.09</time>
<name>1465</name>
</trkpt>
<trkpt lat="49.583608" lon="9.000700">
<ele>374.5</ele>
<speed>8.6</speed>
<course>65.1</course>
<desc>Speed 8.6 km/h Distance 70.04 km</desc>
<time>2010-08-25T17:46:49.08</time>
<name>1466</name>
</trkpt>
<trkpt lat="49.583613" lon="9.000717">
<ele>374.5</ele>
<speed>8.6</speed>
<course>223.5</course>
<desc>Speed 8.6 km/h Distance 70.04 km</desc>
<time>2010-08-25T17:46:50.08</time>
<name>1467</name>
</trkpt>
<trkpt lat="49.583592" lon="9.000685">
<ele>374.5</ele>
<speed>3.7</speed>
<course>235.0</course>
<desc>Speed 3.7 km/h Distance 70.05 km</desc>
<time>2010-08-25T17:46:51.08</time>
<name>1468</name>
</trkpt>
<trkpt lat="49.583583" lon="9.000667">
<ele>374.5</ele>
<speed>2.3</speed>
<course>235.0</course>
<desc>Speed 2.3 km/h Distance 70.05 km</desc>
<time>2010-08-25T17:46:52.08</time>
<name>1469</name>
</trkpt>
<trkpt lat="49.583583" lon="9.000667">
<ele>374.5</ele>
<speed>2.1</speed>
<course>270.0</course>
<desc>Speed 2.1 km/h Distance 70.05 km</desc>
<time>2010-08-25T17:46:53.08</time>
<name>1470</name>
</trkpt>
<trkpt lat="49.583583" lon="9.000663">
<ele>374.5</ele>
<speed>0.5</speed>
<course>248.9</course>
<desc>Speed 0.5 km/h Distance 70.05 km</desc>
<time>2010-08-25T17:46:54.09</time>
<name>1471</name>
</trkpt>
<trkpt lat="49.583578" lon="9.000643">
<ele>374.5</ele>
<speed>2.0</speed>
<course>12.6</course>
<desc>Speed 2.0 km/h Distance 70.05 km</desc>
<time>2010-08-25T17:46:55.08</time>
<name>1472</name>
</trkpt>
<trkpt lat="49.583582" lon="9.000645">
<ele>374.5</ele>
<speed>2.0</speed>
<course>51.9</course>
<desc>Speed 2.0 km/h Distance 70.05 km</desc>
<time>2010-08-25T17:46:56.08</time>
<name>1473</name>
</trkpt>
<trkpt lat="49.583583" lon="9.000648">
<ele>374.5</ele>
<speed>2.0</speed>
<course>330.8</course>
<desc>Speed 2.0 km/h Distance 70.05 km</desc>
<time>2010-08-25T17:46:57.08</time>
<name>1474</name>
</trkpt>
<trkpt lat="49.583585" lon="9.000647">
<ele>374.5</ele>
<speed>2.0</speed>
<course>52.4</course>
<desc>Speed 2.0 km/h Distance 70.05 km</desc>
<time>2010-08-25T17:46:58.07</time>
<name>1475</name>
</trkpt>
<trkpt lat="49.583592" lon="9.000660">
<ele>374.5</ele>
<speed>3.2</speed>
<course>192.6</course>
<desc>Speed 3.2 km/h Distance 70.05 km</desc>
<time>2010-08-25T17:46:59.08</time>
<name>1476</name>
</trkpt>
<trkpt lat="49.583587" lon="9.000658">
<ele>374.5</ele>
<speed>3.2</speed>
<course>90.0</course>
<desc>Speed 3.2 km/h Distance 70.05 km</desc>
<time>2010-08-25T17:47:00.07</time>
<name>1477</name>
</trkpt>
<trkpt lat="49.583587" lon="9.000660">
<ele>374.5</ele>
<speed>3.2</speed>
<course>57.4</course>
<desc>Speed 3.2 km/h Distance 70.05 km</desc>
<time>2010-08-25T17:47:01.08</time>
<name>1478</name>
</trkpt>
<trkpt lat="49.583607" lon="9.000708">
<ele>374.5</ele>
<speed>2.9</speed>
<course>42.5</course>
<desc>Speed 2.9 km/h Distance 70.06 km</desc>
<time>2010-08-25T17:47:03.07</time>
<name>1479</name>
</trkpt>
<trkpt lat="49.583610" lon="9.000713">
<ele>374.5</ele>
<speed>2.9</speed>
<course>51.9</course>
<desc>Speed 2.9 km/h Distance 70.06 km</desc>
<time>2010-08-25T17:47:04.07</time>
<name>1480</name>
</trkpt>
<trkpt lat="49.583613" lon="9.000720">
<ele>375.0</ele>
<speed>2.9</speed>
<course>308.1</course>
<desc>Speed 2.9 km/h Distance 70.06 km</desc>
<time>2010-08-25T17:47:05.07</time>
<name>1481</name>
</trkpt>
<trkpt lat="49.583615" lon="9.000717">
<ele>374.5</ele>
<speed>0.6</speed>
<course>246.4</course>
<desc>Speed 0.6 km/h Distance 70.06 km</desc>
<time>2010-08-25T17:47:06.08</time>
<name>1482</name>
</trkpt>
<trkpt lat="49.583593" lon="9.000640">
<ele>375.0</ele>
<speed>2.8</speed>
<course>270.0</course>
<desc>Speed 2.8 km/h Distance 70.06 km</desc>
<time>2010-08-25T17:47:08.07</time>
<name>1483</name>
</trkpt>
<trkpt lat="49.583593" lon="9.000630">
<ele>375.0</ele>
<speed>2.8</speed>
<course>270.0</course>
<desc>Speed 2.8 km/h Distance 70.06 km</desc>
<time>2010-08-25T17:47:09.08</time>
<name>1484</name>
</trkpt>
<trkpt lat="49.583593" lon="9.000623">
<ele>375.0</ele>
<speed>1.2</speed>
<course>12.6</course>
<desc>Speed 1.2 km/h Distance 70.06 km</desc>
<time>2010-08-25T17:47:10.07</time>
<name>1485</name>
</trkpt>
<trkpt lat="49.583598" lon="9.000625">
<ele>375.0</ele>
<speed>2.2</speed>
<course>12.6</course>
<desc>Speed 2.2 km/h Distance 70.07 km</desc>
<time>2010-08-25T17:47:11.07</time>
<name>1486</name>
</trkpt>
<trkpt lat="49.583603" lon="9.000627">
<ele>375.0</ele>
<speed>2.2</speed>
<course>0.0</course>
<desc>Speed 2.2 km/h Distance 70.07 km</desc>
<time>2010-08-25T17:47:12.07</time>
<name>1487</name>
</trkpt>
<trkpt lat="49.583607" lon="9.000627">
<ele>375.0</ele>
<speed>2.2</speed>
<course>248.8</course>
<desc>Speed 2.2 km/h Distance 70.07 km</desc>
<time>2010-08-25T17:47:13.07</time>
<name>1488</name>
</trkpt>
<trkpt lat="49.583603" lon="9.000613">
<ele>375.0</ele>
<speed>3.2</speed>
<course>242.8</course>
<desc>Speed 3.2 km/h Distance 70.07 km</desc>
<time>2010-08-25T17:47:14.07</time>
<name>1489</name>
</trkpt>
<trkpt lat="49.583592" lon="9.000578">
<ele>375.0</ele>
<speed>5.5</speed>
<course>227.8</course>
<desc>Speed 5.5 km/h Distance 70.07 km</desc>
<time>2010-08-25T17:47:15.07</time>
<name>1490</name>
</trkpt>
<trkpt lat="49.583558" lon="9.000522">
<ele>374.5</ele>
<speed>5.5</speed>
<course>227.1</course>
<desc>Speed 5.5 km/h Distance 70.08 km</desc>
<time>2010-08-25T17:47:17.07</time>
<name>1491</name>
</trkpt>
<trkpt lat="49.583553" lon="9.000513">
<ele>374.5</ele>
<speed>2.1</speed>
<course>239.3</course>
<desc>Speed 2.1 km/h Distance 70.08 km</desc>
<time>2010-08-25T17:47:18.07</time>
<name>1492</name>
</trkpt>
<trkpt lat="49.583545" lon="9.000492">
<ele>374.5</ele>
<speed>2.7</speed>
<course>232.4</course>
<desc>Speed 2.7 km/h Distance 70.08 km</desc>
<time>2010-08-25T17:47:19.07</time>
<name>1493</name>
</trkpt>
<trkpt lat="49.583537" lon="9.000475">
<ele>374.5</ele>
<speed>2.7</speed>
<course>232.4</course>
<desc>Speed 2.7 km/h Distance 70.08 km</desc>
<time>2010-08-25T17:47:20.07</time>
<name>1494</name>
</trkpt>
<trkpt lat="49.583532" lon="9.000465">
<ele>374.5</ele>
<speed>2.7</speed>
<course>55.0</course>
<desc>Speed 2.7 km/h Distance 70.08 km</desc>
<time>2010-08-25T17:47:21.07</time>
<name>1495</name>
</trkpt>
<trkpt lat="49.583540" lon="9.000483">
<ele>374.5</ele>
<speed>6.4</speed>
<course>44.5</course>
<desc>Speed 6.4 km/h Distance 70.08 km</desc>
<time>2010-08-25T17:47:22.07</time>
<name>1496</name>
</trkpt>
<trkpt lat="49.583543" lon="9.000488">
<ele>374.5</ele>
<speed>1.8</speed>
<course>62.6</course>
<desc>Speed 1.8 km/h Distance 70.08 km</desc>
<time>2010-08-25T17:47:23.07</time>
<name>1497</name>
</trkpt>
<trkpt lat="49.583545" lon="9.000493">
<ele>374.5</ele>
<speed>1.8</speed>
<course>62.6</course>
<desc>Speed 1.8 km/h Distance 70.08 km</desc>
<time>2010-08-25T17:47:24.06</time>
<name>1498</name>
</trkpt>
<trkpt lat="49.583547" lon="9.000498">
<ele>374.5</ele>
<speed>1.8</speed>
<course>207.0</course>
<desc>Speed 1.8 km/h Distance 70.08 km</desc>
<time>2010-08-25T17:47:25.06</time>
<name>1499</name>
</trkpt>
<trkpt lat="49.583538" lon="9.000492">
<ele>374.5</ele>
<speed>1.8</speed>
<course>142.1</course>
<desc>Speed 1.8 km/h Distance 70.08 km</desc>
<time>2010-08-25T17:47:26.06</time>
<name>1500</name>
</trkpt>
<trkpt lat="49.583530" lon="9.000502">
<ele>374.5</ele>
<speed>2.0</speed>
<course>123.6</course>
<desc>Speed 2.0 km/h Distance 70.09 km</desc>
<time>2010-08-25T17:47:27.07</time>
<name>1501</name>
</trkpt>
<trkpt lat="49.583525" lon="9.000513">
<ele>374.5</ele>
<speed>1.9</speed>
<course>132.9</course>
<desc>Speed 1.9 km/h Distance 70.09 km</desc>
<time>2010-08-25T17:47:28.06</time>
<name>1502</name>
</trkpt>
<trkpt lat="49.583520" lon="9.000522">
<ele>374.5</ele>
<speed>1.9</speed>
<course>52.4</course>
<desc>Speed 1.9 km/h Distance 70.09 km</desc>
<time>2010-08-25T17:47:29.06</time>
<name>1503</name>
</trkpt>
<trkpt lat="49.583533" lon="9.000548">
<ele>375.0</ele>
<speed>3.0</speed>
<course>62.6</course>
<desc>Speed 3.0 km/h Distance 70.09 km</desc>
<time>2010-08-25T17:47:30.07</time>
<name>1504</name>
</trkpt>
<trkpt lat="49.583535" lon="9.000553">
<ele>375.0</ele>
<speed>2.2</speed>
<course>345.1</course>
<desc>Speed 2.2 km/h Distance 70.09 km</desc>
<time>2010-08-25T17:47:31.07</time>
<name>1505</name>
</trkpt>
<trkpt lat="49.583543" lon="9.000550">
<ele>375.0</ele>
<speed>3.5</speed>
<course>0.0</course>
<desc>Speed 3.5 km/h Distance 70.09 km</desc>
<time>2010-08-25T17:47:32.07</time>
<name>1506</name>
</trkpt>
<trkpt lat="49.583547" lon="9.000550">
<ele>375.5</ele>
<speed>1.5</speed>
<course>43.1</course>
<desc>Speed 1.5 km/h Distance 70.09 km</desc>
<time>2010-08-25T17:47:33.06</time>
<name>1507</name>
</trkpt>
<trkpt lat="49.583607" lon="9.000637">
<ele>377.0</ele>
<speed>5.1</speed>
<course>297.2</course>
<desc>Speed 5.1 km/h Distance 70.10 km</desc>
<time>2010-08-25T17:47:36.06</time>
<name>1508</name>
</trkpt>
<trkpt lat="49.583612" lon="9.000622">
<ele>377.5</ele>
<speed>4.1</speed>
<course>342.2</course>
<desc>Speed 4.1 km/h Distance 70.10 km</desc>
<time>2010-08-25T17:47:37.06</time>
<name>1509</name>
</trkpt>
<trkpt lat="49.583625" lon="9.000615">
<ele>376.0</ele>
<speed>4.1</speed>
<course>41.5</course>
<desc>Speed 4.1 km/h Distance 70.10 km</desc>
<time>2010-08-25T17:47:38.06</time>
<name>1510</name>
</trkpt>
<trkpt lat="49.583643" lon="9.000640">
<ele>378.0</ele>
<speed>6.2</speed>
<course>28.5</course>
<desc>Speed 6.2 km/h Distance 70.11 km</desc>
<time>2010-08-25T17:47:39.06</time>
<name>1511</name>
</trkpt>
<trkpt lat="49.583663" lon="9.000657">
<ele>376.5</ele>
<speed>6.2</speed>
<course>20.1</course>
<desc>Speed 6.2 km/h Distance 70.11 km</desc>
<time>2010-08-25T17:47:40.06</time>
<name>1512</name>
</trkpt>
<trkpt lat="49.583678" lon="9.000665">
<ele>377.0</ele>
<speed>6.2</speed>
<course>60.7</course>
<desc>Speed 6.2 km/h Distance 70.11 km</desc>
<time>2010-08-25T17:47:41.06</time>
<name>1513</name>
</trkpt>
<trkpt lat="49.583685" lon="9.000683">
<ele>378.0</ele>
<speed>6.2</speed>
<course>21.5</course>
<desc>Speed 6.2 km/h Distance 70.11 km</desc>
<time>2010-08-25T17:47:42.06</time>
<name>1514</name>
</trkpt>
<trkpt lat="49.583693" lon="9.000688">
<ele>379.0</ele>
<speed>6.2</speed>
<course>47.1</course>
<desc>Speed 6.2 km/h Distance 70.11 km</desc>
<time>2010-08-25T17:47:43.07</time>
<name>1515</name>
</trkpt>
<trkpt lat="49.583698" lon="9.000697">
<ele>380.5</ele>
<speed>2.3</speed>
<course>1.2</course>
<desc>Speed 2.3 km/h Distance 70.11 km</desc>
<time>2010-08-25T17:47:44.06</time>
<name>1516</name>
</trkpt>
<trkpt lat="49.583705" lon="9.000697">
<ele>381.5</ele>
<speed>1.8</speed>
<course>62.8</course>
<desc>Speed 1.8 km/h Distance 70.11 km</desc>
<time>2010-08-25T17:47:45.06</time>
<name>1517</name>
</trkpt>
<trkpt lat="49.583708" lon="9.000707">
<ele>382.0</ele>
<speed>2.8</speed>
<course>327.7</course>
<desc>Speed 2.8 km/h Distance 70.12 km</desc>
<time>2010-08-25T17:47:46.05</time>
<name>1518</name>
</trkpt>
<trkpt lat="49.583713" lon="9.000702">
<ele>383.0</ele>
<speed>1.3</speed>
<course>284.4</course>
<desc>Speed 1.3 km/h Distance 70.12 km</desc>
<time>2010-08-25T17:47:47.05</time>
<name>1519</name>
</trkpt>
<trkpt lat="49.583723" lon="9.000642">
<ele>384.0</ele>
<speed>6.6</speed>
<course>270.0</course>
<desc>Speed 6.6 km/h Distance 70.12 km</desc>
<time>2010-08-25T17:47:49.05</time>
<name>1520</name>
</trkpt>
<trkpt lat="49.583723" lon="9.000613">
<ele>383.5</ele>
<speed>6.6</speed>
<course>279.7</course>
<desc>Speed 6.6 km/h Distance 70.12 km</desc>
<time>2010-08-25T17:47:50.06</time>
<name>1521</name>
</trkpt>
<trkpt lat="49.583727" lon="9.000583">
<ele>384.0</ele>
<speed>6.6</speed>
<course>161.2</course>
<desc>Speed 6.6 km/h Distance 70.13 km</desc>
<time>2010-08-25T17:47:51.05</time>
<name>1522</name>
</trkpt>
<trkpt lat="49.583720" lon="9.000587">
<ele>385.0</ele>
<speed>6.6</speed>
<course>270.0</course>
<desc>Speed 6.6 km/h Distance 70.13 km</desc>
<time>2010-08-25T17:47:52.05</time>
<name>1523</name>
</trkpt>
<trkpt lat="49.583720" lon="9.000573">
<ele>385.5</ele>
<speed>6.6</speed>
<course>297.2</course>
<desc>Speed 6.6 km/h Distance 70.13 km</desc>
<time>2010-08-25T17:47:53.06</time>
<name>1524</name>
</trkpt>
<trkpt lat="49.583732" lon="9.000538">
<ele>387.0</ele>
<speed>0.7</speed>
<course>330.2</course>
<desc>Speed 0.7 km/h Distance 70.13 km</desc>
<time>2010-08-25T17:47:54.05</time>
<name>1525</name>
</trkpt>
<trkpt lat="49.583747" lon="9.000525">
<ele>387.0</ele>
<speed>0.7</speed>
<course>297.4</course>
<desc>Speed 0.7 km/h Distance 70.13 km</desc>
<time>2010-08-25T17:47:55.06</time>
<name>1526</name>
</trkpt>
<trkpt lat="49.583750" lon="9.000515">
<ele>387.0</ele>
<speed>0.7</speed>
<course>303.6</course>
<desc>Speed 0.7 km/h Distance 70.13 km</desc>
<time>2010-08-25T17:47:56.05</time>
<name>1527</name>
</trkpt>
<trkpt lat="49.583755" lon="9.000503">
<ele>386.5</ele>
<speed>1.1</speed>
<course>259.1</course>
<desc>Speed 1.1 km/h Distance 70.13 km</desc>
<time>2010-08-25T17:47:57.05</time>
<name>1528</name>
</trkpt>
<trkpt lat="49.583752" lon="9.000477">
<ele>387.0</ele>
<speed>2.0</speed>
<course>252.8</course>
<desc>Speed 2.0 km/h Distance 70.14 km</desc>
<time>2010-08-25T17:47:58.05</time>
<name>1529</name>
</trkpt>
<trkpt lat="49.583748" lon="9.000460">
<ele>386.0</ele>
<speed>0.1</speed>
<course>257.6</course>
<desc>Speed 0.1 km/h Distance 70.14 km</desc>
<time>2010-08-25T17:47:59.04</time>
<name>1530</name>
</trkpt>
<trkpt lat="49.583747" lon="9.000448">
<ele>386.0</ele>
<speed>0.4</speed>
<course>90.0</course>
<desc>Speed 0.4 km/h Distance 70.14 km</desc>
<time>2010-08-25T17:48:00.05</time>
<name>1531</name>
</trkpt>
<trkpt lat="49.583747" lon="9.000450">
<ele>385.5</ele>
<speed>0.4</speed>
<course>90.0</course>
<desc>Speed 0.4 km/h Distance 70.14 km</desc>
<time>2010-08-25T17:48:01.05</time>
<name>1532</name>
</trkpt>
<trkpt lat="49.583747" lon="9.000450">
<ele>385.0</ele>
<speed>0.3</speed>
<course>22.2</course>
<desc>Speed 0.3 km/h Distance 70.14 km</desc>
<time>2010-08-25T17:48:02.05</time>
<name>1533</name>
</trkpt>
<trkpt lat="49.583752" lon="9.000453">
<ele>385.0</ele>
<speed>1.9</speed>
<course>18.8</course>
<desc>Speed 1.9 km/h Distance 70.14 km</desc>
<time>2010-08-25T17:48:03.05</time>
<name>1534</name>
</trkpt>
<trkpt lat="49.583758" lon="9.000457">
<ele>385.0</ele>
<speed>1.8</speed>
<course>355.0</course>
<desc>Speed 1.8 km/h Distance 70.14 km</desc>
<time>2010-08-25T17:48:04.05</time>
<name>1535</name>
</trkpt>
<trkpt lat="49.583767" lon="9.000455">
<ele>385.5</ele>
<speed>1.8</speed>
<course>16.0</course>
<desc>Speed 1.8 km/h Distance 70.14 km</desc>
<time>2010-08-25T17:48:05.05</time>
<name>1536</name>
</trkpt>
<trkpt lat="49.583778" lon="9.000460">
<ele>386.0</ele>
<speed>2.3</speed>
<course>9.5</course>
<desc>Speed 2.3 km/h Distance 70.14 km</desc>
<time>2010-08-25T17:48:06.05</time>
<name>1537</name>
</trkpt>
<trkpt lat="49.583790" lon="9.000463">
<ele>385.5</ele>
<speed>1.1</speed>
<course>270.0</course>
<desc>Speed 1.1 km/h Distance 70.14 km</desc>
<time>2010-08-25T17:48:07.05</time>
<name>1538</name>
</trkpt>
<trkpt lat="49.583790" lon="9.000403">
<ele>385.5</ele>
<speed>1.1</speed>
<course>315.5</course>
<desc>Speed 1.1 km/h Distance 70.15 km</desc>
<time>2010-08-25T17:48:09.05</time>
<name>1539</name>
</trkpt>
<trkpt lat="49.583793" lon="9.000398">
<ele>385.5</ele>
<speed>1.9</speed>
<course>126.7</course>
<desc>Speed 1.9 km/h Distance 70.15 km</desc>
<time>2010-08-25T17:48:10.05</time>
<name>1540</name>
</trkpt>
<trkpt lat="49.583770" lon="9.000447">
<ele>386.5</ele>
<speed>0.5</speed>
<course>125.8</course>
<desc>Speed 0.5 km/h Distance 70.15 km</desc>
<time>2010-08-25T17:48:12.04</time>
<name>1541</name>
</trkpt>
<trkpt lat="49.583758" lon="9.000472">
<ele>387.5</ele>
<speed>0.2</speed>
<course>21.8</course>
<desc>Speed 0.2 km/h Distance 70.15 km</desc>
<time>2010-08-25T17:48:14.04</time>
<name>1542</name>
</trkpt>
<trkpt lat="49.583772" lon="9.000480">
<ele>388.0</ele>
<speed>0.2</speed>
<course>35.4</course>
<desc>Speed 0.2 km/h Distance 70.16 km</desc>
<time>2010-08-25T17:48:15.04</time>
<name>1543</name>
</trkpt>
<trkpt lat="49.583857" lon="9.000573">
<ele>391.5</ele>
<speed>1.6</speed>
<course>209.0</course>
<desc>Speed 1.6 km/h Distance 70.17 km</desc>
<time>2010-08-25T17:48:18.04</time>
<name>1544</name>
</trkpt>
<trkpt lat="49.583845" lon="9.000563">
<ele>394.5</ele>
<speed>1.3</speed>
<course>240.0</course>
<desc>Speed 1.3 km/h Distance 70.17 km</desc>
<time>2010-08-25T17:48:19.04</time>
<name>1545</name>
</trkpt>
<trkpt lat="49.583840" lon="9.000550">
<ele>395.5</ele>
<speed>1.3</speed>
<course>232.4</course>
<desc>Speed 1.3 km/h Distance 70.17 km</desc>
<time>2010-08-25T17:48:20.03</time>
<name>1546</name>
</trkpt>
<trkpt lat="49.583833" lon="9.000537">
<ele>398.5</ele>
<speed>5.0</speed>
<course>193.6</course>
<desc>Speed 5.0 km/h Distance 70.17 km</desc>
<time>2010-08-25T17:48:21.03</time>
<name>1547</name>
</trkpt>
<trkpt lat="49.583815" lon="9.000530">
<ele>400.5</ele>
<speed>5.0</speed>
<course>201.5</course>
<desc>Speed 5.0 km/h Distance 70.17 km</desc>
<time>2010-08-25T17:48:22.24</time>
<name>1548</name>
</trkpt>
<trkpt lat="49.583807" lon="9.000525">
<ele>401.0</ele>
<speed>5.0</speed>
<course>358.9</course>
<desc>Speed 5.0 km/h Distance 70.17 km</desc>
<time>2010-08-25T17:48:23.04</time>
<name>1549</name>
</trkpt>
<trkpt lat="49.583865" lon="9.000523">
<ele>401.5</ele>
<speed>0.4</speed>
<course>224.2</course>
<desc>Speed 0.4 km/h Distance 70.18 km</desc>
<time>2010-08-25T17:48:25.03</time>
<name>1550</name>
</trkpt>
<trkpt lat="49.583842" lon="9.000488">
<ele>401.0</ele>
<speed>0.5</speed>
<course>141.0</course>
<desc>Speed 0.5 km/h Distance 70.18 km</desc>
<time>2010-08-25T17:48:27.03</time>
<name>1551</name>
</trkpt>
<trkpt lat="49.583835" lon="9.000497">
<ele>400.5</ele>
<speed>0.8</speed>
<course>107.2</course>
<desc>Speed 0.8 km/h Distance 70.19 km</desc>
<time>2010-08-25T17:48:28.03</time>
<name>1552</name>
</trkpt>
<trkpt lat="49.583832" lon="9.000513">
<ele>399.5</ele>
<speed>0.8</speed>
<course>167.4</course>
<desc>Speed 0.8 km/h Distance 70.19 km</desc>
<time>2010-08-25T17:48:29.03</time>
<name>1553</name>
</trkpt>
<trkpt lat="49.583830" lon="9.000513">
<ele>399.0</ele>
<speed>0.3</speed>
<course>202.2</course>
<desc>Speed 0.3 km/h Distance 70.19 km</desc>
<time>2010-08-25T17:48:30.03</time>
<name>1554</name>
</trkpt>
<trkpt lat="49.583825" lon="9.000510">
<ele>398.0</ele>
<speed>0.8</speed>
<course>192.6</course>
<desc>Speed 0.8 km/h Distance 70.19 km</desc>
<time>2010-08-25T17:48:31.03</time>
<name>1555</name>
</trkpt>
<trkpt lat="49.583820" lon="9.000508">
<ele>398.0</ele>
<speed>0.4</speed>
<course>107.3</course>
<desc>Speed 0.4 km/h Distance 70.19 km</desc>
<time>2010-08-25T17:48:32.02</time>
<name>1556</name>
</trkpt>
<trkpt lat="49.583818" lon="9.000517">
<ele>397.0</ele>
<speed>1.1</speed>
<course>90.0</course>
<desc>Speed 1.1 km/h Distance 70.19 km</desc>
<time>2010-08-25T17:48:33.02</time>
<name>1557</name>
</trkpt>
<trkpt lat="49.583818" lon="9.000518">
<ele>397.0</ele>
<speed>1.1</speed>
<course>217.2</course>
<desc>Speed 1.1 km/h Distance 70.19 km</desc>
<time>2010-08-25T17:48:34.02</time>
<name>1558</name>
</trkpt>
<trkpt lat="49.583817" lon="9.000517">
<ele>397.5</ele>
<speed>1.1</speed>
<course>217.2</course>
<desc>Speed 1.1 km/h Distance 70.19 km</desc>
<time>2010-08-25T17:48:35.02</time>
<name>1559</name>
</trkpt>
<trkpt lat="49.583817" lon="9.000517">
<ele>397.5</ele>
<speed>1.1</speed>
<course>127.6</course>
<desc>Speed 1.1 km/h Distance 70.19 km</desc>
<time>2010-08-25T17:48:36.03</time>
<name>1560</name>
</trkpt>
<trkpt lat="49.583813" lon="9.000523">
<ele>397.5</ele>
<speed>2.7</speed>
<course>167.4</course>
<desc>Speed 2.7 km/h Distance 70.19 km</desc>
<time>2010-08-25T17:48:37.02</time>
<name>1561</name>
</trkpt>
<trkpt lat="49.583808" lon="9.000525">
<ele>398.0</ele>
<speed>0.6</speed>
<course>259.1</course>
<desc>Speed 0.6 km/h Distance 70.19 km</desc>
<time>2010-08-25T17:48:38.02</time>
<name>1562</name>
</trkpt>
<trkpt lat="49.583807" lon="9.000512">
<ele>398.5</ele>
<speed>1.0</speed>
<course>209.2</course>
<desc>Speed 1.0 km/h Distance 70.19 km</desc>
<time>2010-08-25T17:48:39.02</time>
<name>1563</name>
</trkpt>
<trkpt lat="49.583805" lon="9.000510">
<ele>398.5</ele>
<speed>1.0</speed>
<course>270.0</course>
<desc>Speed 1.0 km/h Distance 70.19 km</desc>
<time>2010-08-25T17:48:40.02</time>
<name>1564</name>
</trkpt>
<trkpt lat="49.583805" lon="9.000507">
<ele>398.5</ele>
<speed>1.0</speed>
<course>291.3</course>
<desc>Speed 1.0 km/h Distance 70.19 km</desc>
<time>2010-08-25T17:48:41.02</time>
<name>1565</name>
</trkpt>
<trkpt lat="49.583807" lon="9.000500">
<ele>399.0</ele>
<speed>1.0</speed>
<course>290.9</course>
<desc>Speed 1.0 km/h Distance 70.19 km</desc>
<time>2010-08-25T17:48:42.03</time>
<name>1566</name>
</trkpt>
<trkpt lat="49.583808" lon="9.000493">
<ele>399.0</ele>
<speed>1.0</speed>
<course>293.7</course>
<desc>Speed 1.0 km/h Distance 70.19 km</desc>
<time>2010-08-25T17:48:43.06</time>
<name>1567</name>
</trkpt>
<trkpt lat="49.583812" lon="9.000482">
<ele>400.0</ele>
<speed>2.4</speed>
<course>21.9</course>
<desc>Speed 2.4 km/h Distance 70.19 km</desc>
<time>2010-08-25T17:48:45.02</time>
<name>1568</name>
</trkpt>
<trkpt lat="49.583847" lon="9.000503">
<ele>400.0</ele>
<speed>2.4</speed>
<course>34.0</course>
<desc>Speed 2.4 km/h Distance 70.20 km</desc>
<time>2010-08-25T17:48:47.02</time>
<name>1569</name>
</trkpt>
<trkpt lat="49.583933" lon="9.000593">
<ele>399.0</ele>
<speed>15.0</speed>
<course>252.2</course>
<desc>Speed 15.0 km/h Distance 70.21 km</desc>
<time>2010-08-25T17:48:50.02</time>
<name>1570</name>
</trkpt>
<trkpt lat="49.583925" lon="9.000553">
<ele>400.5</ele>
<speed>1.0</speed>
<course>346.5</course>
<desc>Speed 1.0 km/h Distance 70.21 km</desc>
<time>2010-08-25T17:48:52.02</time>
<name>1571</name>
</trkpt>
<trkpt lat="49.583938" lon="9.000548">
<ele>399.5</ele>
<speed>2.7</speed>
<course>12.6</course>
<desc>Speed 2.7 km/h Distance 70.21 km</desc>
<time>2010-08-25T17:48:54.02</time>
<name>1572</name>
</trkpt>
<trkpt lat="49.583940" lon="9.000550">
<ele>400.0</ele>
<speed>1.2</speed>
<course>180.0</course>
<desc>Speed 1.2 km/h Distance 70.21 km</desc>
<time>2010-08-25T17:48:56.02</time>
<name>1573</name>
</trkpt>
<trkpt lat="49.583938" lon="9.000550">
<ele>398.5</ele>
<speed>2.6</speed>
<course>270.0</course>
<desc>Speed 2.6 km/h Distance 70.21 km</desc>
<time>2010-08-25T17:48:58.01</time>
<name>1574</name>
</trkpt>
<trkpt lat="49.583938" lon="9.000505">
<ele>398.5</ele>
<speed>2.9</speed>
<course>247.5</course>
<desc>Speed 2.9 km/h Distance 70.22 km</desc>
<time>2010-08-25T17:49:00.01</time>
<name>1575</name>
</trkpt>
<trkpt lat="49.583927" lon="9.000462">
<ele>399.0</ele>
<speed>2.9</speed>
<course>226.5</course>
<desc>Speed 2.9 km/h Distance 70.22 km</desc>
<time>2010-08-25T17:49:02.01</time>
<name>1576</name>
</trkpt>
<trkpt lat="49.583913" lon="9.000440">
<ele>399.0</ele>
<speed>0.2</speed>
<course>228.3</course>
<desc>Speed 0.2 km/h Distance 70.22 km</desc>
<time>2010-08-25T17:49:04.01</time>
<name>1577</name>
</trkpt>
<trkpt lat="49.583895" lon="9.000408">
<ele>399.5</ele>
<speed>1.2</speed>
<course>208.3</course>
<desc>Speed 1.2 km/h Distance 70.23 km</desc>
<time>2010-08-25T17:49:06.01</time>
<name>1578</name>
</trkpt>
<trkpt lat="49.583885" lon="9.000400">
<ele>399.5</ele>
<speed>0.4</speed>
<course>213.7</course>
<desc>Speed 0.4 km/h Distance 70.23 km</desc>
<time>2010-08-25T17:49:08.00</time>
<name>1579</name>
</trkpt>
<trkpt lat="49.583882" lon="9.000397">
<ele>399.5</ele>
<speed>0.4</speed>
<course>203.8</course>
<desc>Speed 0.4 km/h Distance 70.23 km</desc>
<time>2010-08-25T17:49:10.01</time>
<name>1580</name>
</trkpt>
<trkpt lat="49.583877" lon="9.000393">
<ele>400.5</ele>
<speed>1.1</speed>
<course>222.3</course>
<desc>Speed 1.1 km/h Distance 70.23 km</desc>
<time>2010-08-25T17:49:12.00</time>
<name>1581</name>
</trkpt>
<trkpt lat="49.583868" lon="9.000382">
<ele>401.5</ele>
<speed>0.4</speed>
<course>348.1</course>
<desc>Speed 0.4 km/h Distance 70.23 km</desc>
<time>2010-08-25T17:49:14.01</time>
<name>1582</name>
</trkpt>
<trkpt lat="49.583940" lon="9.000358">
<ele>402.0</ele>
<speed>15.8</speed>
<course>311.5</course>
<desc>Speed 15.8 km/h Distance 70.24 km</desc>
<time>2010-08-25T17:49:17.00</time>
<name>1583</name>
</trkpt>
<trkpt lat="49.584102" lon="9.000077">
<ele>402.5</ele>
<speed>15.8</speed>
<course>304.7</course>
<desc>Speed 15.8 km/h Distance 70.26 km</desc>
<time>2010-08-25T17:49:20.00</time>
<name>1584</name>
</trkpt>
<trkpt lat="49.584168" lon="8.999928">
<ele>402.0</ele>
<speed>15.8</speed>
<course>299.8</course>
<desc>Speed 15.8 km/h Distance 70.28 km</desc>
<time>2010-08-25T17:49:22.00</time>
<name>1585</name>
</trkpt>
<trkpt lat="49.584293" lon="8.999592">
<ele>402.0</ele>
<speed>15.8</speed>
<course>314.9</course>
<desc>Speed 15.8 km/h Distance 70.31 km</desc>
<time>2010-08-25T17:49:24.99</time>
<name>1586</name>
</trkpt>
<trkpt lat="49.584382" lon="8.999455">
<ele>401.0</ele>
<speed>15.8</speed>
<course>309.0</course>
<desc>Speed 15.8 km/h Distance 70.32 km</desc>
<time>2010-08-25T17:49:26.99</time>
<name>1587</name>
</trkpt>
<trkpt lat="49.585488" lon="8.997347">
<ele>401.5</ele>
<speed>72.2</speed>
<course>312.0</course>
<desc>Speed 72.2 km/h Distance 70.52 km</desc>
<time>2010-08-25T17:49:32.99</time>
<name>1588</name>
</trkpt>
<trkpt lat="49.586303" lon="8.995950">
<ele>398.5</ele>
<speed>73.6</speed>
<course>314.9</course>
<desc>Speed 73.6 km/h Distance 70.65 km</desc>
<time>2010-08-25T17:49:37.98</time>
<name>1589</name>
</trkpt>
<trkpt lat="49.586578" lon="8.995525">
<ele>394.5</ele>
<speed>73.7</speed>
<course>312.1</course>
<desc>Speed 73.7 km/h Distance 70.69 km</desc>
<time>2010-08-25T17:49:39.98</time>
<name>1590</name>
</trkpt>
<trkpt lat="49.586823" lon="8.995107">
<ele>393.0</ele>
<speed>71.7</speed>
<course>305.9</course>
<desc>Speed 71.7 km/h Distance 70.74 km</desc>
<time>2010-08-25T17:49:41.98</time>
<name>1591</name>
</trkpt>
<trkpt lat="49.587055" lon="8.994613">
<ele>386.0</ele>
<speed>65.4</speed>
<course>292.9</course>
<desc>Speed 65.4 km/h Distance 70.78 km</desc>
<time>2010-08-25T17:49:43.99</time>
<name>1592</name>
</trkpt>
<trkpt lat="49.587180" lon="8.994157">
<ele>384.5</ele>
<speed>65.3</speed>
<course>282.4</course>
<desc>Speed 65.3 km/h Distance 70.82 km</desc>
<time>2010-08-25T17:49:45.98</time>
<name>1593</name>
</trkpt>
<trkpt lat="49.587243" lon="8.993712">
<ele>384.5</ele>
<speed>65.3</speed>
<course>272.9</course>
<desc>Speed 65.3 km/h Distance 70.85 km</desc>
<time>2010-08-25T17:49:47.98</time>
<name>1594</name>
</trkpt>
<trkpt lat="49.587260" lon="8.993212">
<ele>383.5</ele>
<speed>66.1</speed>
<course>275.4</course>
<desc>Speed 66.1 km/h Distance 70.88 km</desc>
<time>2010-08-25T17:49:49.97</time>
<name>1595</name>
</trkpt>
<trkpt lat="49.587298" lon="8.992583">
<ele>380.5</ele>
<speed>66.1</speed>
<course>294.1</course>
<desc>Speed 66.1 km/h Distance 70.93 km</desc>
<time>2010-08-25T17:49:53.96</time>
<name>1596</name>
</trkpt>
<trkpt lat="49.587487" lon="8.991933">
<ele>378.5</ele>
<speed>59.6</speed>
<course>296.1</course>
<desc>Speed 59.6 km/h Distance 70.98 km</desc>
<time>2010-08-25T17:49:59.96</time>
<name>1597</name>
</trkpt>
<trkpt lat="49.587987" lon="8.990357">
<ele>381.0</ele>
<speed>64.3</speed>
<course>295.9</course>
<desc>Speed 64.3 km/h Distance 71.11 km</desc>
<time>2010-08-25T17:50:04.95</time>
<name>1598</name>
</trkpt>
<trkpt lat="49.588245" lon="8.989537">
<ele>380.5</ele>
<speed>64.8</speed>
<course>300.5</course>
<desc>Speed 64.8 km/h Distance 71.17 km</desc>
<time>2010-08-25T17:50:07.95</time>
<name>1599</name>
</trkpt>
<trkpt lat="49.588393" lon="8.989148">
<ele>381.0</ele>
<speed>64.8</speed>
<course>302.1</course>
<desc>Speed 64.8 km/h Distance 71.21 km</desc>
<time>2010-08-25T17:50:09.95</time>
<name>1600</name>
</trkpt>
<trkpt lat="49.588573" lon="8.988705">
<ele>376.0</ele>
<speed>64.8</speed>
<course>279.2</course>
<desc>Speed 64.8 km/h Distance 71.24 km</desc>
<time>2010-08-25T17:50:12.95</time>
<name>1601</name>
</trkpt>
<trkpt lat="49.588633" lon="8.988137">
<ele>375.0</ele>
<speed>44.6</speed>
<course>275.0</course>
<desc>Speed 44.6 km/h Distance 71.29 km</desc>
<time>2010-08-25T17:50:15.94</time>
<name>1602</name>
</trkpt>
<trkpt lat="49.588648" lon="8.987873">
<ele>375.5</ele>
<speed>44.6</speed>
<course>273.6</course>
<desc>Speed 44.6 km/h Distance 71.30 km</desc>
<time>2010-08-25T17:50:17.94</time>
<name>1603</name>
</trkpt>
<trkpt lat="49.588660" lon="8.987588">
<ele>375.0</ele>
<speed>33.8</speed>
<course>271.1</course>
<desc>Speed 33.8 km/h Distance 71.33 km</desc>
<time>2010-08-25T17:50:20.94</time>
<name>1604</name>
</trkpt>
<trkpt lat="49.588662" lon="8.987450">
<ele>373.5</ele>
<speed>33.8</speed>
<course>192.9</course>
<desc>Speed 33.8 km/h Distance 71.33 km</desc>
<time>2010-08-25T17:50:24.94</time>
<name>1605</name>
</trkpt>
<trkpt lat="49.588520" lon="8.987400">
<ele>374.0</ele>
<speed>25.3</speed>
<course>202.0</course>
<desc>Speed 25.3 km/h Distance 71.35 km</desc>
<time>2010-08-25T17:50:28.94</time>
<name>1606</name>
</trkpt>
<trkpt lat="49.588378" lon="8.987312">
<ele>375.5</ele>
<speed>32.8</speed>
<course>202.6</course>
<desc>Speed 32.8 km/h Distance 71.37 km</desc>
<time>2010-08-25T17:50:30.94</time>
<name>1607</name>
</trkpt>
<trkpt lat="49.588267" lon="8.987240">
<ele>375.5</ele>
<speed>32.8</speed>
<course>206.5</course>
<desc>Speed 32.8 km/h Distance 71.38 km</desc>
<time>2010-08-25T17:50:32.93</time>
<name>1608</name>
</trkpt>
<trkpt lat="49.588165" lon="8.987162">
<ele>374.5</ele>
<speed>32.8</speed>
<course>233.2</course>
<desc>Speed 32.8 km/h Distance 71.39 km</desc>
<time>2010-08-25T17:50:35.93</time>
<name>1609</name>
</trkpt>
<trkpt lat="49.587830" lon="8.986472">
<ele>375.5</ele>
<speed>59.9</speed>
<course>239.2</course>
<desc>Speed 59.9 km/h Distance 71.46 km</desc>
<time>2010-08-25T17:50:40.10</time>
<name>1610</name>
</trkpt>
<trkpt lat="49.587627" lon="8.985945">
<ele>390.0</ele>
<speed>59.9</speed>
<course>261.9</course>
<desc>Speed 59.9 km/h Distance 71.50 km</desc>
<time>2010-08-25T17:50:43.95</time>
<name>1611</name>
</trkpt>
<trkpt lat="49.587475" lon="8.984295">
<ele>379.0</ele>
<speed>65.8</speed>
<course>267.3</course>
<desc>Speed 65.8 km/h Distance 71.62 km</desc>
<time>2010-08-25T17:50:48.92</time>
<name>1612</name>
</trkpt>
<trkpt lat="49.587460" lon="8.983800">
<ele>376.0</ele>
<speed>65.8</speed>
<course>261.2</course>
<desc>Speed 65.8 km/h Distance 71.66 km</desc>
<time>2010-08-25T17:50:50.92</time>
<name>1613</name>
</trkpt>
<trkpt lat="49.587400" lon="8.983202">
<ele>367.0</ele>
<speed>65.8</speed>
<course>247.5</course>
<desc>Speed 65.8 km/h Distance 71.70 km</desc>
<time>2010-08-25T17:50:53.92</time>
<name>1614</name>
</trkpt>
<trkpt lat="49.587227" lon="8.982555">
<ele>389.0</ele>
<speed>65.8</speed>
<course>244.4</course>
<desc>Speed 65.8 km/h Distance 71.75 km</desc>
<time>2010-08-25T17:50:58.92</time>
<name>1615</name>
</trkpt>
<trkpt lat="49.587060" lon="8.982018">
<ele>396.0</ele>
<speed>4.1</speed>
<course>240.0</course>
<desc>Speed 4.1 km/h Distance 71.79 km</desc>
<time>2010-08-25T17:51:04.91</time>
<name>1616</name>
</trkpt>
<trkpt lat="49.586898" lon="8.981587">
<ele>388.5</ele>
<speed>1.7</speed>
<course>263.5</course>
<desc>Speed 1.7 km/h Distance 71.83 km</desc>
<time>2010-08-25T17:51:08.92</time>
<name>1617</name>
</trkpt>
<trkpt lat="49.586880" lon="8.981338">
<ele>382.5</ele>
<speed>4.1</speed>
<course>196.8</course>
<desc>Speed 4.1 km/h Distance 71.85 km</desc>
<time>2010-08-25T17:51:11.91</time>
<name>1618</name>
</trkpt>
<trkpt lat="49.586855" lon="8.981327">
<ele>383.0</ele>
<speed>0.5</speed>
<course>236.0</course>
<desc>Speed 0.5 km/h Distance 71.85 km</desc>
<time>2010-08-25T17:51:13.90</time>
<name>1619</name>
</trkpt>
<trkpt lat="49.586843" lon="8.981300">
<ele>382.5</ele>
<speed>0.5</speed>
<course>304.9</course>
<desc>Speed 0.5 km/h Distance 71.85 km</desc>
<time>2010-08-25T17:51:15.90</time>
<name>1620</name>
</trkpt>
<trkpt lat="49.586867" lon="8.981248">
<ele>383.0</ele>
<speed>2.3</speed>
<course>275.9</course>
<desc>Speed 2.3 km/h Distance 71.86 km</desc>
<time>2010-08-25T17:51:17.90</time>
<name>1621</name>
</trkpt>
<trkpt lat="49.586868" lon="8.981223">
<ele>383.0</ele>
<speed>0.9</speed>
<course>270.0</course>
<desc>Speed 0.9 km/h Distance 71.86 km</desc>
<time>2010-08-25T17:51:19.90</time>
<name>1622</name>
</trkpt>
<trkpt lat="49.586868" lon="8.981208">
<ele>383.0</ele>
<speed>0.7</speed>
<course>315.8</course>
<desc>Speed 0.7 km/h Distance 71.86 km</desc>
<time>2010-08-25T17:51:21.90</time>
<name>1623</name>
</trkpt>
<trkpt lat="49.586885" lon="8.981183">
<ele>383.0</ele>
<speed>0.8</speed>
<course>302.4</course>
<desc>Speed 0.8 km/h Distance 71.86 km</desc>
<time>2010-08-25T17:51:23.90</time>
<name>1624</name>
</trkpt>
<trkpt lat="49.586897" lon="8.981155">
<ele>383.0</ele>
<speed>0.6</speed>
<course>209.2</course>
<desc>Speed 0.6 km/h Distance 71.87 km</desc>
<time>2010-08-25T17:51:25.90</time>
<name>1625</name>
</trkpt>
<trkpt lat="49.586885" lon="8.981145">
<ele>383.0</ele>
<speed>0.5</speed>
<course>167.4</course>
<desc>Speed 0.5 km/h Distance 71.87 km</desc>
<time>2010-08-25T17:51:27.90</time>
<name>1626</name>
</trkpt>
<trkpt lat="49.586875" lon="8.981148">
<ele>383.0</ele>
<speed>1.2</speed>
<course>334.2</course>
<desc>Speed 1.2 km/h Distance 71.87 km</desc>
<time>2010-08-25T17:51:29.89</time>
<name>1627</name>
</trkpt>
<trkpt lat="49.586888" lon="8.981138">
<ele>383.5</ele>
<speed>1.8</speed>
<course>167.4</course>
<desc>Speed 1.8 km/h Distance 71.87 km</desc>
<time>2010-08-25T17:51:31.90</time>
<name>1628</name>
</trkpt>
<trkpt lat="49.586885" lon="8.981140">
<ele>384.0</ele>
<speed>0.8</speed>
<course>172.3</course>
<desc>Speed 0.8 km/h Distance 71.87 km</desc>
<time>2010-08-25T17:51:33.89</time>
<name>1629</name>
</trkpt>
<trkpt lat="49.586868" lon="8.981143">
<ele>385.0</ele>
<speed>0.3</speed>
<course>184.7</course>
<desc>Speed 0.3 km/h Distance 71.87 km</desc>
<time>2010-08-25T17:51:35.89</time>
<name>1630</name>
</trkpt>
<trkpt lat="49.586857" lon="8.981142">
<ele>385.0</ele>
<speed>0.3</speed>
<course>154.5</course>
<desc>Speed 0.3 km/h Distance 71.87 km</desc>
<time>2010-08-25T17:51:37.89</time>
<name>1631</name>
</trkpt>
<trkpt lat="49.586730" lon="8.981235">
<ele>386.0</ele>
<speed>0.3</speed>
<course>317.8</course>
<desc>Speed 0.3 km/h Distance 71.89 km</desc>
<time>2010-08-25T17:51:40.89</time>
<name>1632</name>
</trkpt>
<trkpt lat="49.586755" lon="8.981200">
<ele>386.5</ele>
<speed>0.4</speed>
<course>334.8</course>
<desc>Speed 0.4 km/h Distance 71.89 km</desc>
<time>2010-08-25T17:51:42.89</time>
<name>1633</name>
</trkpt>
<trkpt lat="49.586773" lon="8.981187">
<ele>386.5</ele>
<speed>0.4</speed>
<course>335.5</course>
<desc>Speed 0.4 km/h Distance 71.90 km</desc>
<time>2010-08-25T17:51:44.89</time>
<name>1634</name>
</trkpt>
<trkpt lat="49.586790" lon="8.981175">
<ele>387.0</ele>
<speed>1.0</speed>
<course>307.6</course>
<desc>Speed 1.0 km/h Distance 71.90 km</desc>
<time>2010-08-25T17:51:46.89</time>
<name>1635</name>
</trkpt>
<trkpt lat="49.586797" lon="8.981162">
<ele>387.0</ele>
<speed>1.0</speed>
<course>312.8</course>
<desc>Speed 1.0 km/h Distance 71.90 km</desc>
<time>2010-08-25T17:51:48.89</time>
<name>1636</name>
</trkpt>
<trkpt lat="49.586822" lon="8.981120">
<ele>387.5</ele>
<speed>6.1</speed>
<course>324.1</course>
<desc>Speed 6.1 km/h Distance 71.90 km</desc>
<time>2010-08-25T17:51:50.89</time>
<name>1637</name>
</trkpt>
<trkpt lat="49.586850" lon="8.981088">
<ele>387.5</ele>
<speed>6.1</speed>
<course>311.0</course>
<desc>Speed 6.1 km/h Distance 71.91 km</desc>
<time>2010-08-25T17:51:52.88</time>
<name>1638</name>
</trkpt>
<trkpt lat="49.586880" lon="8.981035">
<ele>387.5</ele>
<speed>8.2</speed>
<course>302.1</course>
<desc>Speed 8.2 km/h Distance 71.91 km</desc>
<time>2010-08-25T17:51:54.88</time>
<name>1639</name>
</trkpt>
<trkpt lat="49.586902" lon="8.980982">
<ele>387.5</ele>
<speed>8.2</speed>
<course>314.9</course>
<desc>Speed 8.2 km/h Distance 71.92 km</desc>
<time>2010-08-25T17:51:56.87</time>
<name>1640</name>
</trkpt>
<trkpt lat="49.586938" lon="8.980925">
<ele>388.0</ele>
<speed>4.0</speed>
<course>334.7</course>
<desc>Speed 4.0 km/h Distance 71.92 km</desc>
<time>2010-08-25T17:51:58.88</time>
<name>1641</name>
</trkpt>
<trkpt lat="49.586982" lon="8.980893">
<ele>388.0</ele>
<speed>4.0</speed>
<course>204.8</course>
<desc>Speed 4.0 km/h Distance 71.93 km</desc>
<time>2010-08-25T17:52:00.88</time>
<name>1642</name>
</trkpt>
<trkpt lat="49.586975" lon="8.980888">
<ele>388.0</ele>
<speed>4.0</speed>
<course>190.2</course>
<desc>Speed 4.0 km/h Distance 71.93 km</desc>
<time>2010-08-25T17:52:02.87</time>
<name>1643</name>
</trkpt>
<trkpt lat="49.586957" lon="8.980883">
<ele>388.0</ele>
<speed>4.0</speed>
<course>58.8</course>
<desc>Speed 4.0 km/h Distance 71.93 km</desc>
<time>2010-08-25T17:52:04.88</time>
<name>1644</name>
</trkpt>
<trkpt lat="49.586975" lon="8.980930">
<ele>388.0</ele>
<speed>4.0</speed>
<course>40.8</course>
<desc>Speed 4.0 km/h Distance 71.93 km</desc>
<time>2010-08-25T17:52:06.87</time>
<name>1645</name>
</trkpt>
<trkpt lat="49.586990" lon="8.980950">
<ele>388.0</ele>
<speed>4.0</speed>
<course>153.6</course>
<desc>Speed 4.0 km/h Distance 71.94 km</desc>
<time>2010-08-25T17:52:08.88</time>
<name>1646</name>
</trkpt>
<trkpt lat="49.586983" lon="8.980955">
<ele>388.0</ele>
<speed>4.0</speed>
<course>158.0</course>
<desc>Speed 4.0 km/h Distance 71.94 km</desc>
<time>2010-08-25T17:52:10.88</time>
<name>1647</name>
</trkpt>
<trkpt lat="49.586908" lon="8.981002">
<ele>388.5</ele>
<speed>4.0</speed>
<course>184.3</course>
<desc>Speed 4.0 km/h Distance 71.95 km</desc>
<time>2010-08-25T17:52:12.87</time>
<name>1648</name>
</trkpt>
<trkpt lat="49.586850" lon="8.980995">
<ele>389.0</ele>
<speed>4.0</speed>
<course>185.5</course>
<desc>Speed 4.0 km/h Distance 71.95 km</desc>
<time>2010-08-25T17:52:14.88</time>
<name>1649</name>
</trkpt>
<trkpt lat="49.586828" lon="8.980992">
<ele>389.0</ele>
<speed>4.0</speed>
<course>192.2</course>
<desc>Speed 4.0 km/h Distance 71.95 km</desc>
<time>2010-08-25T17:52:16.88</time>
<name>1650</name>
</trkpt>
<trkpt lat="49.586813" lon="8.980987">
<ele>389.0</ele>
<speed>4.0</speed>
<course>88.2</course>
<desc>Speed 4.0 km/h Distance 71.96 km</desc>
<time>2010-08-25T17:52:18.87</time>
<name>1651</name>
</trkpt>
<trkpt lat="49.586840" lon="8.982277">
<ele>391.5</ele>
<speed>66.0</speed>
<course>95.9</course>
<desc>Speed 66.0 km/h Distance 72.05 km</desc>
<time>2010-08-25T17:52:24.87</time>
<name>1652</name>
</trkpt>
<trkpt lat="49.586792" lon="8.983002">
<ele>387.0</ele>
<speed>64.3</speed>
<course>96.3</course>
<desc>Speed 64.3 km/h Distance 72.10 km</desc>
<time>2010-08-25T17:52:27.87</time>
<name>1653</name>
</trkpt>
<trkpt lat="49.586760" lon="8.983443">
<ele>389.5</ele>
<speed>64.3</speed>
<course>126.6</course>
<desc>Speed 64.3 km/h Distance 72.13 km</desc>
<time>2010-08-25T17:52:29.86</time>
<name>1654</name>
</trkpt>
<trkpt lat="49.586542" lon="8.983897">
<ele>391.0</ele>
<speed>64.3</speed>
<course>166.8</course>
<desc>Speed 64.3 km/h Distance 72.18 km</desc>
<time>2010-08-25T17:52:32.87</time>
<name>1655</name>
</trkpt>
<trkpt lat="49.585082" lon="8.984425">
<ele>406.5</ele>
<speed>94.8</speed>
<course>170.7</course>
<desc>Speed 94.8 km/h Distance 72.34 km</desc>
<time>2010-08-25T17:52:38.86</time>
<name>1656</name>
</trkpt>
<trkpt lat="49.583918" lon="8.984718">
<ele>406.0</ele>
<speed>117</speed>
<course>182.5</course>
<desc>Speed 117 km/h Distance 72.47 km</desc>
<time>2010-08-25T17:52:42.86</time>
<name>1657</name>
</trkpt>
<trkpt lat="49.583350" lon="8.984680">
<ele>405.0</ele>
<speed>111</speed>
<course>180.7</course>
<desc>Speed 111 km/h Distance 72.54 km</desc>
<time>2010-08-25T17:52:44.85</time>
<name>1658</name>
</trkpt>
<trkpt lat="49.582780" lon="8.984670">
<ele>400.0</ele>
<speed>111</speed>
<course>185.1</course>
<desc>Speed 111 km/h Distance 72.60 km</desc>
<time>2010-08-25T17:52:46.85</time>
<name>1659</name>
</trkpt>
<trkpt lat="49.582262" lon="8.984598">
<ele>400.0</ele>
<speed>111</speed>
<course>184.2</course>
<desc>Speed 111 km/h Distance 72.66 km</desc>
<time>2010-08-25T17:52:48.86</time>
<name>1660</name>
</trkpt>
<trkpt lat="49.581697" lon="8.984535">
<ele>399.0</ele>
<speed>111</speed>
<course>184.0</course>
<desc>Speed 111 km/h Distance 72.72 km</desc>
<time>2010-08-25T17:52:50.86</time>
<name>1661</name>
</trkpt>
<trkpt lat="49.581188" lon="8.984480">
<ele>400.0</ele>
<speed>107</speed>
<course>182.8</course>
<desc>Speed 107 km/h Distance 72.78 km</desc>
<time>2010-08-25T17:52:52.85</time>
<name>1662</name>
</trkpt>
<trkpt lat="49.580642" lon="8.984438">
<ele>400.5</ele>
<speed>106</speed>
<course>189.9</course>
<desc>Speed 106 km/h Distance 72.84 km</desc>
<time>2010-08-25T17:52:54.84</time>
<name>1663</name>
</trkpt>
<trkpt lat="49.579927" lon="8.984245">
<ele>404.5</ele>
<speed>99.8</speed>
<course>183.2</course>
<desc>Speed 99.8 km/h Distance 72.92 km</desc>
<time>2010-08-25T17:52:57.86</time>
<name>1664</name>
</trkpt>
<trkpt lat="49.579372" lon="8.984197">
<ele>408.5</ele>
<speed>91.8</speed>
<course>181.9</course>
<desc>Speed 91.8 km/h Distance 72.98 km</desc>
<time>2010-08-25T17:52:59.86</time>
<name>1665</name>
</trkpt>
<trkpt lat="49.578915" lon="8.984173">
<ele>408.5</ele>
<speed>91.8</speed>
<course>186.2</course>
<desc>Speed 91.8 km/h Distance 73.03 km</desc>
<time>2010-08-25T17:53:01.86</time>
<name>1666</name>
</trkpt>
<trkpt lat="49.578222" lon="8.984057">
<ele>411.5</ele>
<speed>71.2</speed>
<course>187.7</course>
<desc>Speed 71.2 km/h Distance 73.11 km</desc>
<time>2010-08-25T17:53:05.86</time>
<name>1667</name>
</trkpt>
<trkpt lat="49.577908" lon="8.983992">
<ele>414.5</ele>
<speed>71.2</speed>
<course>173.4</course>
<desc>Speed 71.2 km/h Distance 73.15 km</desc>
<time>2010-08-25T17:53:07.85</time>
<name>1668</name>
</trkpt>
<trkpt lat="49.577507" lon="8.984063">
<ele>417.0</ele>
<speed>63.8</speed>
<course>181.3</course>
<desc>Speed 63.8 km/h Distance 73.19 km</desc>
<time>2010-08-25T17:53:10.84</time>
<name>1669</name>
</trkpt>
<trkpt lat="49.577120" lon="8.984050">
<ele>416.5</ele>
<speed>63.8</speed>
<course>221.6</course>
<desc>Speed 63.8 km/h Distance 73.23 km</desc>
<time>2010-08-25T17:53:15.85</time>
<name>1670</name>
</trkpt>
<trkpt lat="49.576822" lon="8.983642">
<ele>418.5</ele>
<speed>43.5</speed>
<course>215.8</course>
<desc>Speed 43.5 km/h Distance 73.28 km</desc>
<time>2010-08-25T17:53:19.84</time>
<name>1671</name>
</trkpt>
<trkpt lat="49.576628" lon="8.983427">
<ele>414.5</ele>
<speed>47.1</speed>
<course>214.4</course>
<desc>Speed 47.1 km/h Distance 73.30 km</desc>
<time>2010-08-25T17:53:21.84</time>
<name>1672</name>
</trkpt>
<trkpt lat="49.576282" lon="8.983060">
<ele>410.0</ele>
<speed>43.6</speed>
<course>209.4</course>
<desc>Speed 43.6 km/h Distance 73.35 km</desc>
<time>2010-08-25T17:53:24.84</time>
<name>1673</name>
</trkpt>
<trkpt lat="49.576042" lon="8.982852">
<ele>408.0</ele>
<speed>27.3</speed>
<course>206.6</course>
<desc>Speed 27.3 km/h Distance 73.38 km</desc>
<time>2010-08-25T17:53:27.83</time>
<name>1674</name>
</trkpt>
<trkpt lat="49.575932" lon="8.982767">
<ele>409.5</ele>
<speed>27.3</speed>
<course>200.0</course>
<desc>Speed 27.3 km/h Distance 73.40 km</desc>
<time>2010-08-25T17:53:29.83</time>
<name>1675</name>
</trkpt>
<trkpt lat="49.575863" lon="8.982728">
<ele>410.0</ele>
<speed>27.3</speed>
<course>203.2</course>
<desc>Speed 27.3 km/h Distance 73.40 km</desc>
<time>2010-08-25T17:53:31.84</time>
<name>1676</name>
</trkpt>
<trkpt lat="49.575702" lon="8.982622">
<ele>410.5</ele>
<speed>27.3</speed>
<course>199.6</course>
<desc>Speed 27.3 km/h Distance 73.42 km</desc>
<time>2010-08-25T17:53:33.83</time>
<name>1677</name>
</trkpt>
<trkpt lat="49.575387" lon="8.982448">
<ele>409.5</ele>
<speed>29.7</speed>
<course>205.0</course>
<desc>Speed 29.7 km/h Distance 73.46 km</desc>
<time>2010-08-25T17:53:36.84</time>
<name>1678</name>
</trkpt>
<trkpt lat="49.575065" lon="8.982217">
<ele>417.5</ele>
<speed>40.6</speed>
<course>205.9</course>
<desc>Speed 40.6 km/h Distance 73.50 km</desc>
<time>2010-08-25T17:53:39.83</time>
<name>1679</name>
</trkpt>
<trkpt lat="49.574885" lon="8.982082">
<ele>420.0</ele>
<speed>40.6</speed>
<course>200.3</course>
<desc>Speed 40.6 km/h Distance 73.52 km</desc>
<time>2010-08-25T17:53:41.83</time>
<name>1680</name>
</trkpt>
<trkpt lat="49.574640" lon="8.981942">
<ele>421.5</ele>
<speed>46.4</speed>
<course>200.9</course>
<desc>Speed 46.4 km/h Distance 73.55 km</desc>
<time>2010-08-25T17:53:43.83</time>
<name>1681</name>
</trkpt>
<trkpt lat="49.574373" lon="8.981785">
<ele>422.5</ele>
<speed>46.9</speed>
<course>201.8</course>
<desc>Speed 46.9 km/h Distance 73.58 km</desc>
<time>2010-08-25T17:53:45.83</time>
<name>1682</name>
</trkpt>
<trkpt lat="49.574092" lon="8.981612">
<ele>423.5</ele>
<speed>52.3</speed>
<course>203.0</course>
<desc>Speed 52.3 km/h Distance 73.62 km</desc>
<time>2010-08-25T17:53:47.83</time>
<name>1683</name>
</trkpt>
<trkpt lat="49.573842" lon="8.981448">
<ele>424.0</ele>
<speed>46.1</speed>
<course>206.9</course>
<desc>Speed 46.1 km/h Distance 73.65 km</desc>
<time>2010-08-25T17:53:49.83</time>
<name>1684</name>
</trkpt>
<trkpt lat="49.573650" lon="8.981298">
<ele>424.5</ele>
<speed>46.1</speed>
<course>204.1</course>
<desc>Speed 46.1 km/h Distance 73.67 km</desc>
<time>2010-08-25T17:53:51.83</time>
<name>1685</name>
</trkpt>
<trkpt lat="49.573452" lon="8.981162">
<ele>423.5</ele>
<speed>52.3</speed>
<course>203.8</course>
<desc>Speed 52.3 km/h Distance 73.69 km</desc>
<time>2010-08-25T17:53:53.82</time>
<name>1686</name>
</trkpt>
<trkpt lat="49.573332" lon="8.981080">
<ele>424.5</ele>
<speed>52.1</speed>
<course>204.4</course>
<desc>Speed 52.1 km/h Distance 73.71 km</desc>
<time>2010-08-25T17:53:54.82</time>
<name>1687</name>
</trkpt>
<trkpt lat="49.572950" lon="8.980813">
<ele>431.5</ele>
<speed>50.0</speed>
<course>203.5</course>
<desc>Speed 50.0 km/h Distance 73.76 km</desc>
<time>2010-08-25T17:53:57.82</time>
<name>1688</name>
</trkpt>
<trkpt lat="49.572843" lon="8.980742">
<ele>431.5</ele>
<speed>44.9</speed>
<course>204.4</course>
<desc>Speed 44.9 km/h Distance 73.77 km</desc>
<time>2010-08-25T17:53:58.82</time>
<name>1689</name>
</trkpt>
<trkpt lat="49.572738" lon="8.980668">
<ele>431.5</ele>
<speed>44.4</speed>
<course>203.4</course>
<desc>Speed 44.4 km/h Distance 73.78 km</desc>
<time>2010-08-25T17:53:59.82</time>
<name>1690</name>
</trkpt>
<trkpt lat="49.572653" lon="8.980612">
<ele>432.0</ele>
<speed>44.4</speed>
<course>205.8</course>
<desc>Speed 44.4 km/h Distance 73.79 km</desc>
<time>2010-08-25T17:54:00.82</time>
<name>1691</name>
</trkpt>
<trkpt lat="49.572555" lon="8.980538">
<ele>432.0</ele>
<speed>43.1</speed>
<course>207.6</course>
<desc>Speed 43.1 km/h Distance 73.80 km</desc>
<time>2010-08-25T17:54:01.82</time>
<name>1692</name>
</trkpt>
<trkpt lat="49.572330" lon="8.980357">
<ele>431.5</ele>
<speed>44.3</speed>
<course>208.7</course>
<desc>Speed 44.3 km/h Distance 73.83 km</desc>
<time>2010-08-25T17:54:03.81</time>
<name>1693</name>
</trkpt>
<trkpt lat="49.572180" lon="8.980230">
<ele>431.5</ele>
<speed>44.3</speed>
<course>211.7</course>
<desc>Speed 44.3 km/h Distance 73.85 km</desc>
<time>2010-08-25T17:54:05.81</time>
<name>1694</name>
</trkpt>
<trkpt lat="49.571968" lon="8.980028">
<ele>431.0</ele>
<speed>50.5</speed>
<course>217.7</course>
<desc>Speed 50.5 km/h Distance 73.88 km</desc>
<time>2010-08-25T17:54:07.81</time>
<name>1695</name>
</trkpt>
<trkpt lat="49.571863" lon="8.979903">
<ele>435.5</ele>
<speed>50.5</speed>
<course>221.8</course>
<desc>Speed 50.5 km/h Distance 73.89 km</desc>
<time>2010-08-25T17:54:08.81</time>
<name>1696</name>
</trkpt>
<trkpt lat="49.571678" lon="8.979648">
<ele>433.5</ele>
<speed>50.5</speed>
<course>238.9</course>
<desc>Speed 50.5 km/h Distance 73.92 km</desc>
<time>2010-08-25T17:54:12.81</time>
<name>1697</name>
</trkpt>
<trkpt lat="49.571607" lon="8.979465">
<ele>433.5</ele>
<speed>48.2</speed>
<course>238.0</course>
<desc>Speed 48.2 km/h Distance 73.94 km</desc>
<time>2010-08-25T17:54:13.81</time>
<name>1698</name>
</trkpt>
<trkpt lat="49.571550" lon="8.979325">
<ele>436.0</ele>
<speed>48.2</speed>
<course>241.2</course>
<desc>Speed 48.2 km/h Distance 73.95 km</desc>
<time>2010-08-25T17:54:14.81</time>
<name>1699</name>
</trkpt>
<trkpt lat="49.571432" lon="8.978993">
<ele>440.0</ele>
<speed>48.2</speed>
<course>217.4</course>
<desc>Speed 48.2 km/h Distance 73.98 km</desc>
<time>2010-08-25T17:54:17.81</time>
<name>1700</name>
</trkpt>
<trkpt lat="49.571060" lon="8.978555">
<ele>449.5</ele>
<speed>41.3</speed>
<course>203.6</course>
<desc>Speed 41.3 km/h Distance 74.03 km</desc>
<time>2010-08-25T17:54:21.80</time>
<name>1701</name>
</trkpt>
<trkpt lat="49.570840" lon="8.978407">
<ele>453.5</ele>
<speed>41.3</speed>
<course>199.1</course>
<desc>Speed 41.3 km/h Distance 74.06 km</desc>
<time>2010-08-25T17:54:23.80</time>
<name>1702</name>
</trkpt>
<trkpt lat="49.570578" lon="8.978267">
<ele>449.5</ele>
<speed>35.8</speed>
<course>192.2</course>
<desc>Speed 35.8 km/h Distance 74.09 km</desc>
<time>2010-08-25T17:54:25.80</time>
<name>1703</name>
</trkpt>
<trkpt lat="49.570488" lon="8.978237">
<ele>449.5</ele>
<speed>35.8</speed>
<course>189.4</course>
<desc>Speed 35.8 km/h Distance 74.10 km</desc>
<time>2010-08-25T17:54:26.80</time>
<name>1704</name>
</trkpt>
<trkpt lat="49.570410" lon="8.978217">
<ele>449.0</ele>
<speed>35.8</speed>
<course>199.7</course>
<desc>Speed 35.8 km/h Distance 74.11 km</desc>
<time>2010-08-25T17:54:27.80</time>
<name>1705</name>
</trkpt>
<trkpt lat="49.570213" lon="8.978108">
<ele>446.5</ele>
<speed>37.5</speed>
<course>206.1</course>
<desc>Speed 37.5 km/h Distance 74.13 km</desc>
<time>2010-08-25T17:54:29.80</time>
<name>1706</name>
</trkpt>
<trkpt lat="49.570022" lon="8.977963">
<ele>447.0</ele>
<speed>39.5</speed>
<course>212.3</course>
<desc>Speed 39.5 km/h Distance 74.15 km</desc>
<time>2010-08-25T17:54:31.80</time>
<name>1707</name>
</trkpt>
<trkpt lat="49.569668" lon="8.977618">
<ele>449.5</ele>
<speed>35.5</speed>
<course>215.5</course>
<desc>Speed 35.5 km/h Distance 74.20 km</desc>
<time>2010-08-25T17:54:34.79</time>
<name>1708</name>
</trkpt>
<trkpt lat="49.569485" lon="8.977417">
<ele>451.5</ele>
<speed>37.0</speed>
<course>215.4</course>
<desc>Speed 37.0 km/h Distance 74.22 km</desc>
<time>2010-08-25T17:54:36.79</time>
<name>1709</name>
</trkpt>
<trkpt lat="49.569417" lon="8.977342">
<ele>451.5</ele>
<speed>37.0</speed>
<course>232.8</course>
<desc>Speed 37.0 km/h Distance 74.23 km</desc>
<time>2010-08-25T17:54:37.79</time>
<name>1710</name>
</trkpt>
<trkpt lat="49.569360" lon="8.977227">
<ele>451.5</ele>
<speed>36.5</speed>
<course>227.5</course>
<desc>Speed 36.5 km/h Distance 74.24 km</desc>
<time>2010-08-25T17:54:38.80</time>
<name>1711</name>
</trkpt>
<trkpt lat="49.569292" lon="8.977112">
<ele>452.0</ele>
<speed>33.3</speed>
<course>228.8</course>
<desc>Speed 33.3 km/h Distance 74.25 km</desc>
<time>2010-08-25T17:54:39.79</time>
<name>1712</name>
</trkpt>
<trkpt lat="49.569243" lon="8.977027">
<ele>452.5</ele>
<speed>33.3</speed>
<course>225.7</course>
<desc>Speed 33.3 km/h Distance 74.26 km</desc>
<time>2010-08-25T17:54:40.80</time>
<name>1713</name>
</trkpt>
<trkpt lat="49.569192" lon="8.976945">
<ele>453.5</ele>
<speed>33.3</speed>
<course>236.8</course>
<desc>Speed 33.3 km/h Distance 74.27 km</desc>
<time>2010-08-25T17:54:41.79</time>
<name>1714</name>
</trkpt>
<trkpt lat="49.569102" lon="8.976733">
<ele>456.5</ele>
<speed>38.2</speed>
<course>234.7</course>
<desc>Speed 38.2 km/h Distance 74.29 km</desc>
<time>2010-08-25T17:54:43.79</time>
<name>1715</name>
</trkpt>
<trkpt lat="49.569055" lon="8.976632">
<ele>457.5</ele>
<speed>38.2</speed>
<course>228.7</course>
<desc>Speed 38.2 km/h Distance 74.30 km</desc>
<time>2010-08-25T17:54:44.79</time>
<name>1716</name>
</trkpt>
<trkpt lat="49.569000" lon="8.976535">
<ele>459.0</ele>
<speed>38.2</speed>
<course>231.1</course>
<desc>Speed 38.2 km/h Distance 74.31 km</desc>
<time>2010-08-25T17:54:45.80</time>
<name>1717</name>
</trkpt>
<trkpt lat="49.568868" lon="8.976283">
<ele>456.0</ele>
<speed>38.2</speed>
<course>226.9</course>
<desc>Speed 38.2 km/h Distance 74.33 km</desc>
<time>2010-08-25T17:54:47.79</time>
<name>1718</name>
</trkpt>
<trkpt lat="49.568773" lon="8.976127">
<ele>457.5</ele>
<speed>38.2</speed>
<course>226.7</course>
<desc>Speed 38.2 km/h Distance 74.35 km</desc>
<time>2010-08-25T17:54:50.79</time>
<name>1719</name>
</trkpt>
<trkpt lat="49.568705" lon="8.976015">
<ele>457.5</ele>
<speed>38.2</speed>
<course>223.5</course>
<desc>Speed 38.2 km/h Distance 74.36 km</desc>
<time>2010-08-25T17:54:51.79</time>
<name>1720</name>
</trkpt>
<trkpt lat="49.568583" lon="8.975837">
<ele>459.0</ele>
<speed>38.2</speed>
<course>229.9</course>
<desc>Speed 38.2 km/h Distance 74.38 km</desc>
<time>2010-08-25T17:54:53.82</time>
<name>1721</name>
</trkpt>
<trkpt lat="49.568523" lon="8.975727">
<ele>459.5</ele>
<speed>33.2</speed>
<course>232.0</course>
<desc>Speed 33.2 km/h Distance 74.39 km</desc>
<time>2010-08-25T17:54:54.82</time>
<name>1722</name>
</trkpt>
<trkpt lat="49.568462" lon="8.975605">
<ele>459.5</ele>
<speed>35.9</speed>
<course>228.9</course>
<desc>Speed 35.9 km/h Distance 74.40 km</desc>
<time>2010-08-25T17:54:55.82</time>
<name>1723</name>
</trkpt>
<trkpt lat="49.568412" lon="8.975517">
<ele>459.0</ele>
<speed>35.9</speed>
<course>223.7</course>
<desc>Speed 35.9 km/h Distance 74.41 km</desc>
<time>2010-08-25T17:54:56.82</time>
<name>1724</name>
</trkpt>
<trkpt lat="49.568352" lon="8.975428">
<ele>459.5</ele>
<speed>35.9</speed>
<course>227.9</course>
<desc>Speed 35.9 km/h Distance 74.42 km</desc>
<time>2010-08-25T17:54:57.82</time>
<name>1725</name>
</trkpt>
<trkpt lat="49.568283" lon="8.975312">
<ele>459.0</ele>
<speed>31.4</speed>
<course>226.3</course>
<desc>Speed 31.4 km/h Distance 74.43 km</desc>
<time>2010-08-25T17:54:58.82</time>
<name>1726</name>
</trkpt>
<trkpt lat="49.568153" lon="8.975102">
<ele>457.5</ele>
<speed>34.8</speed>
<course>224.9</course>
<desc>Speed 34.8 km/h Distance 74.45 km</desc>
<time>2010-08-25T17:55:00.81</time>
<name>1727</name>
</trkpt>
<trkpt lat="49.567915" lon="8.974735">
<ele>455.5</ele>
<speed>32.1</speed>
<course>236.7</course>
<desc>Speed 32.1 km/h Distance 74.49 km</desc>
<time>2010-08-25T17:55:03.81</time>
<name>1728</name>
</trkpt>
<trkpt lat="49.567877" lon="8.974645">
<ele>455.5</ele>
<speed>32.1</speed>
<course>229.6</course>
<desc>Speed 32.1 km/h Distance 74.49 km</desc>
<time>2010-08-25T17:55:04.81</time>
<name>1729</name>
</trkpt>
<trkpt lat="49.567832" lon="8.974563">
<ele>455.5</ele>
<speed>32.1</speed>
<course>238.5</course>
<desc>Speed 32.1 km/h Distance 74.50 km</desc>
<time>2010-08-25T17:55:05.81</time>
<name>1730</name>
</trkpt>
<trkpt lat="49.567773" lon="8.974417">
<ele>455.0</ele>
<speed>32.1</speed>
<course>237.1</course>
<desc>Speed 32.1 km/h Distance 74.51 km</desc>
<time>2010-08-25T17:55:08.81</time>
<name>1731</name>
</trkpt>
<trkpt lat="49.567700" lon="8.974242">
<ele>456.0</ele>
<speed>25.6</speed>
<course>240.0</course>
<desc>Speed 25.6 km/h Distance 74.53 km</desc>
<time>2010-08-25T17:55:10.81</time>
<name>1732</name>
</trkpt>
<trkpt lat="49.567665" lon="8.974148">
<ele>455.5</ele>
<speed>25.6</speed>
<course>243.7</course>
<desc>Speed 25.6 km/h Distance 74.54 km</desc>
<time>2010-08-25T17:55:11.80</time>
<name>1733</name>
</trkpt>
<trkpt lat="49.567638" lon="8.974065">
<ele>455.5</ele>
<speed>25.6</speed>
<course>252.9</course>
<desc>Speed 25.6 km/h Distance 74.54 km</desc>
<time>2010-08-25T17:55:12.81</time>
<name>1734</name>
</trkpt>
<trkpt lat="49.567595" lon="8.973848">
<ele>455.5</ele>
<speed>28.6</speed>
<course>254.1</course>
<desc>Speed 28.6 km/h Distance 74.56 km</desc>
<time>2010-08-25T17:55:14.81</time>
<name>1735</name>
</trkpt>
<trkpt lat="49.567570" lon="8.973713">
<ele>455.5</ele>
<speed>28.6</speed>
<course>261.1</course>
<desc>Speed 28.6 km/h Distance 74.57 km</desc>
<time>2010-08-25T17:55:16.80</time>
<name>1736</name>
</trkpt>
<trkpt lat="49.567558" lon="8.973598">
<ele>455.0</ele>
<speed>28.6</speed>
<course>270.0</course>
<desc>Speed 28.6 km/h Distance 74.58 km</desc>
<time>2010-08-25T17:55:18.80</time>
<name>1737</name>
</trkpt>
<trkpt lat="49.567558" lon="8.973470">
<ele>454.5</ele>
<speed>28.6</speed>
<course>274.1</course>
<desc>Speed 28.6 km/h Distance 74.59 km</desc>
<time>2010-08-25T17:55:20.80</time>
<name>1738</name>
</trkpt>
<trkpt lat="49.567563" lon="8.973362">
<ele>454.0</ele>
<speed>28.6</speed>
<course>293.2</course>
<desc>Speed 28.6 km/h Distance 74.59 km</desc>
<time>2010-08-25T17:55:23.79</time>
<name>1739</name>
</trkpt>
<trkpt lat="49.567588" lon="8.973272">
<ele>456.0</ele>
<speed>28.6</speed>
<course>313.9</course>
<desc>Speed 28.6 km/h Distance 74.60 km</desc>
<time>2010-08-25T17:55:24.80</time>
<name>1740</name>
</trkpt>
<trkpt lat="49.567668" lon="8.973143">
<ele>458.5</ele>
<speed>28.6</speed>
<course>271.0</course>
<desc>Speed 28.6 km/h Distance 74.61 km</desc>
<time>2010-08-25T17:55:26.80</time>
<name>1741</name>
</trkpt>
<trkpt lat="49.567670" lon="8.972992">
<ele>459.5</ele>
<speed>28.6</speed>
<course>282.7</course>
<desc>Speed 28.6 km/h Distance 74.63 km</desc>
<time>2010-08-25T17:55:28.79</time>
<name>1742</name>
</trkpt>
<trkpt lat="49.567680" lon="8.972923">
<ele>460.0</ele>
<speed>28.6</speed>
<course>5.2</course>
<desc>Speed 28.6 km/h Distance 74.63 km</desc>
<time>2010-08-25T17:55:32.79</time>
<name>1743</name>
</trkpt>
<trkpt lat="49.567787" lon="8.972938">
<ele>460.5</ele>
<speed>28.6</speed>
<course>9.2</course>
<desc>Speed 28.6 km/h Distance 74.64 km</desc>
<time>2010-08-25T17:55:36.79</time>
<name>1744</name>
</trkpt>
<trkpt lat="49.567853" lon="8.972955">
<ele>460.5</ele>
<speed>28.6</speed>
<course>323.5</course>
<desc>Speed 28.6 km/h Distance 74.65 km</desc>
<time>2010-08-25T17:55:39.79</time>
<name>1745</name>
</trkpt>
<trkpt lat="49.567935" lon="8.972862">
<ele>460.0</ele>
<speed>28.6</speed>
<course>326.0</course>
<desc>Speed 28.6 km/h Distance 74.66 km</desc>
<time>2010-08-25T17:55:42.78</time>
<name>1746</name>
</trkpt>
<trkpt lat="49.568017" lon="8.972777">
<ele>459.5</ele>
<speed>28.6</speed>
<course>324.4</course>
<desc>Speed 28.6 km/h Distance 74.67 km</desc>
<time>2010-08-25T17:55:46.77</time>
<name>1747</name>
</trkpt>
<trkpt lat="49.568113" lon="8.972670">
<ele>459.0</ele>
<speed>28.6</speed>
<course>10.5</course>
<desc>Speed 28.6 km/h Distance 74.69 km</desc>
<time>2010-08-25T17:55:49.77</time>
<name>1748</name>
</trkpt>
<trkpt lat="49.568183" lon="8.972690">
<ele>459.0</ele>
<speed>28.6</speed>
<course>331.9</course>
<desc>Speed 28.6 km/h Distance 74.69 km</desc>
<time>2010-08-25T17:55:52.77</time>
<name>1749</name>
</trkpt>
<trkpt lat="49.568363" lon="8.972542">
<ele>458.5</ele>
<speed>18.6</speed>
<course>357.0</course>
<desc>Speed 18.6 km/h Distance 74.72 km</desc>
<time>2010-08-25T17:55:54.78</time>
<name>1750</name>
</trkpt>
<trkpt lat="49.568898" lon="8.972498">
<ele>458.5</ele>
<speed>18.6</speed>
<course>271.6</course>
<desc>Speed 18.6 km/h Distance 74.78 km</desc>
<time>2010-08-25T17:55:59.77</time>
<name>1751</name>
</trkpt>
<trkpt lat="49.568902" lon="8.972318">
<ele>458.5</ele>
<speed>18.6</speed>
<course>279.4</course>
<desc>Speed 18.6 km/h Distance 74.79 km</desc>
<time>2010-08-25T17:56:01.77</time>
<name>1752</name>
</trkpt>
<trkpt lat="49.568907" lon="8.972272">
<ele>458.5</ele>
<speed>18.6</speed>
<course>264.5</course>
<desc>Speed 18.6 km/h Distance 74.79 km</desc>
<time>2010-08-25T17:56:03.77</time>
<name>1753</name>
</trkpt>
<trkpt lat="49.568862" lon="8.971547">
<ele>458.5</ele>
<speed>18.6</speed>
<course>319.2</course>
<desc>Speed 18.6 km/h Distance 74.85 km</desc>
<time>2010-08-25T17:56:05.78</time>
<name>1754</name>
</trkpt>
<trkpt lat="49.569587" lon="8.970582">
<ele>457.5</ele>
<speed>18.6</speed>
<course>245.3</course>
<desc>Speed 18.6 km/h Distance 74.95 km</desc>
<time>2010-08-25T17:56:11.77</time>
<name>1755</name>
</trkpt>
<trkpt lat="49.569563" lon="8.970503">
<ele>457.5</ele>
<speed>18.6</speed>
<course>268.1</course>
<desc>Speed 18.6 km/h Distance 74.96 km</desc>
<time>2010-08-25T17:56:13.78</time>
<name>1756</name>
</trkpt>
<trkpt lat="49.569562" lon="8.970425">
<ele>457.5</ele>
<speed>18.6</speed>
<course>283.5</course>
<desc>Speed 18.6 km/h Distance 74.96 km</desc>
<time>2010-08-25T17:56:14.76</time>
<name>1757</name>
</trkpt>
<trkpt lat="49.569570" lon="8.970372">
<ele>457.0</ele>
<speed>18.6</speed>
<course>327.8</course>
<desc>Speed 18.6 km/h Distance 74.97 km</desc>
<time>2010-08-25T17:56:16.76</time>
<name>1758</name>
</trkpt>
<trkpt lat="49.569625" lon="8.970318">
<ele>457.0</ele>
<speed>18.6</speed>
<course>311.7</course>
<desc>Speed 18.6 km/h Distance 74.97 km</desc>
<time>2010-08-25T17:56:18.77</time>
<name>1759</name>
</trkpt>
<trkpt lat="49.569643" lon="8.970287">
<ele>457.0</ele>
<speed>18.6</speed>
<course>298.9</course>
<desc>Speed 18.6 km/h Distance 74.98 km</desc>
<time>2010-08-25T17:56:20.76</time>
<name>1760</name>
</trkpt>
<trkpt lat="49.571307" lon="8.965642">
<ele>457.5</ele>
<speed>97.8</speed>
<course>302.1</course>
<desc>Speed 97.8 km/h Distance 75.36 km</desc>
<time>2010-08-25T17:56:24.77</time>
<name>1761</name>
</trkpt>
<trkpt lat="49.572758" lon="8.962073">
<ele>485.5</ele>
<speed>115</speed>
<course>309.2</course>
<desc>Speed 115 km/h Distance 75.67 km</desc>
<time>2010-08-25T17:56:30.76</time>
<name>1762</name>
</trkpt>
<trkpt lat="49.573400" lon="8.960858">
<ele>492.0</ele>
<speed>95.3</speed>
<course>305.0</course>
<desc>Speed 95.3 km/h Distance 75.78 km</desc>
<time>2010-08-25T17:56:33.76</time>
<name>1763</name>
</trkpt>
<trkpt lat="49.573827" lon="8.959918">
<ele>492.5</ele>
<speed>85.0</speed>
<course>294.7</course>
<desc>Speed 85.0 km/h Distance 75.86 km</desc>
<time>2010-08-25T17:56:36.76</time>
<name>1764</name>
</trkpt>
<trkpt lat="49.574012" lon="8.959298">
<ele>491.5</ele>
<speed>82.0</speed>
<course>294.9</course>
<desc>Speed 82.0 km/h Distance 75.91 km</desc>
<time>2010-08-25T17:56:38.76</time>
<name>1765</name>
</trkpt>
<trkpt lat="49.574090" lon="8.959038">
<ele>490.0</ele>
<speed>82.0</speed>
<course>295.8</course>
<desc>Speed 82.0 km/h Distance 75.93 km</desc>
<time>2010-08-25T17:56:39.75</time>
<name>1766</name>
</trkpt>
<trkpt lat="49.574180" lon="8.958752">
<ele>488.5</ele>
<speed>82.0</speed>
<course>286.2</course>
<desc>Speed 82.0 km/h Distance 75.95 km</desc>
<time>2010-08-25T17:56:40.76</time>
<name>1767</name>
</trkpt>
<trkpt lat="49.574367" lon="8.957763">
<ele>479.5</ele>
<speed>82.0</speed>
<course>245.7</course>
<desc>Speed 82.0 km/h Distance 76.03 km</desc>
<time>2010-08-25T17:56:46.75</time>
<name>1768</name>
</trkpt>
<trkpt lat="49.573468" lon="8.954688">
<ele>475.5</ele>
<speed>82.0</speed>
<course>255.0</course>
<desc>Speed 82.0 km/h Distance 76.27 km</desc>
<time>2010-08-25T17:56:53.74</time>
<name>1769</name>
</trkpt>
<trkpt lat="49.573383" lon="8.954198">
<ele>475.0</ele>
<speed>82.0</speed>
<course>260.7</course>
<desc>Speed 82.0 km/h Distance 76.31 km</desc>
<time>2010-08-25T17:56:59.73</time>
<name>1770</name>
</trkpt>
<trkpt lat="49.572895" lon="8.949588">
<ele>474.0</ele>
<speed>82.0</speed>
<course>304.9</course>
<desc>Speed 82.0 km/h Distance 76.65 km</desc>
<time>2010-08-25T17:57:17.72</time>
<name>1771</name>
</trkpt>
<trkpt lat="49.573153" lon="8.949017">
<ele>473.5</ele>
<speed>82.0</speed>
<course>308.3</course>
<desc>Speed 82.0 km/h Distance 76.70 km</desc>
<time>2010-08-25T17:57:19.72</time>
<name>1772</name>
</trkpt>
<trkpt lat="49.573395" lon="8.948545">
<ele>473.5</ele>
<speed>82.0</speed>
<course>296.6</course>
<desc>Speed 82.0 km/h Distance 76.74 km</desc>
<time>2010-08-25T17:57:21.72</time>
<name>1773</name>
</trkpt>
<trkpt lat="49.573570" lon="8.948007">
<ele>473.5</ele>
<speed>82.0</speed>
<course>306.4</course>
<desc>Speed 82.0 km/h Distance 76.78 km</desc>
<time>2010-08-25T17:57:27.71</time>
<name>1774</name>
</trkpt>
<trkpt lat="49.574193" lon="8.946703">
<ele>473.5</ele>
<speed>82.0</speed>
<course>11.8</course>
<desc>Speed 82.0 km/h Distance 76.90 km</desc>
<time>2010-08-25T17:57:32.72</time>
<name>1775</name>
</trkpt>
<trkpt lat="49.574873" lon="8.946923">
<ele>473.5</ele>
<speed>82.0</speed>
<course>327.5</course>
<desc>Speed 82.0 km/h Distance 76.98 km</desc>
<time>2010-08-25T17:57:35.71</time>
<name>1776</name>
</trkpt>
<trkpt lat="49.576693" lon="8.945135">
<ele>473.5</ele>
<speed>82.0</speed>
<course>353.2</course>
<desc>Speed 82.0 km/h Distance 77.22 km</desc>
<time>2010-08-25T17:57:49.71</time>
<name>1777</name>
</trkpt>
<trkpt lat="49.577165" lon="8.945048">
<ele>473.5</ele>
<speed>82.0</speed>
<course>294.5</course>
<desc>Speed 82.0 km/h Distance 77.27 km</desc>
<time>2010-08-25T17:57:51.72</time>
<name>1778</name>
</trkpt>
<trkpt lat="49.577428" lon="8.944158">
<ele>474.0</ele>
<speed>82.0</speed>
<course>357.8</course>
<desc>Speed 82.0 km/h Distance 77.34 km</desc>
<time>2010-08-25T17:57:54.71</time>
<name>1779</name>
</trkpt>
<trkpt lat="49.579037" lon="8.944062">
<ele>474.5</ele>
<speed>82.0</speed>
<course>311.6</course>
<desc>Speed 82.0 km/h Distance 77.52 km</desc>
<time>2010-08-25T17:57:57.71</time>
<name>1780</name>
</trkpt>
<trkpt lat="49.579510" lon="8.943240">
<ele>474.0</ele>
<speed>94.4</speed>
<course>307.9</course>
<desc>Speed 94.4 km/h Distance 77.60 km</desc>
<time>2010-08-25T17:58:00.71</time>
<name>1781</name>
</trkpt>
<trkpt lat="49.580223" lon="8.941828">
<ele>474.0</ele>
<speed>94.4</speed>
<course>334.7</course>
<desc>Speed 94.4 km/h Distance 77.73 km</desc>
<time>2010-08-25T17:58:04.70</time>
<name>1782</name>
</trkpt>
<trkpt lat="49.580878" lon="8.941350">
<ele>474.0</ele>
<speed>75.9</speed>
<course>348.4</course>
<desc>Speed 75.9 km/h Distance 77.81 km</desc>
<time>2010-08-25T17:58:08.70</time>
<name>1783</name>
</trkpt>
<trkpt lat="49.582098" lon="8.940963">
<ele>473.5</ele>
<speed>82.2</speed>
<course>354.9</course>
<desc>Speed 82.2 km/h Distance 77.95 km</desc>
<time>2010-08-25T17:58:13.70</time>
<name>1784</name>
</trkpt>
<trkpt lat="49.582315" lon="8.940933">
<ele>473.5</ele>
<speed>82.2</speed>
<course>341.8</course>
<desc>Speed 82.2 km/h Distance 77.97 km</desc>
<time>2010-08-25T17:58:14.69</time>
<name>1785</name>
</trkpt>
<trkpt lat="49.582740" lon="8.940718">
<ele>473.5</ele>
<speed>82.2</speed>
<course>319.8</course>
<desc>Speed 82.2 km/h Distance 78.02 km</desc>
<time>2010-08-25T17:58:19.70</time>
<name>1786</name>
</trkpt>
<trkpt lat="49.583172" lon="8.940157">
<ele>473.5</ele>
<speed>82.2</speed>
<course>303.4</course>
<desc>Speed 82.2 km/h Distance 78.08 km</desc>
<time>2010-08-25T17:58:23.69</time>
<name>1787</name>
</trkpt>
<trkpt lat="49.583830" lon="8.938615">
<ele>473.0</ele>
<speed>82.2</speed>
<course>293.7</course>
<desc>Speed 82.2 km/h Distance 78.22 km</desc>
<time>2010-08-25T17:58:27.68</time>
<name>1788</name>
</trkpt>
<trkpt lat="49.584573" lon="8.936000">
<ele>467.5</ele>
<speed>82.2</speed>
<course>298.8</course>
<desc>Speed 82.2 km/h Distance 78.42 km</desc>
<time>2010-08-25T17:58:33.68</time>
<name>1789</name>
</trkpt>
<trkpt lat="49.584802" lon="8.935358">
<ele>468.0</ele>
<speed>68.1</speed>
<course>282.8</course>
<desc>Speed 68.1 km/h Distance 78.48 km</desc>
<time>2010-08-25T17:58:36.67</time>
<name>1790</name>
</trkpt>
<trkpt lat="49.584837" lon="8.935122">
<ele>468.5</ele>
<speed>68.1</speed>
<course>291.4</course>
<desc>Speed 68.1 km/h Distance 78.49 km</desc>
<time>2010-08-25T17:58:37.68</time>
<name>1791</name>
</trkpt>
<trkpt lat="49.584953" lon="8.934662">
<ele>456.0</ele>
<speed>67.3</speed>
<course>283.9</course>
<desc>Speed 67.3 km/h Distance 78.53 km</desc>
<time>2010-08-25T17:58:39.68</time>
<name>1792</name>
</trkpt>
<trkpt lat="49.585020" lon="8.934247">
<ele>451.5</ele>
<speed>67.3</speed>
<course>281.7</course>
<desc>Speed 67.3 km/h Distance 78.56 km</desc>
<time>2010-08-25T17:58:41.67</time>
<name>1793</name>
</trkpt>
<trkpt lat="49.585103" lon="8.933628">
<ele>441.0</ele>
<speed>67.3</speed>
<course>302.2</course>
<desc>Speed 67.3 km/h Distance 78.61 km</desc>
<time>2010-08-25T17:58:46.66</time>
<name>1794</name>
</trkpt>
<trkpt lat="49.585782" lon="8.931968">
<ele>406.5</ele>
<speed>60.9</speed>
<course>302.7</course>
<desc>Speed 60.9 km/h Distance 78.75 km</desc>
<time>2010-08-25T17:58:51.66</time>
<name>1795</name>
</trkpt>
<trkpt lat="49.585978" lon="8.931495">
<ele>410.5</ele>
<speed>55.7</speed>
<course>303.8</course>
<desc>Speed 55.7 km/h Distance 78.79 km</desc>
<time>2010-08-25T17:58:53.66</time>
<name>1796</name>
</trkpt>
<trkpt lat="49.586060" lon="8.931307">
<ele>410.0</ele>
<speed>55.1</speed>
<course>287.2</course>
<desc>Speed 55.1 km/h Distance 78.80 km</desc>
<time>2010-08-25T17:58:54.66</time>
<name>1797</name>
</trkpt>
<trkpt lat="49.586227" lon="8.930475">
<ele>423.5</ele>
<speed>54.9</speed>
<course>302.6</course>
<desc>Speed 54.9 km/h Distance 78.87 km</desc>
<time>2010-08-25T17:58:57.66</time>
<name>1798</name>
</trkpt>
<trkpt lat="49.586400" lon="8.930057">
<ele>420.5</ele>
<speed>54.1</speed>
<course>301.9</course>
<desc>Speed 54.1 km/h Distance 78.90 km</desc>
<time>2010-08-25T17:58:59.65</time>
<name>1799</name>
</trkpt>
<trkpt lat="49.586473" lon="8.929875">
<ele>422.5</ele>
<speed>50.9</speed>
<course>301.7</course>
<desc>Speed 50.9 km/h Distance 78.92 km</desc>
<time>2010-08-25T17:59:00.66</time>
<name>1800</name>
</trkpt>
<trkpt lat="49.586540" lon="8.929708">
<ele>421.5</ele>
<speed>49.7</speed>
<course>294.5</course>
<desc>Speed 49.7 km/h Distance 78.93 km</desc>
<time>2010-08-25T17:59:01.65</time>
<name>1801</name>
</trkpt>
<trkpt lat="49.586597" lon="8.929517">
<ele>420.0</ele>
<speed>48.9</speed>
<course>300.0</course>
<desc>Speed 48.9 km/h Distance 78.95 km</desc>
<time>2010-08-25T17:59:02.65</time>
<name>1802</name>
</trkpt>
<trkpt lat="49.586662" lon="8.929343">
<ele>420.0</ele>
<speed>49.1</speed>
<course>298.1</course>
<desc>Speed 49.1 km/h Distance 78.96 km</desc>
<time>2010-08-25T17:59:03.65</time>
<name>1803</name>
</trkpt>
<trkpt lat="49.586793" lon="8.928963">
<ele>419.0</ele>
<speed>54.1</speed>
<course>299.5</course>
<desc>Speed 54.1 km/h Distance 78.99 km</desc>
<time>2010-08-25T17:59:05.65</time>
<name>1804</name>
</trkpt>
<trkpt lat="49.586895" lon="8.928687">
<ele>420.0</ele>
<speed>54.1</speed>
<course>297.4</course>
<desc>Speed 54.1 km/h Distance 79.02 km</desc>
<time>2010-08-25T17:59:07.65</time>
<name>1805</name>
</trkpt>
<trkpt lat="49.587015" lon="8.928330">
<ele>426.0</ele>
<speed>54.1</speed>
<course>302.9</course>
<desc>Speed 54.1 km/h Distance 79.05 km</desc>
<time>2010-08-25T17:59:11.64</time>
<name>1806</name>
</trkpt>
<trkpt lat="49.587142" lon="8.928028">
<ele>426.5</ele>
<speed>45.9</speed>
<course>294.3</course>
<desc>Speed 45.9 km/h Distance 79.07 km</desc>
<time>2010-08-25T17:59:13.64</time>
<name>1807</name>
</trkpt>
<trkpt lat="49.587182" lon="8.927892">
<ele>428.0</ele>
<speed>45.9</speed>
<course>301.0</course>
<desc>Speed 45.9 km/h Distance 79.08 km</desc>
<time>2010-08-25T17:59:14.64</time>
<name>1808</name>
</trkpt>
<trkpt lat="49.587308" lon="8.927567">
<ele>425.5</ele>
<speed>47.1</speed>
<course>316.8</course>
<desc>Speed 47.1 km/h Distance 79.11 km</desc>
<time>2010-08-25T17:59:16.63</time>
<name>1809</name>
</trkpt>
<trkpt lat="49.587493" lon="8.927298">
<ele>425.0</ele>
<speed>48.4</speed>
<course>321.9</course>
<desc>Speed 48.4 km/h Distance 79.14 km</desc>
<time>2010-08-25T17:59:18.63</time>
<name>1810</name>
</trkpt>
<trkpt lat="49.588297" lon="8.926325">
<ele>429.5</ele>
<speed>66.1</speed>
<course>331.8</course>
<desc>Speed 66.1 km/h Distance 79.25 km</desc>
<time>2010-08-25T17:59:23.62</time>
<name>1811</name>
</trkpt>
<trkpt lat="49.588682" lon="8.926007">
<ele>431.0</ele>
<speed>66.1</speed>
<course>302.2</course>
<desc>Speed 66.1 km/h Distance 79.30 km</desc>
<time>2010-08-25T17:59:27.62</time>
<name>1812</name>
</trkpt>
<trkpt lat="49.588837" lon="8.925627">
<ele>419.5</ele>
<speed>66.1</speed>
<course>317.7</course>
<desc>Speed 66.1 km/h Distance 79.33 km</desc>
<time>2010-08-25T17:59:29.62</time>
<name>1813</name>
</trkpt>
<trkpt lat="49.589065" lon="8.925307">
<ele>415.0</ele>
<speed>66.1</speed>
<course>331.1</course>
<desc>Speed 66.1 km/h Distance 79.37 km</desc>
<time>2010-08-25T17:59:35.61</time>
<name>1814</name>
</trkpt>
<trkpt lat="49.591027" lon="8.923637">
<ele>417.0</ele>
<speed>66.1</speed>
<course>333.1</course>
<desc>Speed 66.1 km/h Distance 79.62 km</desc>
<time>2010-08-25T17:59:44.61</time>
<name>1815</name>
</trkpt>
<trkpt lat="49.592715" lon="8.922317">
<ele>420.5</ele>
<speed>102</speed>
<course>328.0</course>
<desc>Speed 102 km/h Distance 79.83 km</desc>
<time>2010-08-25T17:59:50.61</time>
<name>1816</name>
</trkpt>
<trkpt lat="49.593428" lon="8.921628">
<ele>421.0</ele>
<speed>87.4</speed>
<course>337.4</course>
<desc>Speed 87.4 km/h Distance 79.92 km</desc>
<time>2010-08-25T17:59:55.57</time>
<name>1817</name>
</trkpt>
<trkpt lat="49.595448" lon="8.920332">
<ele>425.0</ele>
<speed>90.8</speed>
<course>316.5</course>
<desc>Speed 90.8 km/h Distance 80.16 km</desc>
<time>2010-08-25T18:00:01.56</time>
<name>1818</name>
</trkpt>
<trkpt lat="49.596032" lon="8.919477">
<ele>435.5</ele>
<speed>98.7</speed>
<course>310.3</course>
<desc>Speed 98.7 km/h Distance 80.25 km</desc>
<time>2010-08-25T18:00:04.56</time>
<name>1819</name>
</trkpt>
<trkpt lat="49.596372" lon="8.918858">
<ele>439.5</ele>
<speed>104</speed>
<course>297.6</course>
<desc>Speed 104 km/h Distance 80.31 km</desc>
<time>2010-08-25T18:00:06.55</time>
<name>1820</name>
</trkpt>
<trkpt lat="49.596758" lon="8.917718">
<ele>450.5</ele>
<speed>104</speed>
<course>291.4</course>
<desc>Speed 104 km/h Distance 80.41 km</desc>
<time>2010-08-25T18:00:11.55</time>
<name>1821</name>
</trkpt>
<trkpt lat="49.597228" lon="8.915867">
<ele>474.5</ele>
<speed>117</speed>
<course>286.3</course>
<desc>Speed 117 km/h Distance 80.55 km</desc>
<time>2010-08-25T18:00:15.55</time>
<name>1822</name>
</trkpt>
<trkpt lat="49.597423" lon="8.914838">
<ele>479.5</ele>
<speed>117</speed>
<course>250.3</course>
<desc>Speed 117 km/h Distance 80.63 km</desc>
<time>2010-08-25T18:00:21.54</time>
<name>1823</name>
</trkpt>
<trkpt lat="49.597205" lon="8.913895">
<ele>479.5</ele>
<speed>117</speed>
<course>279.6</course>
<desc>Speed 117 km/h Distance 80.70 km</desc>
<time>2010-08-25T18:00:23.56</time>
<name>1824</name>
</trkpt>
<trkpt lat="49.597593" lon="8.910353">
<ele>477.0</ele>
<speed>93.9</speed>
<course>305.9</course>
<desc>Speed 93.9 km/h Distance 80.96 km</desc>
<time>2010-08-25T18:00:29.54</time>
<name>1825</name>
</trkpt>
<trkpt lat="49.598137" lon="8.909197">
<ele>479.0</ele>
<speed>93.9</speed>
<course>273.5</course>
<desc>Speed 93.9 km/h Distance 81.06 km</desc>
<time>2010-08-25T18:00:37.53</time>
<name>1826</name>
</trkpt>
<trkpt lat="49.598190" lon="8.907842">
<ele>479.0</ele>
<speed>93.9</speed>
<course>284.5</course>
<desc>Speed 93.9 km/h Distance 81.16 km</desc>
<time>2010-08-25T18:00:40.52</time>
<name>1827</name>
</trkpt>
<trkpt lat="49.598525" lon="8.905842">
<ele>477.5</ele>
<speed>93.9</speed>
<course>297.7</course>
<desc>Speed 93.9 km/h Distance 81.31 km</desc>
<time>2010-08-25T18:00:42.52</time>
<name>1828</name>
</trkpt>
<trkpt lat="49.598608" lon="8.905597">
<ele>477.5</ele>
<speed>93.9</speed>
<course>314.9</course>
<desc>Speed 93.9 km/h Distance 81.33 km</desc>
<time>2010-08-25T18:00:44.52</time>
<name>1829</name>
</trkpt>
<trkpt lat="49.599127" lon="8.904795">
<ele>477.5</ele>
<speed>93.9</speed>
<course>259.0</course>
<desc>Speed 93.9 km/h Distance 81.41 km</desc>
<time>2010-08-25T18:00:46.52</time>
<name>1830</name>
</trkpt>
<trkpt lat="49.598797" lon="8.902175">
<ele>477.5</ele>
<speed>93.9</speed>
<course>251.2</course>
<desc>Speed 93.9 km/h Distance 81.60 km</desc>
<time>2010-08-25T18:00:49.52</time>
<name>1831</name>
</trkpt>
<trkpt lat="49.598630" lon="8.901420">
<ele>477.0</ele>
<speed>93.9</speed>
<course>234.6</course>
<desc>Speed 93.9 km/h Distance 81.66 km</desc>
<time>2010-08-25T18:00:51.52</time>
<name>1832</name>
</trkpt>
<trkpt lat="49.598348" lon="8.900808">
<ele>477.0</ele>
<speed>93.9</speed>
<course>234.2</course>
<desc>Speed 93.9 km/h Distance 81.71 km</desc>
<time>2010-08-25T18:00:53.52</time>
<name>1833</name>
</trkpt>
<trkpt lat="49.598045" lon="8.900160">
<ele>477.0</ele>
<speed>99.8</speed>
<course>230.9</course>
<desc>Speed 99.8 km/h Distance 81.77 km</desc>
<time>2010-08-25T18:00:55.52</time>
<name>1834</name>
</trkpt>
<trkpt lat="49.597883" lon="8.899853">
<ele>478.0</ele>
<speed>99.8</speed>
<course>242.9</course>
<desc>Speed 99.8 km/h Distance 81.80 km</desc>
<time>2010-08-25T18:00:56.52</time>
<name>1835</name>
</trkpt>
<trkpt lat="49.597567" lon="8.898897">
<ele>482.0</ele>
<speed>99.8</speed>
<course>167.4</course>
<desc>Speed 99.8 km/h Distance 81.88 km</desc>
<time>2010-08-25T18:01:02.51</time>
<name>1836</name>
</trkpt>
<trkpt lat="49.597065" lon="8.899070">
<ele>484.0</ele>
<speed>99.8</speed>
<course>206.4</course>
<desc>Speed 99.8 km/h Distance 81.93 km</desc>
<time>2010-08-25T18:01:08.51</time>
<name>1837</name>
</trkpt>
<trkpt lat="49.596557" lon="8.898680">
<ele>485.0</ele>
<speed>99.8</speed>
<course>138.7</course>
<desc>Speed 99.8 km/h Distance 82.00 km</desc>
<time>2010-08-25T18:01:11.50</time>
<name>1838</name>
</trkpt>
<trkpt lat="49.596222" lon="8.899133">
<ele>484.5</ele>
<speed>99.8</speed>
<course>158.0</course>
<desc>Speed 99.8 km/h Distance 82.05 km</desc>
<time>2010-08-25T18:01:13.49</time>
<name>1839</name>
</trkpt>
<trkpt lat="49.595502" lon="8.899582">
<ele>484.0</ele>
<speed>99.8</speed>
<course>210.1</course>
<desc>Speed 99.8 km/h Distance 82.13 km</desc>
<time>2010-08-25T18:01:24.49</time>
<name>1840</name>
</trkpt>
<trkpt lat="49.594917" lon="8.899058">
<ele>484.0</ele>
<speed>99.8</speed>
<course>276.3</course>
<desc>Speed 99.8 km/h Distance 82.21 km</desc>
<time>2010-08-25T18:01:30.49</time>
<name>1841</name>
</trkpt>
<trkpt lat="49.594950" lon="8.898593">
<ele>484.5</ele>
<speed>99.8</speed>
<course>283.4</course>
<desc>Speed 99.8 km/h Distance 82.24 km</desc>
<time>2010-08-25T18:01:32.49</time>
<name>1842</name>
</trkpt>
<trkpt lat="49.595122" lon="8.897482">
<ele>484.5</ele>
<speed>99.8</speed>
<course>294.4</course>
<desc>Speed 99.8 km/h Distance 82.33 km</desc>
<time>2010-08-25T18:01:38.48</time>
<name>1843</name>
</trkpt>
<trkpt lat="49.595202" lon="8.897210">
<ele>484.5</ele>
<speed>99.8</speed>
<course>310.0</course>
<desc>Speed 99.8 km/h Distance 82.35 km</desc>
<time>2010-08-25T18:01:44.47</time>
<name>1844</name>
</trkpt>
<trkpt lat="49.596047" lon="8.895658">
<ele>484.5</ele>
<speed>99.8</speed>
<course>355.0</course>
<desc>Speed 99.8 km/h Distance 82.49 km</desc>
<time>2010-08-25T18:01:50.49</time>
<name>1845</name>
</trkpt>
<trkpt lat="49.598375" lon="8.895343">
<ele>485.5</ele>
<speed>92.4</speed>
<course>330.6</course>
<desc>Speed 92.4 km/h Distance 82.75 km</desc>
<time>2010-08-25T18:01:52.49</time>
<name>1846</name>
</trkpt>
<trkpt lat="49.598833" lon="8.894945">
<ele>486.0</ele>
<speed>92.4</speed>
<course>314.4</course>
<desc>Speed 92.4 km/h Distance 82.81 km</desc>
<time>2010-08-25T18:01:54.48</time>
<name>1847</name>
</trkpt>
<trkpt lat="49.599315" lon="8.894187">
<ele>486.0</ele>
<speed>92.4</speed>
<course>218.8</course>
<desc>Speed 92.4 km/h Distance 82.89 km</desc>
<time>2010-08-25T18:02:00.47</time>
<name>1848</name>
</trkpt>
<trkpt lat="49.599033" lon="8.893837">
<ele>483.5</ele>
<speed>92.4</speed>
<course>208.6</course>
<desc>Speed 92.4 km/h Distance 82.93 km</desc>
<time>2010-08-25T18:02:06.47</time>
<name>1849</name>
</trkpt>
<trkpt lat="49.598812" lon="8.893650">
<ele>483.0</ele>
<speed>92.4</speed>
<course>220.3</course>
<desc>Speed 92.4 km/h Distance 82.96 km</desc>
<time>2010-08-25T18:02:08.46</time>
<name>1850</name>
</trkpt>
<trkpt lat="49.597978" lon="8.892560">
<ele>484.5</ele>
<speed>92.4</speed>
<course>206.6</course>
<desc>Speed 92.4 km/h Distance 83.08 km</desc>
<time>2010-08-25T18:02:13.46</time>
<name>1851</name>
</trkpt>
<trkpt lat="49.597802" lon="8.892423">
<ele>484.5</ele>
<speed>92.4</speed>
<course>258.2</course>
<desc>Speed 92.4 km/h Distance 83.10 km</desc>
<time>2010-08-25T18:02:15.43</time>
<name>1852</name>
</trkpt>
<trkpt lat="49.597753" lon="8.892067">
<ele>484.5</ele>
<speed>92.4</speed>
<course>208.4</course>
<desc>Speed 92.4 km/h Distance 83.13 km</desc>
<time>2010-08-25T18:02:17.45</time>
<name>1853</name>
</trkpt>
<trkpt lat="49.595778" lon="8.890417">
<ele>484.0</ele>
<speed>92.4</speed>
<course>183.0</course>
<desc>Speed 92.4 km/h Distance 83.38 km</desc>
<time>2010-08-25T18:02:25.44</time>
<name>1854</name>
</trkpt>
<trkpt lat="49.595340" lon="8.890382">
<ele>484.0</ele>
<speed>92.4</speed>
<course>238.3</course>
<desc>Speed 92.4 km/h Distance 83.43 km</desc>
<time>2010-08-25T18:02:27.44</time>
<name>1855</name>
</trkpt>
<trkpt lat="49.594775" lon="8.888968">
<ele>485.0</ele>
<speed>92.4</speed>
<course>236.6</course>
<desc>Speed 92.4 km/h Distance 83.55 km</desc>
<time>2010-08-25T18:02:31.43</time>
<name>1856</name>
</trkpt>
<trkpt lat="49.592303" lon="8.883182">
<ele>485.0</ele>
<speed>92.4</speed>
<course>207.8</course>
<desc>Speed 92.4 km/h Distance 84.05 km</desc>
<time>2010-08-25T18:02:45.44</time>
<name>1857</name>
</trkpt>
<trkpt lat="49.591838" lon="8.882803">
<ele>485.5</ele>
<speed>92.4</speed>
<course>249.6</course>
<desc>Speed 92.4 km/h Distance 84.10 km</desc>
<time>2010-08-25T18:02:51.43</time>
<name>1858</name>
</trkpt>
<trkpt lat="49.591673" lon="8.882120">
<ele>486.0</ele>
<speed>92.4</speed>
<course>288.4</course>
<desc>Speed 92.4 km/h Distance 84.16 km</desc>
<time>2010-08-25T18:02:53.45</time>
<name>1859</name>
</trkpt>
<trkpt lat="49.591805" lon="8.881510">
<ele>485.0</ele>
<speed>92.4</speed>
<course>277.0</course>
<desc>Speed 92.4 km/h Distance 84.20 km</desc>
<time>2010-08-25T18:02:55.43</time>
<name>1860</name>
</trkpt>
<trkpt lat="49.591882" lon="8.880543">
<ele>485.0</ele>
<speed>92.4</speed>
<course>275.6</course>
<desc>Speed 92.4 km/h Distance 84.27 km</desc>
<time>2010-08-25T18:03:02.42</time>
<name>1861</name>
</trkpt>
<trkpt lat="49.591920" lon="8.879940">
<ele>485.0</ele>
<speed>92.4</speed>
<course>293.1</course>
<desc>Speed 92.4 km/h Distance 84.32 km</desc>
<time>2010-08-25T18:03:04.42</time>
<name>1862</name>
</trkpt>
<trkpt lat="49.592015" lon="8.879597">
<ele>485.0</ele>
<speed>92.4</speed>
<course>322.9</course>
<desc>Speed 92.4 km/h Distance 84.34 km</desc>
<time>2010-08-25T18:03:06.42</time>
<name>1863</name>
</trkpt>
<trkpt lat="49.596368" lon="8.874517">
<ele>484.0</ele>
<speed>92.4</speed>
<course>315.1</course>
<desc>Speed 92.4 km/h Distance 84.95 km</desc>
<time>2010-08-25T18:03:32.38</time>
<name>1864</name>
</trkpt>
<trkpt lat="49.598932" lon="8.870573">
<ele>484.0</ele>
<speed>92.4</speed>
<course>342.1</course>
<desc>Speed 92.4 km/h Distance 85.35 km</desc>
<time>2010-08-25T18:03:43.40</time>
<name>1865</name>
</trkpt>
<trkpt lat="49.599233" lon="8.870423">
<ele>485.0</ele>
<speed>92.4</speed>
<course>323.0</course>
<desc>Speed 92.4 km/h Distance 85.39 km</desc>
<time>2010-08-25T18:03:44.73</time>
<name>1866</name>
</trkpt>
<trkpt lat="49.599530" lon="8.870078">
<ele>484.5</ele>
<speed>92.4</speed>
<course>258.2</course>
<desc>Speed 92.4 km/h Distance 85.43 km</desc>
<time>2010-08-25T18:03:50.39</time>
<name>1867</name>
</trkpt>
<trkpt lat="49.599448" lon="8.869475">
<ele>482.5</ele>
<speed>92.4</speed>
<course>211.8</course>
<desc>Speed 92.4 km/h Distance 85.48 km</desc>
<time>2010-08-25T18:03:56.39</time>
<name>1868</name>
</trkpt>
<trkpt lat="49.598893" lon="8.868943">
<ele>482.0</ele>
<speed>92.4</speed>
<course>230.5</course>
<desc>Speed 92.4 km/h Distance 85.55 km</desc>
<time>2010-08-25T18:03:59.39</time>
<name>1869</name>
</trkpt>
<trkpt lat="49.598340" lon="8.867907">
<ele>481.5</ele>
<speed>92.5</speed>
<course>246.8</course>
<desc>Speed 92.5 km/h Distance 85.65 km</desc>
<time>2010-08-25T18:04:03.39</time>
<name>1870</name>
</trkpt>
<trkpt lat="49.598043" lon="8.866840">
<ele>481.0</ele>
<speed>92.5</speed>
<course>253.9</course>
<desc>Speed 92.5 km/h Distance 85.73 km</desc>
<time>2010-08-25T18:04:06.39</time>
<name>1871</name>
</trkpt>
<trkpt lat="49.597907" lon="8.866112">
<ele>481.0</ele>
<speed>92.3</speed>
<course>260.5</course>
<desc>Speed 92.3 km/h Distance 85.78 km</desc>
<time>2010-08-25T18:04:08.38</time>
<name>1872</name>
</trkpt>
<trkpt lat="49.597738" lon="8.864557">
<ele>481.5</ele>
<speed>92.3</speed>
<course>243.2</course>
<desc>Speed 92.3 km/h Distance 85.90 km</desc>
<time>2010-08-25T18:04:12.38</time>
<name>1873</name>
</trkpt>
<trkpt lat="49.597420" lon="8.863585">
<ele>482.0</ele>
<speed>92.3</speed>
<course>249.7</course>
<desc>Speed 92.3 km/h Distance 85.98 km</desc>
<time>2010-08-25T18:04:17.39</time>
<name>1874</name>
</trkpt>
<trkpt lat="49.597160" lon="8.862500">
<ele>481.5</ele>
<speed>63.6</speed>
<course>243.0</course>
<desc>Speed 63.6 km/h Distance 86.06 km</desc>
<time>2010-08-25T18:04:22.38</time>
<name>1875</name>
</trkpt>
<trkpt lat="49.597048" lon="8.862162">
<ele>481.5</ele>
<speed>63.6</speed>
<course>237.4</course>
<desc>Speed 63.6 km/h Distance 86.09 km</desc>
<time>2010-08-25T18:04:24.38</time>
<name>1876</name>
</trkpt>
<trkpt lat="49.596828" lon="8.861630">
<ele>481.5</ele>
<speed>63.6</speed>
<course>254.8</course>
<desc>Speed 63.6 km/h Distance 86.13 km</desc>
<time>2010-08-25T18:04:28.38</time>
<name>1877</name>
</trkpt>
<trkpt lat="49.596708" lon="8.860950">
<ele>482.0</ele>
<speed>63.6</speed>
<course>245.5</course>
<desc>Speed 63.6 km/h Distance 86.18 km</desc>
<time>2010-08-25T18:04:32.37</time>
<name>1878</name>
</trkpt>
<trkpt lat="49.596610" lon="8.860617">
<ele>482.0</ele>
<speed>63.6</speed>
<course>268.1</course>
<desc>Speed 63.6 km/h Distance 86.21 km</desc>
<time>2010-08-25T18:04:38.36</time>
<name>1879</name>
</trkpt>
<trkpt lat="49.596598" lon="8.860063">
<ele>482.0</ele>
<speed>63.6</speed>
<course>266.8</course>
<desc>Speed 63.6 km/h Distance 86.25 km</desc>
<time>2010-08-25T18:04:42.37</time>
<name>1880</name>
</trkpt>
<trkpt lat="49.596578" lon="8.859515">
<ele>482.0</ele>
<speed>63.6</speed>
<course>249.5</course>
<desc>Speed 63.6 km/h Distance 86.29 km</desc>
<time>2010-08-25T18:04:46.36</time>
<name>1881</name>
</trkpt>
<trkpt lat="49.596453" lon="8.859000">
<ele>482.0</ele>
<speed>63.6</speed>
<course>252.2</course>
<desc>Speed 63.6 km/h Distance 86.33 km</desc>
<time>2010-08-25T18:04:49.37</time>
<name>1882</name>
</trkpt>
<trkpt lat="49.596155" lon="8.857570">
<ele>482.0</ele>
<speed>63.6</speed>
<course>218.7</course>
<desc>Speed 63.6 km/h Distance 86.44 km</desc>
<time>2010-08-25T18:04:53.83</time>
<name>1883</name>
</trkpt>
<trkpt lat="49.594997" lon="8.856138">
<ele>482.0</ele>
<speed>71.4</speed>
<course>189.8</course>
<desc>Speed 71.4 km/h Distance 86.60 km</desc>
<time>2010-08-25T18:04:59.38</time>
<name>1884</name>
</trkpt>
<trkpt lat="49.594328" lon="8.855960">
<ele>482.5</ele>
<speed>68.2</speed>
<course>190.1</course>
<desc>Speed 68.2 km/h Distance 86.68 km</desc>
<time>2010-08-25T18:05:02.37</time>
<name>1885</name>
</trkpt>
<trkpt lat="49.594170" lon="8.855917">
<ele>482.5</ele>
<speed>68.2</speed>
<course>190.0</course>
<desc>Speed 68.2 km/h Distance 86.70 km</desc>
<time>2010-08-25T18:05:03.37</time>
<name>1886</name>
</trkpt>
<trkpt lat="49.594005" lon="8.855872">
<ele>482.5</ele>
<speed>68.2</speed>
<course>197.2</course>
<desc>Speed 68.2 km/h Distance 86.71 km</desc>
<time>2010-08-25T18:05:04.37</time>
<name>1887</name>
</trkpt>
<trkpt lat="49.593730" lon="8.855740">
<ele>482.5</ele>
<speed>68.2</speed>
<course>210.2</course>
<desc>Speed 68.2 km/h Distance 86.75 km</desc>
<time>2010-08-25T18:05:06.37</time>
<name>1888</name>
</trkpt>
<trkpt lat="49.591663" lon="8.853885">
<ele>463.5</ele>
<speed>100</speed>
<course>208.7</course>
<desc>Speed 100 km/h Distance 87.01 km</desc>
<time>2010-08-25T18:05:12.36</time>
<name>1889</name>
</trkpt>
<trkpt lat="49.590727" lon="8.853095">
<ele>448.0</ele>
<speed>97.6</speed>
<course>212.3</course>
<desc>Speed 97.6 km/h Distance 87.13 km</desc>
<time>2010-08-25T18:05:16.36</time>
<name>1890</name>
</trkpt>
<trkpt lat="49.590512" lon="8.852885">
<ele>443.5</ele>
<speed>91.9</speed>
<course>214.9</course>
<desc>Speed 91.9 km/h Distance 87.16 km</desc>
<time>2010-08-25T18:05:17.36</time>
<name>1891</name>
</trkpt>
<trkpt lat="49.590093" lon="8.852435">
<ele>439.0</ele>
<speed>94.8</speed>
<course>211.1</course>
<desc>Speed 94.8 km/h Distance 87.22 km</desc>
<time>2010-08-25T18:05:19.35</time>
<name>1892</name>
</trkpt>
<trkpt lat="49.589880" lon="8.852237">
<ele>438.0</ele>
<speed>96.2</speed>
<course>209.5</course>
<desc>Speed 96.2 km/h Distance 87.24 km</desc>
<time>2010-08-25T18:05:20.36</time>
<name>1893</name>
</trkpt>
<trkpt lat="49.589658" lon="8.852043">
<ele>437.5</ele>
<speed>98.4</speed>
<course>211.4</course>
<desc>Speed 98.4 km/h Distance 87.27 km</desc>
<time>2010-08-25T18:05:21.36</time>
<name>1894</name>
</trkpt>
<trkpt lat="49.589437" lon="8.851835">
<ele>437.5</ele>
<speed>98.7</speed>
<course>210.2</course>
<desc>Speed 98.7 km/h Distance 87.30 km</desc>
<time>2010-08-25T18:05:22.35</time>
<name>1895</name>
</trkpt>
<trkpt lat="49.588973" lon="8.851418">
<ele>437.0</ele>
<speed>105</speed>
<course>210.0</course>
<desc>Speed 105 km/h Distance 87.36 km</desc>
<time>2010-08-25T18:05:24.35</time>
<name>1896</name>
</trkpt>
<trkpt lat="49.588732" lon="8.851203">
<ele>436.5</ele>
<speed>98.6</speed>
<course>213.0</course>
<desc>Speed 98.6 km/h Distance 87.39 km</desc>
<time>2010-08-25T18:05:25.36</time>
<name>1897</name>
</trkpt>
<trkpt lat="49.588188" lon="8.850658">
<ele>436.0</ele>
<speed>103</speed>
<course>214.0</course>
<desc>Speed 103 km/h Distance 87.46 km</desc>
<time>2010-08-25T18:05:28.35</time>
<name>1898</name>
</trkpt>
<trkpt lat="49.587977" lon="8.850438">
<ele>435.5</ele>
<speed>97.9</speed>
<course>213.7</course>
<desc>Speed 97.9 km/h Distance 87.49 km</desc>
<time>2010-08-25T18:05:29.36</time>
<name>1899</name>
</trkpt>
<trkpt lat="49.587432" lon="8.849878">
<ele>435.5</ele>
<speed>106</speed>
<course>205.6</course>
<desc>Speed 106 km/h Distance 87.57 km</desc>
<time>2010-08-25T18:05:32.36</time>
<name>1900</name>
</trkpt>
<trkpt lat="49.587010" lon="8.849567">
<ele>435.5</ele>
<speed>93.9</speed>
<course>201.9</course>
<desc>Speed 93.9 km/h Distance 87.62 km</desc>
<time>2010-08-25T18:05:34.35</time>
<name>1901</name>
</trkpt>
<trkpt lat="49.586582" lon="8.849302">
<ele>434.5</ele>
<speed>93.9</speed>
<course>203.9</course>
<desc>Speed 93.9 km/h Distance 87.67 km</desc>
<time>2010-08-25T18:05:36.34</time>
<name>1902</name>
</trkpt>
<trkpt lat="49.585737" lon="8.848725">
<ele>433.0</ele>
<speed>95.8</speed>
<course>201.9</course>
<desc>Speed 95.8 km/h Distance 87.77 km</desc>
<time>2010-08-25T18:05:41.34</time>
<name>1903</name>
</trkpt>
<trkpt lat="49.585245" lon="8.848420">
<ele>430.5</ele>
<speed>92.4</speed>
<course>200.3</course>
<desc>Speed 92.4 km/h Distance 87.83 km</desc>
<time>2010-08-25T18:05:43.34</time>
<name>1904</name>
</trkpt>
<trkpt lat="49.584505" lon="8.847997">
<ele>428.5</ele>
<speed>99.8</speed>
<course>199.5</course>
<desc>Speed 99.8 km/h Distance 87.92 km</desc>
<time>2010-08-25T18:05:46.34</time>
<name>1905</name>
</trkpt>
<trkpt lat="49.584097" lon="8.847773">
<ele>427.0</ele>
<speed>99.8</speed>
<course>189.3</course>
<desc>Speed 99.8 km/h Distance 87.97 km</desc>
<time>2010-08-25T18:05:48.34</time>
<name>1906</name>
</trkpt>
<trkpt lat="49.583240" lon="8.847557">
<ele>425.5</ele>
<speed>99.8</speed>
<course>186.6</course>
<desc>Speed 99.8 km/h Distance 88.06 km</desc>
<time>2010-08-25T18:05:55.33</time>
<name>1907</name>
</trkpt>
<trkpt lat="49.582122" lon="8.847358">
<ele>422.5</ele>
<speed>99.8</speed>
<course>151.6</course>
<desc>Speed 99.8 km/h Distance 88.19 km</desc>
<time>2010-08-25T18:05:59.33</time>
<name>1908</name>
</trkpt>
<trkpt lat="49.581585" lon="8.847807">
<ele>424.0</ele>
<speed>99.8</speed>
<course>197.0</course>
<desc>Speed 99.8 km/h Distance 88.26 km</desc>
<time>2010-08-25T18:06:02.33</time>
<name>1909</name>
</trkpt>
<trkpt lat="49.581220" lon="8.847635">
<ele>427.5</ele>
<speed>99.8</speed>
<course>185.6</course>
<desc>Speed 99.8 km/h Distance 88.30 km</desc>
<time>2010-08-25T18:06:08.31</time>
<name>1910</name>
</trkpt>
<trkpt lat="49.580045" lon="8.847457">
<ele>431.5</ele>
<speed>70.6</speed>
<course>178.9</course>
<desc>Speed 70.6 km/h Distance 88.43 km</desc>
<time>2010-08-25T18:06:13.32</time>
<name>1911</name>
</trkpt>
<trkpt lat="49.579457" lon="8.847473">
<ele>432.5</ele>
<speed>63.3</speed>
<course>184.0</course>
<desc>Speed 63.3 km/h Distance 88.50 km</desc>
<time>2010-08-25T18:06:16.32</time>
<name>1912</name>
</trkpt>
<trkpt lat="49.578397" lon="8.847358">
<ele>434.0</ele>
<speed>59.7</speed>
<course>189.0</course>
<desc>Speed 59.7 km/h Distance 88.61 km</desc>
<time>2010-08-25T18:06:21.31</time>
<name>1913</name>
</trkpt>
<trkpt lat="49.577973" lon="8.847255">
<ele>433.5</ele>
<speed>59.7</speed>
<course>182.1</course>
<desc>Speed 59.7 km/h Distance 88.66 km</desc>
<time>2010-08-25T18:06:25.31</time>
<name>1914</name>
</trkpt>
<trkpt lat="49.577823" lon="8.847247">
<ele>432.0</ele>
<speed>59.7</speed>
<course>239.3</course>
<desc>Speed 59.7 km/h Distance 88.68 km</desc>
<time>2010-08-25T18:06:26.31</time>
<name>1915</name>
</trkpt>
<trkpt lat="49.577338" lon="8.845985">
<ele>431.0</ele>
<speed>59.7</speed>
<course>216.2</course>
<desc>Speed 59.7 km/h Distance 88.79 km</desc>
<time>2010-08-25T18:06:30.31</time>
<name>1916</name>
</trkpt>
<trkpt lat="49.576533" lon="8.845075">
<ele>430.5</ele>
<speed>54.0</speed>
<course>207.4</course>
<desc>Speed 54.0 km/h Distance 88.90 km</desc>
<time>2010-08-25T18:06:35.31</time>
<name>1917</name>
</trkpt>
<trkpt lat="49.576037" lon="8.844678">
<ele>426.0</ele>
<speed>48.0</speed>
<course>197.1</course>
<desc>Speed 48.0 km/h Distance 88.96 km</desc>
<time>2010-08-25T18:06:38.30</time>
<name>1918</name>
</trkpt>
<trkpt lat="49.575903" lon="8.844615">
<ele>425.5</ele>
<speed>47.8</speed>
<course>195.2</course>
<desc>Speed 47.8 km/h Distance 88.97 km</desc>
<time>2010-08-25T18:06:39.31</time>
<name>1919</name>
</trkpt>
<trkpt lat="49.575640" lon="8.844505">
<ele>423.5</ele>
<speed>46.0</speed>
<course>195.4</course>
<desc>Speed 46.0 km/h Distance 89.00 km</desc>
<time>2010-08-25T18:06:41.30</time>
<name>1920</name>
</trkpt>
<trkpt lat="49.575542" lon="8.844463">
<ele>423.0</ele>
<speed>46.0</speed>
<course>198.0</course>
<desc>Speed 46.0 km/h Distance 89.02 km</desc>
<time>2010-08-25T18:06:42.30</time>
<name>1921</name>
</trkpt>
<trkpt lat="49.575448" lon="8.844417">
<ele>422.5</ele>
<speed>46.0</speed>
<course>192.3</course>
<desc>Speed 46.0 km/h Distance 89.03 km</desc>
<time>2010-08-25T18:06:43.30</time>
<name>1922</name>
</trkpt>
<trkpt lat="49.575200" lon="8.844333">
<ele>421.5</ele>
<speed>51.4</speed>
<course>199.2</course>
<desc>Speed 51.4 km/h Distance 89.06 km</desc>
<time>2010-08-25T18:06:45.30</time>
<name>1923</name>
</trkpt>
<trkpt lat="49.575085" lon="8.844272">
<ele>421.5</ele>
<speed>48.5</speed>
<course>191.9</course>
<desc>Speed 48.5 km/h Distance 89.07 km</desc>
<time>2010-08-25T18:06:46.30</time>
<name>1924</name>
</trkpt>
<trkpt lat="49.574848" lon="8.844195">
<ele>421.0</ele>
<speed>52.2</speed>
<course>186.5</course>
<desc>Speed 52.2 km/h Distance 89.10 km</desc>
<time>2010-08-25T18:06:48.30</time>
<name>1925</name>
</trkpt>
<trkpt lat="49.574733" lon="8.844175">
<ele>421.0</ele>
<speed>52.2</speed>
<course>190.9</course>
<desc>Speed 52.2 km/h Distance 89.11 km</desc>
<time>2010-08-25T18:06:49.29</time>
<name>1926</name>
</trkpt>
<trkpt lat="49.574353" lon="8.844062">
<ele>421.0</ele>
<speed>50.2</speed>
<course>201.8</course>
<desc>Speed 50.2 km/h Distance 89.15 km</desc>
<time>2010-08-25T18:06:54.29</time>
<name>1927</name>
</trkpt>
<trkpt lat="49.573948" lon="8.843812">
<ele>418.5</ele>
<speed>50.2</speed>
<course>199.0</course>
<desc>Speed 50.2 km/h Distance 89.20 km</desc>
<time>2010-08-25T18:06:57.29</time>
<name>1928</name>
</trkpt>
<trkpt lat="49.573638" lon="8.843647">
<ele>417.5</ele>
<speed>50.2</speed>
<course>203.5</course>
<desc>Speed 50.2 km/h Distance 89.24 km</desc>
<time>2010-08-25T18:07:01.28</time>
<name>1929</name>
</trkpt>
<trkpt lat="49.573180" lon="8.843340">
<ele>417.0</ele>
<speed>50.2</speed>
<course>209.0</course>
<desc>Speed 50.2 km/h Distance 89.29 km</desc>
<time>2010-08-25T18:07:04.29</time>
<name>1930</name>
</trkpt>
<trkpt lat="49.572925" lon="8.843122">
<ele>417.0</ele>
<speed>50.2</speed>
<course>210.0</course>
<desc>Speed 50.2 km/h Distance 89.32 km</desc>
<time>2010-08-25T18:07:06.28</time>
<name>1931</name>
</trkpt>
<trkpt lat="49.572713" lon="8.842933">
<ele>414.0</ele>
<speed>50.2</speed>
<course>237.1</course>
<desc>Speed 50.2 km/h Distance 89.35 km</desc>
<time>2010-08-25T18:07:08.28</time>
<name>1932</name>
</trkpt>
<trkpt lat="49.572530" lon="8.842497">
<ele>412.0</ele>
<speed>58.2</speed>
<course>251.1</course>
<desc>Speed 58.2 km/h Distance 89.39 km</desc>
<time>2010-08-25T18:07:11.28</time>
<name>1933</name>
</trkpt>
<trkpt lat="49.572435" lon="8.842068">
<ele>411.5</ele>
<speed>58.2</speed>
<course>241.7</course>
<desc>Speed 58.2 km/h Distance 89.42 km</desc>
<time>2010-08-25T18:07:13.29</time>
<name>1934</name>
</trkpt>
<trkpt lat="49.572293" lon="8.841663">
<ele>409.0</ele>
<speed>58.2</speed>
<course>208.0</course>
<desc>Speed 58.2 km/h Distance 89.46 km</desc>
<time>2010-08-25T18:07:17.28</time>
<name>1935</name>
</trkpt>
<trkpt lat="49.571970" lon="8.841398">
<ele>399.5</ele>
<speed>58.2</speed>
<course>186.7</course>
<desc>Speed 58.2 km/h Distance 89.50 km</desc>
<time>2010-08-25T18:07:22.28</time>
<name>1936</name>
</trkpt>
<trkpt lat="49.571665" lon="8.841343">
<ele>390.5</ele>
<speed>58.2</speed>
<course>184.4</course>
<desc>Speed 58.2 km/h Distance 89.53 km</desc>
<time>2010-08-25T18:07:25.28</time>
<name>1937</name>
</trkpt>
<trkpt lat="49.570630" lon="8.841222">
<ele>377.0</ele>
<speed>24.1</speed>
<course>179.3</course>
<desc>Speed 24.1 km/h Distance 89.65 km</desc>
<time>2010-08-25T18:07:30.28</time>
<name>1938</name>
</trkpt>
<trkpt lat="49.570448" lon="8.841225">
<ele>377.0</ele>
<speed>24.1</speed>
<course>190.3</course>
<desc>Speed 24.1 km/h Distance 89.67 km</desc>
<time>2010-08-25T18:07:32.28</time>
<name>1939</name>
</trkpt>
<trkpt lat="49.570365" lon="8.841202">
<ele>376.5</ele>
<speed>24.1</speed>
<course>268.8</course>
<desc>Speed 24.1 km/h Distance 89.68 km</desc>
<time>2010-08-25T18:07:34.27</time>
<name>1940</name>
</trkpt>
<trkpt lat="49.570363" lon="8.841077">
<ele>376.5</ele>
<speed>29.4</speed>
<course>287.7</course>
<desc>Speed 29.4 km/h Distance 89.68 km</desc>
<time>2010-08-25T18:07:36.28</time>
<name>1941</name>
</trkpt>
<trkpt lat="49.570413" lon="8.840835">
<ele>377.0</ele>
<speed>35.4</speed>
<course>289.6</course>
<desc>Speed 35.4 km/h Distance 89.70 km</desc>
<time>2010-08-25T18:07:38.27</time>
<name>1942</name>
</trkpt>
<trkpt lat="49.570475" lon="8.840568">
<ele>378.0</ele>
<speed>41.1</speed>
<course>270.5</course>
<desc>Speed 41.1 km/h Distance 89.72 km</desc>
<time>2010-08-25T18:07:40.27</time>
<name>1943</name>
</trkpt>
<trkpt lat="49.570477" lon="8.840300">
<ele>371.0</ele>
<speed>40.8</speed>
<course>242.3</course>
<desc>Speed 40.8 km/h Distance 89.74 km</desc>
<time>2010-08-25T18:07:42.27</time>
<name>1944</name>
</trkpt>
<trkpt lat="49.570362" lon="8.839962">
<ele>360.5</ele>
<speed>42.3</speed>
<course>238.6</course>
<desc>Speed 42.3 km/h Distance 89.77 km</desc>
<time>2010-08-25T18:07:44.27</time>
<name>1945</name>
</trkpt>
<trkpt lat="49.570252" lon="8.839683">
<ele>361.0</ele>
<speed>44.1</speed>
<course>239.4</course>
<desc>Speed 44.1 km/h Distance 89.79 km</desc>
<time>2010-08-25T18:07:46.27</time>
<name>1946</name>
</trkpt>
<trkpt lat="49.570132" lon="8.839370">
<ele>356.5</ele>
<speed>44.1</speed>
<course>224.7</course>
<desc>Speed 44.1 km/h Distance 89.82 km</desc>
<time>2010-08-25T18:07:48.28</time>
<name>1947</name>
</trkpt>
<trkpt lat="49.569977" lon="8.839133">
<ele>355.5</ele>
<speed>50.1</speed>
<course>222.1</course>
<desc>Speed 50.1 km/h Distance 89.84 km</desc>
<time>2010-08-25T18:07:50.27</time>
<name>1948</name>
</trkpt>
<trkpt lat="49.569820" lon="8.838915">
<ele>355.0</ele>
<speed>44.7</speed>
<course>225.9</course>
<desc>Speed 44.7 km/h Distance 89.87 km</desc>
<time>2010-08-25T18:07:52.27</time>
<name>1949</name>
</trkpt>
<trkpt lat="49.569653" lon="8.838650">
<ele>358.0</ele>
<speed>39.1</speed>
<course>229.2</course>
<desc>Speed 39.1 km/h Distance 89.89 km</desc>
<time>2010-08-25T18:07:54.27</time>
<name>1950</name>
</trkpt>
<trkpt lat="49.569527" lon="8.838423">
<ele>359.0</ele>
<speed>38.0</speed>
<course>232.6</course>
<desc>Speed 38.0 km/h Distance 89.92 km</desc>
<time>2010-08-25T18:07:56.27</time>
<name>1951</name>
</trkpt>
<trkpt lat="49.569440" lon="8.838248">
<ele>360.0</ele>
<speed>38.0</speed>
<course>231.3</course>
<desc>Speed 38.0 km/h Distance 89.93 km</desc>
<time>2010-08-25T18:07:58.27</time>
<name>1952</name>
</trkpt>
<trkpt lat="49.569350" lon="8.838075">
<ele>362.0</ele>
<speed>38.0</speed>
<course>225.7</course>
<desc>Speed 38.0 km/h Distance 89.95 km</desc>
<time>2010-08-25T18:08:01.26</time>
<name>1953</name>
</trkpt>
<trkpt lat="49.569172" lon="8.837793">
<ele>367.0</ele>
<speed>47.4</speed>
<course>223.3</course>
<desc>Speed 47.4 km/h Distance 89.98 km</desc>
<time>2010-08-25T18:08:04.26</time>
<name>1954</name>
</trkpt>
<trkpt lat="49.568865" lon="8.837348">
<ele>371.0</ele>
<speed>47.4</speed>
<course>240.4</course>
<desc>Speed 47.4 km/h Distance 90.02 km</desc>
<time>2010-08-25T18:08:07.25</time>
<name>1955</name>
</trkpt>
<trkpt lat="49.568762" lon="8.837068">
<ele>368.5</ele>
<speed>47.4</speed>
<course>247.4</course>
<desc>Speed 47.4 km/h Distance 90.05 km</desc>
<time>2010-08-25T18:08:10.25</time>
<name>1956</name>
</trkpt>
<trkpt lat="49.568693" lon="8.836815">
<ele>367.5</ele>
<speed>47.4</speed>
<course>263.5</course>
<desc>Speed 47.4 km/h Distance 90.07 km</desc>
<time>2010-08-25T18:08:12.25</time>
<name>1957</name>
</trkpt>
<trkpt lat="49.568667" lon="8.836452">
<ele>357.5</ele>
<speed>47.4</speed>
<course>297.5</course>
<desc>Speed 47.4 km/h Distance 90.09 km</desc>
<time>2010-08-25T18:08:17.25</time>
<name>1958</name>
</trkpt>
<trkpt lat="49.568757" lon="8.836185">
<ele>357.5</ele>
<speed>47.4</speed>
<course>262.6</course>
<desc>Speed 47.4 km/h Distance 90.11 km</desc>
<time>2010-08-25T18:08:19.25</time>
<name>1959</name>
</trkpt>
<trkpt lat="49.568658" lon="8.835025">
<ele>354.0</ele>
<speed>56.1</speed>
<course>277.3</course>
<desc>Speed 56.1 km/h Distance 90.20 km</desc>
<time>2010-08-25T18:08:23.26</time>
<name>1960</name>
</trkpt>
<trkpt lat="49.568727" lon="8.834198">
<ele>370.5</ele>
<speed>48.2</speed>
<course>288.5</course>
<desc>Speed 48.2 km/h Distance 90.26 km</desc>
<time>2010-08-25T18:08:26.25</time>
<name>1961</name>
</trkpt>
<trkpt lat="49.568798" lon="8.833868">
<ele>378.0</ele>
<speed>48.2</speed>
<course>294.4</course>
<desc>Speed 48.2 km/h Distance 90.28 km</desc>
<time>2010-08-25T18:08:28.24</time>
<name>1962</name>
</trkpt>
<trkpt lat="49.568903" lon="8.833512">
<ele>384.0</ele>
<speed>52.2</speed>
<course>300.7</course>
<desc>Speed 52.2 km/h Distance 90.31 km</desc>
<time>2010-08-25T18:08:30.23</time>
<name>1963</name>
</trkpt>
<trkpt lat="49.569177" lon="8.832802">
<ele>392.5</ele>
<speed>48.5</speed>
<course>302.6</course>
<desc>Speed 48.5 km/h Distance 90.37 km</desc>
<time>2010-08-25T18:08:33.23</time>
<name>1964</name>
</trkpt>
<trkpt lat="49.569318" lon="8.832460">
<ele>394.5</ele>
<speed>43.3</speed>
<course>298.4</course>
<desc>Speed 43.3 km/h Distance 90.40 km</desc>
<time>2010-08-25T18:08:35.24</time>
<name>1965</name>
</trkpt>
<trkpt lat="49.569442" lon="8.832108">
<ele>393.5</ele>
<speed>43.3</speed>
<course>310.9</course>
<desc>Speed 43.3 km/h Distance 90.43 km</desc>
<time>2010-08-25T18:08:37.24</time>
<name>1966</name>
</trkpt>
<trkpt lat="49.569595" lon="8.831835">
<ele>392.0</ele>
<speed>46.6</speed>
<course>306.8</course>
<desc>Speed 46.6 km/h Distance 90.46 km</desc>
<time>2010-08-25T18:08:39.24</time>
<name>1967</name>
</trkpt>
<trkpt lat="49.569738" lon="8.831540">
<ele>389.0</ele>
<speed>46.6</speed>
<course>305.7</course>
<desc>Speed 46.6 km/h Distance 90.48 km</desc>
<time>2010-08-25T18:08:41.24</time>
<name>1968</name>
</trkpt>
<trkpt lat="49.569863" lon="8.831272">
<ele>388.5</ele>
<speed>48.7</speed>
<course>302.0</course>
<desc>Speed 48.7 km/h Distance 90.51 km</desc>
<time>2010-08-25T18:08:43.24</time>
<name>1969</name>
</trkpt>
<trkpt lat="49.569992" lon="8.830955">
<ele>387.0</ele>
<speed>48.7</speed>
<course>293.4</course>
<desc>Speed 48.7 km/h Distance 90.53 km</desc>
<time>2010-08-25T18:08:45.24</time>
<name>1970</name>
</trkpt>
<trkpt lat="49.570067" lon="8.830688">
<ele>387.0</ele>
<speed>48.7</speed>
<course>272.5</course>
<desc>Speed 48.7 km/h Distance 90.55 km</desc>
<time>2010-08-25T18:08:47.23</time>
<name>1971</name>
</trkpt>
<trkpt lat="49.570078" lon="8.830275">
<ele>392.5</ele>
<speed>48.7</speed>
<course>313.4</course>
<desc>Speed 48.7 km/h Distance 90.58 km</desc>
<time>2010-08-25T18:08:50.23</time>
<name>1972</name>
</trkpt>
<trkpt lat="49.570330" lon="8.829865">
<ele>396.5</ele>
<speed>47.7</speed>
<course>304.2</course>
<desc>Speed 47.7 km/h Distance 90.63 km</desc>
<time>2010-08-25T18:08:54.24</time>
<name>1973</name>
</trkpt>
<trkpt lat="49.570467" lon="8.829555">
<ele>396.0</ele>
<speed>47.7</speed>
<course>291.0</course>
<desc>Speed 47.7 km/h Distance 90.65 km</desc>
<time>2010-08-25T18:08:56.23</time>
<name>1974</name>
</trkpt>
<trkpt lat="49.570562" lon="8.829173">
<ele>392.5</ele>
<speed>41.2</speed>
<course>304.8</course>
<desc>Speed 41.2 km/h Distance 90.68 km</desc>
<time>2010-08-25T18:08:58.22</time>
<name>1975</name>
</trkpt>
<trkpt lat="49.570770" lon="8.828712">
<ele>391.5</ele>
<speed>41.2</speed>
<course>287.9</course>
<desc>Speed 41.2 km/h Distance 90.72 km</desc>
<time>2010-08-25T18:09:01.23</time>
<name>1976</name>
</trkpt>
<trkpt lat="49.570838" lon="8.828385">
<ele>392.0</ele>
<speed>41.2</speed>
<course>307.6</course>
<desc>Speed 41.2 km/h Distance 90.75 km</desc>
<time>2010-08-25T18:09:03.22</time>
<name>1977</name>
</trkpt>
<trkpt lat="49.570932" lon="8.828198">
<ele>389.0</ele>
<speed>41.2</speed>
<course>279.1</course>
<desc>Speed 41.2 km/h Distance 90.76 km</desc>
<time>2010-08-25T18:09:05.22</time>
<name>1978</name>
</trkpt>
<trkpt lat="49.570952" lon="8.828005">
<ele>397.0</ele>
<speed>41.2</speed>
<course>306.4</course>
<desc>Speed 41.2 km/h Distance 90.78 km</desc>
<time>2010-08-25T18:09:09.21</time>
<name>1979</name>
</trkpt>
<trkpt lat="49.571080" lon="8.827737">
<ele>397.0</ele>
<speed>41.2</speed>
<course>293.6</course>
<desc>Speed 41.2 km/h Distance 90.80 km</desc>
<time>2010-08-25T18:09:12.21</time>
<name>1980</name>
</trkpt>
<trkpt lat="49.571190" lon="8.827348">
<ele>394.0</ele>
<speed>41.2</speed>
<course>311.9</course>
<desc>Speed 41.2 km/h Distance 90.83 km</desc>
<time>2010-08-25T18:09:14.22</time>
<name>1981</name>
</trkpt>
<trkpt lat="49.571290" lon="8.827177">
<ele>392.5</ele>
<speed>41.2</speed>
<course>284.2</course>
<desc>Speed 41.2 km/h Distance 90.85 km</desc>
<time>2010-08-25T18:09:16.21</time>
<name>1982</name>
</trkpt>
<trkpt lat="49.571392" lon="8.826558">
<ele>378.0</ele>
<speed>0.6</speed>
<course>255.6</course>
<desc>Speed 0.6 km/h Distance 90.90 km</desc>
<time>2010-08-25T18:09:21.22</time>
<name>1983</name>
</trkpt>
<trkpt lat="49.571382" lon="8.826498">
<ele>378.5</ele>
<speed>1.2</speed>
<course>254.6</course>
<desc>Speed 1.2 km/h Distance 90.90 km</desc>
<time>2010-08-25T18:09:23.23</time>
<name>1984</name>
</trkpt>
<trkpt lat="49.571373" lon="8.826452">
<ele>380.5</ele>
<speed>0.6</speed>
<course>293.7</course>
<desc>Speed 0.6 km/h Distance 90.90 km</desc>
<time>2010-08-25T18:09:25.21</time>
<name>1985</name>
</trkpt>
<trkpt lat="49.571377" lon="8.826440">
<ele>382.5</ele>
<speed>1.5</speed>
<course>338.5</course>
<desc>Speed 1.5 km/h Distance 90.90 km</desc>
<time>2010-08-25T18:09:27.21</time>
<name>1986</name>
</trkpt>
<trkpt lat="49.571423" lon="8.826412">
<ele>382.5</ele>
<speed>1.5</speed>
<course>321.0</course>
<desc>Speed 1.5 km/h Distance 90.91 km</desc>
<time>2010-08-25T18:09:29.21</time>
<name>1987</name>
</trkpt>
<trkpt lat="49.571450" lon="8.826378">
<ele>384.0</ele>
<speed>1.5</speed>
<course>317.8</course>
<desc>Speed 1.5 km/h Distance 90.91 km</desc>
<time>2010-08-25T18:09:31.21</time>
<name>1988</name>
</trkpt>
<trkpt lat="49.571467" lon="8.826355">
<ele>384.5</ele>
<speed>1.5</speed>
<course>310.7</course>
<desc>Speed 1.5 km/h Distance 90.92 km</desc>
<time>2010-08-25T18:09:33.21</time>
<name>1989</name>
</trkpt>
<trkpt lat="49.571555" lon="8.826197">
<ele>382.5</ele>
<speed>1.5</speed>
<course>330.4</course>
<desc>Speed 1.5 km/h Distance 90.93 km</desc>
<time>2010-08-25T18:09:36.21</time>
<name>1990</name>
</trkpt>
<trkpt lat="49.571662" lon="8.826103">
<ele>382.0</ele>
<speed>1.5</speed>
<course>306.7</course>
<desc>Speed 1.5 km/h Distance 90.95 km</desc>
<time>2010-08-25T18:09:39.20</time>
<name>1991</name>
</trkpt>
<trkpt lat="49.571757" lon="8.825907">
<ele>383.5</ele>
<speed>1.5</speed>
<course>279.4</course>
<desc>Speed 1.5 km/h Distance 90.96 km</desc>
<time>2010-08-25T18:09:42.20</time>
<name>1992</name>
</trkpt>
<trkpt lat="49.571798" lon="8.825517">
<ele>387.0</ele>
<speed>1.5</speed>
<course>297.6</course>
<desc>Speed 1.5 km/h Distance 90.99 km</desc>
<time>2010-08-25T18:09:46.20</time>
<name>1993</name>
</trkpt>
<trkpt lat="49.571902" lon="8.825212">
<ele>387.5</ele>
<speed>1.5</speed>
<course>288.8</course>
<desc>Speed 1.5 km/h Distance 91.02 km</desc>
<time>2010-08-25T18:09:50.20</time>
<name>1994</name>
</trkpt>
<trkpt lat="49.572028" lon="8.824638">
<ele>388.5</ele>
<speed>1.5</speed>
<course>321.6</course>
<desc>Speed 1.5 km/h Distance 91.06 km</desc>
<time>2010-08-25T18:09:55.17</time>
<name>1995</name>
</trkpt>
<trkpt lat="49.572513" lon="8.824045">
<ele>388.5</ele>
<speed>18.7</speed>
<course>334.2</course>
<desc>Speed 18.7 km/h Distance 91.13 km</desc>
<time>2010-08-25T18:10:01.17</time>
<name>1996</name>
</trkpt>
<trkpt lat="49.572618" lon="8.823967">
<ele>388.5</ele>
<speed>18.7</speed>
<course>322.4</course>
<desc>Speed 18.7 km/h Distance 91.14 km</desc>
<time>2010-08-25T18:10:04.17</time>
<name>1997</name>
</trkpt>
<trkpt lat="49.572680" lon="8.823893">
<ele>388.5</ele>
<speed>18.7</speed>
<course>303.0</course>
<desc>Speed 18.7 km/h Distance 91.15 km</desc>
<time>2010-08-25T18:10:06.17</time>
<name>1998</name>
</trkpt>
<trkpt lat="49.572707" lon="8.823830">
<ele>388.5</ele>
<speed>18.7</speed>
<course>339.2</course>
<desc>Speed 18.7 km/h Distance 91.16 km</desc>
<time>2010-08-25T18:10:08.17</time>
<name>1999</name>
</trkpt>
<trkpt lat="49.572803" lon="8.823773">
<ele>388.5</ele>
<speed>18.7</speed>
<course>343.4</course>
<desc>Speed 18.7 km/h Distance 91.17 km</desc>
<time>2010-08-25T18:10:10.17</time>
<name>2000</name>
</trkpt>
<trkpt lat="49.572843" lon="8.823755">
<ele>388.5</ele>
<speed>18.7</speed>
<course>338.7</course>
<desc>Speed 18.7 km/h Distance 91.17 km</desc>
<time>2010-08-25T18:10:12.17</time>
<name>2001</name>
</trkpt>
<trkpt lat="49.572885" lon="8.823730">
<ele>388.5</ele>
<speed>18.7</speed>
<course>305.9</course>
<desc>Speed 18.7 km/h Distance 91.18 km</desc>
<time>2010-08-25T18:10:14.17</time>
<name>2002</name>
</trkpt>
<trkpt lat="49.572960" lon="8.823570">
<ele>388.5</ele>
<speed>18.7</speed>
<course>325.6</course>
<desc>Speed 18.7 km/h Distance 91.19 km</desc>
<time>2010-08-25T18:10:16.17</time>
<name>2003</name>
</trkpt>
<trkpt lat="49.572990" lon="8.823538">
<ele>388.0</ele>
<speed>1.1</speed>
<course>349.2</course>
<desc>Speed 1.1 km/h Distance 91.20 km</desc>
<time>2010-08-25T18:10:19.17</time>
<name>2004</name>
</trkpt>
<trkpt lat="49.573035" lon="8.823525">
<ele>388.0</ele>
<speed>0.6</speed>
<course>342.1</course>
<desc>Speed 0.6 km/h Distance 91.20 km</desc>
<time>2010-08-25T18:10:21.17</time>
<name>2005</name>
</trkpt>
<trkpt lat="49.573068" lon="8.823508">
<ele>388.0</ele>
<speed>1.0</speed>
<course>327.0</course>
<desc>Speed 1.0 km/h Distance 91.20 km</desc>
<time>2010-08-25T18:10:23.17</time>
<name>2006</name>
</trkpt>
<trkpt lat="49.573143" lon="8.823433">
<ele>388.5</ele>
<speed>0.7</speed>
<course>4.4</course>
<desc>Speed 0.7 km/h Distance 91.21 km</desc>
<time>2010-08-25T18:10:26.16</time>
<name>2007</name>
</trkpt>
<trkpt lat="49.573183" lon="8.823438">
<ele>389.5</ele>
<speed>5.0</speed>
<course>4.4</course>
<desc>Speed 5.0 km/h Distance 91.22 km</desc>
<time>2010-08-25T18:10:28.16</time>
<name>2008</name>
</trkpt>
<trkpt lat="49.573193" lon="8.823438">
<ele>389.5</ele>
<speed>0.9</speed>
<course>310.7</course>
<desc>Speed 0.9 km/h Distance 91.22 km</desc>
<time>2010-08-25T18:10:30.16</time>
<name>2009</name>
</trkpt>
<trkpt lat="49.573202" lon="8.823423">
<ele>389.5</ele>
<speed>0.8</speed>
<course>255.5</course>
<desc>Speed 0.8 km/h Distance 91.22 km</desc>
<time>2010-08-25T18:10:32.15</time>
<name>2010</name>
</trkpt>
<trkpt lat="49.573198" lon="8.823403">
<ele>389.5</ele>
<speed>5.5</speed>
<course>336.2</course>
<desc>Speed 5.5 km/h Distance 91.22 km</desc>
<time>2010-08-25T18:10:34.15</time>
<name>2011</name>
</trkpt>
<trkpt lat="49.573235" lon="8.823378">
<ele>389.5</ele>
<speed>5.5</speed>
<course>307.6</course>
<desc>Speed 5.5 km/h Distance 91.23 km</desc>
<time>2010-08-25T18:10:36.16</time>
<name>2012</name>
</trkpt>
<trkpt lat="49.573245" lon="8.823358">
<ele>390.0</ele>
<speed>2.6</speed>
<course>44.3</course>
<desc>Speed 2.6 km/h Distance 91.23 km</desc>
<time>2010-08-25T18:10:38.15</time>
<name>2013</name>
</trkpt>
<trkpt lat="49.573252" lon="8.823368">
<ele>390.5</ele>
<speed>2.6</speed>
<course>278.0</course>
<desc>Speed 2.6 km/h Distance 91.23 km</desc>
<time>2010-08-25T18:10:40.15</time>
<name>2014</name>
</trkpt>
<trkpt lat="49.573253" lon="8.823350">
<ele>390.0</ele>
<speed>0.4</speed>
<course>336.6</course>
<desc>Speed 0.4 km/h Distance 91.23 km</desc>
<time>2010-08-25T18:10:42.15</time>
<name>2015</name>
</trkpt>
<trkpt lat="49.573283" lon="8.823330">
<ele>391.0</ele>
<speed>0.4</speed>
<course>307.6</course>
<desc>Speed 0.4 km/h Distance 91.24 km</desc>
<time>2010-08-25T18:10:44.15</time>
<name>2016</name>
</trkpt>
<trkpt lat="49.573297" lon="8.823303">
<ele>391.0</ele>
<speed>0.4</speed>
<course>335.8</course>
<desc>Speed 0.4 km/h Distance 91.24 km</desc>
<time>2010-08-25T18:10:46.15</time>
<name>2017</name>
</trkpt>
<trkpt lat="49.573318" lon="8.823288">
<ele>391.5</ele>
<speed>0.4</speed>
<course>301.4</course>
<desc>Speed 0.4 km/h Distance 91.24 km</desc>
<time>2010-08-25T18:10:48.15</time>
<name>2018</name>
</trkpt>
<trkpt lat="49.573322" lon="8.823280">
<ele>391.5</ele>
<speed>0.4</speed>
<course>338.5</course>
<desc>Speed 0.4 km/h Distance 91.24 km</desc>
<time>2010-08-25T18:10:50.15</time>
<name>2019</name>
</trkpt>
<trkpt lat="49.573330" lon="8.823275">
<ele>392.0</ele>
<speed>0.4</speed>
<course>307.6</course>
<desc>Speed 0.4 km/h Distance 91.24 km</desc>
<time>2010-08-25T18:10:52.14</time>
<name>2020</name>
</trkpt>
<trkpt lat="49.573343" lon="8.823248">
<ele>392.0</ele>
<speed>0.4</speed>
<course>293.8</course>
<desc>Speed 0.4 km/h Distance 91.24 km</desc>
<time>2010-08-25T18:10:54.14</time>
<name>2021</name>
</trkpt>
<trkpt lat="49.573350" lon="8.823225">
<ele>392.0</ele>
<speed>0.4</speed>
<course>206.7</course>
<desc>Speed 0.4 km/h Distance 91.25 km</desc>
<time>2010-08-25T18:10:56.14</time>
<name>2022</name>
</trkpt>
<trkpt lat="49.573335" lon="8.823213">
<ele>392.0</ele>
<speed>0.4</speed>
<course>277.3</course>
<desc>Speed 0.4 km/h Distance 91.25 km</desc>
<time>2010-08-25T18:10:58.14</time>
<name>2023</name>
</trkpt>
<trkpt lat="49.573337" lon="8.823193">
<ele>392.0</ele>
<speed>0.4</speed>
<course>53.4</course>
<desc>Speed 0.4 km/h Distance 91.25 km</desc>
<time>2010-08-25T18:11:00.14</time>
<name>2024</name>
</trkpt>
<trkpt lat="49.573358" lon="8.823238">
<ele>392.0</ele>
<speed>0.4</speed>
<course>336.5</course>
<desc>Speed 0.4 km/h Distance 91.25 km</desc>
<time>2010-08-25T18:11:02.14</time>
<name>2025</name>
</trkpt>
<trkpt lat="49.573373" lon="8.823228">
<ele>392.0</ele>
<speed>0.4</speed>
<course>246.3</course>
<desc>Speed 0.4 km/h Distance 91.26 km</desc>
<time>2010-08-25T18:11:04.13</time>
<name>2026</name>
</trkpt>
<trkpt lat="49.573370" lon="8.823217">
<ele>392.0</ele>
<speed>7.8</speed>
<course>202.5</course>
<desc>Speed 7.8 km/h Distance 91.26 km</desc>
<time>2010-08-25T18:11:06.13</time>
<name>2027</name>
</trkpt>
<trkpt lat="49.573352" lon="8.823205">
<ele>392.0</ele>
<speed>7.8</speed>
<course>270.0</course>
<desc>Speed 7.8 km/h Distance 91.26 km</desc>
<time>2010-08-25T18:11:08.14</time>
<name>2028</name>
</trkpt>
<trkpt lat="49.573352" lon="8.823193">
<ele>392.0</ele>
<speed>1.7</speed>
<course>352.2</course>
<desc>Speed 1.7 km/h Distance 91.26 km</desc>
<time>2010-08-25T18:11:10.13</time>
<name>2029</name>
</trkpt>
<trkpt lat="49.573415" lon="8.823180">
<ele>392.0</ele>
<speed>1.5</speed>
<course>7.1</course>
<desc>Speed 1.5 km/h Distance 91.27 km</desc>
<time>2010-08-25T18:11:12.13</time>
<name>2030</name>
</trkpt>
<trkpt lat="49.573458" lon="8.823188">
<ele>392.5</ele>
<speed>1.5</speed>
<course>43.2</course>
<desc>Speed 1.5 km/h Distance 91.27 km</desc>
<time>2010-08-25T18:11:14.13</time>
<name>2031</name>
</trkpt>
<trkpt lat="49.573473" lon="8.823210">
<ele>392.5</ele>
<speed>2.4</speed>
<course>64.6</course>
<desc>Speed 2.4 km/h Distance 91.27 km</desc>
<time>2010-08-25T18:11:16.13</time>
<name>2032</name>
</trkpt>
<trkpt lat="49.573480" lon="8.823232">
<ele>392.5</ele>
<speed>2.4</speed>
<course>62.6</course>
<desc>Speed 2.4 km/h Distance 91.28 km</desc>
<time>2010-08-25T18:11:18.13</time>
<name>2033</name>
</trkpt>
<trkpt lat="49.573483" lon="8.823242">
<ele>392.0</ele>
<speed>2.2</speed>
<course>90.0</course>
<desc>Speed 2.2 km/h Distance 91.28 km</desc>
<time>2010-08-25T18:11:20.13</time>
<name>2034</name>
</trkpt>
<trkpt lat="49.573483" lon="8.823243">
<ele>392.0</ele>
<speed>2.2</speed>
<course>117.4</course>
<desc>Speed 2.2 km/h Distance 91.28 km</desc>
<time>2010-08-25T18:11:22.13</time>
<name>2035</name>
</trkpt>
<trkpt lat="49.573480" lon="8.823253">
<ele>392.0</ele>
<speed>2.2</speed>
<course>104.5</course>
<desc>Speed 2.2 km/h Distance 91.28 km</desc>
<time>2010-08-25T18:11:24.13</time>
<name>2036</name>
</trkpt>
<trkpt lat="49.573478" lon="8.823263">
<ele>392.0</ele>
<speed>2.2</speed>
<course>95.9</course>
<desc>Speed 2.2 km/h Distance 91.28 km</desc>
<time>2010-08-25T18:11:26.13</time>
<name>2037</name>
</trkpt>
<trkpt lat="49.573477" lon="8.823288">
<ele>392.0</ele>
<speed>2.6</speed>
<course>43.1</course>
<desc>Speed 2.6 km/h Distance 91.28 km</desc>
<time>2010-08-25T18:11:28.13</time>
<name>2038</name>
</trkpt>
<trkpt lat="49.573492" lon="8.823310">
<ele>392.0</ele>
<speed>4.1</speed>
<course>43.2</course>
<desc>Speed 4.1 km/h Distance 91.28 km</desc>
<time>2010-08-25T18:11:30.12</time>
<name>2039</name>
</trkpt>
<trkpt lat="49.573507" lon="8.823332">
<ele>392.0</ele>
<speed>4.1</speed>
<course>58.2</course>
<desc>Speed 4.1 km/h Distance 91.28 km</desc>
<time>2010-08-25T18:11:32.12</time>
<name>2040</name>
</trkpt>
<trkpt lat="49.573513" lon="8.823348">
<ele>392.0</ele>
<speed>4.1</speed>
<course>69.7</course>
<desc>Speed 4.1 km/h Distance 91.29 km</desc>
<time>2010-08-25T18:11:34.13</time>
<name>2041</name>
</trkpt>
<trkpt lat="49.573533" lon="8.823432">
<ele>392.0</ele>
<speed>4.1</speed>
<course>57.9</course>
<desc>Speed 4.1 km/h Distance 91.29 km</desc>
<time>2010-08-25T18:11:36.12</time>
<name>2042</name>
</trkpt>
<trkpt lat="49.573537" lon="8.823440">
<ele>392.0</ele>
<speed>4.1</speed>
<course>25.6</course>
<desc>Speed 4.1 km/h Distance 91.29 km</desc>
<time>2010-08-25T18:11:38.12</time>
<name>2043</name>
</trkpt>
<trkpt lat="49.573543" lon="8.823445">
<ele>392.0</ele>
<speed>4.1</speed>
<course>95.5</course>
<desc>Speed 4.1 km/h Distance 91.29 km</desc>
<time>2010-08-25T18:11:40.12</time>
<name>2044</name>
</trkpt>
<trkpt lat="49.573542" lon="8.823472">
<ele>392.0</ele>
<speed>4.1</speed>
<course>202.1</course>
<desc>Speed 4.1 km/h Distance 91.30 km</desc>
<time>2010-08-25T18:11:42.12</time>
<name>2045</name>
</trkpt>
<trkpt lat="49.573528" lon="8.823463">
<ele>392.0</ele>
<speed>4.1</speed>
<course>51.9</course>
<desc>Speed 4.1 km/h Distance 91.30 km</desc>
<time>2010-08-25T18:11:44.12</time>
<name>2046</name>
</trkpt>
<trkpt lat="49.573530" lon="8.823467">
<ele>392.0</ele>
<speed>4.1</speed>
<course>187.7</course>
<desc>Speed 4.1 km/h Distance 91.30 km</desc>
<time>2010-08-25T18:11:46.12</time>
<name>2047</name>
</trkpt>
<trkpt lat="49.573513" lon="8.823463">
<ele>392.0</ele>
<speed>1.3</speed>
<course>173.5</course>
<desc>Speed 1.3 km/h Distance 91.30 km</desc>
<time>2010-08-25T18:11:48.12</time>
<name>2048</name>
</trkpt>
<trkpt lat="49.573457" lon="8.823473">
<ele>392.0</ele>
<speed>1.3</speed>
<course>198.7</course>
<desc>Speed 1.3 km/h Distance 91.31 km</desc>
<time>2010-08-25T18:11:50.12</time>
<name>2049</name>
</trkpt>
<trkpt lat="49.573422" lon="8.823455">
<ele>392.0</ele>
<speed>1.2</speed>
<course>168.3</course>
<desc>Speed 1.2 km/h Distance 91.31 km</desc>
<time>2010-08-25T18:11:52.12</time>
<name>2050</name>
</trkpt>
<trkpt lat="49.573348" lon="8.823478">
<ele>392.5</ele>
<speed>4.4</speed>
<course>180.0</course>
<desc>Speed 4.4 km/h Distance 91.32 km</desc>
<time>2010-08-25T18:11:54.11</time>
<name>2051</name>
</trkpt>
<trkpt lat="49.573302" lon="8.823478">
<ele>393.0</ele>
<speed>0.8</speed>
<course>287.2</course>
<desc>Speed 0.8 km/h Distance 91.32 km</desc>
<time>2010-08-25T18:11:56.11</time>
<name>2052</name>
</trkpt>
<trkpt lat="49.573307" lon="8.823453">
<ele>393.0</ele>
<speed>1.0</speed>
<course>287.2</course>
<desc>Speed 1.0 km/h Distance 91.33 km</desc>
<time>2010-08-25T18:11:58.11</time>
<name>2053</name>
</trkpt>
<trkpt lat="49.573307" lon="8.823453">
<ele>393.0</ele>
<speed>1.0</speed>
<course>347.4</course>
<desc>Speed 1.0 km/h Distance 91.33 km</desc>
<time>2010-08-25T18:12:00.11</time>
<name>2054</name>
</trkpt>
<trkpt lat="49.573317" lon="8.823450">
<ele>393.0</ele>
<speed>1.0</speed>
<course>347.4</course>
<desc>Speed 1.0 km/h Distance 91.33 km</desc>
<time>2010-08-25T18:12:02.10</time>
<name>2055</name>
</trkpt>
<trkpt lat="49.573322" lon="8.823448">
<ele>393.0</ele>
<speed>1.0</speed>
<course>281.9</course>
<desc>Speed 1.0 km/h Distance 91.33 km</desc>
<time>2010-08-25T18:12:04.09</time>
<name>2056</name>
</trkpt>
<trkpt lat="49.573332" lon="8.823375">
<ele>393.0</ele>
<speed>1.0</speed>
<course>321.0</course>
<desc>Speed 1.0 km/h Distance 91.33 km</desc>
<time>2010-08-25T18:12:06.10</time>
<name>2057</name>
</trkpt>
<trkpt lat="49.573338" lon="8.823367">
<ele>393.0</ele>
<speed>1.0</speed>
<course>326.3</course>
<desc>Speed 1.0 km/h Distance 91.33 km</desc>
<time>2010-08-25T18:12:08.10</time>
<name>2058</name>
</trkpt>
<trkpt lat="49.573342" lon="8.823363">
<ele>393.0</ele>
<speed>1.0</speed>
<course>326.3</course>
<desc>Speed 1.0 km/h Distance 91.33 km</desc>
<time>2010-08-25T18:12:10.10</time>
<name>2059</name>
</trkpt>
<trkpt lat="49.573342" lon="8.823363">
<ele>393.0</ele>
<speed>1.0</speed>
<course>303.6</course>
<desc>Speed 1.0 km/h Distance 91.33 km</desc>
<time>2010-08-25T18:12:12.09</time>
<name>2060</name>
</trkpt>
<trkpt lat="49.573347" lon="8.823352">
<ele>393.0</ele>
<speed>1.0</speed>
<course>348.1</course>
<desc>Speed 1.0 km/h Distance 91.33 km</desc>
<time>2010-08-25T18:12:25.08</time>
<name>2061</name>
</trkpt>
<trkpt lat="49.573470" lon="8.823312">
<ele>393.0</ele>
<speed>4.3</speed>
<course>189.1</course>
<desc>Speed 4.3 km/h Distance 91.35 km</desc>
<time>2010-08-25T18:12:28.09</time>
<name>2062</name>
</trkpt>
<trkpt lat="49.573362" lon="8.823285">
<ele>396.5</ele>
<speed>4.5</speed>
<course>192.3</course>
<desc>Speed 4.5 km/h Distance 91.36 km</desc>
<time>2010-08-25T18:12:31.10</time>
<name>2063</name>
</trkpt>
<trkpt lat="49.573337" lon="8.823277">
<ele>399.0</ele>
<speed>2.8</speed>
<course>152.3</course>
<desc>Speed 2.8 km/h Distance 91.36 km</desc>
<time>2010-08-25T18:12:33.09</time>
<name>2064</name>
</trkpt>
<trkpt lat="49.573302" lon="8.823305">
<ele>402.5</ele>
<speed>14.0</speed>
<course>134.1</course>
<desc>Speed 14.0 km/h Distance 91.37 km</desc>
<time>2010-08-25T18:12:35.09</time>
<name>2065</name>
</trkpt>
<trkpt lat="49.573293" lon="8.823318">
<ele>409.0</ele>
<speed>14.0</speed>
<course>15.3</course>
<desc>Speed 14.0 km/h Distance 91.37 km</desc>
<time>2010-08-25T18:12:37.09</time>
<name>2066</name>
</trkpt>
<trkpt lat="49.573325" lon="8.823332">
<ele>411.0</ele>
<speed>1.9</speed>
<course>27.0</course>
<desc>Speed 1.9 km/h Distance 91.37 km</desc>
<time>2010-08-25T18:12:39.09</time>
<name>2067</name>
</trkpt>
<trkpt lat="49.573348" lon="8.823350">
<ele>412.0</ele>
<speed>0.6</speed>
<course>109.9</course>
<desc>Speed 0.6 km/h Distance 91.38 km</desc>
<time>2010-08-25T18:12:41.09</time>
<name>2068</name>
</trkpt>
<trkpt lat="49.573342" lon="8.823378">
<ele>413.0</ele>
<speed>4.7</speed>
<course>319.3</course>
<desc>Speed 4.7 km/h Distance 91.38 km</desc>
<time>2010-08-25T18:12:43.09</time>
<name>2069</name>
</trkpt>
<trkpt lat="49.573443" lon="8.823243">
<ele>411.5</ele>
<speed>1.1</speed>
<course>270.0</course>
<desc>Speed 1.1 km/h Distance 91.39 km</desc>
<time>2010-08-25T18:12:46.09</time>
<name>2070</name>
</trkpt>
<trkpt lat="49.573443" lon="8.823240">
<ele>410.5</ele>
<speed>2.2</speed>
<course>315.7</course>
<desc>Speed 2.2 km/h Distance 91.39 km</desc>
<time>2010-08-25T18:12:48.09</time>
<name>2071</name>
</trkpt>
<trkpt lat="49.573457" lon="8.823220">
<ele>410.5</ele>
<speed>2.2</speed>
<course>192.6</course>
<desc>Speed 2.2 km/h Distance 91.40 km</desc>
<time>2010-08-25T18:12:50.08</time>
<name>2072</name>
</trkpt>
<trkpt lat="49.573447" lon="8.823217">
<ele>410.5</ele>
<speed>1.7</speed>
<course>153.6</course>
<desc>Speed 1.7 km/h Distance 91.40 km</desc>
<time>2010-08-25T18:12:52.09</time>
<name>2073</name>
</trkpt>
<trkpt lat="49.573440" lon="8.823222">
<ele>410.5</ele>
<speed>1.7</speed>
<course>29.2</course>
<desc>Speed 1.7 km/h Distance 91.40 km</desc>
<time>2010-08-25T18:12:54.08</time>
<name>2074</name>
</trkpt>
<trkpt lat="49.573442" lon="8.823223">
<ele>410.5</ele>
<speed>1.7</speed>
<course>120.1</course>
<desc>Speed 1.7 km/h Distance 91.40 km</desc>
<time>2010-08-25T18:12:56.08</time>
<name>2075</name>
</trkpt>
<trkpt lat="49.573437" lon="8.823237">
<ele>411.0</ele>
<speed>1.7</speed>
<course>136.4</course>
<desc>Speed 1.7 km/h Distance 91.40 km</desc>
<time>2010-08-25T18:12:58.08</time>
<name>2076</name>
</trkpt>
<trkpt lat="49.573383" lon="8.823315">
<ele>413.0</ele>
<speed>1.7</speed>
<course>12.6</course>
<desc>Speed 1.7 km/h Distance 91.41 km</desc>
<time>2010-08-25T18:13:00.08</time>
<name>2077</name>
</trkpt>
<trkpt lat="49.573388" lon="8.823317">
<ele>413.5</ele>
<speed>1.7</speed>
<course>345.4</course>
<desc>Speed 1.7 km/h Distance 91.41 km</desc>
<time>2010-08-25T18:13:02.09</time>
<name>2078</name>
</trkpt>
<trkpt lat="49.573422" lon="8.823303">
<ele>415.0</ele>
<speed>1.7</speed>
<course>333.6</course>
<desc>Speed 1.7 km/h Distance 91.41 km</desc>
<time>2010-08-25T18:13:04.07</time>
<name>2079</name>
</trkpt>
<trkpt lat="49.573450" lon="8.823282">
<ele>416.5</ele>
<speed>1.7</speed>
<course>315.8</course>
<desc>Speed 1.7 km/h Distance 91.42 km</desc>
<time>2010-08-25T18:13:06.07</time>
<name>2080</name>
</trkpt>
<trkpt lat="49.573473" lon="8.823247">
<ele>417.0</ele>
<speed>10.8</speed>
<course>336.1</course>
<desc>Speed 10.8 km/h Distance 91.42 km</desc>
<time>2010-08-25T18:13:08.08</time>
<name>2081</name>
</trkpt>
<trkpt lat="49.573537" lon="8.823203">
<ele>416.5</ele>
<speed>10.8</speed>
<course>316.6</course>
<desc>Speed 10.8 km/h Distance 91.43 km</desc>
<time>2010-08-25T18:13:10.08</time>
<name>2082</name>
</trkpt>
<trkpt lat="49.574075" lon="8.822418">
<ele>410.5</ele>
<speed>50.2</speed>
<course>326.9</course>
<desc>Speed 50.2 km/h Distance 91.51 km</desc>
<time>2010-08-25T18:13:16.07</time>
<name>2083</name>
</trkpt>
<trkpt lat="49.574307" lon="8.822185">
<ele>413.5</ele>
<speed>50.2</speed>
<course>314.3</course>
<desc>Speed 50.2 km/h Distance 91.54 km</desc>
<time>2010-08-25T18:13:18.07</time>
<name>2084</name>
</trkpt>
<trkpt lat="49.574465" lon="8.821935">
<ele>410.0</ele>
<speed>50.2</speed>
<course>315.5</course>
<desc>Speed 50.2 km/h Distance 91.56 km</desc>
<time>2010-08-25T18:13:21.07</time>
<name>2085</name>
</trkpt>
<trkpt lat="49.574630" lon="8.821685">
<ele>404.5</ele>
<speed>50.2</speed>
<course>257.8</course>
<desc>Speed 50.2 km/h Distance 91.59 km</desc>
<time>2010-08-25T18:13:25.07</time>
<name>2086</name>
</trkpt>
<trkpt lat="49.574572" lon="8.821268">
<ele>403.0</ele>
<speed>50.2</speed>
<course>195.3</course>
<desc>Speed 50.2 km/h Distance 91.62 km</desc>
<time>2010-08-25T18:13:32.06</time>
<name>2087</name>
</trkpt>
<trkpt lat="49.573297" lon="8.820732">
<ele>412.0</ele>
<speed>50.2</speed>
<course>188.0</course>
<desc>Speed 50.2 km/h Distance 91.77 km</desc>
<time>2010-08-25T18:13:39.06</time>
<name>2088</name>
</trkpt>
<trkpt lat="49.573043" lon="8.820677">
<ele>412.0</ele>
<speed>50.2</speed>
<course>178.5</course>
<desc>Speed 50.2 km/h Distance 91.80 km</desc>
<time>2010-08-25T18:13:41.07</time>
<name>2089</name>
</trkpt>
<trkpt lat="49.570993" lon="8.820758">
<ele>424.0</ele>
<speed>85.8</speed>
<course>165.8</course>
<desc>Speed 85.8 km/h Distance 92.03 km</desc>
<time>2010-08-25T18:13:47.06</time>
<name>2090</name>
</trkpt>
<trkpt lat="49.570567" lon="8.820925">
<ele>424.5</ele>
<speed>85.8</speed>
<course>184.9</course>
<desc>Speed 85.8 km/h Distance 92.07 km</desc>
<time>2010-08-25T18:13:49.06</time>
<name>2091</name>
</trkpt>
<trkpt lat="49.569893" lon="8.820837">
<ele>425.5</ele>
<speed>85.8</speed>
<course>235.6</course>
<desc>Speed 85.8 km/h Distance 92.15 km</desc>
<time>2010-08-25T18:13:55.06</time>
<name>2092</name>
</trkpt>
<trkpt lat="49.569397" lon="8.819720">
<ele>420.5</ele>
<speed>105</speed>
<course>238.5</course>
<desc>Speed 105 km/h Distance 92.25 km</desc>
<time>2010-08-25T18:14:01.04</time>
<name>2093</name>
</trkpt>
<trkpt lat="49.569002" lon="8.818727">
<ele>416.5</ele>
<speed>90.1</speed>
<course>246.2</course>
<desc>Speed 90.1 km/h Distance 92.33 km</desc>
<time>2010-08-25T18:14:04.05</time>
<name>2094</name>
</trkpt>
<trkpt lat="49.568545" lon="8.817128">
<ele>410.0</ele>
<speed>106</speed>
<course>244.2</course>
<desc>Speed 106 km/h Distance 92.46 km</desc>
<time>2010-08-25T18:14:08.04</time>
<name>2095</name>
</trkpt>
<trkpt lat="49.568320" lon="8.816410">
<ele>409.0</ele>
<speed>93.5</speed>
<course>248.8</course>
<desc>Speed 93.5 km/h Distance 92.52 km</desc>
<time>2010-08-25T18:14:10.03</time>
<name>2096</name>
</trkpt>
<trkpt lat="49.568162" lon="8.815780">
<ele>407.5</ele>
<speed>93.5</speed>
<course>246.9</course>
<desc>Speed 93.5 km/h Distance 92.56 km</desc>
<time>2010-08-25T18:14:12.03</time>
<name>2097</name>
</trkpt>
<trkpt lat="49.567802" lon="8.814482">
<ele>405.0</ele>
<speed>62.7</speed>
<course>239.6</course>
<desc>Speed 62.7 km/h Distance 92.67 km</desc>
<time>2010-08-25T18:14:17.04</time>
<name>2098</name>
</trkpt>
<trkpt lat="49.567620" lon="8.814003">
<ele>411.0</ele>
<speed>62.7</speed>
<course>213.9</course>
<desc>Speed 62.7 km/h Distance 92.71 km</desc>
<time>2010-08-25T18:14:20.03</time>
<name>2099</name>
</trkpt>
<trkpt lat="49.567300" lon="8.813672">
<ele>431.0</ele>
<speed>62.7</speed>
<course>191.2</course>
<desc>Speed 62.7 km/h Distance 92.75 km</desc>
<time>2010-08-25T18:14:24.03</time>
<name>2100</name>
</trkpt>
<trkpt lat="49.566415" lon="8.813402">
<ele>441.5</ele>
<speed>62.7</speed>
<course>180.6</course>
<desc>Speed 62.7 km/h Distance 92.85 km</desc>
<time>2010-08-25T18:14:30.02</time>
<name>2101</name>
</trkpt>
<trkpt lat="49.564405" lon="8.813368">
<ele>453.5</ele>
<speed>57.8</speed>
<course>183.6</course>
<desc>Speed 57.8 km/h Distance 93.07 km</desc>
<time>2010-08-25T18:14:36.02</time>
<name>2102</name>
</trkpt>
<trkpt lat="49.563792" lon="8.813308">
<ele>456.0</ele>
<speed>0.1</speed>
<course>187.8</course>
<desc>Speed 0.1 km/h Distance 93.14 km</desc>
<time>2010-08-25T18:14:42.02</time>
<name>2103</name>
</trkpt>
<trkpt lat="49.563697" lon="8.813288">
<ele>455.0</ele>
<speed>0.2</speed>
<course>213.0</course>
<desc>Speed 0.2 km/h Distance 93.15 km</desc>
<time>2010-08-25T18:14:45.02</time>
<name>2104</name>
</trkpt>
<trkpt lat="49.563677" lon="8.813268">
<ele>455.5</ele>
<speed>0.3</speed>
<course>192.6</course>
<desc>Speed 0.3 km/h Distance 93.15 km</desc>
<time>2010-08-25T18:14:47.01</time>
<name>2105</name>
</trkpt>
<trkpt lat="49.563673" lon="8.813267">
<ele>455.5</ele>
<speed>0.5</speed>
<course>213.7</course>
<desc>Speed 0.5 km/h Distance 93.16 km</desc>
<time>2010-08-25T18:14:48.01</time>
<name>2106</name>
</trkpt>
<trkpt lat="49.563670" lon="8.813263">
<ele>455.5</ele>
<speed>0.3</speed>
<course>270.0</course>
<desc>Speed 0.3 km/h Distance 93.16 km</desc>
<time>2010-08-25T18:14:50.02</time>
<name>2107</name>
</trkpt>
<trkpt lat="49.563670" lon="8.813260">
<ele>455.5</ele>
<speed>0.4</speed>
<course>270.0</course>
<desc>Speed 0.4 km/h Distance 93.16 km</desc>
<time>2010-08-25T18:14:52.01</time>
<name>2108</name>
</trkpt>
<trkpt lat="49.563670" lon="8.813260">
<ele>455.5</ele>
<speed>0.1</speed>
<course>209.2</course>
<desc>Speed 0.1 km/h Distance 93.16 km</desc>
<time>2010-08-25T18:14:53.84</time>
<name>2109</name>
</trkpt>
<trkpt lat="49.563668" lon="8.813258">
<ele>455.5</ele>
<speed>0.0</speed>
<course>270.0</course>
<desc>Speed 0.0 km/h Distance 93.16 km</desc>
<time>2010-08-25T18:14:55.05</time>
<name>2110</name>
</trkpt>
<trkpt lat="49.563668" lon="8.813257">
<ele>456.0</ele>
<speed>0.1</speed>
<course>270.0</course>
<desc>Speed 0.1 km/h Distance 93.16 km</desc>
<time>2010-08-25T18:14:56.05</time>
<name>2111</name>
</trkpt>
<trkpt lat="49.563668" lon="8.813255">
<ele>456.0</ele>
<speed>0.4</speed>
<course>167.4</course>
<desc>Speed 0.4 km/h Distance 93.16 km</desc>
<time>2010-08-25T18:14:57.05</time>
<name>2112</name>
</trkpt>
<trkpt lat="49.563667" lon="8.813255">
<ele>456.0</ele>
<speed>0.2</speed>
<course>270.0</course>
<desc>Speed 0.2 km/h Distance 93.16 km</desc>
<time>2010-08-25T18:14:58.05</time>
<name>2113</name>
</trkpt>
<trkpt lat="49.563667" lon="8.813253">
<ele>456.0</ele>
<speed>0.3</speed>
<course>270.0</course>
<desc>Speed 0.3 km/h Distance 93.16 km</desc>
<time>2010-08-25T18:14:59.04</time>
<name>2114</name>
</trkpt>
<trkpt lat="49.563667" lon="8.813253">
<ele>456.0</ele>
<speed>0.3</speed>
<course>270.0</course>
<desc>Speed 0.3 km/h Distance 93.16 km</desc>
<time>2010-08-25T18:15:00.04</time>
<name>2115</name>
</trkpt>
<trkpt lat="49.563667" lon="8.813253">
<ele>456.0</ele>
<speed>0.1</speed>
<course>270.0</course>
<desc>Speed 0.1 km/h Distance 93.16 km</desc>
<time>2010-08-25T18:15:01.05</time>
<name>2116</name>
</trkpt>
<trkpt lat="49.563667" lon="8.813252">
<ele>456.5</ele>
<speed>0.1</speed>
<course>51.9</course>
<desc>Speed 0.1 km/h Distance 93.16 km</desc>
<time>2010-08-25T18:15:02.04</time>
<name>2117</name>
</trkpt>
<trkpt lat="49.563668" lon="8.813255">
<ele>456.0</ele>
<speed>0.9</speed>
<course>90.0</course>
<desc>Speed 0.9 km/h Distance 93.16 km</desc>
<time>2010-08-25T18:15:03.03</time>
<name>2118</name>
</trkpt>
<trkpt lat="49.563668" lon="8.813257">
<ele>456.0</ele>
<speed>0.2</speed>
<course>167.4</course>
<desc>Speed 0.2 km/h Distance 93.16 km</desc>
<time>2010-08-25T18:15:04.04</time>
<name>2119</name>
</trkpt>
<trkpt lat="49.563667" lon="8.813257">
<ele>456.0</ele>
<speed>0.3</speed>
<course>217.2</course>
<desc>Speed 0.3 km/h Distance 93.16 km</desc>
<time>2010-08-25T18:15:05.04</time>
<name>2120</name>
</trkpt>
<trkpt lat="49.563665" lon="8.813255">
<ele>456.5</ele>
<speed>0.1</speed>
<course>233.9</course>
<desc>Speed 0.1 km/h Distance 93.16 km</desc>
<time>2010-08-25T18:15:06.03</time>
<name>2121</name>
</trkpt>
<trkpt lat="49.563663" lon="8.813252">
<ele>456.5</ele>
<speed>0.1</speed>
<course>150.8</course>
<desc>Speed 0.1 km/h Distance 93.16 km</desc>
<time>2010-08-25T18:15:07.03</time>
<name>2122</name>
</trkpt>
<trkpt lat="49.563662" lon="8.813253">
<ele>457.0</ele>
<speed>0.1</speed>
<course>192.6</course>
<desc>Speed 0.1 km/h Distance 93.16 km</desc>
<time>2010-08-25T18:15:08.03</time>
<name>2123</name>
</trkpt>
<trkpt lat="49.563658" lon="8.813252">
<ele>457.5</ele>
<speed>0.3</speed>
<course>200.2</course>
<desc>Speed 0.3 km/h Distance 93.16 km</desc>
<time>2010-08-25T18:15:09.04</time>
<name>2124</name>
</trkpt>
<trkpt lat="49.563647" lon="8.813245">
<ele>458.5</ele>
<speed>1.8</speed>
<course>198.8</course>
<desc>Speed 1.8 km/h Distance 93.16 km</desc>
<time>2010-08-25T18:15:10.03</time>
<name>2125</name>
</trkpt>
<trkpt lat="49.563640" lon="8.813242">
<ele>459.5</ele>
<speed>0.4</speed>
<course>180.0</course>
<desc>Speed 0.4 km/h Distance 93.16 km</desc>
<time>2010-08-25T18:15:11.03</time>
<name>2126</name>
</trkpt>
<trkpt lat="49.563638" lon="8.813242">
<ele>459.5</ele>
<speed>0.2</speed>
<course>180.0</course>
<desc>Speed 0.2 km/h Distance 93.16 km</desc>
<time>2010-08-25T18:15:12.03</time>
<name>2127</name>
</trkpt>
<trkpt lat="49.563635" lon="8.813242">
<ele>459.5</ele>
<speed>0.4</speed>
<course>270.0</course>
<desc>Speed 0.4 km/h Distance 93.16 km</desc>
<time>2010-08-25T18:15:13.03</time>
<name>2128</name>
</trkpt>
<trkpt lat="49.563635" lon="8.813240">
<ele>459.5</ele>
<speed>1.4</speed>
<course>12.6</course>
<desc>Speed 1.4 km/h Distance 93.16 km</desc>
<time>2010-08-25T18:15:14.03</time>
<name>2129</name>
</trkpt>
<trkpt lat="49.563637" lon="8.813240">
<ele>459.5</ele>
<speed>0.3</speed>
<course>90.0</course>
<desc>Speed 0.3 km/h Distance 93.16 km</desc>
<time>2010-08-25T18:15:15.02</time>
<name>2130</name>
</trkpt>
<trkpt lat="49.563637" lon="8.813242">
<ele>459.5</ele>
<speed>0.5</speed>
<course>33.2</course>
<desc>Speed 0.5 km/h Distance 93.16 km</desc>
<time>2010-08-25T18:15:16.03</time>
<name>2131</name>
</trkpt>
<trkpt lat="49.563645" lon="8.813250">
<ele>458.0</ele>
<speed>4.2</speed>
<course>33.2</course>
<desc>Speed 4.2 km/h Distance 93.16 km</desc>
<time>2010-08-25T18:15:17.03</time>
<name>2132</name>
</trkpt>
<trkpt lat="49.563650" lon="8.813255">
<ele>457.0</ele>
<speed>1.9</speed>
<course>270.0</course>
<desc>Speed 1.9 km/h Distance 93.16 km</desc>
<time>2010-08-25T18:15:18.03</time>
<name>2133</name>
</trkpt>
<trkpt lat="49.563650" lon="8.813250">
<ele>457.5</ele>
<speed>0.2</speed>
<course>252.9</course>
<desc>Speed 0.2 km/h Distance 93.16 km</desc>
<time>2010-08-25T18:15:19.03</time>
<name>2134</name>
</trkpt>
<trkpt lat="49.563648" lon="8.813242">
<ele>458.0</ele>
<speed>0.3</speed>
<course>255.5</course>
<desc>Speed 0.3 km/h Distance 93.16 km</desc>
<time>2010-08-25T18:15:20.03</time>
<name>2135</name>
</trkpt>
<trkpt lat="49.563647" lon="8.813232">
<ele>458.5</ele>
<speed>0.1</speed>
<course>270.0</course>
<desc>Speed 0.1 km/h Distance 93.17 km</desc>
<time>2010-08-25T18:15:21.03</time>
<name>2136</name>
</trkpt>
<trkpt lat="49.563647" lon="8.813223">
<ele>459.0</ele>
<speed>0.1</speed>
<course>270.0</course>
<desc>Speed 0.1 km/h Distance 93.17 km</desc>
<time>2010-08-25T18:15:22.03</time>
<name>2137</name>
</trkpt>
<trkpt lat="49.563647" lon="8.813215">
<ele>459.5</ele>
<speed>0.1</speed>
<course>270.0</course>
<desc>Speed 0.1 km/h Distance 93.17 km</desc>
<time>2010-08-25T18:15:23.03</time>
<name>2138</name>
</trkpt>
<trkpt lat="49.563647" lon="8.813210">
<ele>459.5</ele>
<speed>0.1</speed>
<course>231.9</course>
<desc>Speed 0.1 km/h Distance 93.17 km</desc>
<time>2010-08-25T18:15:24.02</time>
<name>2139</name>
</trkpt>
<trkpt lat="49.563645" lon="8.813207">
<ele>459.5</ele>
<speed>0.1</speed>
<course>231.9</course>
<desc>Speed 0.1 km/h Distance 93.17 km</desc>
<time>2010-08-25T18:15:25.03</time>
<name>2140</name>
</trkpt>
<trkpt lat="49.563645" lon="8.813207">
<ele>459.5</ele>
<speed>0.1</speed>
<course>231.9</course>
<desc>Speed 0.1 km/h Distance 93.17 km</desc>
<time>2010-08-25T18:15:26.03</time>
<name>2141</name>
</trkpt>
<trkpt lat="49.563645" lon="8.813207">
<ele>459.5</ele>
<speed>0.3</speed>
<course>231.9</course>
<desc>Speed 0.3 km/h Distance 93.17 km</desc>
<time>2010-08-25T18:15:27.02</time>
<name>2142</name>
</trkpt>
<trkpt lat="49.563645" lon="8.813207">
<ele>460.0</ele>
<speed>0.6</speed>
<course>231.9</course>
<desc>Speed 0.6 km/h Distance 93.17 km</desc>
<time>2010-08-25T18:15:28.02</time>
<name>2143</name>
</trkpt>
<trkpt lat="49.563645" lon="8.813207">
<ele>459.5</ele>
<speed>0.0</speed>
<course>62.6</course>
<desc>Speed 0.0 km/h Distance 93.17 km</desc>
<time>2010-08-25T18:15:29.03</time>
<name>2144</name>
</trkpt>
<trkpt lat="49.563647" lon="8.813212">
<ele>459.5</ele>
<speed>0.8</speed>
<course>156.2</course>
<desc>Speed 0.8 km/h Distance 93.17 km</desc>
<time>2010-08-25T18:15:30.02</time>
<name>2145</name>
</trkpt>
<trkpt lat="49.563642" lon="8.813215">
<ele>459.5</ele>
<speed>1.9</speed>
<course>178.6</course>
<desc>Speed 1.9 km/h Distance 93.17 km</desc>
<time>2010-08-25T18:15:31.02</time>
<name>2146</name>
</trkpt>
<trkpt lat="49.563413" lon="8.813223">
<ele>460.0</ele>
<speed>28.9</speed>
<course>184.3</course>
<desc>Speed 28.9 km/h Distance 93.19 km</desc>
<time>2010-08-25T18:15:35.01</time>
<name>2147</name>
</trkpt>
<trkpt lat="49.563328" lon="8.813213">
<ele>460.5</ele>
<speed>28.9</speed>
<course>194.1</course>
<desc>Speed 28.9 km/h Distance 93.20 km</desc>
<time>2010-08-25T18:15:37.02</time>
<name>2148</name>
</trkpt>
<trkpt lat="49.563255" lon="8.813185">
<ele>460.5</ele>
<speed>28.9</speed>
<course>243.9</course>
<desc>Speed 28.9 km/h Distance 93.21 km</desc>
<time>2010-08-25T18:15:40.02</time>
<name>2149</name>
</trkpt>
<trkpt lat="49.563222" lon="8.813080">
<ele>461.0</ele>
<speed>28.9</speed>
<course>221.8</course>
<desc>Speed 28.9 km/h Distance 93.22 km</desc>
<time>2010-08-25T18:15:41.02</time>
<name>2150</name>
</trkpt>
<trkpt lat="49.563125" lon="8.812947">
<ele>461.0</ele>
<speed>11.6</speed>
<course>238.5</course>
<desc>Speed 11.6 km/h Distance 93.23 km</desc>
<time>2010-08-25T18:15:44.02</time>
<name>2151</name>
</trkpt>
<trkpt lat="49.563080" lon="8.812833">
<ele>461.0</ele>
<speed>11.6</speed>
<course>219.0</course>
<desc>Speed 11.6 km/h Distance 93.24 km</desc>
<time>2010-08-25T18:15:46.01</time>
<name>2152</name>
</trkpt>
<trkpt lat="49.563060" lon="8.812808">
<ele>461.0</ele>
<speed>11.6</speed>
<course>208.8</course>
<desc>Speed 11.6 km/h Distance 93.25 km</desc>
<time>2010-08-25T18:15:47.02</time>
<name>2153</name>
</trkpt>
<trkpt lat="49.563038" lon="8.812790">
<ele>461.5</ele>
<speed>11.6</speed>
<course>215.3</course>
<desc>Speed 11.6 km/h Distance 93.25 km</desc>
<time>2010-08-25T18:15:48.01</time>
<name>2154</name>
</trkpt>
<trkpt lat="49.563020" lon="8.812770">
<ele>462.0</ele>
<speed>11.6</speed>
<course>209.4</course>
<desc>Speed 11.6 km/h Distance 93.25 km</desc>
<time>2010-08-25T18:15:49.02</time>
<name>2155</name>
</trkpt>
<trkpt lat="49.562828" lon="8.812603">
<ele>464.0</ele>
<speed>11.6</speed>
<course>201.9</course>
<desc>Speed 11.6 km/h Distance 93.28 km</desc>
<time>2010-08-25T18:15:52.00</time>
<name>2156</name>
</trkpt>
<trkpt lat="49.562793" lon="8.812582">
<ele>465.0</ele>
<speed>11.6</speed>
<course>178.5</course>
<desc>Speed 11.6 km/h Distance 93.28 km</desc>
<time>2010-08-25T18:15:53.00</time>
<name>2157</name>
</trkpt>
<trkpt lat="49.561185" lon="8.812648">
<ele>468.5</ele>
<speed>122</speed>
<course>188.7</course>
<desc>Speed 122 km/h Distance 93.46 km</desc>
<time>2010-08-25T18:15:58.01</time>
<name>2158</name>
</trkpt>
<trkpt lat="49.560143" lon="8.812402">
<ele>471.0</ele>
<speed>128</speed>
<course>191.1</course>
<desc>Speed 128 km/h Distance 93.58 km</desc>
<time>2010-08-25T18:16:01.01</time>
<name>2159</name>
</trkpt>
<trkpt lat="49.555683" lon="8.811055">
<ele>477.0</ele>
<speed>128</speed>
<course>152.0</course>
<desc>Speed 128 km/h Distance 94.08 km</desc>
<time>2010-08-25T18:16:14.00</time>
<name>2160</name>
</trkpt>
<trkpt lat="49.553647" lon="8.812725">
<ele>482.0</ele>
<speed>119</speed>
<course>167.2</course>
<desc>Speed 119 km/h Distance 94.34 km</desc>
<time>2010-08-25T18:16:19.99</time>
<name>2161</name>
</trkpt>
<trkpt lat="49.553132" lon="8.812905">
<ele>482.0</ele>
<speed>119</speed>
<course>167.1</course>
<desc>Speed 119 km/h Distance 94.40 km</desc>
<time>2010-08-25T18:16:21.99</time>
<name>2162</name>
</trkpt>
<trkpt lat="49.552275" lon="8.813207">
<ele>487.5</ele>
<speed>119</speed>
<course>187.9</course>
<desc>Speed 119 km/h Distance 94.50 km</desc>
<time>2010-08-25T18:16:27.98</time>
<name>2163</name>
</trkpt>
<trkpt lat="49.551345" lon="8.813007">
<ele>489.5</ele>
<speed>101</speed>
<course>194.8</course>
<desc>Speed 101 km/h Distance 94.60 km</desc>
<time>2010-08-25T18:16:30.97</time>
<name>2164</name>
</trkpt>
<trkpt lat="49.550650" lon="8.812723">
<ele>489.0</ele>
<speed>101</speed>
<course>223.5</course>
<desc>Speed 101 km/h Distance 94.68 km</desc>
<time>2010-08-25T18:16:36.97</time>
<name>2165</name>
</trkpt>
<trkpt lat="49.550218" lon="8.812092">
<ele>488.5</ele>
<speed>101</speed>
<course>247.3</course>
<desc>Speed 101 km/h Distance 94.75 km</desc>
<time>2010-08-25T18:16:41.97</time>
<name>2166</name>
</trkpt>
<trkpt lat="49.549965" lon="8.811158">
<ele>488.0</ele>
<speed>48.3</speed>
<course>262.4</course>
<desc>Speed 48.3 km/h Distance 94.82 km</desc>
<time>2010-08-25T18:16:47.97</time>
<name>2167</name>
</trkpt>
<trkpt lat="49.549932" lon="8.810775">
<ele>488.5</ele>
<speed>48.3</speed>
<course>279.6</course>
<desc>Speed 48.3 km/h Distance 94.85 km</desc>
<time>2010-08-25T18:16:50.97</time>
<name>2168</name>
</trkpt>
<trkpt lat="49.549977" lon="8.810363">
<ele>489.5</ele>
<speed>44.1</speed>
<course>275.8</course>
<desc>Speed 44.1 km/h Distance 94.88 km</desc>
<time>2010-08-25T18:16:53.98</time>
<name>2169</name>
</trkpt>
<trkpt lat="49.550020" lon="8.809708">
<ele>490.5</ele>
<speed>44.1</speed>
<course>265.9</course>
<desc>Speed 44.1 km/h Distance 94.93 km</desc>
<time>2010-08-25T18:16:56.97</time>
<name>2170</name>
</trkpt>
<trkpt lat="49.550012" lon="8.809530">
<ele>490.5</ele>
<speed>36.9</speed>
<course>270.0</course>
<desc>Speed 36.9 km/h Distance 94.94 km</desc>
<time>2010-08-25T18:16:57.97</time>
<name>2171</name>
</trkpt>
<trkpt lat="49.550012" lon="8.809393">
<ele>490.0</ele>
<speed>36.9</speed>
<course>260.9</course>
<desc>Speed 36.9 km/h Distance 94.95 km</desc>
<time>2010-08-25T18:16:58.96</time>
<name>2172</name>
</trkpt>
<trkpt lat="49.549995" lon="8.809233">
<ele>490.0</ele>
<speed>36.9</speed>
<course>261.8</course>
<desc>Speed 36.9 km/h Distance 94.96 km</desc>
<time>2010-08-25T18:16:59.97</time>
<name>2173</name>
</trkpt>
<trkpt lat="49.549967" lon="8.808932">
<ele>490.5</ele>
<speed>35.5</speed>
<course>263.2</course>
<desc>Speed 35.5 km/h Distance 94.98 km</desc>
<time>2010-08-25T18:17:01.96</time>
<name>2174</name>
</trkpt>
<trkpt lat="49.549955" lon="8.808780">
<ele>490.5</ele>
<speed>35.5</speed>
<course>268.8</course>
<desc>Speed 35.5 km/h Distance 94.99 km</desc>
<time>2010-08-25T18:17:02.96</time>
<name>2175</name>
</trkpt>
<trkpt lat="49.549953" lon="8.808662">
<ele>491.0</ele>
<speed>35.5</speed>
<course>252.6</course>
<desc>Speed 35.5 km/h Distance 95.00 km</desc>
<time>2010-08-25T18:17:03.95</time>
<name>2176</name>
</trkpt>
<trkpt lat="49.549913" lon="8.808465">
<ele>491.0</ele>
<speed>35.5</speed>
<course>247.3</course>
<desc>Speed 35.5 km/h Distance 95.02 km</desc>
<time>2010-08-25T18:17:05.96</time>
<name>2177</name>
</trkpt>
<trkpt lat="49.549823" lon="8.808133">
<ele>491.5</ele>
<speed>48.2</speed>
<course>245.3</course>
<desc>Speed 48.2 km/h Distance 95.04 km</desc>
<time>2010-08-25T18:17:07.96</time>
<name>2178</name>
</trkpt>
<trkpt lat="49.549772" lon="8.807960">
<ele>492.0</ele>
<speed>48.2</speed>
<course>242.1</course>
<desc>Speed 48.2 km/h Distance 95.06 km</desc>
<time>2010-08-25T18:17:08.96</time>
<name>2179</name>
</trkpt>
<trkpt lat="49.549660" lon="8.807635">
<ele>496.0</ele>
<speed>46.2</speed>
<course>229.9</course>
<desc>Speed 46.2 km/h Distance 95.08 km</desc>
<time>2010-08-25T18:17:10.96</time>
<name>2180</name>
</trkpt>
<trkpt lat="49.549505" lon="8.807352">
<ele>500.0</ele>
<speed>46.2</speed>
<course>235.5</course>
<desc>Speed 46.2 km/h Distance 95.11 km</desc>
<time>2010-08-25T18:17:12.96</time>
<name>2181</name>
</trkpt>
<trkpt lat="49.549383" lon="8.807078">
<ele>501.5</ele>
<speed>46.2</speed>
<course>223.9</course>
<desc>Speed 46.2 km/h Distance 95.13 km</desc>
<time>2010-08-25T18:17:15.96</time>
<name>2182</name>
</trkpt>
<trkpt lat="49.549225" lon="8.806843">
<ele>501.0</ele>
<speed>46.2</speed>
<course>240.2</course>
<desc>Speed 46.2 km/h Distance 95.16 km</desc>
<time>2010-08-25T18:17:17.95</time>
<name>2183</name>
</trkpt>
<trkpt lat="49.549110" lon="8.806533">
<ele>504.0</ele>
<speed>39.0</speed>
<course>221.8</course>
<desc>Speed 39.0 km/h Distance 95.18 km</desc>
<time>2010-08-25T18:17:20.95</time>
<name>2184</name>
</trkpt>
<trkpt lat="49.548820" lon="8.806133">
<ele>506.5</ele>
<speed>29.4</speed>
<course>227.7</course>
<desc>Speed 29.4 km/h Distance 95.23 km</desc>
<time>2010-08-25T18:17:23.95</time>
<name>2185</name>
</trkpt>
<trkpt lat="49.548685" lon="8.805905">
<ele>509.5</ele>
<speed>29.4</speed>
<course>212.9</course>
<desc>Speed 29.4 km/h Distance 95.25 km</desc>
<time>2010-08-25T18:17:25.94</time>
<name>2186</name>
</trkpt>
<trkpt lat="49.548253" lon="8.805475">
<ele>511.0</ele>
<speed>42.8</speed>
<course>216.5</course>
<desc>Speed 42.8 km/h Distance 95.31 km</desc>
<time>2010-08-25T18:17:29.95</time>
<name>2187</name>
</trkpt>
<trkpt lat="49.548135" lon="8.805340">
<ele>511.0</ele>
<speed>42.8</speed>
<course>207.4</course>
<desc>Speed 42.8 km/h Distance 95.32 km</desc>
<time>2010-08-25T18:17:31.94</time>
<name>2188</name>
</trkpt>
<trkpt lat="49.547985" lon="8.805220">
<ele>510.5</ele>
<speed>42.8</speed>
<course>197.2</course>
<desc>Speed 42.8 km/h Distance 95.34 km</desc>
<time>2010-08-25T18:17:33.94</time>
<name>2189</name>
</trkpt>
<trkpt lat="49.547347" lon="8.804915">
<ele>510.0</ele>
<speed>42.8</speed>
<course>224.3</course>
<desc>Speed 42.8 km/h Distance 95.42 km</desc>
<time>2010-08-25T18:17:35.94</time>
<name>2190</name>
</trkpt>
<trkpt lat="49.546768" lon="8.804047">
<ele>510.5</ele>
<speed>42.8</speed>
<course>230.9</course>
<desc>Speed 42.8 km/h Distance 95.51 km</desc>
<time>2010-08-25T18:17:40.94</time>
<name>2191</name>
</trkpt>
<trkpt lat="49.546320" lon="8.803197">
<ele>518.0</ele>
<speed>42.8</speed>
<course>231.3</course>
<desc>Speed 42.8 km/h Distance 95.59 km</desc>
<time>2010-08-25T18:17:44.94</time>
<name>2192</name>
</trkpt>
<trkpt lat="49.544383" lon="8.799472">
<ele>519.5</ele>
<speed>42.8</speed>
<course>294.6</course>
<desc>Speed 42.8 km/h Distance 95.93 km</desc>
<time>2010-08-25T18:17:57.92</time>
<name>2193</name>
</trkpt>
<trkpt lat="49.545205" lon="8.796707">
<ele>518.5</ele>
<speed>42.8</speed>
<course>257.9</course>
<desc>Speed 42.8 km/h Distance 96.15 km</desc>
<time>2010-08-25T18:18:02.92</time>
<name>2194</name>
</trkpt>
<trkpt lat="49.545163" lon="8.796407">
<ele>515.5</ele>
<speed>42.8</speed>
<course>230.0</course>
<desc>Speed 42.8 km/h Distance 96.17 km</desc>
<time>2010-08-25T18:18:04.92</time>
<name>2195</name>
</trkpt>
<trkpt lat="49.544337" lon="8.794888">
<ele>515.0</ele>
<speed>67.8</speed>
<course>234.4</course>
<desc>Speed 67.8 km/h Distance 96.32 km</desc>
<time>2010-08-25T18:18:10.92</time>
<name>2196</name>
</trkpt>
<trkpt lat="49.544080" lon="8.794337">
<ele>512.5</ele>
<speed>67.8</speed>
<course>306.1</course>
<desc>Speed 67.8 km/h Distance 96.36 km</desc>
<time>2010-08-25T18:18:16.91</time>
<name>2197</name>
</trkpt>
<trkpt lat="49.544330" lon="8.793808">
<ele>514.0</ele>
<speed>67.8</speed>
<course>251.1</course>
<desc>Speed 67.8 km/h Distance 96.41 km</desc>
<time>2010-08-25T18:18:22.91</time>
<name>2198</name>
</trkpt>
<trkpt lat="49.544208" lon="8.793262">
<ele>513.5</ele>
<speed>64.4</speed>
<course>280.4</course>
<desc>Speed 64.4 km/h Distance 96.45 km</desc>
<time>2010-08-25T18:18:25.91</time>
<name>2199</name>
</trkpt>
<trkpt lat="49.544235" lon="8.793038">
<ele>513.0</ele>
<speed>64.4</speed>
<course>268.9</course>
<desc>Speed 64.4 km/h Distance 96.47 km</desc>
<time>2010-08-25T18:18:26.89</time>
<name>2200</name>
</trkpt>
<trkpt lat="49.544223" lon="8.792122">
<ele>512.5</ele>
<speed>64.4</speed>
<course>283.0</course>
<desc>Speed 64.4 km/h Distance 96.54 km</desc>
<time>2010-08-25T18:18:29.91</time>
<name>2201</name>
</trkpt>
<trkpt lat="49.544302" lon="8.791597">
<ele>512.5</ele>
<speed>64.4</speed>
<course>273.8</course>
<desc>Speed 64.4 km/h Distance 96.57 km</desc>
<time>2010-08-25T18:18:35.90</time>
<name>2202</name>
</trkpt>
<trkpt lat="49.544318" lon="8.791207">
<ele>512.5</ele>
<speed>64.4</speed>
<course>261.8</course>
<desc>Speed 64.4 km/h Distance 96.60 km</desc>
<time>2010-08-25T18:18:41.90</time>
<name>2203</name>
</trkpt>
<trkpt lat="49.544277" lon="8.790763">
<ele>512.5</ele>
<speed>64.4</speed>
<course>287.2</course>
<desc>Speed 64.4 km/h Distance 96.64 km</desc>
<time>2010-08-25T18:18:47.89</time>
<name>2204</name>
</trkpt>
<trkpt lat="49.544812" lon="8.788102">
<ele>512.5</ele>
<speed>64.4</speed>
<course>233.5</course>
<desc>Speed 64.4 km/h Distance 96.84 km</desc>
<time>2010-08-25T18:18:56.88</time>
<name>2205</name>
</trkpt>
<trkpt lat="49.544290" lon="8.787015">
<ele>512.0</ele>
<speed>64.4</speed>
<course>245.1</course>
<desc>Speed 64.4 km/h Distance 96.93 km</desc>
<time>2010-08-25T18:18:58.88</time>
<name>2206</name>
</trkpt>
<trkpt lat="49.543838" lon="8.785513">
<ele>513.0</ele>
<speed>45.6</speed>
<course>267.7</course>
<desc>Speed 45.6 km/h Distance 97.05 km</desc>
<time>2010-08-25T18:19:00.88</time>
<name>2207</name>
</trkpt>
<trkpt lat="49.543822" lon="8.784870">
<ele>513.0</ele>
<speed>45.6</speed>
<course>274.2</course>
<desc>Speed 45.6 km/h Distance 97.10 km</desc>
<time>2010-08-25T18:19:03.88</time>
<name>2208</name>
</trkpt>
<trkpt lat="49.543830" lon="8.784693">
<ele>513.0</ele>
<speed>45.6</speed>
<course>282.3</course>
<desc>Speed 45.6 km/h Distance 97.11 km</desc>
<time>2010-08-25T18:19:04.87</time>
<name>2209</name>
</trkpt>
<trkpt lat="49.543858" lon="8.784493">
<ele>512.5</ele>
<speed>45.6</speed>
<course>273.0</course>
<desc>Speed 45.6 km/h Distance 97.13 km</desc>
<time>2010-08-25T18:19:05.88</time>
<name>2210</name>
</trkpt>
<trkpt lat="49.543875" lon="8.783998">
<ele>512.0</ele>
<speed>49.5</speed>
<course>299.3</course>
<desc>Speed 49.5 km/h Distance 97.16 km</desc>
<time>2010-08-25T18:19:08.87</time>
<name>2211</name>
</trkpt>
<trkpt lat="49.544072" lon="8.783458">
<ele>511.0</ele>
<speed>49.5</speed>
<course>278.4</course>
<desc>Speed 49.5 km/h Distance 97.21 km</desc>
<time>2010-08-25T18:19:11.88</time>
<name>2212</name>
</trkpt>
<trkpt lat="49.544138" lon="8.782760">
<ele>511.5</ele>
<speed>52.1</speed>
<course>280.0</course>
<desc>Speed 52.1 km/h Distance 97.26 km</desc>
<time>2010-08-25T18:19:14.87</time>
<name>2213</name>
</trkpt>
<trkpt lat="49.544180" lon="8.782395">
<ele>512.0</ele>
<speed>52.1</speed>
<course>272.5</course>
<desc>Speed 52.1 km/h Distance 97.29 km</desc>
<time>2010-08-25T18:19:16.87</time>
<name>2214</name>
</trkpt>
<trkpt lat="49.544185" lon="8.782222">
<ele>512.0</ele>
<speed>52.1</speed>
<course>290.6</course>
<desc>Speed 52.1 km/h Distance 97.30 km</desc>
<time>2010-08-25T18:19:17.87</time>
<name>2215</name>
</trkpt>
<trkpt lat="49.544293" lon="8.781778">
<ele>511.5</ele>
<speed>52.3</speed>
<course>271.3</course>
<desc>Speed 52.3 km/h Distance 97.33 km</desc>
<time>2010-08-25T18:19:19.87</time>
<name>2216</name>
</trkpt>
<trkpt lat="49.544300" lon="8.781333">
<ele>511.5</ele>
<speed>52.3</speed>
<course>274.2</course>
<desc>Speed 52.3 km/h Distance 97.37 km</desc>
<time>2010-08-25T18:19:21.86</time>
<name>2217</name>
</trkpt>
<trkpt lat="49.544320" lon="8.780915">
<ele>512.0</ele>
<speed>55.0</speed>
<course>257.5</course>
<desc>Speed 55.0 km/h Distance 97.40 km</desc>
<time>2010-08-25T18:19:24.87</time>
<name>2218</name>
</trkpt>
<trkpt lat="49.544247" lon="8.780405">
<ele>517.5</ele>
<speed>55.0</speed>
<course>271.4</course>
<desc>Speed 55.0 km/h Distance 97.43 km</desc>
<time>2010-08-25T18:19:26.87</time>
<name>2219</name>
</trkpt>
<trkpt lat="49.544252" lon="8.780082">
<ele>520.5</ele>
<speed>55.0</speed>
<course>286.9</course>
<desc>Speed 55.0 km/h Distance 97.46 km</desc>
<time>2010-08-25T18:19:28.86</time>
<name>2220</name>
</trkpt>
<trkpt lat="49.544292" lon="8.779878">
<ele>520.5</ele>
<speed>55.0</speed>
<course>280.1</course>
<desc>Speed 55.0 km/h Distance 97.47 km</desc>
<time>2010-08-25T18:19:29.86</time>
<name>2221</name>
</trkpt>
<trkpt lat="49.544355" lon="8.779330">
<ele>513.0</ele>
<speed>55.0</speed>
<course>287.4</course>
<desc>Speed 55.0 km/h Distance 97.51 km</desc>
<time>2010-08-25T18:19:33.86</time>
<name>2222</name>
</trkpt>
<trkpt lat="49.544493" lon="8.778650">
<ele>506.5</ele>
<speed>80.4</speed>
<course>288.9</course>
<desc>Speed 80.4 km/h Distance 97.56 km</desc>
<time>2010-08-25T18:19:37.86</time>
<name>2223</name>
</trkpt>
<trkpt lat="49.544638" lon="8.777997">
<ele>504.0</ele>
<speed>80.4</speed>
<course>299.7</course>
<desc>Speed 80.4 km/h Distance 97.61 km</desc>
<time>2010-08-25T18:19:39.86</time>
<name>2224</name>
</trkpt>
<trkpt lat="49.544837" lon="8.777460">
<ele>504.5</ele>
<speed>80.4</speed>
<course>260.6</course>
<desc>Speed 80.4 km/h Distance 97.66 km</desc>
<time>2010-08-25T18:19:41.86</time>
<name>2225</name>
</trkpt>
<trkpt lat="49.544640" lon="8.775620">
<ele>504.0</ele>
<speed>80.4</speed>
<course>281.8</course>
<desc>Speed 80.4 km/h Distance 97.79 km</desc>
<time>2010-08-25T18:19:48.85</time>
<name>2226</name>
</trkpt>
<trkpt lat="49.544733" lon="8.774933">
<ele>504.0</ele>
<speed>80.4</speed>
<course>271.6</course>
<desc>Speed 80.4 km/h Distance 97.84 km</desc>
<time>2010-08-25T18:19:50.85</time>
<name>2227</name>
</trkpt>
<trkpt lat="49.544838" lon="8.769132">
<ele>504.0</ele>
<speed>80.4</speed>
<course>287.3</course>
<desc>Speed 80.4 km/h Distance 98.26 km</desc>
<time>2010-08-25T18:20:07.83</time>
<name>2228</name>
</trkpt>
<trkpt lat="49.544945" lon="8.768603">
<ele>504.5</ele>
<speed>80.4</speed>
<course>290.5</course>
<desc>Speed 80.4 km/h Distance 98.30 km</desc>
<time>2010-08-25T18:20:09.82</time>
<name>2229</name>
</trkpt>
<trkpt lat="49.545060" lon="8.768130">
<ele>502.0</ele>
<speed>62.4</speed>
<course>274.8</course>
<desc>Speed 62.4 km/h Distance 98.34 km</desc>
<time>2010-08-25T18:20:11.82</time>
<name>2230</name>
</trkpt>
<trkpt lat="49.545073" lon="8.767885">
<ele>501.5</ele>
<speed>62.4</speed>
<course>270.6</course>
<desc>Speed 62.4 km/h Distance 98.36 km</desc>
<time>2010-08-25T18:20:12.82</time>
<name>2231</name>
</trkpt>
<trkpt lat="49.545075" lon="8.767628">
<ele>502.0</ele>
<speed>56.3</speed>
<course>276.3</course>
<desc>Speed 56.3 km/h Distance 98.38 km</desc>
<time>2010-08-25T18:20:13.81</time>
<name>2232</name>
</trkpt>
<trkpt lat="49.545103" lon="8.767232">
<ele>502.0</ele>
<speed>54.8</speed>
<course>270.7</course>
<desc>Speed 54.8 km/h Distance 98.40 km</desc>
<time>2010-08-25T18:20:15.82</time>
<name>2233</name>
</trkpt>
<trkpt lat="49.545105" lon="8.767032">
<ele>502.5</ele>
<speed>54.8</speed>
<course>273.8</course>
<desc>Speed 54.8 km/h Distance 98.42 km</desc>
<time>2010-08-25T18:20:16.82</time>
<name>2234</name>
</trkpt>
<trkpt lat="49.545123" lon="8.766610">
<ele>502.0</ele>
<speed>63.6</speed>
<course>286.3</course>
<desc>Speed 63.6 km/h Distance 98.45 km</desc>
<time>2010-08-25T18:20:18.82</time>
<name>2235</name>
</trkpt>
<trkpt lat="49.545172" lon="8.766355">
<ele>501.5</ele>
<speed>63.6</speed>
<course>270.2</course>
<desc>Speed 63.6 km/h Distance 98.47 km</desc>
<time>2010-08-25T18:20:19.82</time>
<name>2236</name>
</trkpt>
<trkpt lat="49.545173" lon="8.765665">
<ele>497.5</ele>
<speed>82.3</speed>
<course>270.8</course>
<desc>Speed 82.3 km/h Distance 98.52 km</desc>
<time>2010-08-25T18:20:22.82</time>
<name>2237</name>
</trkpt>
<trkpt lat="49.545178" lon="8.765133">
<ele>496.5</ele>
<speed>82.3</speed>
<course>282.2</course>
<desc>Speed 82.3 km/h Distance 98.56 km</desc>
<time>2010-08-25T18:20:24.82</time>
<name>2238</name>
</trkpt>
<trkpt lat="49.545292" lon="8.764327">
<ele>491.0</ele>
<speed>82.3</speed>
<course>267.2</course>
<desc>Speed 82.3 km/h Distance 98.62 km</desc>
<time>2010-08-25T18:20:28.82</time>
<name>2239</name>
</trkpt>
<trkpt lat="49.545268" lon="8.763602">
<ele>489.5</ele>
<speed>70.4</speed>
<course>288.5</course>
<desc>Speed 70.4 km/h Distance 98.67 km</desc>
<time>2010-08-25T18:20:31.81</time>
<name>2240</name>
</trkpt>
<trkpt lat="49.545330" lon="8.763318">
<ele>487.0</ele>
<speed>67.3</speed>
<course>294.4</course>
<desc>Speed 67.3 km/h Distance 98.69 km</desc>
<time>2010-08-25T18:20:32.82</time>
<name>2241</name>
</trkpt>
<trkpt lat="49.545842" lon="8.761583">
<ele>473.5</ele>
<speed>55.7</speed>
<course>290.3</course>
<desc>Speed 55.7 km/h Distance 98.83 km</desc>
<time>2010-08-25T18:20:37.80</time>
<name>2242</name>
</trkpt>
<trkpt lat="49.545948" lon="8.761138">
<ele>471.5</ele>
<speed>53.7</speed>
<course>288.7</course>
<desc>Speed 53.7 km/h Distance 98.86 km</desc>
<time>2010-08-25T18:20:39.80</time>
<name>2243</name>
</trkpt>
<trkpt lat="49.546015" lon="8.760835">
<ele>470.0</ele>
<speed>53.7</speed>
<course>293.8</course>
<desc>Speed 53.7 km/h Distance 98.89 km</desc>
<time>2010-08-25T18:20:41.80</time>
<name>2244</name>
</trkpt>
<trkpt lat="49.546115" lon="8.760485">
<ele>469.0</ele>
<speed>52.8</speed>
<course>305.1</course>
<desc>Speed 52.8 km/h Distance 98.91 km</desc>
<time>2010-08-25T18:20:43.80</time>
<name>2245</name>
</trkpt>
<trkpt lat="49.546422" lon="8.759813">
<ele>463.0</ele>
<speed>45.3</speed>
<course>305.1</course>
<desc>Speed 45.3 km/h Distance 98.97 km</desc>
<time>2010-08-25T18:20:46.80</time>
<name>2246</name>
</trkpt>
<trkpt lat="49.546490" lon="8.759663">
<ele>461.0</ele>
<speed>45.3</speed>
<course>296.7</course>
<desc>Speed 45.3 km/h Distance 98.99 km</desc>
<time>2010-08-25T18:20:47.80</time>
<name>2247</name>
</trkpt>
<trkpt lat="49.546565" lon="8.759433">
<ele>460.5</ele>
<speed>32.7</speed>
<course>287.9</course>
<desc>Speed 32.7 km/h Distance 99.00 km</desc>
<time>2010-08-25T18:20:49.79</time>
<name>2248</name>
</trkpt>
<trkpt lat="49.546587" lon="8.759330">
<ele>459.0</ele>
<speed>32.7</speed>
<course>303.9</course>
<desc>Speed 32.7 km/h Distance 99.01 km</desc>
<time>2010-08-25T18:20:50.79</time>
<name>2249</name>
</trkpt>
<trkpt lat="49.546665" lon="8.759150">
<ele>456.5</ele>
<speed>29.3</speed>
<course>309.6</course>
<desc>Speed 29.3 km/h Distance 99.03 km</desc>
<time>2010-08-25T18:20:52.79</time>
<name>2250</name>
</trkpt>
<trkpt lat="49.546773" lon="8.758948">
<ele>455.0</ele>
<speed>26.8</speed>
<course>296.4</course>
<desc>Speed 26.8 km/h Distance 99.05 km</desc>
<time>2010-08-25T18:20:55.02</time>
<name>2251</name>
</trkpt>
<trkpt lat="49.546807" lon="8.758845">
<ele>454.0</ele>
<speed>26.8</speed>
<course>306.1</course>
<desc>Speed 26.8 km/h Distance 99.05 km</desc>
<time>2010-08-25T18:20:56.79</time>
<name>2252</name>
</trkpt>
<trkpt lat="49.546882" lon="8.758687">
<ele>453.0</ele>
<speed>26.8</speed>
<course>296.7</course>
<desc>Speed 26.8 km/h Distance 99.07 km</desc>
<time>2010-08-25T18:20:58.79</time>
<name>2253</name>
</trkpt>
<trkpt lat="49.546907" lon="8.758610">
<ele>453.0</ele>
<speed>26.8</speed>
<course>296.9</course>
<desc>Speed 26.8 km/h Distance 99.08 km</desc>
<time>2010-08-25T18:20:59.78</time>
<name>2254</name>
</trkpt>
<trkpt lat="49.546945" lon="8.758493">
<ele>452.5</ele>
<speed>26.8</speed>
<course>300.3</course>
<desc>Speed 26.8 km/h Distance 99.08 km</desc>
<time>2010-08-25T18:21:00.79</time>
<name>2255</name>
</trkpt>
<trkpt lat="49.547045" lon="8.758230">
<ele>450.0</ele>
<speed>33.1</speed>
<course>296.8</course>
<desc>Speed 33.1 km/h Distance 99.11 km</desc>
<time>2010-08-25T18:21:02.78</time>
<name>2256</name>
</trkpt>
<trkpt lat="49.547077" lon="8.758133">
<ele>449.0</ele>
<speed>33.1</speed>
<course>297.0</course>
<desc>Speed 33.1 km/h Distance 99.11 km</desc>
<time>2010-08-25T18:21:03.79</time>
<name>2257</name>
</trkpt>
<trkpt lat="49.547140" lon="8.757942">
<ele>447.5</ele>
<speed>32.5</speed>
<course>305.6</course>
<desc>Speed 32.5 km/h Distance 99.13 km</desc>
<time>2010-08-25T18:21:05.77</time>
<name>2258</name>
</trkpt>
<trkpt lat="49.547357" lon="8.757475">
<ele>445.5</ele>
<speed>42.0</speed>
<course>303.5</course>
<desc>Speed 42.0 km/h Distance 99.17 km</desc>
<time>2010-08-25T18:21:08.78</time>
<name>2259</name>
</trkpt>
<trkpt lat="49.547500" lon="8.757142">
<ele>445.0</ele>
<speed>54.8</speed>
<course>300.3</course>
<desc>Speed 54.8 km/h Distance 99.20 km</desc>
<time>2010-08-25T18:21:10.77</time>
<name>2260</name>
</trkpt>
<trkpt lat="49.547697" lon="8.756623">
<ele>445.0</ele>
<speed>61.5</speed>
<course>297.4</course>
<desc>Speed 61.5 km/h Distance 99.24 km</desc>
<time>2010-08-25T18:21:13.78</time>
<name>2261</name>
</trkpt>
<trkpt lat="49.547765" lon="8.756420">
<ele>445.0</ele>
<speed>61.5</speed>
<course>296.7</course>
<desc>Speed 61.5 km/h Distance 99.26 km</desc>
<time>2010-08-25T18:21:14.77</time>
<name>2262</name>
</trkpt>
<trkpt lat="49.547933" lon="8.755905">
<ele>441.0</ele>
<speed>61.5</speed>
<course>299.0</course>
<desc>Speed 61.5 km/h Distance 99.30 km</desc>
<time>2010-08-25T18:21:17.77</time>
<name>2263</name>
</trkpt>
<trkpt lat="49.548095" lon="8.755455">
<ele>438.0</ele>
<speed>61.5</speed>
<course>299.8</course>
<desc>Speed 61.5 km/h Distance 99.34 km</desc>
<time>2010-08-25T18:21:21.77</time>
<name>2264</name>
</trkpt>
<trkpt lat="49.548270" lon="8.754983">
<ele>431.5</ele>
<speed>61.5</speed>
<course>272.8</course>
<desc>Speed 61.5 km/h Distance 99.38 km</desc>
<time>2010-08-25T18:21:26.76</time>
<name>2265</name>
</trkpt>
<trkpt lat="49.548293" lon="8.754248">
<ele>432.0</ele>
<speed>61.5</speed>
<course>289.0</course>
<desc>Speed 61.5 km/h Distance 99.43 km</desc>
<time>2010-08-25T18:21:28.76</time>
<name>2266</name>
</trkpt>
<trkpt lat="49.548343" lon="8.754025">
<ele>432.0</ele>
<speed>61.5</speed>
<course>262.7</course>
<desc>Speed 61.5 km/h Distance 99.45 km</desc>
<time>2010-08-25T18:21:29.76</time>
<name>2267</name>
</trkpt>
<trkpt lat="49.548325" lon="8.753803">
<ele>431.0</ele>
<speed>61.5</speed>
<course>256.1</course>
<desc>Speed 61.5 km/h Distance 99.46 km</desc>
<time>2010-08-25T18:21:30.76</time>
<name>2268</name>
</trkpt>
<trkpt lat="49.548200" lon="8.753023">
<ele>428.5</ele>
<speed>45.6</speed>
<course>259.4</course>
<desc>Speed 45.6 km/h Distance 99.52 km</desc>
<time>2010-08-25T18:21:33.76</time>
<name>2269</name>
</trkpt>
<trkpt lat="49.548147" lon="8.752585">
<ele>428.5</ele>
<speed>45.6</speed>
<course>245.1</course>
<desc>Speed 45.6 km/h Distance 99.55 km</desc>
<time>2010-08-25T18:21:36.76</time>
<name>2270</name>
</trkpt>
<trkpt lat="49.548095" lon="8.752413">
<ele>428.5</ele>
<speed>45.6</speed>
<course>252.9</course>
<desc>Speed 45.6 km/h Distance 99.57 km</desc>
<time>2010-08-25T18:21:37.75</time>
<name>2271</name>
</trkpt>
<trkpt lat="49.548040" lon="8.752138">
<ele>428.5</ele>
<speed>45.6</speed>
<course>278.3</course>
<desc>Speed 45.6 km/h Distance 99.59 km</desc>
<time>2010-08-25T18:21:40.75</time>
<name>2272</name>
</trkpt>
<trkpt lat="49.548167" lon="8.750798">
<ele>428.5</ele>
<speed>50.0</speed>
<course>236.8</course>
<desc>Speed 50.0 km/h Distance 99.69 km</desc>
<time>2010-08-25T18:21:45.75</time>
<name>2273</name>
</trkpt>
<trkpt lat="49.547627" lon="8.749527">
<ele>428.5</ele>
<speed>47.3</speed>
<course>243.1</course>
<desc>Speed 47.3 km/h Distance 99.80 km</desc>
<time>2010-08-25T18:21:50.75</time>
<name>2274</name>
</trkpt>
<trkpt lat="49.547575" lon="8.749370">
<ele>428.5</ele>
<speed>47.3</speed>
<course>240.9</course>
<desc>Speed 47.3 km/h Distance 99.81 km</desc>
<time>2010-08-25T18:21:51.74</time>
<name>2275</name>
</trkpt>
<trkpt lat="49.547460" lon="8.749052">
<ele>428.5</ele>
<speed>47.3</speed>
<course>248.5</course>
<desc>Speed 47.3 km/h Distance 99.84 km</desc>
<time>2010-08-25T18:21:54.74</time>
<name>2276</name>
</trkpt>
<trkpt lat="49.547368" lon="8.748693">
<ele>428.5</ele>
<speed>47.3</speed>
<course>244.1</course>
<desc>Speed 47.3 km/h Distance 99.86 km</desc>
<time>2010-08-25T18:21:58.74</time>
<name>2277</name>
</trkpt>
<trkpt lat="49.547273" lon="8.748392">
<ele>428.5</ele>
<speed>47.3</speed>
<course>229.7</course>
<desc>Speed 47.3 km/h Distance 99.89 km</desc>
<time>2010-08-25T18:22:03.73</time>
<name>2278</name>
</trkpt>
<trkpt lat="49.547145" lon="8.748158">
<ele>425.5</ele>
<speed>55.1</speed>
<course>228.9</course>
<desc>Speed 55.1 km/h Distance 99.91 km</desc>
<time>2010-08-25T18:22:05.73</time>
<name>2279</name>
</trkpt>
<trkpt lat="49.547058" lon="8.748005">
<ele>423.5</ele>
<speed>55.1</speed>
<course>230.9</course>
<desc>Speed 55.1 km/h Distance 99.92 km</desc>
<time>2010-08-25T18:22:06.73</time>
<name>2280</name>
</trkpt>
<trkpt lat="49.546928" lon="8.747758">
<ele>419.0</ele>
<speed>55.1</speed>
<course>204.6</course>
<desc>Speed 55.1 km/h Distance 99.95 km</desc>
<time>2010-08-25T18:22:08.73</time>
<name>2281</name>
</trkpt>
<trkpt lat="49.546645" lon="8.747558">
<ele>410.0</ele>
<speed>44.7</speed>
<course>214.9</course>
<desc>Speed 44.7 km/h Distance 99.98 km</desc>
<time>2010-08-25T18:22:10.72</time>
<name>2282</name>
</trkpt>
<trkpt lat="49.546557" lon="8.747463">
<ele>412.5</ele>
<speed>44.7</speed>
<course>206.0</course>
<desc>Speed 44.7 km/h Distance 99.99 km</desc>
<time>2010-08-25T18:22:11.73</time>
<name>2283</name>
</trkpt>
<trkpt lat="49.546395" lon="8.747342">
<ele>412.0</ele>
<speed>44.7</speed>
<course>236.6</course>
<desc>Speed 44.7 km/h Distance 100 km</desc>
<time>2010-08-25T18:22:13.73</time>
<name>2284</name>
</trkpt>
<trkpt lat="49.546295" lon="8.747108">
<ele>409.5</ele>
<speed>31.4</speed>
<course>263.7</course>
<desc>Speed 31.4 km/h Distance 100 km</desc>
<time>2010-08-25T18:22:17.73</time>
<name>2285</name>
</trkpt>
<trkpt lat="49.546272" lon="8.746783">
<ele>409.5</ele>
<speed>31.4</speed>
<course>257.2</course>
<desc>Speed 31.4 km/h Distance 100 km</desc>
<time>2010-08-25T18:22:19.72</time>
<name>2286</name>
</trkpt>
<trkpt lat="49.546243" lon="8.746592">
<ele>410.5</ele>
<speed>31.4</speed>
<course>231.2</course>
<desc>Speed 31.4 km/h Distance 100 km</desc>
<time>2010-08-25T18:22:21.73</time>
<name>2287</name>
</trkpt>
<trkpt lat="49.546160" lon="8.746432">
<ele>407.5</ele>
<speed>31.4</speed>
<course>247.3</course>
<desc>Speed 31.4 km/h Distance 100 km</desc>
<time>2010-08-25T18:22:23.72</time>
<name>2288</name>
</trkpt>
<trkpt lat="49.546117" lon="8.746272">
<ele>406.5</ele>
<speed>31.4</speed>
<course>249.5</course>
<desc>Speed 31.4 km/h Distance 100 km</desc>
<time>2010-08-25T18:22:25.71</time>
<name>2289</name>
</trkpt>
<trkpt lat="49.546062" lon="8.746045">
<ele>406.5</ele>
<speed>31.4</speed>
<course>264.1</course>
<desc>Speed 31.4 km/h Distance 100 km</desc>
<time>2010-08-25T18:22:27.72</time>
<name>2290</name>
</trkpt>
<trkpt lat="49.546050" lon="8.745872">
<ele>408.0</ele>
<speed>31.4</speed>
<course>239.7</course>
<desc>Speed 31.4 km/h Distance 100 km</desc>
<time>2010-08-25T18:22:29.72</time>
<name>2291</name>
</trkpt>
<trkpt lat="49.546008" lon="8.745762">
<ele>407.0</ele>
<speed>31.4</speed>
<course>283.2</course>
<desc>Speed 31.4 km/h Distance 100 km</desc>
<time>2010-08-25T18:22:30.72</time>
<name>2292</name>
</trkpt>
<trkpt lat="49.546028" lon="8.745630">
<ele>405.5</ele>
<speed>31.4</speed>
<course>273.1</course>
<desc>Speed 31.4 km/h Distance 100 km</desc>
<time>2010-08-25T18:22:31.72</time>
<name>2293</name>
</trkpt>
<trkpt lat="49.546048" lon="8.745065">
<ele>403.5</ele>
<speed>31.4</speed>
<course>260.8</course>
<desc>Speed 31.4 km/h Distance 100 km</desc>
<time>2010-08-25T18:22:34.71</time>
<name>2294</name>
</trkpt>
<trkpt lat="49.546035" lon="8.744938">
<ele>403.0</ele>
<speed>31.4</speed>
<course>283.0</course>
<desc>Speed 31.4 km/h Distance 100 km</desc>
<time>2010-08-25T18:22:35.71</time>
<name>2295</name>
</trkpt>
<trkpt lat="49.546050" lon="8.744838">
<ele>401.5</ele>
<speed>31.4</speed>
<course>194.0</course>
<desc>Speed 31.4 km/h Distance 100 km</desc>
<time>2010-08-25T18:22:36.71</time>
<name>2296</name>
</trkpt>
<trkpt lat="49.545898" lon="8.744780">
<ele>398.0</ele>
<speed>31.4</speed>
<course>283.5</course>
<desc>Speed 31.4 km/h Distance 100 km</desc>
<time>2010-08-25T18:22:38.71</time>
<name>2297</name>
</trkpt>
<trkpt lat="49.545922" lon="8.744630">
<ele>396.5</ele>
<speed>31.4</speed>
<course>304.7</course>
<desc>Speed 31.4 km/h Distance 100 km</desc>
<time>2010-08-25T18:22:40.71</time>
<name>2298</name>
</trkpt>
<trkpt lat="49.545980" lon="8.744500">
<ele>396.5</ele>
<speed>31.4</speed>
<course>296.8</course>
<desc>Speed 31.4 km/h Distance 100 km</desc>
<time>2010-08-25T18:22:43.71</time>
<name>2299</name>
</trkpt>
<trkpt lat="49.546013" lon="8.744398">
<ele>396.5</ele>
<speed>31.4</speed>
<course>237.1</course>
<desc>Speed 31.4 km/h Distance 100 km</desc>
<time>2010-08-25T18:22:46.70</time>
<name>2300</name>
</trkpt>
<trkpt lat="49.545422" lon="8.742990">
<ele>397.5</ele>
<speed>31.4</speed>
<course>245.5</course>
<desc>Speed 31.4 km/h Distance 100 km</desc>
<time>2010-08-25T18:22:48.70</time>
<name>2301</name>
</trkpt>
<trkpt lat="49.544602" lon="8.740223">
<ele>399.0</ele>
<speed>31.4</speed>
<course>268.7</course>
<desc>Speed 31.4 km/h Distance 100 km</desc>
<time>2010-08-25T18:22:51.69</time>
<name>2302</name>
</trkpt>
<trkpt lat="49.544597" lon="8.739895">
<ele>399.0</ele>
<speed>31.4</speed>
<course>294.9</course>
<desc>Speed 31.4 km/h Distance 100 km</desc>
<time>2010-08-25T18:22:53.70</time>
<name>2303</name>
</trkpt>
<trkpt lat="49.544628" lon="8.739790">
<ele>399.0</ele>
<speed>31.4</speed>
<course>254.5</course>
<desc>Speed 31.4 km/h Distance 100 km</desc>
<time>2010-08-25T18:22:54.69</time>
<name>2304</name>
</trkpt>
<trkpt lat="49.544550" lon="8.739355">
<ele>398.5</ele>
<speed>31.4</speed>
<course>289.2</course>
<desc>Speed 31.4 km/h Distance 100 km</desc>
<time>2010-08-25T18:22:57.69</time>
<name>2305</name>
</trkpt>
<trkpt lat="49.544577" lon="8.739237">
<ele>398.5</ele>
<speed>31.4</speed>
<course>288.3</course>
<desc>Speed 31.4 km/h Distance 100 km</desc>
<time>2010-08-25T18:22:58.69</time>
<name>2306</name>
</trkpt>
<trkpt lat="49.544607" lon="8.739097">
<ele>398.5</ele>
<speed>31.4</speed>
<course>296.3</course>
<desc>Speed 31.4 km/h Distance 100 km</desc>
<time>2010-08-25T18:23:00.71</time>
<name>2307</name>
</trkpt>
<trkpt lat="49.544635" lon="8.739008">
<ele>398.5</ele>
<speed>31.4</speed>
<course>297.2</course>
<desc>Speed 31.4 km/h Distance 100 km</desc>
<time>2010-08-25T18:23:01.69</time>
<name>2308</name>
</trkpt>
<trkpt lat="49.544715" lon="8.738768">
<ele>398.5</ele>
<speed>31.4</speed>
<course>307.8</course>
<desc>Speed 31.4 km/h Distance 100 km</desc>
<time>2010-08-25T18:23:03.69</time>
<name>2309</name>
</trkpt>
<trkpt lat="49.544828" lon="8.738543">
<ele>398.5</ele>
<speed>31.4</speed>
<course>291.8</course>
<desc>Speed 31.4 km/h Distance 100 km</desc>
<time>2010-08-25T18:23:05.68</time>
<name>2310</name>
</trkpt>
<trkpt lat="49.544933" lon="8.738138">
<ele>398.5</ele>
<speed>31.4</speed>
<course>296.9</course>
<desc>Speed 31.4 km/h Distance 100 km</desc>
<time>2010-08-25T18:23:08.68</time>
<name>2311</name>
</trkpt>
<trkpt lat="49.544972" lon="8.738022">
<ele>398.5</ele>
<speed>31.4</speed>
<course>297.2</course>
<desc>Speed 31.4 km/h Distance 100 km</desc>
<time>2010-08-25T18:23:10.68</time>
<name>2312</name>
</trkpt>
<trkpt lat="49.545013" lon="8.737897">
<ele>398.5</ele>
<speed>31.4</speed>
<course>275.0</course>
<desc>Speed 31.4 km/h Distance 100 km</desc>
<time>2010-08-25T18:23:12.67</time>
<name>2313</name>
</trkpt>
<trkpt lat="49.545023" lon="8.737720">
<ele>398.5</ele>
<speed>31.4</speed>
<course>310.0</course>
<desc>Speed 31.4 km/h Distance 100 km</desc>
<time>2010-08-25T18:23:15.68</time>
<name>2314</name>
</trkpt>
<trkpt lat="49.545065" lon="8.737643">
<ele>398.5</ele>
<speed>31.4</speed>
<course>277.1</course>
<desc>Speed 31.4 km/h Distance 100 km</desc>
<time>2010-08-25T18:23:16.69</time>
<name>2315</name>
</trkpt>
<trkpt lat="49.545152" lon="8.736572">
<ele>398.5</ele>
<speed>31.4</speed>
<course>265.2</course>
<desc>Speed 31.4 km/h Distance 100 km</desc>
<time>2010-08-25T18:23:21.17</time>
<name>2316</name>
</trkpt>
<trkpt lat="49.544973" lon="8.733318">
<ele>419.5</ele>
<speed>50.0</speed>
<course>247.9</course>
<desc>Speed 50.0 km/h Distance 101 km</desc>
<time>2010-08-25T18:23:26.67</time>
<name>2317</name>
</trkpt>
<trkpt lat="49.544887" lon="8.732990">
<ele>423.0</ele>
<speed>50.0</speed>
<course>234.7</course>
<desc>Speed 50.0 km/h Distance 101 km</desc>
<time>2010-08-25T18:23:28.68</time>
<name>2318</name>
</trkpt>
<trkpt lat="49.544748" lon="8.732688">
<ele>424.0</ele>
<speed>50.0</speed>
<course>253.4</course>
<desc>Speed 50.0 km/h Distance 101 km</desc>
<time>2010-08-25T18:23:30.68</time>
<name>2319</name>
</trkpt>
<trkpt lat="49.544687" lon="8.732370">
<ele>421.5</ele>
<speed>50.0</speed>
<course>241.2</course>
<desc>Speed 50.0 km/h Distance 101 km</desc>
<time>2010-08-25T18:23:34.67</time>
<name>2320</name>
</trkpt>
<trkpt lat="49.544550" lon="8.731987">
<ele>422.5</ele>
<speed>50.0</speed>
<course>174.0</course>
<desc>Speed 50.0 km/h Distance 101 km</desc>
<time>2010-08-25T18:23:39.66</time>
<name>2321</name>
</trkpt>
<trkpt lat="49.544253" lon="8.732035">
<ele>422.0</ele>
<speed>50.0</speed>
<course>167.1</course>
<desc>Speed 50.0 km/h Distance 101 km</desc>
<time>2010-08-25T18:23:43.66</time>
<name>2322</name>
</trkpt>
<trkpt lat="49.544135" lon="8.732077">
<ele>421.5</ele>
<speed>50.0</speed>
<course>192.3</course>
<desc>Speed 50.0 km/h Distance 101 km</desc>
<time>2010-08-25T18:23:44.66</time>
<name>2323</name>
</trkpt>
<trkpt lat="49.543872" lon="8.731988">
<ele>419.5</ele>
<speed>50.0</speed>
<course>219.9</course>
<desc>Speed 50.0 km/h Distance 101 km</desc>
<time>2010-08-25T18:23:46.66</time>
<name>2324</name>
</trkpt>
<trkpt lat="49.541938" lon="8.729498">
<ele>416.0</ele>
<speed>50.0</speed>
<course>248.7</course>
<desc>Speed 50.0 km/h Distance 101 km</desc>
<time>2010-08-25T18:24:08.64</time>
<name>2325</name>
</trkpt>
<trkpt lat="49.541468" lon="8.727645">
<ele>414.0</ele>
<speed>50.0</speed>
<course>270.4</course>
<desc>Speed 50.0 km/h Distance 101 km</desc>
<time>2010-08-25T18:24:14.63</time>
<name>2326</name>
</trkpt>
<trkpt lat="49.541475" lon="8.726068">
<ele>414.0</ele>
<speed>50.0</speed>
<course>308.8</course>
<desc>Speed 50.0 km/h Distance 101 km</desc>
<time>2010-08-25T18:24:33.60</time>
<name>2327</name>
</trkpt>
<trkpt lat="49.542108" lon="8.724853">
<ele>414.0</ele>
<speed>50.0</speed>
<course>265.5</course>
<desc>Speed 50.0 km/h Distance 101 km</desc>
<time>2010-08-25T18:24:37.61</time>
<name>2328</name>
</trkpt>
<trkpt lat="49.542070" lon="8.724100">
<ele>413.5</ele>
<speed>50.0</speed>
<course>253.7</course>
<desc>Speed 50.0 km/h Distance 102 km</desc>
<time>2010-08-25T18:24:40.61</time>
<name>2329</name>
</trkpt>
<trkpt lat="49.541742" lon="8.722372">
<ele>413.5</ele>
<speed>50.0</speed>
<course>193.9</course>
<desc>Speed 50.0 km/h Distance 102 km</desc>
<time>2010-08-25T18:24:45.59</time>
<name>2330</name>
</trkpt>
<trkpt lat="49.541615" lon="8.722323">
<ele>413.5</ele>
<speed>50.0</speed>
<course>255.8</course>
<desc>Speed 50.0 km/h Distance 102 km</desc>
<time>2010-08-25T18:24:46.59</time>
<name>2331</name>
</trkpt>
<trkpt lat="49.541465" lon="8.721412">
<ele>414.0</ele>
<speed>50.0</speed>
<course>280.0</course>
<desc>Speed 50.0 km/h Distance 102 km</desc>
<time>2010-08-25T18:24:50.61</time>
<name>2332</name>
</trkpt>
<trkpt lat="49.542033" lon="8.716443">
<ele>412.5</ele>
<speed>50.0</speed>
<course>231.2</course>
<desc>Speed 50.0 km/h Distance 102 km</desc>
<time>2010-08-25T18:25:24.58</time>
<name>2333</name>
</trkpt>
<trkpt lat="49.541158" lon="8.714763">
<ele>411.5</ele>
<speed>50.0</speed>
<course>280.4</course>
<desc>Speed 50.0 km/h Distance 102 km</desc>
<time>2010-08-25T18:25:29.59</time>
<name>2334</name>
</trkpt>
<trkpt lat="49.541208" lon="8.714343">
<ele>412.0</ele>
<speed>50.0</speed>
<course>292.6</course>
<desc>Speed 50.0 km/h Distance 102 km</desc>
<time>2010-08-25T18:25:35.59</time>
<name>2335</name>
</trkpt>
<trkpt lat="49.541288" lon="8.714047">
<ele>412.0</ele>
<speed>50.0</speed>
<course>262.5</course>
<desc>Speed 50.0 km/h Distance 102 km</desc>
<time>2010-08-25T18:25:40.58</time>
<name>2336</name>
</trkpt>
<trkpt lat="49.541212" lon="8.713153">
<ele>412.0</ele>
<speed>50.0</speed>
<course>261.5</course>
<desc>Speed 50.0 km/h Distance 102 km</desc>
<time>2010-08-25T18:25:49.57</time>
<name>2337</name>
</trkpt>
<trkpt lat="49.541115" lon="8.712153">
<ele>411.5</ele>
<speed>50.0</speed>
<course>231.1</course>
<desc>Speed 50.0 km/h Distance 102 km</desc>
<time>2010-08-25T18:25:56.56</time>
<name>2338</name>
</trkpt>
<trkpt lat="49.541043" lon="8.712017">
<ele>411.5</ele>
<speed>50.0</speed>
<course>300.4</course>
<desc>Speed 50.0 km/h Distance 102 km</desc>
<time>2010-08-25T18:25:57.54</time>
<name>2339</name>
</trkpt>
<trkpt lat="49.541855" lon="8.709883">
<ele>411.5</ele>
<speed>50.0</speed>
<course>287.0</course>
<desc>Speed 50.0 km/h Distance 103 km</desc>
<time>2010-08-25T18:26:09.55</time>
<name>2340</name>
</trkpt>
<trkpt lat="49.542143" lon="8.708427">
<ele>411.0</ele>
<speed>50.0</speed>
<course>314.9</course>
<desc>Speed 50.0 km/h Distance 103 km</desc>
<time>2010-08-25T18:26:15.54</time>
<name>2341</name>
</trkpt>
<trkpt lat="49.542253" lon="8.708257">
<ele>411.0</ele>
<speed>50.0</speed>
<course>59.4</course>
<desc>Speed 50.0 km/h Distance 103 km</desc>
<time>2010-08-25T18:26:22.52</time>
<name>2342</name>
</trkpt>
<trkpt lat="49.542262" lon="8.708278">
<ele>411.0</ele>
<speed>50.0</speed>
<course>59.7</course>
<desc>Speed 50.0 km/h Distance 103 km</desc>
<time>2010-08-25T18:26:27.53</time>
<name>2343</name>
</trkpt>
<trkpt lat="49.542377" lon="8.708582">
<ele>411.0</ele>
<speed>50.0</speed>
<course>263.5</course>
<desc>Speed 50.0 km/h Distance 103 km</desc>
<time>2010-08-25T18:26:30.53</time>
<name>2344</name>
</trkpt>
<trkpt lat="49.542292" lon="8.707425">
<ele>410.5</ele>
<speed>50.0</speed>
<course>204.4</course>
<desc>Speed 50.0 km/h Distance 103 km</desc>
<time>2010-08-25T18:26:39.53</time>
<name>2345</name>
</trkpt>
<trkpt lat="49.542187" lon="8.707352">
<ele>410.5</ele>
<speed>50.0</speed>
<course>235.6</course>
<desc>Speed 50.0 km/h Distance 103 km</desc>
<time>2010-08-25T18:26:40.53</time>
<name>2346</name>
</trkpt>
<trkpt lat="49.542008" lon="8.706950">
<ele>410.0</ele>
<speed>50.0</speed>
<course>222.1</course>
<desc>Speed 50.0 km/h Distance 103 km</desc>
<time>2010-08-25T18:26:43.52</time>
<name>2347</name>
</trkpt>
<trkpt lat="49.541843" lon="8.706720">
<ele>410.0</ele>
<speed>50.0</speed>
<course>297.1</course>
<desc>Speed 50.0 km/h Distance 103 km</desc>
<time>2010-08-25T18:26:45.52</time>
<name>2348</name>
</trkpt>
<trkpt lat="49.541940" lon="8.706428">
<ele>409.5</ele>
<speed>50.0</speed>
<course>276.1</course>
<desc>Speed 50.0 km/h Distance 103 km</desc>
<time>2010-08-25T18:26:48.52</time>
<name>2349</name>
</trkpt>
<trkpt lat="49.541960" lon="8.706138">
<ele>409.5</ele>
<speed>50.0</speed>
<course>246.1</course>
<desc>Speed 50.0 km/h Distance 103 km</desc>
<time>2010-08-25T18:26:53.51</time>
<name>2350</name>
</trkpt>
<trkpt lat="49.541602" lon="8.704892">
<ele>409.0</ele>
<speed>50.0</speed>
<course>180.6</course>
<desc>Speed 50.0 km/h Distance 103 km</desc>
<time>2010-08-25T18:26:56.51</time>
<name>2351</name>
</trkpt>
<trkpt lat="49.541308" lon="8.704887">
<ele>409.0</ele>
<speed>50.0</speed>
<course>280.5</course>
<desc>Speed 50.0 km/h Distance 103 km</desc>
<time>2010-08-25T18:26:58.51</time>
<name>2352</name>
</trkpt>
<trkpt lat="49.541372" lon="8.704358">
<ele>409.0</ele>
<speed>50.0</speed>
<course>296.1</course>
<desc>Speed 50.0 km/h Distance 103 km</desc>
<time>2010-08-25T18:27:01.50</time>
<name>2353</name>
</trkpt>
<trkpt lat="49.541427" lon="8.704185">
<ele>409.0</ele>
<speed>50.0</speed>
<course>276.8</course>
<desc>Speed 50.0 km/h Distance 103 km</desc>
<time>2010-08-25T18:27:02.51</time>
<name>2354</name>
</trkpt>
<trkpt lat="49.541500" lon="8.703237">
<ele>409.0</ele>
<speed>50.0</speed>
<course>246.2</course>
<desc>Speed 50.0 km/h Distance 103 km</desc>
<time>2010-08-25T18:27:06.51</time>
<name>2355</name>
</trkpt>
<trkpt lat="49.540308" lon="8.699078">
<ele>407.5</ele>
<speed>50.0</speed>
<course>275.8</course>
<desc>Speed 50.0 km/h Distance 104 km</desc>
<time>2010-08-25T18:27:22.49</time>
<name>2356</name>
</trkpt>
<trkpt lat="49.540777" lon="8.692028">
<ele>398.5</ele>
<speed>56.5</speed>
<course>267.0</course>
<desc>Speed 56.5 km/h Distance 104 km</desc>
<time>2010-08-25T18:27:53.48</time>
<name>2357</name>
</trkpt>
<trkpt lat="49.540763" lon="8.691638">
<ele>395.5</ele>
<speed>56.5</speed>
<course>248.7</course>
<desc>Speed 56.5 km/h Distance 104 km</desc>
<time>2010-08-25T18:27:55.48</time>
<name>2358</name>
</trkpt>
<trkpt lat="49.540572" lon="8.690882">
<ele>392.5</ele>
<speed>56.5</speed>
<course>233.1</course>
<desc>Speed 56.5 km/h Distance 104 km</desc>
<time>2010-08-25T18:27:58.47</time>
<name>2359</name>
</trkpt>
<trkpt lat="49.540142" lon="8.689998">
<ele>390.5</ele>
<speed>56.5</speed>
<course>231.3</course>
<desc>Speed 56.5 km/h Distance 104 km</desc>
<time>2010-08-25T18:28:02.46</time>
<name>2360</name>
</trkpt>
<trkpt lat="49.539973" lon="8.689675">
<ele>390.0</ele>
<speed>56.5</speed>
<course>239.3</course>
<desc>Speed 56.5 km/h Distance 104 km</desc>
<time>2010-08-25T18:28:04.46</time>
<name>2361</name>
</trkpt>
<trkpt lat="49.539663" lon="8.688872">
<ele>389.5</ele>
<speed>56.5</speed>
<course>330.0</course>
<desc>Speed 56.5 km/h Distance 104 km</desc>
<time>2010-08-25T18:28:08.45</time>
<name>2362</name>
</trkpt>
<trkpt lat="49.539907" lon="8.688655">
<ele>389.5</ele>
<speed>56.5</speed>
<course>265.2</course>
<desc>Speed 56.5 km/h Distance 104 km</desc>
<time>2010-08-25T18:28:11.46</time>
<name>2363</name>
</trkpt>
<trkpt lat="49.539887" lon="8.688285">
<ele>389.5</ele>
<speed>56.5</speed>
<course>257.3</course>
<desc>Speed 56.5 km/h Distance 104 km</desc>
<time>2010-08-25T18:28:13.47</time>
<name>2364</name>
</trkpt>
<trkpt lat="49.539802" lon="8.687702">
<ele>389.5</ele>
<speed>56.5</speed>
<course>266.0</course>
<desc>Speed 56.5 km/h Distance 104 km</desc>
<time>2010-08-25T18:28:16.46</time>
<name>2365</name>
</trkpt>
<trkpt lat="49.539688" lon="8.685227">
<ele>389.0</ele>
<speed>54.8</speed>
<course>274.3</course>
<desc>Speed 54.8 km/h Distance 105 km</desc>
<time>2010-08-25T18:28:26.44</time>
<name>2366</name>
</trkpt>
<trkpt lat="49.539832" lon="8.682287">
<ele>388.0</ele>
<speed>1.4</speed>
<course>334.0</course>
<desc>Speed 1.4 km/h Distance 105 km</desc>
<time>2010-08-25T18:28:45.42</time>
<name>2367</name>
</trkpt>
<trkpt lat="49.541468" lon="8.681058">
<ele>379.0</ele>
<speed>53.5</speed>
<course>327.8</course>
<desc>Speed 53.5 km/h Distance 105 km</desc>
<time>2010-08-25T18:29:17.41</time>
<name>2368</name>
</trkpt>
<trkpt lat="49.542347" lon="8.680205">
<ele>368.0</ele>
<speed>53.5</speed>
<course>340.2</course>
<desc>Speed 53.5 km/h Distance 105 km</desc>
<time>2010-08-25T18:29:24.40</time>
<name>2369</name>
</trkpt>
<trkpt lat="49.543022" lon="8.679830">
<ele>363.0</ele>
<speed>53.5</speed>
<course>316.0</course>
<desc>Speed 53.5 km/h Distance 105 km</desc>
<time>2010-08-25T18:29:28.39</time>
<name>2370</name>
</trkpt>
<trkpt lat="49.543308" lon="8.679403">
<ele>343.0</ele>
<speed>53.5</speed>
<course>348.8</course>
<desc>Speed 53.5 km/h Distance 105 km</desc>
<time>2010-08-25T18:29:32.40</time>
<name>2371</name>
</trkpt>
<trkpt lat="49.544137" lon="8.679150">
<ele>337.0</ele>
<speed>53.5</speed>
<course>307.2</course>
<desc>Speed 53.5 km/h Distance 105 km</desc>
<time>2010-08-25T18:29:36.39</time>
<name>2372</name>
</trkpt>
<trkpt lat="49.544390" lon="8.678635">
<ele>334.5</ele>
<speed>53.5</speed>
<course>260.9</course>
<desc>Speed 53.5 km/h Distance 105 km</desc>
<time>2010-08-25T18:29:41.39</time>
<name>2373</name>
</trkpt>
<trkpt lat="49.544292" lon="8.677685">
<ele>334.0</ele>
<speed>53.5</speed>
<course>224.9</course>
<desc>Speed 53.5 km/h Distance 105 km</desc>
<time>2010-08-25T18:29:53.39</time>
<name>2374</name>
</trkpt>
<trkpt lat="49.543375" lon="8.676277">
<ele>333.0</ele>
<speed>33.3</speed>
<course>241.9</course>
<desc>Speed 33.3 km/h Distance 106 km</desc>
<time>2010-08-25T18:30:06.37</time>
<name>2375</name>
</trkpt>
<trkpt lat="49.543137" lon="8.675590">
<ele>321.0</ele>
<speed>33.3</speed>
<course>269.2</course>
<desc>Speed 33.3 km/h Distance 106 km</desc>
<time>2010-08-25T18:30:10.36</time>
<name>2376</name>
</trkpt>
<trkpt lat="49.543127" lon="8.674540">
<ele>319.0</ele>
<speed>33.3</speed>
<course>327.5</course>
<desc>Speed 33.3 km/h Distance 106 km</desc>
<time>2010-08-25T18:30:15.35</time>
<name>2377</name>
</trkpt>
<trkpt lat="49.543853" lon="8.673827">
<ele>315.5</ele>
<speed>33.3</speed>
<course>7.6</course>
<desc>Speed 33.3 km/h Distance 106 km</desc>
<time>2010-08-25T18:30:24.36</time>
<name>2378</name>
</trkpt>
<trkpt lat="49.544032" lon="8.673863">
<ele>315.0</ele>
<speed>33.3</speed>
<course>323.2</course>
<desc>Speed 33.3 km/h Distance 106 km</desc>
<time>2010-08-25T18:30:26.35</time>
<name>2379</name>
</trkpt>
<trkpt lat="49.544263" lon="8.673597">
<ele>314.5</ele>
<speed>33.3</speed>
<course>2.5</course>
<desc>Speed 33.3 km/h Distance 106 km</desc>
<time>2010-08-25T18:30:30.35</time>
<name>2380</name>
</trkpt>
<trkpt lat="49.544490" lon="8.673612">
<ele>314.0</ele>
<speed>33.3</speed>
<course>355.9</course>
<desc>Speed 33.3 km/h Distance 106 km</desc>
<time>2010-08-25T18:30:32.35</time>
<name>2381</name>
</trkpt>
<trkpt lat="49.544673" lon="8.673592">
<ele>314.0</ele>
<speed>33.3</speed>
<course>352.3</course>
<desc>Speed 33.3 km/h Distance 106 km</desc>
<time>2010-08-25T18:30:36.35</time>
<name>2382</name>
</trkpt>
<trkpt lat="49.546120" lon="8.673292">
<ele>314.5</ele>
<speed>33.3</speed>
<course>325.2</course>
<desc>Speed 33.3 km/h Distance 106 km</desc>
<time>2010-08-25T18:30:54.35</time>
<name>2383</name>
</trkpt>
<trkpt lat="49.546287" lon="8.673113">
<ele>314.0</ele>
<speed>33.3</speed>
<course>347.3</course>
<desc>Speed 33.3 km/h Distance 106 km</desc>
<time>2010-08-25T18:30:56.35</time>
<name>2384</name>
</trkpt>
<trkpt lat="49.546517" lon="8.673033">
<ele>314.0</ele>
<speed>33.3</speed>
<course>15.1</course>
<desc>Speed 33.3 km/h Distance 106 km</desc>
<time>2010-08-25T18:31:04.34</time>
<name>2385</name>
</trkpt>
<trkpt lat="49.549358" lon="8.674213">
<ele>310.5</ele>
<speed>33.3</speed>
<course>345.9</course>
<desc>Speed 33.3 km/h Distance 106 km</desc>
<time>2010-08-25T18:31:19.33</time>
<name>2386</name>
</trkpt>
<trkpt lat="49.549500" lon="8.674158">
<ele>308.0</ele>
<speed>33.3</speed>
<course>236.9</course>
<desc>Speed 33.3 km/h Distance 107 km</desc>
<time>2010-08-25T18:31:21.33</time>
<name>2387</name>
</trkpt>
<trkpt lat="49.549355" lon="8.673815">
<ele>304.5</ele>
<speed>33.3</speed>
<course>20.6</course>
<desc>Speed 33.3 km/h Distance 107 km</desc>
<time>2010-08-25T18:31:25.34</time>
<name>2388</name>
</trkpt>
<trkpt lat="49.549648" lon="8.673985">
<ele>295.5</ele>
<speed>33.3</speed>
<course>28.4</course>
<desc>Speed 33.3 km/h Distance 107 km</desc>
<time>2010-08-25T18:31:28.33</time>
<name>2389</name>
</trkpt>
<trkpt lat="49.550193" lon="8.674438">
<ele>289.5</ele>
<speed>32.9</speed>
<course>34.0</course>
<desc>Speed 32.9 km/h Distance 107 km</desc>
<time>2010-08-25T18:31:38.33</time>
<name>2390</name>
</trkpt>
<trkpt lat="49.550828" lon="8.675098">
<ele>287.5</ele>
<speed>32.9</speed>
<course>62.3</course>
<desc>Speed 32.9 km/h Distance 107 km</desc>
<time>2010-08-25T18:31:47.33</time>
<name>2391</name>
</trkpt>
<trkpt lat="49.550982" lon="8.675548">
<ele>285.5</ele>
<speed>32.9</speed>
<course>6.3</course>
<desc>Speed 32.9 km/h Distance 107 km</desc>
<time>2010-08-25T18:31:50.32</time>
<name>2392</name>
</trkpt>
<trkpt lat="49.551158" lon="8.675578">
<ele>284.5</ele>
<speed>32.9</speed>
<course>358.9</course>
<desc>Speed 32.9 km/h Distance 107 km</desc>
<time>2010-08-25T18:31:52.32</time>
<name>2393</name>
</trkpt>
<trkpt lat="49.551268" lon="8.675575">
<ele>282.5</ele>
<speed>32.9</speed>
<course>38.3</course>
<desc>Speed 32.9 km/h Distance 107 km</desc>
<time>2010-08-25T18:31:59.31</time>
<name>2394</name>
</trkpt>
<trkpt lat="49.551862" lon="8.676298">
<ele>279.0</ele>
<speed>32.9</speed>
<course>340.4</course>
<desc>Speed 32.9 km/h Distance 107 km</desc>
<time>2010-08-25T18:32:07.31</time>
<name>2395</name>
</trkpt>
<trkpt lat="49.553058" lon="8.675640">
<ele>278.5</ele>
<speed>32.9</speed>
<course>1.9</course>
<desc>Speed 32.9 km/h Distance 107 km</desc>
<time>2010-08-25T18:32:15.31</time>
<name>2396</name>
</trkpt>
<trkpt lat="49.553250" lon="8.675650">
<ele>278.0</ele>
<speed>27.6</speed>
<course>339.3</course>
<desc>Speed 27.6 km/h Distance 107 km</desc>
<time>2010-08-25T18:32:18.31</time>
<name>2397</name>
</trkpt>
<trkpt lat="49.553530" lon="8.675487">
<ele>271.5</ele>
<speed>27.6</speed>
<course>339.0</course>
<desc>Speed 27.6 km/h Distance 107 km</desc>
<time>2010-08-25T18:32:21.30</time>
<name>2398</name>
</trkpt>
<trkpt lat="49.554050" lon="8.675178">
<ele>267.0</ele>
<speed>27.6</speed>
<course>316.0</course>
<desc>Speed 27.6 km/h Distance 107 km</desc>
<time>2010-08-25T18:32:25.30</time>
<name>2399</name>
</trkpt>
<trkpt lat="49.554112" lon="8.675087">
<ele>266.5</ele>
<speed>27.6</speed>
<course>293.4</course>
<desc>Speed 27.6 km/h Distance 107 km</desc>
<time>2010-08-25T18:32:27.28</time>
<name>2400</name>
</trkpt>
<trkpt lat="49.554150" lon="8.674950">
<ele>266.0</ele>
<speed>27.6</speed>
<course>281.1</course>
<desc>Speed 27.6 km/h Distance 107 km</desc>
<time>2010-08-25T18:32:29.30</time>
<name>2401</name>
</trkpt>
<trkpt lat="49.554212" lon="8.674463">
<ele>262.5</ele>
<speed>27.6</speed>
<course>279.5</course>
<desc>Speed 27.6 km/h Distance 107 km</desc>
<time>2010-08-25T18:32:32.30</time>
<name>2402</name>
</trkpt>
<trkpt lat="49.554287" lon="8.673775">
<ele>260.0</ele>
<speed>27.6</speed>
<course>289.2</course>
<desc>Speed 27.6 km/h Distance 107 km</desc>
<time>2010-08-25T18:32:36.29</time>
<name>2403</name>
</trkpt>
<trkpt lat="49.554325" lon="8.673605">
<ele>259.5</ele>
<speed>27.6</speed>
<course>290.3</course>
<desc>Speed 27.6 km/h Distance 107 km</desc>
<time>2010-08-25T18:32:38.29</time>
<name>2404</name>
</trkpt>
<trkpt lat="49.554363" lon="8.673445">
<ele>258.5</ele>
<speed>27.6</speed>
<course>281.4</course>
<desc>Speed 27.6 km/h Distance 107 km</desc>
<time>2010-08-25T18:32:40.29</time>
<name>2405</name>
</trkpt>
<trkpt lat="49.554463" lon="8.672683">
<ele>257.0</ele>
<speed>27.6</speed>
<course>288.1</course>
<desc>Speed 27.6 km/h Distance 107 km</desc>
<time>2010-08-25T18:32:44.29</time>
<name>2406</name>
</trkpt>
<trkpt lat="49.554622" lon="8.671938">
<ele>256.5</ele>
<speed>45.4</speed>
<course>290.9</course>
<desc>Speed 45.4 km/h Distance 107 km</desc>
<time>2010-08-25T18:32:48.28</time>
<name>2407</name>
</trkpt>
<trkpt lat="49.554698" lon="8.671628">
<ele>256.5</ele>
<speed>45.4</speed>
<course>280.4</course>
<desc>Speed 45.4 km/h Distance 107 km</desc>
<time>2010-08-25T18:32:50.28</time>
<name>2408</name>
</trkpt>
<trkpt lat="49.554743" lon="8.671250">
<ele>255.0</ele>
<speed>45.4</speed>
<course>302.1</course>
<desc>Speed 45.4 km/h Distance 107 km</desc>
<time>2010-08-25T18:32:52.28</time>
<name>2409</name>
</trkpt>
<trkpt lat="49.554838" lon="8.671017">
<ele>254.5</ele>
<speed>45.4</speed>
<course>263.1</course>
<desc>Speed 45.4 km/h Distance 107 km</desc>
<time>2010-08-25T18:32:54.28</time>
<name>2410</name>
</trkpt>
<trkpt lat="49.554795" lon="8.670462">
<ele>251.5</ele>
<speed>6.7</speed>
<course>221.5</course>
<desc>Speed 6.7 km/h Distance 107 km</desc>
<time>2010-08-25T18:33:00.28</time>
<name>2411</name>
</trkpt>
<trkpt lat="49.554648" lon="8.670262">
<ele>249.5</ele>
<speed>0.8</speed>
<course>342.1</course>
<desc>Speed 0.8 km/h Distance 108 km</desc>
<time>2010-08-25T18:33:03.28</time>
<name>2412</name>
</trkpt>
<trkpt lat="49.554668" lon="8.670252">
<ele>247.0</ele>
<speed>1.2</speed>
<course>222.7</course>
<desc>Speed 1.2 km/h Distance 108 km</desc>
<time>2010-08-25T18:33:06.28</time>
<name>2413</name>
</trkpt>
<trkpt lat="49.554637" lon="8.670207">
<ele>245.5</ele>
<speed>2.4</speed>
<course>205.4</course>
<desc>Speed 2.4 km/h Distance 108 km</desc>
<time>2010-08-25T18:33:08.27</time>
<name>2414</name>
</trkpt>
<trkpt lat="49.554568" lon="8.670157">
<ele>244.0</ele>
<speed>2.9</speed>
<course>199.6</course>
<desc>Speed 2.9 km/h Distance 108 km</desc>
<time>2010-08-25T18:33:10.27</time>
<name>2415</name>
</trkpt>
<trkpt lat="49.554498" lon="8.670118">
<ele>243.5</ele>
<speed>1.4</speed>
<course>221.1</course>
<desc>Speed 1.4 km/h Distance 108 km</desc>
<time>2010-08-25T18:33:12.28</time>
<name>2416</name>
</trkpt>
<trkpt lat="49.554450" lon="8.670053">
<ele>243.0</ele>
<speed>1.7</speed>
<course>195.5</course>
<desc>Speed 1.7 km/h Distance 108 km</desc>
<time>2010-08-25T18:33:14.28</time>
<name>2417</name>
</trkpt>
<trkpt lat="49.554438" lon="8.670048">
<ele>243.0</ele>
<speed>1.7</speed>
<course>168.4</course>
<desc>Speed 1.7 km/h Distance 108 km</desc>
<time>2010-08-25T18:33:16.27</time>
<name>2418</name>
</trkpt>
<trkpt lat="49.554428" lon="8.670052">
<ele>243.0</ele>
<speed>1.7</speed>
<course>77.6</course>
<desc>Speed 1.7 km/h Distance 108 km</desc>
<time>2010-08-25T18:33:17.27</time>
<name>2419</name>
</trkpt>
<trkpt lat="49.554437" lon="8.670110">
<ele>242.5</ele>
<speed>1.7</speed>
<course>242.8</course>
<desc>Speed 1.7 km/h Distance 108 km</desc>
<time>2010-08-25T18:33:19.27</time>
<name>2420</name>
</trkpt>
<trkpt lat="49.554430" lon="8.670090">
<ele>242.5</ele>
<speed>1.7</speed>
<course>291.7</course>
<desc>Speed 1.7 km/h Distance 108 km</desc>
<time>2010-08-25T18:33:21.27</time>
<name>2421</name>
</trkpt>
<trkpt lat="49.554443" lon="8.670038">
<ele>242.0</ele>
<speed>1.7</speed>
<course>276.1</course>
<desc>Speed 1.7 km/h Distance 108 km</desc>
<time>2010-08-25T18:33:23.28</time>
<name>2422</name>
</trkpt>
<trkpt lat="49.554447" lon="8.669990">
<ele>241.0</ele>
<speed>1.7</speed>
<course>270.0</course>
<desc>Speed 1.7 km/h Distance 108 km</desc>
<time>2010-08-25T18:33:25.26</time>
<name>2423</name>
</trkpt>
<trkpt lat="49.554447" lon="8.669950">
<ele>240.0</ele>
<speed>1.7</speed>
<course>327.2</course>
<desc>Speed 1.7 km/h Distance 108 km</desc>
<time>2010-08-25T18:33:27.26</time>
<name>2424</name>
</trkpt>
<trkpt lat="49.554457" lon="8.669940">
<ele>239.5</ele>
<speed>0.8</speed>
<course>192.6</course>
<desc>Speed 0.8 km/h Distance 108 km</desc>
<time>2010-08-25T18:33:29.26</time>
<name>2425</name>
</trkpt>
<trkpt lat="49.554452" lon="8.669938">
<ele>239.5</ele>
<speed>0.8</speed>
<course>102.4</course>
<desc>Speed 0.8 km/h Distance 108 km</desc>
<time>2010-08-25T18:33:30.26</time>
<name>2426</name>
</trkpt>
<trkpt lat="49.554448" lon="8.669962">
<ele>239.5</ele>
<speed>0.8</speed>
<course>68.8</course>
<desc>Speed 0.8 km/h Distance 108 km</desc>
<time>2010-08-25T18:33:31.26</time>
<name>2427</name>
</trkpt>
<trkpt lat="49.554452" lon="8.669975">
<ele>239.5</ele>
<speed>0.8</speed>
<course>130.9</course>
<desc>Speed 0.8 km/h Distance 108 km</desc>
<time>2010-08-25T18:33:32.26</time>
<name>2428</name>
</trkpt>
<trkpt lat="49.554422" lon="8.670028">
<ele>239.0</ele>
<speed>0.8</speed>
<course>244.3</course>
<desc>Speed 0.8 km/h Distance 108 km</desc>
<time>2010-08-25T18:33:34.26</time>
<name>2429</name>
</trkpt>
<trkpt lat="49.554413" lon="8.670002">
<ele>239.0</ele>
<speed>0.8</speed>
<course>238.3</course>
<desc>Speed 0.8 km/h Distance 108 km</desc>
<time>2010-08-25T18:33:36.25</time>
<name>2430</name>
</trkpt>
<trkpt lat="49.554403" lon="8.669977">
<ele>239.0</ele>
<speed>0.8</speed>
<course>52.3</course>
<desc>Speed 0.8 km/h Distance 108 km</desc>
<time>2010-08-25T18:33:37.26</time>
<name>2431</name>
</trkpt>
<trkpt lat="49.554410" lon="8.669990">
<ele>239.0</ele>
<speed>0.8</speed>
<course>24.0</course>
<desc>Speed 0.8 km/h Distance 108 km</desc>
<time>2010-08-25T18:33:39.25</time>
<name>2432</name>
</trkpt>
<trkpt lat="49.554495" lon="8.670048">
<ele>238.5</ele>
<speed>0.8</speed>
<course>290.9</course>
<desc>Speed 0.8 km/h Distance 108 km</desc>
<time>2010-08-25T18:33:42.25</time>
<name>2433</name>
</trkpt>
<trkpt lat="49.554497" lon="8.670042">
<ele>238.5</ele>
<speed>0.8</speed>
<course>316.8</course>
<desc>Speed 0.8 km/h Distance 108 km</desc>
<time>2010-08-25T18:33:43.26</time>
<name>2434</name>
</trkpt>
<trkpt lat="49.554545" lon="8.669972">
<ele>238.5</ele>
<speed>0.8</speed>
<course>288.2</course>
<desc>Speed 0.8 km/h Distance 108 km</desc>
<time>2010-08-25T18:33:45.25</time>
<name>2435</name>
</trkpt>
<trkpt lat="49.554562" lon="8.669893">
<ele>238.5</ele>
<speed>0.8</speed>
<course>343.3</course>
<desc>Speed 0.8 km/h Distance 108 km</desc>
<time>2010-08-25T18:33:47.25</time>
<name>2436</name>
</trkpt>
<trkpt lat="49.554627" lon="8.669863">
<ele>238.0</ele>
<speed>0.8</speed>
<course>314.5</course>
<desc>Speed 0.8 km/h Distance 108 km</desc>
<time>2010-08-25T18:33:49.25</time>
<name>2437</name>
</trkpt>
<trkpt lat="49.554708" lon="8.669735">
<ele>237.5</ele>
<speed>0.8</speed>
<course>21.5</course>
<desc>Speed 0.8 km/h Distance 108 km</desc>
<time>2010-08-25T18:33:52.25</time>
<name>2438</name>
</trkpt>
<trkpt lat="49.554717" lon="8.669740">
<ele>237.0</ele>
<speed>0.8</speed>
<course>297.6</course>
<desc>Speed 0.8 km/h Distance 108 km</desc>
<time>2010-08-25T18:33:53.25</time>
<name>2439</name>
</trkpt>
<trkpt lat="49.554748" lon="8.669647">
<ele>236.5</ele>
<speed>0.8</speed>
<course>337.5</course>
<desc>Speed 0.8 km/h Distance 108 km</desc>
<time>2010-08-25T18:33:55.25</time>
<name>2440</name>
</trkpt>
<trkpt lat="49.554790" lon="8.669620">
<ele>235.5</ele>
<speed>0.8</speed>
<course>343.1</course>
<desc>Speed 0.8 km/h Distance 108 km</desc>
<time>2010-08-25T18:33:57.24</time>
<name>2441</name>
</trkpt>
<trkpt lat="49.555982" lon="8.669062">
<ele>235.5</ele>
<speed>0.8</speed>
<course>3.3</course>
<desc>Speed 0.8 km/h Distance 108 km</desc>
<time>2010-08-25T18:34:02.24</time>
<name>2442</name>
</trkpt>
<trkpt lat="49.556685" lon="8.669123">
<ele>229.5</ele>
<speed>0.8</speed>
<course>1.1</course>
<desc>Speed 0.8 km/h Distance 108 km</desc>
<time>2010-08-25T18:34:10.23</time>
<name>2443</name>
</trkpt>
<trkpt lat="49.558398" lon="8.669173">
<ele>229.0</ele>
<speed>41.0</speed>
<course>344.0</course>
<desc>Speed 41.0 km/h Distance 108 km</desc>
<time>2010-08-25T18:34:15.24</time>
<name>2444</name>
</trkpt>
<trkpt lat="49.558613" lon="8.669078">
<ele>228.5</ele>
<speed>40.1</speed>
<course>343.7</course>
<desc>Speed 40.1 km/h Distance 108 km</desc>
<time>2010-08-25T18:34:17.24</time>
<name>2445</name>
</trkpt>
<trkpt lat="49.558717" lon="8.669032">
<ele>228.0</ele>
<speed>42.0</speed>
<course>335.4</course>
<desc>Speed 42.0 km/h Distance 108 km</desc>
<time>2010-08-25T18:34:18.23</time>
<name>2446</name>
</trkpt>
<trkpt lat="49.558853" lon="8.668935">
<ele>227.5</ele>
<speed>42.0</speed>
<course>315.7</course>
<desc>Speed 42.0 km/h Distance 108 km</desc>
<time>2010-08-25T18:34:20.23</time>
<name>2447</name>
</trkpt>
<trkpt lat="49.559032" lon="8.668667">
<ele>227.0</ele>
<speed>36.0</speed>
<course>312.2</course>
<desc>Speed 36.0 km/h Distance 108 km</desc>
<time>2010-08-25T18:34:23.25</time>
<name>2448</name>
</trkpt>
<trkpt lat="49.559093" lon="8.668562">
<ele>226.5</ele>
<speed>36.0</speed>
<course>312.4</course>
<desc>Speed 36.0 km/h Distance 108 km</desc>
<time>2010-08-25T18:34:24.23</time>
<name>2449</name>
</trkpt>
<trkpt lat="49.559142" lon="8.668480">
<ele>226.5</ele>
<speed>36.0</speed>
<course>331.1</course>
<desc>Speed 36.0 km/h Distance 108 km</desc>
<time>2010-08-25T18:34:25.23</time>
<name>2450</name>
</trkpt>
<trkpt lat="49.559275" lon="8.668367">
<ele>226.0</ele>
<speed>42.7</speed>
<course>329.9</course>
<desc>Speed 42.7 km/h Distance 108 km</desc>
<time>2010-08-25T18:34:27.23</time>
<name>2451</name>
</trkpt>
<trkpt lat="49.559353" lon="8.668297">
<ele>226.0</ele>
<speed>42.7</speed>
<course>355.9</course>
<desc>Speed 42.7 km/h Distance 108 km</desc>
<time>2010-08-25T18:34:28.23</time>
<name>2452</name>
</trkpt>
<trkpt lat="49.559548" lon="8.668275">
<ele>225.5</ele>
<speed>34.7</speed>
<course>332.9</course>
<desc>Speed 34.7 km/h Distance 108 km</desc>
<time>2010-08-25T18:34:30.23</time>
<name>2453</name>
</trkpt>
<trkpt lat="49.559738" lon="8.668125">
<ele>225.0</ele>
<speed>42.7</speed>
<course>340.3</course>
<desc>Speed 42.7 km/h Distance 108 km</desc>
<time>2010-08-25T18:34:32.22</time>
<name>2454</name>
</trkpt>
<trkpt lat="49.559962" lon="8.668002">
<ele>224.5</ele>
<speed>39.4</speed>
<course>334.2</course>
<desc>Speed 39.4 km/h Distance 108 km</desc>
<time>2010-08-25T18:34:35.22</time>
<name>2455</name>
</trkpt>
<trkpt lat="49.560040" lon="8.667943">
<ele>224.5</ele>
<speed>39.4</speed>
<course>340.7</course>
<desc>Speed 39.4 km/h Distance 108 km</desc>
<time>2010-08-25T18:34:36.23</time>
<name>2456</name>
</trkpt>
<trkpt lat="49.560278" lon="8.667815">
<ele>224.0</ele>
<speed>41.6</speed>
<course>314.0</course>
<desc>Speed 41.6 km/h Distance 108 km</desc>
<time>2010-08-25T18:34:38.22</time>
<name>2457</name>
</trkpt>
<trkpt lat="49.560348" lon="8.667703">
<ele>224.0</ele>
<speed>35.0</speed>
<course>302.2</course>
<desc>Speed 35.0 km/h Distance 108 km</desc>
<time>2010-08-25T18:34:39.22</time>
<name>2458</name>
</trkpt>
<trkpt lat="49.560393" lon="8.667593">
<ele>224.0</ele>
<speed>35.0</speed>
<course>324.2</course>
<desc>Speed 35.0 km/h Distance 108 km</desc>
<time>2010-08-25T18:34:40.22</time>
<name>2459</name>
</trkpt>
<trkpt lat="49.560718" lon="8.667232">
<ele>223.5</ele>
<speed>44.1</speed>
<course>309.0</course>
<desc>Speed 44.1 km/h Distance 108 km</desc>
<time>2010-08-25T18:34:43.22</time>
<name>2460</name>
</trkpt>
<trkpt lat="49.560842" lon="8.666997">
<ele>223.0</ele>
<speed>44.1</speed>
<course>285.9</course>
<desc>Speed 44.1 km/h Distance 108 km</desc>
<time>2010-08-25T18:34:46.22</time>
<name>2461</name>
</trkpt>
<trkpt lat="49.560900" lon="8.666680">
<ele>222.0</ele>
<speed>44.1</speed>
<course>306.2</course>
<desc>Speed 44.1 km/h Distance 108 km</desc>
<time>2010-08-25T18:34:49.21</time>
<name>2462</name>
</trkpt>
<trkpt lat="49.561037" lon="8.666392">
<ele>221.5</ele>
<speed>31.1</speed>
<course>309.1</course>
<desc>Speed 31.1 km/h Distance 108 km</desc>
<time>2010-08-25T18:34:51.21</time>
<name>2463</name>
</trkpt>
<trkpt lat="49.561087" lon="8.666297">
<ele>221.5</ele>
<speed>31.1</speed>
<course>308.1</course>
<desc>Speed 31.1 km/h Distance 108 km</desc>
<time>2010-08-25T18:34:52.21</time>
<name>2464</name>
</trkpt>
<trkpt lat="49.561140" lon="8.666192">
<ele>221.5</ele>
<speed>30.3</speed>
<course>322.8</course>
<desc>Speed 30.3 km/h Distance 108 km</desc>
<time>2010-08-25T18:34:53.21</time>
<name>2465</name>
</trkpt>
<trkpt lat="49.561238" lon="8.666077">
<ele>221.5</ele>
<speed>40.6</speed>
<course>343.4</course>
<desc>Speed 40.6 km/h Distance 108 km</desc>
<time>2010-08-25T18:34:54.83</time>
<name>2466</name>
</trkpt>
<trkpt lat="49.562343" lon="8.665570">
<ele>221.5</ele>
<speed>59.3</speed>
<course>331.7</course>
<desc>Speed 59.3 km/h Distance 109 km</desc>
<time>2010-08-25T18:35:00.22</time>
<name>2467</name>
</trkpt>
<trkpt lat="49.562587" lon="8.665368">
<ele>221.5</ele>
<speed>59.3</speed>
<course>330.2</course>
<desc>Speed 59.3 km/h Distance 109 km</desc>
<time>2010-08-25T18:35:02.22</time>
<name>2468</name>
</trkpt>
<trkpt lat="49.562812" lon="8.665170">
<ele>220.5</ele>
<speed>55.4</speed>
<course>342.0</course>
<desc>Speed 55.4 km/h Distance 109 km</desc>
<time>2010-08-25T18:35:04.22</time>
<name>2469</name>
</trkpt>
<trkpt lat="49.563642" lon="8.664755">
<ele>216.5</ele>
<speed>45.0</speed>
<course>332.8</course>
<desc>Speed 45.0 km/h Distance 109 km</desc>
<time>2010-08-25T18:35:09.21</time>
<name>2470</name>
</trkpt>
<trkpt lat="49.563897" lon="8.664553">
<ele>216.0</ele>
<speed>45.0</speed>
<course>331.0</course>
<desc>Speed 45.0 km/h Distance 109 km</desc>
<time>2010-08-25T18:35:12.21</time>
<name>2471</name>
</trkpt>
<trkpt lat="49.564117" lon="8.664365">
<ele>212.0</ele>
<speed>45.0</speed>
<course>350.0</course>
<desc>Speed 45.0 km/h Distance 109 km</desc>
<time>2010-08-25T18:35:15.22</time>
<name>2472</name>
</trkpt>
<trkpt lat="49.564362" lon="8.664298">
<ele>210.5</ele>
<speed>51.1</speed>
<course>354.3</course>
<desc>Speed 51.1 km/h Distance 109 km</desc>
<time>2010-08-25T18:35:18.22</time>
<name>2473</name>
</trkpt>
<trkpt lat="49.565063" lon="8.664190">
<ele>212.0</ele>
<speed>58.5</speed>
<course>349.0</course>
<desc>Speed 58.5 km/h Distance 109 km</desc>
<time>2010-08-25T18:35:22.21</time>
<name>2474</name>
</trkpt>
<trkpt lat="49.565342" lon="8.664107">
<ele>209.5</ele>
<speed>58.5</speed>
<course>350.3</course>
<desc>Speed 58.5 km/h Distance 109 km</desc>
<time>2010-08-25T18:35:25.21</time>
<name>2475</name>
</trkpt>
<trkpt lat="49.565652" lon="8.664025">
<ele>207.5</ele>
<speed>56.4</speed>
<course>353.3</course>
<desc>Speed 56.4 km/h Distance 109 km</desc>
<time>2010-08-25T18:35:27.21</time>
<name>2476</name>
</trkpt>
<trkpt lat="49.565798" lon="8.663998">
<ele>206.5</ele>
<speed>56.4</speed>
<course>344.9</course>
<desc>Speed 56.4 km/h Distance 109 km</desc>
<time>2010-08-25T18:35:28.21</time>
<name>2477</name>
</trkpt>
<trkpt lat="49.566047" lon="8.663895">
<ele>203.0</ele>
<speed>56.4</speed>
<course>341.8</course>
<desc>Speed 56.4 km/h Distance 109 km</desc>
<time>2010-08-25T18:35:30.21</time>
<name>2478</name>
</trkpt>
<trkpt lat="49.566352" lon="8.663740">
<ele>198.0</ele>
<speed>56.4</speed>
<course>354.2</course>
<desc>Speed 56.4 km/h Distance 109 km</desc>
<time>2010-08-25T18:35:34.20</time>
<name>2479</name>
</trkpt>
<trkpt lat="49.566662" lon="8.663692">
<ele>194.0</ele>
<speed>51.6</speed>
<course>356.5</course>
<desc>Speed 51.6 km/h Distance 109 km</desc>
<time>2010-08-25T18:35:38.21</time>
<name>2480</name>
</trkpt>
<trkpt lat="49.566785" lon="8.663680">
<ele>193.5</ele>
<speed>51.6</speed>
<course>351.8</course>
<desc>Speed 51.6 km/h Distance 109 km</desc>
<time>2010-08-25T18:35:39.20</time>
<name>2481</name>
</trkpt>
<trkpt lat="49.566905" lon="8.663653">
<ele>192.5</ele>
<speed>51.6</speed>
<course>347.8</course>
<desc>Speed 51.6 km/h Distance 109 km</desc>
<time>2010-08-25T18:35:40.20</time>
<name>2482</name>
</trkpt>
<trkpt lat="49.567407" lon="8.663487">
<ele>184.5</ele>
<speed>51.6</speed>
<course>347.2</course>
<desc>Speed 51.6 km/h Distance 109 km</desc>
<time>2010-08-25T18:35:43.20</time>
<name>2483</name>
</trkpt>
<trkpt lat="49.567668" lon="8.663395">
<ele>179.5</ele>
<speed>51.6</speed>
<course>4.8</course>
<desc>Speed 51.6 km/h Distance 109 km</desc>
<time>2010-08-25T18:35:48.20</time>
<name>2484</name>
</trkpt>
<trkpt lat="49.567937" lon="8.663430">
<ele>178.5</ele>
<speed>51.6</speed>
<course>356.7</course>
<desc>Speed 51.6 km/h Distance 109 km</desc>
<time>2010-08-25T18:35:50.19</time>
<name>2485</name>
</trkpt>
<trkpt lat="49.568467" lon="8.663383">
<ele>179.5</ele>
<speed>18.7</speed>
<course>344.2</course>
<desc>Speed 18.7 km/h Distance 109 km</desc>
<time>2010-08-25T18:35:55.21</time>
<name>2486</name>
</trkpt>
<trkpt lat="49.568520" lon="8.663360">
<ele>179.5</ele>
<speed>18.7</speed>
<course>0.6</course>
<desc>Speed 18.7 km/h Distance 109 km</desc>
<time>2010-08-25T18:35:56.19</time>
<name>2487</name>
</trkpt>
<trkpt lat="49.568640" lon="8.663362">
<ele>179.0</ele>
<speed>8.9</speed>
<course>2.8</course>
<desc>Speed 8.9 km/h Distance 109 km</desc>
<time>2010-08-25T18:35:58.18</time>
<name>2488</name>
</trkpt>
<trkpt lat="49.569523" lon="8.663428">
<ele>181.0</ele>
<speed>0.3</speed>
<course>2.2</course>
<desc>Speed 0.3 km/h Distance 109 km</desc>
<time>2010-08-25T18:36:04.17</time>
<name>2489</name>
</trkpt>
<trkpt lat="49.569550" lon="8.663430">
<ele>180.5</ele>
<speed>0.5</speed>
<course>326.8</course>
<desc>Speed 0.5 km/h Distance 109 km</desc>
<time>2010-08-25T18:36:06.17</time>
<name>2490</name>
</trkpt>
<trkpt lat="49.569558" lon="8.663422">
<ele>180.0</ele>
<speed>0.7</speed>
<course>317.7</course>
<desc>Speed 0.7 km/h Distance 109 km</desc>
<time>2010-08-25T18:36:07.17</time>
<name>2491</name>
</trkpt>
<trkpt lat="49.569567" lon="8.663410">
<ele>180.0</ele>
<speed>0.8</speed>
<course>1.2</course>
<desc>Speed 0.8 km/h Distance 109 km</desc>
<time>2010-08-25T18:36:08.18</time>
<name>2492</name>
</trkpt>
<trkpt lat="49.569580" lon="8.663410">
<ele>179.5</ele>
<speed>0.1</speed>
<course>2.8</course>
<desc>Speed 0.1 km/h Distance 109 km</desc>
<time>2010-08-25T18:36:09.18</time>
<name>2493</name>
</trkpt>
<trkpt lat="49.569597" lon="8.663412">
<ele>179.5</ele>
<speed>0.5</speed>
<course>0.0</course>
<desc>Speed 0.5 km/h Distance 109 km</desc>
<time>2010-08-25T18:36:10.18</time>
<name>2494</name>
</trkpt>
<trkpt lat="49.569640" lon="8.663410">
<ele>178.5</ele>
<speed>0.3</speed>
<course>9.0</course>
<desc>Speed 0.3 km/h Distance 109 km</desc>
<time>2010-08-25T18:36:12.17</time>
<name>2495</name>
</trkpt>
<trkpt lat="49.569653" lon="8.663413">
<ele>179.0</ele>
<speed>0.1</speed>
<course>10.4</course>
<desc>Speed 0.1 km/h Distance 109 km</desc>
<time>2010-08-25T18:36:13.17</time>
<name>2496</name>
</trkpt>
<trkpt lat="49.569670" lon="8.663418">
<ele>179.0</ele>
<speed>2.6</speed>
<course>0.0</course>
<desc>Speed 2.6 km/h Distance 109 km</desc>
<time>2010-08-25T18:36:14.17</time>
<name>2497</name>
</trkpt>
<trkpt lat="49.569690" lon="8.663418">
<ele>179.0</ele>
<speed>0.8</speed>
<course>0.0</course>
<desc>Speed 0.8 km/h Distance 109 km</desc>
<time>2010-08-25T18:36:15.17</time>
<name>2498</name>
</trkpt>
<trkpt lat="49.569705" lon="8.663418">
<ele>178.5</ele>
<speed>1.7</speed>
<course>33.7</course>
<desc>Speed 1.7 km/h Distance 109 km</desc>
<time>2010-08-25T18:36:16.17</time>
<name>2499</name>
</trkpt>
<trkpt lat="49.569708" lon="8.663422">
<ele>178.5</ele>
<speed>1.2</speed>
<course>236.4</course>
<desc>Speed 1.2 km/h Distance 109 km</desc>
<time>2010-08-25T18:36:17.17</time>
<name>2500</name>
</trkpt>
<trkpt lat="49.569703" lon="8.663410">
<ele>178.0</ele>
<speed>5.9</speed>
<course>51.9</course>
<desc>Speed 5.9 km/h Distance 109 km</desc>
<time>2010-08-25T18:36:18.17</time>
<name>2501</name>
</trkpt>
<trkpt lat="49.569707" lon="8.663417">
<ele>178.0</ele>
<speed>2.2</speed>
<course>353.5</course>
<desc>Speed 2.2 km/h Distance 109 km</desc>
<time>2010-08-25T18:36:19.17</time>
<name>2502</name>
</trkpt>
<trkpt lat="49.569723" lon="8.663413">
<ele>177.5</ele>
<speed>4.2</speed>
<course>11.2</course>
<desc>Speed 4.2 km/h Distance 109 km</desc>
<time>2010-08-25T18:36:20.17</time>
<name>2503</name>
</trkpt>
<trkpt lat="49.569740" lon="8.663418">
<ele>176.5</ele>
<speed>4.2</speed>
<course>331.4</course>
<desc>Speed 4.2 km/h Distance 109 km</desc>
<time>2010-08-25T18:36:21.17</time>
<name>2504</name>
</trkpt>
<trkpt lat="49.569750" lon="8.663410">
<ele>176.5</ele>
<speed>4.2</speed>
<course>352.3</course>
<desc>Speed 4.2 km/h Distance 109 km</desc>
<time>2010-08-25T18:36:22.17</time>
<name>2505</name>
</trkpt>
<trkpt lat="49.569758" lon="8.663408">
<ele>176.0</ele>
<speed>4.2</speed>
<course>321.0</course>
<desc>Speed 4.2 km/h Distance 109 km</desc>
<time>2010-08-25T18:36:23.18</time>
<name>2506</name>
</trkpt>
<trkpt lat="49.569765" lon="8.663400">
<ele>176.0</ele>
<speed>4.2</speed>
<course>42.8</course>
<desc>Speed 4.2 km/h Distance 109 km</desc>
<time>2010-08-25T18:36:24.16</time>
<name>2507</name>
</trkpt>
<trkpt lat="49.569777" lon="8.663417">
<ele>175.0</ele>
<speed>4.2</speed>
<course>338.2</course>
<desc>Speed 4.2 km/h Distance 109 km</desc>
<time>2010-08-25T18:36:25.16</time>
<name>2508</name>
</trkpt>
<trkpt lat="49.569798" lon="8.663403">
<ele>174.5</ele>
<speed>4.2</speed>
<course>331.7</course>
<desc>Speed 4.2 km/h Distance 109 km</desc>
<time>2010-08-25T18:36:26.16</time>
<name>2509</name>
</trkpt>
<trkpt lat="49.569808" lon="8.663395">
<ele>174.5</ele>
<speed>4.2</speed>
<course>300.1</course>
<desc>Speed 4.2 km/h Distance 109 km</desc>
<time>2010-08-25T18:36:27.16</time>
<name>2510</name>
</trkpt>
<trkpt lat="49.569813" lon="8.663382">
<ele>174.5</ele>
<speed>4.2</speed>
<course>32.3</course>
<desc>Speed 4.2 km/h Distance 109 km</desc>
<time>2010-08-25T18:36:28.16</time>
<name>2511</name>
</trkpt>
<trkpt lat="49.569818" lon="8.663387">
<ele>174.0</ele>
<speed>4.2</speed>
<course>326.3</course>
<desc>Speed 4.2 km/h Distance 109 km</desc>
<time>2010-08-25T18:36:29.16</time>
<name>2512</name>
</trkpt>
<trkpt lat="49.569877" lon="8.663327">
<ele>174.0</ele>
<speed>4.2</speed>
<course>319.1</course>
<desc>Speed 4.2 km/h Distance 109 km</desc>
<time>2010-08-25T18:36:31.16</time>
<name>2513</name>
</trkpt>
<trkpt lat="49.569887" lon="8.663313">
<ele>174.0</ele>
<speed>4.2</speed>
<course>18.3</course>
<desc>Speed 4.2 km/h Distance 109 km</desc>
<time>2010-08-25T18:36:32.16</time>
<name>2514</name>
</trkpt>
<trkpt lat="49.570155" lon="8.663450">
<ele>175.0</ele>
<speed>4.2</speed>
<course>283.0</course>
<desc>Speed 4.2 km/h Distance 109 km</desc>
<time>2010-08-25T18:36:36.16</time>
<name>2515</name>
</trkpt>
<trkpt lat="49.570160" lon="8.663417">
<ele>175.5</ele>
<speed>4.2</speed>
<course>344.5</course>
<desc>Speed 4.2 km/h Distance 109 km</desc>
<time>2010-08-25T18:36:37.16</time>
<name>2516</name>
</trkpt>
<trkpt lat="49.571075" lon="8.663027">
<ele>176.5</ele>
<speed>25.6</speed>
<course>346.0</course>
<desc>Speed 25.6 km/h Distance 110 km</desc>
<time>2010-08-25T18:36:43.15</time>
<name>2517</name>
</trkpt>
<trkpt lat="49.571362" lon="8.662917">
<ele>178.0</ele>
<speed>17.3</speed>
<course>343.9</course>
<desc>Speed 17.3 km/h Distance 110 km</desc>
<time>2010-08-25T18:36:46.15</time>
<name>2518</name>
</trkpt>
<trkpt lat="49.571485" lon="8.662862">
<ele>173.5</ele>
<speed>17.4</speed>
<course>18.0</course>
<desc>Speed 17.4 km/h Distance 110 km</desc>
<time>2010-08-25T18:36:48.15</time>
<name>2519</name>
</trkpt>
<trkpt lat="49.571525" lon="8.662882">
<ele>172.5</ele>
<speed>17.4</speed>
<course>18.9</course>
<desc>Speed 17.4 km/h Distance 110 km</desc>
<time>2010-08-25T18:36:49.15</time>
<name>2520</name>
</trkpt>
<trkpt lat="49.571837" lon="8.663047">
<ele>169.5</ele>
<speed>40.6</speed>
<course>6.4</course>
<desc>Speed 40.6 km/h Distance 110 km</desc>
<time>2010-08-25T18:36:53.15</time>
<name>2521</name>
</trkpt>
<trkpt lat="49.571992" lon="8.663073">
<ele>168.5</ele>
<speed>40.6</speed>
<course>328.5</course>
<desc>Speed 40.6 km/h Distance 110 km</desc>
<time>2010-08-25T18:36:56.15</time>
<name>2522</name>
</trkpt>
<trkpt lat="49.572142" lon="8.662932">
<ele>167.5</ele>
<speed>40.6</speed>
<course>348.0</course>
<desc>Speed 40.6 km/h Distance 110 km</desc>
<time>2010-08-25T18:36:59.14</time>
<name>2523</name>
</trkpt>
<trkpt lat="49.572588" lon="8.662785">
<ele>167.0</ele>
<speed>47.1</speed>
<course>352.6</course>
<desc>Speed 47.1 km/h Distance 110 km</desc>
<time>2010-08-25T18:37:02.14</time>
<name>2524</name>
</trkpt>
<trkpt lat="49.572713" lon="8.662760">
<ele>166.5</ele>
<speed>47.1</speed>
<course>353.6</course>
<desc>Speed 47.1 km/h Distance 110 km</desc>
<time>2010-08-25T18:37:03.14</time>
<name>2525</name>
</trkpt>
<trkpt lat="49.573198" lon="8.662677">
<ele>166.5</ele>
<speed>51.2</speed>
<course>5.0</course>
<desc>Speed 51.2 km/h Distance 110 km</desc>
<time>2010-08-25T18:37:06.14</time>
<name>2526</name>
</trkpt>
<trkpt lat="49.573470" lon="8.662713">
<ele>167.5</ele>
<speed>51.2</speed>
<course>351.3</course>
<desc>Speed 51.2 km/h Distance 110 km</desc>
<time>2010-08-25T18:37:08.14</time>
<name>2527</name>
</trkpt>
<trkpt lat="49.573590" lon="8.662685">
<ele>168.5</ele>
<speed>51.2</speed>
<course>351.0</course>
<desc>Speed 51.2 km/h Distance 110 km</desc>
<time>2010-08-25T18:37:09.14</time>
<name>2528</name>
</trkpt>
<trkpt lat="49.573727" lon="8.662652">
<ele>169.0</ele>
<speed>51.2</speed>
<course>341.2</course>
<desc>Speed 51.2 km/h Distance 110 km</desc>
<time>2010-08-25T18:37:10.14</time>
<name>2529</name>
</trkpt>
<trkpt lat="49.574007" lon="8.662505">
<ele>171.0</ele>
<speed>51.2</speed>
<course>341.4</course>
<desc>Speed 51.2 km/h Distance 110 km</desc>
<time>2010-08-25T18:37:12.14</time>
<name>2530</name>
</trkpt>
<trkpt lat="49.574183" lon="8.662413">
<ele>172.5</ele>
<speed>51.2</speed>
<course>341.2</course>
<desc>Speed 51.2 km/h Distance 110 km</desc>
<time>2010-08-25T18:37:14.14</time>
<name>2531</name>
</trkpt>
<trkpt lat="49.574310" lon="8.662347">
<ele>173.5</ele>
<speed>51.2</speed>
<course>335.4</course>
<desc>Speed 51.2 km/h Distance 110 km</desc>
<time>2010-08-25T18:37:15.14</time>
<name>2532</name>
</trkpt>
<trkpt lat="49.574440" lon="8.662255">
<ele>174.5</ele>
<speed>51.2</speed>
<course>356.5</course>
<desc>Speed 51.2 km/h Distance 110 km</desc>
<time>2010-08-25T18:37:16.14</time>
<name>2533</name>
</trkpt>
<trkpt lat="49.574637" lon="8.662237">
<ele>175.5</ele>
<speed>39.4</speed>
<course>351.4</course>
<desc>Speed 39.4 km/h Distance 110 km</desc>
<time>2010-08-25T18:37:18.14</time>
<name>2534</name>
</trkpt>
<trkpt lat="49.574737" lon="8.662213">
<ele>176.0</ele>
<speed>39.4</speed>
<course>347.1</course>
<desc>Speed 39.4 km/h Distance 110 km</desc>
<time>2010-08-25T18:37:19.13</time>
<name>2535</name>
</trkpt>
<trkpt lat="49.574868" lon="8.662167">
<ele>176.5</ele>
<speed>39.4</speed>
<course>338.7</course>
<desc>Speed 39.4 km/h Distance 110 km</desc>
<time>2010-08-25T18:37:21.13</time>
<name>2536</name>
</trkpt>
<trkpt lat="49.575023" lon="8.662073">
<ele>176.0</ele>
<speed>39.4</speed>
<course>340.7</course>
<desc>Speed 39.4 km/h Distance 110 km</desc>
<time>2010-08-25T18:37:23.14</time>
<name>2537</name>
</trkpt>
<trkpt lat="49.575150" lon="8.662005">
<ele>176.0</ele>
<speed>39.4</speed>
<course>340.1</course>
<desc>Speed 39.4 km/h Distance 110 km</desc>
<time>2010-08-25T18:37:25.13</time>
<name>2538</name>
</trkpt>
<trkpt lat="49.575278" lon="8.661933">
<ele>176.0</ele>
<speed>39.4</speed>
<course>30.2</course>
<desc>Speed 39.4 km/h Distance 110 km</desc>
<time>2010-08-25T18:37:28.12</time>
<name>2539</name>
</trkpt>
<trkpt lat="49.575427" lon="8.662067">
<ele>175.0</ele>
<speed>1.8</speed>
<course>34.5</course>
<desc>Speed 1.8 km/h Distance 110 km</desc>
<time>2010-08-25T18:37:33.12</time>
<name>2540</name>
</trkpt>
<trkpt lat="49.575482" lon="8.662125">
<ele>172.0</ele>
<speed>1.8</speed>
<course>47.2</course>
<desc>Speed 1.8 km/h Distance 110 km</desc>
<time>2010-08-25T18:37:35.12</time>
<name>2541</name>
</trkpt>
<trkpt lat="49.575497" lon="8.662150">
<ele>171.5</ele>
<speed>1.8</speed>
<course>55.5</course>
<desc>Speed 1.8 km/h Distance 110 km</desc>
<time>2010-08-25T18:37:36.13</time>
<name>2542</name>
</trkpt>
<trkpt lat="49.575503" lon="8.662165">
<ele>171.0</ele>
<speed>1.8</speed>
<course>51.9</course>
<desc>Speed 1.8 km/h Distance 110 km</desc>
<time>2010-08-25T18:37:37.12</time>
<name>2543</name>
</trkpt>
<trkpt lat="49.575507" lon="8.662172">
<ele>170.5</ele>
<speed>1.8</speed>
<course>37.2</course>
<desc>Speed 1.8 km/h Distance 110 km</desc>
<time>2010-08-25T18:37:38.12</time>
<name>2544</name>
</trkpt>
<trkpt lat="49.575508" lon="8.662173">
<ele>170.5</ele>
<speed>1.8</speed>
<course>57.9</course>
<desc>Speed 1.8 km/h Distance 110 km</desc>
<time>2010-08-25T18:37:39.12</time>
<name>2545</name>
</trkpt>
<trkpt lat="49.575530" lon="8.662227">
<ele>169.5</ele>
<speed>1.8</speed>
<course>69.1</course>
<desc>Speed 1.8 km/h Distance 110 km</desc>
<time>2010-08-25T18:37:41.12</time>
<name>2546</name>
</trkpt>
<trkpt lat="49.575532" lon="8.662233">
<ele>169.0</ele>
<speed>1.8</speed>
<course>12.6</course>
<desc>Speed 1.8 km/h Distance 110 km</desc>
<time>2010-08-25T18:37:42.12</time>
<name>2547</name>
</trkpt>
<trkpt lat="49.575533" lon="8.662233">
<ele>169.0</ele>
<speed>1.8</speed>
<course>352.6</course>
<desc>Speed 1.8 km/h Distance 110 km</desc>
<time>2010-08-25T18:37:43.12</time>
<name>2548</name>
</trkpt>
<trkpt lat="49.575540" lon="8.662232">
<ele>168.5</ele>
<speed>1.8</speed>
<course>12.6</course>
<desc>Speed 1.8 km/h Distance 110 km</desc>
<time>2010-08-25T18:37:44.12</time>
<name>2549</name>
</trkpt>
<trkpt lat="49.575542" lon="8.662232">
<ele>168.5</ele>
<speed>1.8</speed>
<course>330.8</course>
<desc>Speed 1.8 km/h Distance 110 km</desc>
<time>2010-08-25T18:37:45.12</time>
<name>2550</name>
</trkpt>
<trkpt lat="49.575543" lon="8.662230">
<ele>168.0</ele>
<speed>1.8</speed>
<course>330.8</course>
<desc>Speed 1.8 km/h Distance 110 km</desc>
<time>2010-08-25T18:37:46.11</time>
<name>2551</name>
</trkpt>
<trkpt lat="49.575543" lon="8.662230">
<ele>168.0</ele>
<speed>1.8</speed>
<course>16.6</course>
<desc>Speed 1.8 km/h Distance 110 km</desc>
<time>2010-08-25T18:37:47.12</time>
<name>2552</name>
</trkpt>
<trkpt lat="49.575583" lon="8.662248">
<ele>168.0</ele>
<speed>1.8</speed>
<course>33.2</course>
<desc>Speed 1.8 km/h Distance 110 km</desc>
<time>2010-08-25T18:37:49.12</time>
<name>2553</name>
</trkpt>
<trkpt lat="49.575590" lon="8.662255">
<ele>168.5</ele>
<speed>1.8</speed>
<course>23.0</course>
<desc>Speed 1.8 km/h Distance 110 km</desc>
<time>2010-08-25T18:37:50.12</time>
<name>2554</name>
</trkpt>
<trkpt lat="49.575593" lon="8.662257">
<ele>168.5</ele>
<speed>1.8</speed>
<course>335.8</course>
<desc>Speed 1.8 km/h Distance 110 km</desc>
<time>2010-08-25T18:37:51.13</time>
<name>2555</name>
</trkpt>
<trkpt lat="49.575637" lon="8.662227">
<ele>168.5</ele>
<speed>1.8</speed>
<course>47.1</course>
<desc>Speed 1.8 km/h Distance 110 km</desc>
<time>2010-08-25T18:37:53.11</time>
<name>2556</name>
</trkpt>
<trkpt lat="49.575642" lon="8.662235">
<ele>169.0</ele>
<speed>1.8</speed>
<course>12.6</course>
<desc>Speed 1.8 km/h Distance 110 km</desc>
<time>2010-08-25T18:37:54.11</time>
<name>2557</name>
</trkpt>
<trkpt lat="49.575643" lon="8.662235">
<ele>169.0</ele>
<speed>1.8</speed>
<course>213.2</course>
<desc>Speed 1.8 km/h Distance 110 km</desc>
<time>2010-08-25T18:37:55.11</time>
<name>2558</name>
</trkpt>
<trkpt lat="49.575637" lon="8.662228">
<ele>168.5</ele>
<speed>1.8</speed>
<course>347.4</course>
<desc>Speed 1.8 km/h Distance 110 km</desc>
<time>2010-08-25T18:37:56.11</time>
<name>2559</name>
</trkpt>
<trkpt lat="49.575652" lon="8.662223">
<ele>168.5</ele>
<speed>1.8</speed>
<course>62.8</course>
<desc>Speed 1.8 km/h Distance 110 km</desc>
<time>2010-08-25T18:37:57.11</time>
<name>2560</name>
</trkpt>
<trkpt lat="49.575657" lon="8.662238">
<ele>168.5</ele>
<speed>1.8</speed>
<course>69.1</course>
<desc>Speed 1.8 km/h Distance 110 km</desc>
<time>2010-08-25T18:37:58.11</time>
<name>2561</name>
</trkpt>
<trkpt lat="49.575658" lon="8.662245">
<ele>168.5</ele>
<speed>1.8</speed>
<course>341.2</course>
<desc>Speed 1.8 km/h Distance 110 km</desc>
<time>2010-08-25T18:37:59.11</time>
<name>2562</name>
</trkpt>
<trkpt lat="49.575662" lon="8.662243">
<ele>168.5</ele>
<speed>1.8</speed>
<course>29.2</course>
<desc>Speed 1.8 km/h Distance 110 km</desc>
<time>2010-08-25T18:38:00.11</time>
<name>2563</name>
</trkpt>
<trkpt lat="49.575663" lon="8.662245">
<ele>168.5</ele>
<speed>1.8</speed>
<course>97.3</course>
<desc>Speed 1.8 km/h Distance 110 km</desc>
<time>2010-08-25T18:38:01.11</time>
<name>2564</name>
</trkpt>
<trkpt lat="49.575662" lon="8.662265">
<ele>168.5</ele>
<speed>1.8</speed>
<course>90.0</course>
<desc>Speed 1.8 km/h Distance 110 km</desc>
<time>2010-08-25T18:38:02.11</time>
<name>2565</name>
</trkpt>
<trkpt lat="49.575662" lon="8.662268">
<ele>168.5</ele>
<speed>1.8</speed>
<course>342.2</course>
<desc>Speed 1.8 km/h Distance 110 km</desc>
<time>2010-08-25T18:38:03.11</time>
<name>2566</name>
</trkpt>
<trkpt lat="49.575675" lon="8.662262">
<ele>168.0</ele>
<speed>1.8</speed>
<course>18.8</course>
<desc>Speed 1.8 km/h Distance 110 km</desc>
<time>2010-08-25T18:38:04.11</time>
<name>2567</name>
</trkpt>
<trkpt lat="49.575678" lon="8.662263">
<ele>168.0</ele>
<speed>1.8</speed>
<course>37.2</course>
<desc>Speed 1.8 km/h Distance 110 km</desc>
<time>2010-08-25T18:38:05.11</time>
<name>2568</name>
</trkpt>
<trkpt lat="49.575680" lon="8.662265">
<ele>168.0</ele>
<speed>1.8</speed>
<course>51.9</course>
<desc>Speed 1.8 km/h Distance 110 km</desc>
<time>2010-08-25T18:38:06.11</time>
<name>2569</name>
</trkpt>
<trkpt lat="49.575682" lon="8.662268">
<ele>168.0</ele>
<speed>1.8</speed>
<course>4.2</course>
<desc>Speed 1.8 km/h Distance 110 km</desc>
<time>2010-08-25T18:38:07.10</time>
<name>2570</name>
</trkpt>
<trkpt lat="49.575725" lon="8.662273">
<ele>167.5</ele>
<speed>1.8</speed>
<course>72.5</course>
<desc>Speed 1.8 km/h Distance 110 km</desc>
<time>2010-08-25T18:38:09.10</time>
<name>2571</name>
</trkpt>
<trkpt lat="49.575727" lon="8.662282">
<ele>167.5</ele>
<speed>1.8</speed>
<course>12.6</course>
<desc>Speed 1.8 km/h Distance 110 km</desc>
<time>2010-08-25T18:38:10.10</time>
<name>2572</name>
</trkpt>
<trkpt lat="49.575730" lon="8.662283">
<ele>167.5</ele>
<speed>1.8</speed>
<course>37.2</course>
<desc>Speed 1.8 km/h Distance 110 km</desc>
<time>2010-08-25T18:38:11.10</time>
<name>2573</name>
</trkpt>
<trkpt lat="49.575732" lon="8.662285">
<ele>167.5</ele>
<speed>1.8</speed>
<course>44.2</course>
<desc>Speed 1.8 km/h Distance 110 km</desc>
<time>2010-08-25T18:38:12.10</time>
<name>2574</name>
</trkpt>
<trkpt lat="49.575748" lon="8.662310">
<ele>167.5</ele>
<speed>1.8</speed>
<course>29.2</course>
<desc>Speed 1.8 km/h Distance 110 km</desc>
<time>2010-08-25T18:38:14.10</time>
<name>2575</name>
</trkpt>
<trkpt lat="49.575750" lon="8.662312">
<ele>167.0</ele>
<speed>1.8</speed>
<course>270.0</course>
<desc>Speed 1.8 km/h Distance 110 km</desc>
<time>2010-08-25T18:38:15.10</time>
<name>2576</name>
</trkpt>
<trkpt lat="49.575750" lon="8.662310">
<ele>167.0</ele>
<speed>1.8</speed>
<course>81.2</course>
<desc>Speed 1.8 km/h Distance 110 km</desc>
<time>2010-08-25T18:38:16.10</time>
<name>2577</name>
</trkpt>
<trkpt lat="49.575752" lon="8.662327">
<ele>167.0</ele>
<speed>1.8</speed>
<course>23.8</course>
<desc>Speed 1.8 km/h Distance 110 km</desc>
<time>2010-08-25T18:38:17.10</time>
<name>2578</name>
</trkpt>
<trkpt lat="49.575757" lon="8.662330">
<ele>166.5</ele>
<speed>1.8</speed>
<course>213.2</course>
<desc>Speed 1.8 km/h Distance 110 km</desc>
<time>2010-08-25T18:38:18.10</time>
<name>2579</name>
</trkpt>
<trkpt lat="49.575752" lon="8.662325">
<ele>166.5</ele>
<speed>1.8</speed>
<course>150.8</course>
<desc>Speed 1.8 km/h Distance 110 km</desc>
<time>2010-08-25T18:38:19.10</time>
<name>2580</name>
</trkpt>
<trkpt lat="49.575750" lon="8.662327">
<ele>166.5</ele>
<speed>1.8</speed>
<course>12.6</course>
<desc>Speed 1.8 km/h Distance 110 km</desc>
<time>2010-08-25T18:38:20.10</time>
<name>2581</name>
</trkpt>
<trkpt lat="49.575752" lon="8.662327">
<ele>166.5</ele>
<speed>1.8</speed>
<course>12.6</course>
<desc>Speed 1.8 km/h Distance 110 km</desc>
<time>2010-08-25T18:38:21.10</time>
<name>2582</name>
</trkpt>
<trkpt lat="49.575752" lon="8.662327">
<ele>166.5</ele>
<speed>1.8</speed>
<course>203.0</course>
<desc>Speed 1.8 km/h Distance 110 km</desc>
<time>2010-08-25T18:38:22.10</time>
<name>2583</name>
</trkpt>
<trkpt lat="49.575742" lon="8.662320">
<ele>166.5</ele>
<speed>1.8</speed>
<course>208.0</course>
<desc>Speed 1.8 km/h Distance 110 km</desc>
<time>2010-08-25T18:38:23.12</time>
<name>2584</name>
</trkpt>
<trkpt lat="49.575732" lon="8.662312">
<ele>166.5</ele>
<speed>1.8</speed>
<course>213.2</course>
<desc>Speed 1.8 km/h Distance 110 km</desc>
<time>2010-08-25T18:38:24.10</time>
<name>2585</name>
</trkpt>
<trkpt lat="49.575723" lon="8.662303">
<ele>166.5</ele>
<speed>1.8</speed>
<course>0.0</course>
<desc>Speed 1.8 km/h Distance 110 km</desc>
<time>2010-08-25T18:38:25.10</time>
<name>2586</name>
</trkpt>
<trkpt lat="49.575728" lon="8.662303">
<ele>166.5</ele>
<speed>1.8</speed>
<course>0.0</course>
<desc>Speed 1.8 km/h Distance 110 km</desc>
<time>2010-08-25T18:38:26.10</time>
<name>2587</name>
</trkpt>
<trkpt lat="49.575735" lon="8.662303">
<ele>166.5</ele>
<speed>1.8</speed>
<course>12.6</course>
<desc>Speed 1.8 km/h Distance 110 km</desc>
<time>2010-08-25T18:38:27.10</time>
<name>2588</name>
</trkpt>
<trkpt lat="49.575738" lon="8.662303">
<ele>166.5</ele>
<speed>1.8</speed>
<course>270.0</course>
<desc>Speed 1.8 km/h Distance 110 km</desc>
<time>2010-08-25T18:38:28.10</time>
<name>2589</name>
</trkpt>
<trkpt lat="49.575738" lon="8.662302">
<ele>166.5</ele>
<speed>1.8</speed>
<course>90.0</course>
<desc>Speed 1.8 km/h Distance 110 km</desc>
<time>2010-08-25T18:38:29.10</time>
<name>2590</name>
</trkpt>
<trkpt lat="49.575738" lon="8.662303">
<ele>166.5</ele>
<speed>1.8</speed>
<course>90.0</course>
<desc>Speed 1.8 km/h Distance 110 km</desc>
<time>2010-08-25T18:38:30.10</time>
<name>2591</name>
</trkpt>
<trkpt lat="49.575738" lon="8.662305">
<ele>166.5</ele>
<speed>1.8</speed>
<course>351.1</course>
<desc>Speed 1.8 km/h Distance 110 km</desc>
<time>2010-08-25T18:38:31.10</time>
<name>2592</name>
</trkpt>
<trkpt lat="49.575780" lon="8.662295">
<ele>166.5</ele>
<speed>1.8</speed>
<course>90.0</course>
<desc>Speed 1.8 km/h Distance 110 km</desc>
<time>2010-08-25T18:38:33.09</time>
<name>2593</name>
</trkpt>
<trkpt lat="49.575780" lon="8.662302">
<ele>166.5</ele>
<speed>1.8</speed>
<course>90.0</course>
<desc>Speed 1.8 km/h Distance 110 km</desc>
<time>2010-08-25T18:38:34.09</time>
<name>2594</name>
</trkpt>
<trkpt lat="49.575780" lon="8.662303">
<ele>166.5</ele>
<speed>1.9</speed>
<course>142.8</course>
<desc>Speed 1.9 km/h Distance 110 km</desc>
<time>2010-08-25T18:38:35.09</time>
<name>2595</name>
</trkpt>
<trkpt lat="49.575778" lon="8.662305">
<ele>166.5</ele>
<speed>1.9</speed>
<course>142.8</course>
<desc>Speed 1.9 km/h Distance 110 km</desc>
<time>2010-08-25T18:38:36.09</time>
<name>2596</name>
</trkpt>
<trkpt lat="49.575777" lon="8.662307">
<ele>166.5</ele>
<speed>1.9</speed>
<course>146.3</course>
<desc>Speed 1.9 km/h Distance 110 km</desc>
<time>2010-08-25T18:38:37.09</time>
<name>2597</name>
</trkpt>
<trkpt lat="49.575773" lon="8.662310">
<ele>166.5</ele>
<speed>1.9</speed>
<course>16.0</course>
<desc>Speed 1.9 km/h Distance 110 km</desc>
<time>2010-08-25T18:38:38.10</time>
<name>2598</name>
</trkpt>
<trkpt lat="49.575785" lon="8.662315">
<ele>166.5</ele>
<speed>1.9</speed>
<course>15.2</course>
<desc>Speed 1.9 km/h Distance 110 km</desc>
<time>2010-08-25T18:38:39.09</time>
<name>2599</name>
</trkpt>
<trkpt lat="49.575805" lon="8.662323">
<ele>166.5</ele>
<speed>1.9</speed>
<course>1.2</course>
<desc>Speed 1.9 km/h Distance 110 km</desc>
<time>2010-08-25T18:38:40.09</time>
<name>2600</name>
</trkpt>
<trkpt lat="49.575812" lon="8.662323">
<ele>166.5</ele>
<speed>1.9</speed>
<course>83.6</course>
<desc>Speed 1.9 km/h Distance 110 km</desc>
<time>2010-08-25T18:38:41.09</time>
<name>2601</name>
</trkpt>
<trkpt lat="49.575817" lon="8.662392">
<ele>166.5</ele>
<speed>1.9</speed>
<course>90.0</course>
<desc>Speed 1.9 km/h Distance 110 km</desc>
<time>2010-08-25T18:38:43.09</time>
<name>2602</name>
</trkpt>
<trkpt lat="49.575817" lon="8.662398">
<ele>166.5</ele>
<speed>1.9</speed>
<course>90.0</course>
<desc>Speed 1.9 km/h Distance 110 km</desc>
<time>2010-08-25T18:38:44.09</time>
<name>2603</name>
</trkpt>
<trkpt lat="49.575817" lon="8.662400">
<ele>166.5</ele>
<speed>1.9</speed>
<course>90.0</course>
<desc>Speed 1.9 km/h Distance 110 km</desc>
<time>2010-08-25T18:38:45.08</time>
<name>2604</name>
</trkpt>
<trkpt lat="49.575817" lon="8.662467">
<ele>166.5</ele>
<speed>1.9</speed>
<course>13.3</course>
<desc>Speed 1.9 km/h Distance 110 km</desc>
<time>2010-08-25T18:38:47.07</time>
<name>2605</name>
</trkpt>
<trkpt lat="49.575835" lon="8.662473">
<ele>166.5</ele>
<speed>1.9</speed>
<course>18.8</course>
<desc>Speed 1.9 km/h Distance 110 km</desc>
<time>2010-08-25T18:38:48.08</time>
<name>2606</name>
</trkpt>
<trkpt lat="49.575842" lon="8.662477">
<ele>166.5</ele>
<speed>1.9</speed>
<course>34.1</course>
<desc>Speed 1.9 km/h Distance 110 km</desc>
<time>2010-08-25T18:38:49.08</time>
<name>2607</name>
</trkpt>
<trkpt lat="49.575847" lon="8.662482">
<ele>166.5</ele>
<speed>1.9</speed>
<course>37.2</course>
<desc>Speed 1.9 km/h Distance 110 km</desc>
<time>2010-08-25T18:38:50.08</time>
<name>2608</name>
</trkpt>
<trkpt lat="49.575848" lon="8.662483">
<ele>166.5</ele>
<speed>1.9</speed>
<course>12.6</course>
<desc>Speed 1.9 km/h Distance 110 km</desc>
<time>2010-08-25T18:38:51.08</time>
<name>2609</name>
</trkpt>
<trkpt lat="49.575850" lon="8.662483">
<ele>166.5</ele>
<speed>1.9</speed>
<course>90.0</course>
<desc>Speed 1.9 km/h Distance 110 km</desc>
<time>2010-08-25T18:38:52.08</time>
<name>2610</name>
</trkpt>
<trkpt lat="49.575850" lon="8.662485">
<ele>166.5</ele>
<speed>1.9</speed>
<course>233.0</course>
<desc>Speed 1.9 km/h Distance 110 km</desc>
<time>2010-08-25T18:38:53.07</time>
<name>2611</name>
</trkpt>
<trkpt lat="49.575847" lon="8.662478">
<ele>166.5</ele>
<speed>1.9</speed>
<course>224.5</course>
<desc>Speed 1.9 km/h Distance 110 km</desc>
<time>2010-08-25T18:38:54.06</time>
<name>2612</name>
</trkpt>
<trkpt lat="49.575843" lon="8.662473">
<ele>166.5</ele>
<speed>1.9</speed>
<course>18.8</course>
<desc>Speed 1.9 km/h Distance 110 km</desc>
<time>2010-08-25T18:38:55.05</time>
<name>2613</name>
</trkpt>
<trkpt lat="49.575847" lon="8.662475">
<ele>166.5</ele>
<speed>1.9</speed>
<course>29.2</course>
<desc>Speed 1.9 km/h Distance 110 km</desc>
<time>2010-08-25T18:38:56.07</time>
<name>2614</name>
</trkpt>
<trkpt lat="49.575848" lon="8.662475">
<ele>166.5</ele>
<speed>1.9</speed>
<course>315.3</course>
<desc>Speed 1.9 km/h Distance 110 km</desc>
<time>2010-08-25T18:38:57.08</time>
<name>2615</name>
</trkpt>
<trkpt lat="49.575912" lon="8.662378">
<ele>166.5</ele>
<speed>1.9</speed>
<course>315.3</course>
<desc>Speed 1.9 km/h Distance 110 km</desc>
<time>2010-08-25T18:39:05.06</time>
<name>2616</name>
</trkpt>
</trkseg>
</trk>
</gpx>
